<?xml version="1.0" encoding="UTF-8" standalone="no" ?>
<gpx xmlns="http://www.topografix.com/GPX/1/1" xmlns:xsi="http://www.w3.org/2001/XMLSchema-instance" xsi:schemaLocation="http://www.topografix.com/GPX/1/1 http://www.topografix.com/GPX/1/1/gpx.xsd" version="1.1" creator="VisuGPX - https://www.visugpx.com">
  <metadata>
    <name>Dolomites jour 4</name>
    <desc><![CDATA[De trevisio jusqu\'a Postjona en Slovénie.]]></desc>
  </metadata>
  <trk>
    <name><![CDATA[Jour 4 - 30/07/2012]]></name>
    <trkseg>
      <trkpt lat="45.7005" lon="12.25864">
        <ele>3.02</ele>
        <time>2012-07-30T05:51:25Z</time>
      </trkpt>
      <trkpt lat="45.70054" lon="12.25865">
        <ele>3.02</ele>
        <time>2012-07-30T05:51:46Z</time>
      </trkpt>
      <trkpt lat="45.70053" lon="12.25859">
        <ele>3.02</ele>
        <time>2012-07-30T05:52:24Z</time>
      </trkpt>
      <trkpt lat="45.70055" lon="12.25872">
        <ele>3.5</ele>
        <time>2012-07-30T05:52:55Z</time>
      </trkpt>
      <trkpt lat="45.70057" lon="12.25871">
        <ele>3.5</ele>
        <time>2012-07-30T05:53:11Z</time>
      </trkpt>
      <trkpt lat="45.70054" lon="12.25863">
        <ele>4.46</ele>
        <time>2012-07-30T05:55:50Z</time>
      </trkpt>
      <trkpt lat="45.70054" lon="12.25864">
        <ele>4.46</ele>
        <time>2012-07-30T05:55:51Z</time>
      </trkpt>
      <trkpt lat="45.70054" lon="12.25866">
        <ele>4.46</ele>
        <time>2012-07-30T05:56:19Z</time>
      </trkpt>
      <trkpt lat="45.70055" lon="12.25869">
        <ele>3.5</ele>
        <time>2012-07-30T05:56:37Z</time>
      </trkpt>
      <trkpt lat="45.70055" lon="12.25868">
        <ele>3.5</ele>
        <time>2012-07-30T05:57:05Z</time>
      </trkpt>
      <trkpt lat="45.7004" lon="12.25881">
        <ele>-1.79</ele>
        <time>2012-07-30T06:59:12Z</time>
      </trkpt>
      <trkpt lat="45.70042" lon="12.25883">
        <ele>-1.79</ele>
        <time>2012-07-30T06:59:13Z</time>
      </trkpt>
      <trkpt lat="45.70049" lon="12.25888">
        <ele>-0.34</ele>
        <time>2012-07-30T06:59:33Z</time>
      </trkpt>
      <trkpt lat="45.7005" lon="12.25887">
        <ele>3.5</ele>
        <time>2012-07-30T06:59:37Z</time>
      </trkpt>
      <trkpt lat="45.70052" lon="12.25887">
        <ele>6.87</ele>
        <time>2012-07-30T06:59:41Z</time>
      </trkpt>
      <trkpt lat="45.70052" lon="12.25887">
        <ele>9.75</ele>
        <time>2012-07-30T06:59:45Z</time>
      </trkpt>
      <trkpt lat="45.70053" lon="12.25883">
        <ele>12.63</ele>
        <time>2012-07-30T06:59:50Z</time>
      </trkpt>
      <trkpt lat="45.70052" lon="12.25885">
        <ele>15.52</ele>
        <time>2012-07-30T06:59:57Z</time>
      </trkpt>
      <trkpt lat="45.70052" lon="12.25886">
        <ele>18.88</ele>
        <time>2012-07-30T07:00:04Z</time>
      </trkpt>
      <trkpt lat="45.70057" lon="12.25883">
        <ele>22.25</ele>
        <time>2012-07-30T07:00:24Z</time>
      </trkpt>
      <trkpt lat="45.70058" lon="12.25881">
        <ele>24.65</ele>
        <time>2012-07-30T07:00:39Z</time>
      </trkpt>
      <trkpt lat="45.70069" lon="12.25888">
        <ele>25.61</ele>
        <time>2012-07-30T07:00:44Z</time>
      </trkpt>
      <trkpt lat="45.7007" lon="12.25896">
        <ele>27.05</ele>
        <time>2012-07-30T07:00:57Z</time>
      </trkpt>
      <trkpt lat="45.70068" lon="12.25898">
        <ele>28.02</ele>
        <time>2012-07-30T07:01:17Z</time>
      </trkpt>
      <trkpt lat="45.70068" lon="12.25899">
        <ele>28.02</ele>
        <time>2012-07-30T07:01:28Z</time>
      </trkpt>
      <trkpt lat="45.70064" lon="12.259">
        <ele>28.5</ele>
        <time>2012-07-30T07:01:30Z</time>
      </trkpt>
      <trkpt lat="45.70057" lon="12.259">
        <ele>28.98</ele>
        <time>2012-07-30T07:01:31Z</time>
      </trkpt>
      <trkpt lat="45.6998" lon="12.25886">
        <ele>29.46</ele>
        <time>2012-07-30T07:01:38Z</time>
      </trkpt>
      <trkpt lat="45.69941" lon="12.25872">
        <ele>28.98</ele>
        <time>2012-07-30T07:01:42Z</time>
      </trkpt>
      <trkpt lat="45.69933" lon="12.25868">
        <ele>28.5</ele>
        <time>2012-07-30T07:01:43Z</time>
      </trkpt>
      <trkpt lat="45.69927" lon="12.25864">
        <ele>28.5</ele>
        <time>2012-07-30T07:01:44Z</time>
      </trkpt>
      <trkpt lat="45.69898" lon="12.25836">
        <ele>28.5</ele>
        <time>2012-07-30T07:01:49Z</time>
      </trkpt>
      <trkpt lat="45.69891" lon="12.25835">
        <ele>28.5</ele>
        <time>2012-07-30T07:01:50Z</time>
      </trkpt>
      <trkpt lat="45.69884" lon="12.25839">
        <ele>28.02</ele>
        <time>2012-07-30T07:01:51Z</time>
      </trkpt>
      <trkpt lat="45.69879" lon="12.25848">
        <ele>28.98</ele>
        <time>2012-07-30T07:01:52Z</time>
      </trkpt>
      <trkpt lat="45.69874" lon="12.25859">
        <ele>28.98</ele>
        <time>2012-07-30T07:01:53Z</time>
      </trkpt>
      <trkpt lat="45.69869" lon="12.25869">
        <ele>28.98</ele>
        <time>2012-07-30T07:01:54Z</time>
      </trkpt>
      <trkpt lat="45.69862" lon="12.25877">
        <ele>28.5</ele>
        <time>2012-07-30T07:01:55Z</time>
      </trkpt>
      <trkpt lat="45.69855" lon="12.25883">
        <ele>28.98</ele>
        <time>2012-07-30T07:01:56Z</time>
      </trkpt>
      <trkpt lat="45.69848" lon="12.25887">
        <ele>29.94</ele>
        <time>2012-07-30T07:01:57Z</time>
      </trkpt>
      <trkpt lat="45.6984" lon="12.25892">
        <ele>29.94</ele>
        <time>2012-07-30T07:01:58Z</time>
      </trkpt>
      <trkpt lat="45.6983" lon="12.25894">
        <ele>29.46</ele>
        <time>2012-07-30T07:01:59Z</time>
      </trkpt>
      <trkpt lat="45.69818" lon="12.25896">
        <ele>29.46</ele>
        <time>2012-07-30T07:02:00Z</time>
      </trkpt>
      <trkpt lat="45.69794" lon="12.25901">
        <ele>28.5</ele>
        <time>2012-07-30T07:02:03Z</time>
      </trkpt>
      <trkpt lat="45.69788" lon="12.25904">
        <ele>28.02</ele>
        <time>2012-07-30T07:02:04Z</time>
      </trkpt>
      <trkpt lat="45.69776" lon="12.25911">
        <ele>28.02</ele>
        <time>2012-07-30T07:02:06Z</time>
      </trkpt>
      <trkpt lat="45.6977" lon="12.25912">
        <ele>28.98</ele>
        <time>2012-07-30T07:02:07Z</time>
      </trkpt>
      <trkpt lat="45.69745" lon="12.25916">
        <ele>28.02</ele>
        <time>2012-07-30T07:02:11Z</time>
      </trkpt>
      <trkpt lat="45.69741" lon="12.25919">
        <ele>27.53</ele>
        <time>2012-07-30T07:02:12Z</time>
      </trkpt>
      <trkpt lat="45.69748" lon="12.25931">
        <ele>27.53</ele>
        <time>2012-07-30T07:02:19Z</time>
      </trkpt>
      <trkpt lat="45.69753" lon="12.25935">
        <ele>28.02</ele>
        <time>2012-07-30T07:02:30Z</time>
      </trkpt>
      <trkpt lat="45.69749" lon="12.2594">
        <ele>28.02</ele>
        <time>2012-07-30T07:03:03Z</time>
      </trkpt>
      <trkpt lat="45.69751" lon="12.25938">
        <ele>27.53</ele>
        <time>2012-07-30T07:03:26Z</time>
      </trkpt>
      <trkpt lat="45.69752" lon="12.25939">
        <ele>28.02</ele>
        <time>2012-07-30T07:03:38Z</time>
      </trkpt>
      <trkpt lat="45.69751" lon="12.25938">
        <ele>28.02</ele>
        <time>2012-07-30T07:04:09Z</time>
      </trkpt>
      <trkpt lat="45.69752" lon="12.2594">
        <ele>27.53</ele>
        <time>2012-07-30T07:04:44Z</time>
      </trkpt>
      <trkpt lat="45.69753" lon="12.2594">
        <ele>27.53</ele>
        <time>2012-07-30T07:04:56Z</time>
      </trkpt>
      <trkpt lat="45.69753" lon="12.25937">
        <ele>27.05</ele>
        <time>2012-07-30T07:05:23Z</time>
      </trkpt>
      <trkpt lat="45.69755" lon="12.25937">
        <ele>27.05</ele>
        <time>2012-07-30T07:06:00Z</time>
      </trkpt>
      <trkpt lat="45.69755" lon="12.25935">
        <ele>26.57</ele>
        <time>2012-07-30T07:06:29Z</time>
      </trkpt>
      <trkpt lat="45.69756" lon="12.25933">
        <ele>26.57</ele>
        <time>2012-07-30T07:06:47Z</time>
      </trkpt>
      <trkpt lat="45.69757" lon="12.2593">
        <ele>25.61</ele>
        <time>2012-07-30T07:07:21Z</time>
      </trkpt>
      <trkpt lat="45.69756" lon="12.25926">
        <ele>26.09</ele>
        <time>2012-07-30T07:07:57Z</time>
      </trkpt>
      <trkpt lat="45.69758" lon="12.25925">
        <ele>25.61</ele>
        <time>2012-07-30T07:08:28Z</time>
      </trkpt>
      <trkpt lat="45.69761" lon="12.25922">
        <ele>26.09</ele>
        <time>2012-07-30T07:09:04Z</time>
      </trkpt>
      <trkpt lat="45.69762" lon="12.25923">
        <ele>25.61</ele>
        <time>2012-07-30T07:09:36Z</time>
      </trkpt>
      <trkpt lat="45.69762" lon="12.25924">
        <ele>25.13</ele>
        <time>2012-07-30T07:09:50Z</time>
      </trkpt>
      <trkpt lat="45.69764" lon="12.25919">
        <ele>25.61</ele>
        <time>2012-07-30T07:09:52Z</time>
      </trkpt>
      <trkpt lat="45.69775" lon="12.25907">
        <ele>24.65</ele>
        <time>2012-07-30T07:09:58Z</time>
      </trkpt>
      <trkpt lat="45.69775" lon="12.25904">
        <ele>24.65</ele>
        <time>2012-07-30T07:10:04Z</time>
      </trkpt>
      <trkpt lat="45.69769" lon="12.25899">
        <ele>25.13</ele>
        <time>2012-07-30T07:10:06Z</time>
      </trkpt>
      <trkpt lat="45.69762" lon="12.25899">
        <ele>25.13</ele>
        <time>2012-07-30T07:10:07Z</time>
      </trkpt>
      <trkpt lat="45.69733" lon="12.25905">
        <ele>26.57</ele>
        <time>2012-07-30T07:10:10Z</time>
      </trkpt>
      <trkpt lat="45.69651" lon="12.2592">
        <ele>28.98</ele>
        <time>2012-07-30T07:10:17Z</time>
      </trkpt>
      <trkpt lat="45.69517" lon="12.25922">
        <ele>27.53</ele>
        <time>2012-07-30T07:10:27Z</time>
      </trkpt>
      <trkpt lat="45.69346" lon="12.25897">
        <ele>25.13</ele>
        <time>2012-07-30T07:10:41Z</time>
      </trkpt>
      <trkpt lat="45.69232" lon="12.25854">
        <ele>26.09</ele>
        <time>2012-07-30T07:10:51Z</time>
      </trkpt>
      <trkpt lat="45.69146" lon="12.25805">
        <ele>27.05</ele>
        <time>2012-07-30T07:10:58Z</time>
      </trkpt>
      <trkpt lat="45.69009" lon="12.2573">
        <ele>26.57</ele>
        <time>2012-07-30T07:11:09Z</time>
      </trkpt>
      <trkpt lat="45.68858" lon="12.25658">
        <ele>24.17</ele>
        <time>2012-07-30T07:11:22Z</time>
      </trkpt>
      <trkpt lat="45.68717" lon="12.25589">
        <ele>26.09</ele>
        <time>2012-07-30T07:11:33Z</time>
      </trkpt>
      <trkpt lat="45.68632" lon="12.2555">
        <ele>23.69</ele>
        <time>2012-07-30T07:11:40Z</time>
      </trkpt>
      <trkpt lat="45.68584" lon="12.2552">
        <ele>21.29</ele>
        <time>2012-07-30T07:11:45Z</time>
      </trkpt>
      <trkpt lat="45.68519" lon="12.25473">
        <ele>23.21</ele>
        <time>2012-07-30T07:11:53Z</time>
      </trkpt>
      <trkpt lat="45.68371" lon="12.25358">
        <ele>22.25</ele>
        <time>2012-07-30T07:12:08Z</time>
      </trkpt>
      <trkpt lat="45.68273" lon="12.25299">
        <ele>21.77</ele>
        <time>2012-07-30T07:12:18Z</time>
      </trkpt>
      <trkpt lat="45.68181" lon="12.25263">
        <ele>19.36</ele>
        <time>2012-07-30T07:12:28Z</time>
      </trkpt>
      <trkpt lat="45.68176" lon="12.25261">
        <ele>18.88</ele>
        <time>2012-07-30T07:12:30Z</time>
      </trkpt>
      <trkpt lat="45.68174" lon="12.25262">
        <ele>18.88</ele>
        <time>2012-07-30T07:12:42Z</time>
      </trkpt>
      <trkpt lat="45.68173" lon="12.25261">
        <ele>19.36</ele>
        <time>2012-07-30T07:13:11Z</time>
      </trkpt>
      <trkpt lat="45.68172" lon="12.25262">
        <ele>17.44</ele>
        <time>2012-07-30T07:13:27Z</time>
      </trkpt>
      <trkpt lat="45.6815" lon="12.25254">
        <ele>19.84</ele>
        <time>2012-07-30T07:13:33Z</time>
      </trkpt>
      <trkpt lat="45.68069" lon="12.25223">
        <ele>21.29</ele>
        <time>2012-07-30T07:13:41Z</time>
      </trkpt>
      <trkpt lat="45.67965" lon="12.25183">
        <ele>19.36</ele>
        <time>2012-07-30T07:13:50Z</time>
      </trkpt>
      <trkpt lat="45.67846" lon="12.25137">
        <ele>18.88</ele>
        <time>2012-07-30T07:14:01Z</time>
      </trkpt>
      <trkpt lat="45.67817" lon="12.25126">
        <ele>20.81</ele>
        <time>2012-07-30T07:14:04Z</time>
      </trkpt>
      <trkpt lat="45.67675" lon="12.25071">
        <ele>20.32</ele>
        <time>2012-07-30T07:14:17Z</time>
      </trkpt>
      <trkpt lat="45.67562" lon="12.25042">
        <ele>19.36</ele>
        <time>2012-07-30T07:14:26Z</time>
      </trkpt>
      <trkpt lat="45.67413" lon="12.25048">
        <ele>19.84</ele>
        <time>2012-07-30T07:14:39Z</time>
      </trkpt>
      <trkpt lat="45.67244" lon="12.25054">
        <ele>19.84</ele>
        <time>2012-07-30T07:14:53Z</time>
      </trkpt>
      <trkpt lat="45.67076" lon="12.2506">
        <ele>18.88</ele>
        <time>2012-07-30T07:15:07Z</time>
      </trkpt>
      <trkpt lat="45.67015" lon="12.25061">
        <ele>17.92</ele>
        <time>2012-07-30T07:15:14Z</time>
      </trkpt>
      <trkpt lat="45.6701" lon="12.25058">
        <ele>17.44</ele>
        <time>2012-07-30T07:15:15Z</time>
      </trkpt>
      <trkpt lat="45.67007" lon="12.25051">
        <ele>17.44</ele>
        <time>2012-07-30T07:15:16Z</time>
      </trkpt>
      <trkpt lat="45.67004" lon="12.25042">
        <ele>17.92</ele>
        <time>2012-07-30T07:15:17Z</time>
      </trkpt>
      <trkpt lat="45.67004" lon="12.2503">
        <ele>18.4</ele>
        <time>2012-07-30T07:15:18Z</time>
      </trkpt>
      <trkpt lat="45.67004" lon="12.25018">
        <ele>18.4</ele>
        <time>2012-07-30T07:15:19Z</time>
      </trkpt>
      <trkpt lat="45.67" lon="12.24923">
        <ele>17.92</ele>
        <time>2012-07-30T07:15:27Z</time>
      </trkpt>
      <trkpt lat="45.67" lon="12.2491">
        <ele>17.92</ele>
        <time>2012-07-30T07:15:29Z</time>
      </trkpt>
      <trkpt lat="45.67" lon="12.24904">
        <ele>17.92</ele>
        <time>2012-07-30T07:15:30Z</time>
      </trkpt>
      <trkpt lat="45.67" lon="12.24897">
        <ele>17.44</ele>
        <time>2012-07-30T07:15:31Z</time>
      </trkpt>
      <trkpt lat="45.66998" lon="12.24891">
        <ele>17.44</ele>
        <time>2012-07-30T07:15:32Z</time>
      </trkpt>
      <trkpt lat="45.66994" lon="12.24886">
        <ele>17.92</ele>
        <time>2012-07-30T07:15:33Z</time>
      </trkpt>
      <trkpt lat="45.66989" lon="12.24883">
        <ele>17.44</ele>
        <time>2012-07-30T07:15:34Z</time>
      </trkpt>
      <trkpt lat="45.66983" lon="12.24882">
        <ele>17.44</ele>
        <time>2012-07-30T07:15:35Z</time>
      </trkpt>
      <trkpt lat="45.66976" lon="12.24883">
        <ele>17.44</ele>
        <time>2012-07-30T07:15:36Z</time>
      </trkpt>
      <trkpt lat="45.6697" lon="12.24884">
        <ele>17.92</ele>
        <time>2012-07-30T07:15:37Z</time>
      </trkpt>
      <trkpt lat="45.66933" lon="12.24892">
        <ele>16.96</ele>
        <time>2012-07-30T07:15:44Z</time>
      </trkpt>
      <trkpt lat="45.6693" lon="12.24895">
        <ele>17.44</ele>
        <time>2012-07-30T07:15:45Z</time>
      </trkpt>
      <trkpt lat="45.66928" lon="12.24901">
        <ele>16.96</ele>
        <time>2012-07-30T07:15:46Z</time>
      </trkpt>
      <trkpt lat="45.66926" lon="12.24909">
        <ele>16.96</ele>
        <time>2012-07-30T07:15:47Z</time>
      </trkpt>
      <trkpt lat="45.66926" lon="12.24919">
        <ele>16.48</ele>
        <time>2012-07-30T07:15:48Z</time>
      </trkpt>
      <trkpt lat="45.66925" lon="12.24929">
        <ele>16.96</ele>
        <time>2012-07-30T07:15:49Z</time>
      </trkpt>
      <trkpt lat="45.66924" lon="12.25037">
        <ele>16</ele>
        <time>2012-07-30T07:15:59Z</time>
      </trkpt>
      <trkpt lat="45.66926" lon="12.25072">
        <ele>17.44</ele>
        <time>2012-07-30T07:16:05Z</time>
      </trkpt>
      <trkpt lat="45.66933" lon="12.25131">
        <ele>18.4</ele>
        <time>2012-07-30T07:16:11Z</time>
      </trkpt>
      <trkpt lat="45.66939" lon="12.25224">
        <ele>18.4</ele>
        <time>2012-07-30T07:16:18Z</time>
      </trkpt>
      <trkpt lat="45.6694" lon="12.25235">
        <ele>14.56</ele>
        <time>2012-07-30T07:16:19Z</time>
      </trkpt>
      <trkpt lat="45.66943" lon="12.25275">
        <ele>17.92</ele>
        <time>2012-07-30T07:16:23Z</time>
      </trkpt>
      <trkpt lat="45.66943" lon="12.25293">
        <ele>16.96</ele>
        <time>2012-07-30T07:16:25Z</time>
      </trkpt>
      <trkpt lat="45.6694" lon="12.253">
        <ele>16.96</ele>
        <time>2012-07-30T07:16:26Z</time>
      </trkpt>
      <trkpt lat="45.66936" lon="12.25305">
        <ele>17.92</ele>
        <time>2012-07-30T07:16:27Z</time>
      </trkpt>
      <trkpt lat="45.66931" lon="12.25308">
        <ele>16.96</ele>
        <time>2012-07-30T07:16:28Z</time>
      </trkpt>
      <trkpt lat="45.66925" lon="12.25312">
        <ele>14.56</ele>
        <time>2012-07-30T07:16:29Z</time>
      </trkpt>
      <trkpt lat="45.66919" lon="12.25315">
        <ele>15.52</ele>
        <time>2012-07-30T07:16:30Z</time>
      </trkpt>
      <trkpt lat="45.66908" lon="12.2532">
        <ele>16.48</ele>
        <time>2012-07-30T07:16:32Z</time>
      </trkpt>
      <trkpt lat="45.66878" lon="12.25339">
        <ele>16.96</ele>
        <time>2012-07-30T07:16:41Z</time>
      </trkpt>
      <trkpt lat="45.66869" lon="12.25363">
        <ele>18.4</ele>
        <time>2012-07-30T07:16:46Z</time>
      </trkpt>
      <trkpt lat="45.66868" lon="12.25371">
        <ele>17.92</ele>
        <time>2012-07-30T07:16:47Z</time>
      </trkpt>
      <trkpt lat="45.66868" lon="12.25382">
        <ele>17.44</ele>
        <time>2012-07-30T07:16:48Z</time>
      </trkpt>
      <trkpt lat="45.66871" lon="12.25392">
        <ele>16.48</ele>
        <time>2012-07-30T07:16:49Z</time>
      </trkpt>
      <trkpt lat="45.66876" lon="12.25403">
        <ele>16.48</ele>
        <time>2012-07-30T07:16:50Z</time>
      </trkpt>
      <trkpt lat="45.66882" lon="12.25411">
        <ele>16</ele>
        <time>2012-07-30T07:16:51Z</time>
      </trkpt>
      <trkpt lat="45.6689" lon="12.25417">
        <ele>16.48</ele>
        <time>2012-07-30T07:16:52Z</time>
      </trkpt>
      <trkpt lat="45.669" lon="12.25423">
        <ele>16.96</ele>
        <time>2012-07-30T07:16:53Z</time>
      </trkpt>
      <trkpt lat="45.66909" lon="12.25426">
        <ele>16.96</ele>
        <time>2012-07-30T07:16:54Z</time>
      </trkpt>
      <trkpt lat="45.66919" lon="12.25428">
        <ele>17.44</ele>
        <time>2012-07-30T07:16:55Z</time>
      </trkpt>
      <trkpt lat="45.66929" lon="12.25429">
        <ele>16.96</ele>
        <time>2012-07-30T07:16:56Z</time>
      </trkpt>
      <trkpt lat="45.66938" lon="12.25431">
        <ele>17.44</ele>
        <time>2012-07-30T07:16:57Z</time>
      </trkpt>
      <trkpt lat="45.66961" lon="12.2543">
        <ele>17.44</ele>
        <time>2012-07-30T07:16:59Z</time>
      </trkpt>
      <trkpt lat="45.66973" lon="12.25426">
        <ele>17.44</ele>
        <time>2012-07-30T07:17:00Z</time>
      </trkpt>
      <trkpt lat="45.66983" lon="12.2542">
        <ele>16.96</ele>
        <time>2012-07-30T07:17:01Z</time>
      </trkpt>
      <trkpt lat="45.6699" lon="12.25412">
        <ele>17.92</ele>
        <time>2012-07-30T07:17:02Z</time>
      </trkpt>
      <trkpt lat="45.66996" lon="12.25402">
        <ele>17.92</ele>
        <time>2012-07-30T07:17:03Z</time>
      </trkpt>
      <trkpt lat="45.67" lon="12.25389">
        <ele>17.44</ele>
        <time>2012-07-30T07:17:04Z</time>
      </trkpt>
      <trkpt lat="45.67003" lon="12.25376">
        <ele>17.92</ele>
        <time>2012-07-30T07:17:05Z</time>
      </trkpt>
      <trkpt lat="45.67004" lon="12.25362">
        <ele>18.4</ele>
        <time>2012-07-30T07:17:06Z</time>
      </trkpt>
      <trkpt lat="45.67005" lon="12.25347">
        <ele>17.44</ele>
        <time>2012-07-30T07:17:07Z</time>
      </trkpt>
      <trkpt lat="45.67005" lon="12.25332">
        <ele>17.44</ele>
        <time>2012-07-30T07:17:08Z</time>
      </trkpt>
      <trkpt lat="45.67006" lon="12.25162">
        <ele>16.96</ele>
        <time>2012-07-30T07:17:19Z</time>
      </trkpt>
      <trkpt lat="45.67005" lon="12.25099">
        <ele>16.48</ele>
        <time>2012-07-30T07:17:27Z</time>
      </trkpt>
      <trkpt lat="45.67006" lon="12.25093">
        <ele>16.48</ele>
        <time>2012-07-30T07:17:38Z</time>
      </trkpt>
      <trkpt lat="45.67003" lon="12.25025">
        <ele>17.92</ele>
        <time>2012-07-30T07:17:46Z</time>
      </trkpt>
      <trkpt lat="45.67005" lon="12.24922">
        <ele>17.44</ele>
        <time>2012-07-30T07:17:56Z</time>
      </trkpt>
      <trkpt lat="45.67007" lon="12.249">
        <ele>17.44</ele>
        <time>2012-07-30T07:18:04Z</time>
      </trkpt>
      <trkpt lat="45.67008" lon="12.24865">
        <ele>16.96</ele>
        <time>2012-07-30T07:18:14Z</time>
      </trkpt>
      <trkpt lat="45.67013" lon="12.24753">
        <ele>18.88</ele>
        <time>2012-07-30T07:18:22Z</time>
      </trkpt>
      <trkpt lat="45.67002" lon="12.24528">
        <ele>19.84</ele>
        <time>2012-07-30T07:18:36Z</time>
      </trkpt>
      <trkpt lat="45.6699" lon="12.24279">
        <ele>17.92</ele>
        <time>2012-07-30T07:18:52Z</time>
      </trkpt>
      <trkpt lat="45.66976" lon="12.24088">
        <ele>19.36</ele>
        <time>2012-07-30T07:19:04Z</time>
      </trkpt>
      <trkpt lat="45.66959" lon="12.2395">
        <ele>18.4</ele>
        <time>2012-07-30T07:19:14Z</time>
      </trkpt>
      <trkpt lat="45.66957" lon="12.23922">
        <ele>17.92</ele>
        <time>2012-07-30T07:19:22Z</time>
      </trkpt>
      <trkpt lat="45.66956" lon="12.23922">
        <ele>18.4</ele>
        <time>2012-07-30T07:19:32Z</time>
      </trkpt>
      <trkpt lat="45.66955" lon="12.23919">
        <ele>17.92</ele>
        <time>2012-07-30T07:19:33Z</time>
      </trkpt>
      <trkpt lat="45.66954" lon="12.23914">
        <ele>18.4</ele>
        <time>2012-07-30T07:19:34Z</time>
      </trkpt>
      <trkpt lat="45.66954" lon="12.23909">
        <ele>18.4</ele>
        <time>2012-07-30T07:19:35Z</time>
      </trkpt>
      <trkpt lat="45.66953" lon="12.23902">
        <ele>18.88</ele>
        <time>2012-07-30T07:19:36Z</time>
      </trkpt>
      <trkpt lat="45.66952" lon="12.23895">
        <ele>18.88</ele>
        <time>2012-07-30T07:19:37Z</time>
      </trkpt>
      <trkpt lat="45.66951" lon="12.23886">
        <ele>19.36</ele>
        <time>2012-07-30T07:19:38Z</time>
      </trkpt>
      <trkpt lat="45.6695" lon="12.23875">
        <ele>18.88</ele>
        <time>2012-07-30T07:19:39Z</time>
      </trkpt>
      <trkpt lat="45.66948" lon="12.23852">
        <ele>19.36</ele>
        <time>2012-07-30T07:19:41Z</time>
      </trkpt>
      <trkpt lat="45.66936" lon="12.23716">
        <ele>19.36</ele>
        <time>2012-07-30T07:19:52Z</time>
      </trkpt>
      <trkpt lat="45.66933" lon="12.23549">
        <ele>19.84</ele>
        <time>2012-07-30T07:20:03Z</time>
      </trkpt>
      <trkpt lat="45.66932" lon="12.23454">
        <ele>19.36</ele>
        <time>2012-07-30T07:20:09Z</time>
      </trkpt>
      <trkpt lat="45.6693" lon="12.23441">
        <ele>19.84</ele>
        <time>2012-07-30T07:20:10Z</time>
      </trkpt>
      <trkpt lat="45.66926" lon="12.23428">
        <ele>19.84</ele>
        <time>2012-07-30T07:20:11Z</time>
      </trkpt>
      <trkpt lat="45.6692" lon="12.23416">
        <ele>19.84</ele>
        <time>2012-07-30T07:20:12Z</time>
      </trkpt>
      <trkpt lat="45.66913" lon="12.23406">
        <ele>19.36</ele>
        <time>2012-07-30T07:20:13Z</time>
      </trkpt>
      <trkpt lat="45.66905" lon="12.23399">
        <ele>19.36</ele>
        <time>2012-07-30T07:20:14Z</time>
      </trkpt>
      <trkpt lat="45.66895" lon="12.23394">
        <ele>18.88</ele>
        <time>2012-07-30T07:20:15Z</time>
      </trkpt>
      <trkpt lat="45.66886" lon="12.23391">
        <ele>19.36</ele>
        <time>2012-07-30T07:20:16Z</time>
      </trkpt>
      <trkpt lat="45.66875" lon="12.2339">
        <ele>20.32</ele>
        <time>2012-07-30T07:20:17Z</time>
      </trkpt>
      <trkpt lat="45.66862" lon="12.23392">
        <ele>20.32</ele>
        <time>2012-07-30T07:20:18Z</time>
      </trkpt>
      <trkpt lat="45.66849" lon="12.23395">
        <ele>21.77</ele>
        <time>2012-07-30T07:20:19Z</time>
      </trkpt>
      <trkpt lat="45.66836" lon="12.23399">
        <ele>21.29</ele>
        <time>2012-07-30T07:20:20Z</time>
      </trkpt>
      <trkpt lat="45.66813" lon="12.23406">
        <ele>20.32</ele>
        <time>2012-07-30T07:20:22Z</time>
      </trkpt>
      <trkpt lat="45.66665" lon="12.2345">
        <ele>19.84</ele>
        <time>2012-07-30T07:20:36Z</time>
      </trkpt>
      <trkpt lat="45.66543" lon="12.23472">
        <ele>19.36</ele>
        <time>2012-07-30T07:20:48Z</time>
      </trkpt>
      <trkpt lat="45.66516" lon="12.2348">
        <ele>18.88</ele>
        <time>2012-07-30T07:20:51Z</time>
      </trkpt>
      <trkpt lat="45.66507" lon="12.23484">
        <ele>19.36</ele>
        <time>2012-07-30T07:20:52Z</time>
      </trkpt>
      <trkpt lat="45.66498" lon="12.23489">
        <ele>19.84</ele>
        <time>2012-07-30T07:20:53Z</time>
      </trkpt>
      <trkpt lat="45.66465" lon="12.23516">
        <ele>19.84</ele>
        <time>2012-07-30T07:20:57Z</time>
      </trkpt>
      <trkpt lat="45.66354" lon="12.23612">
        <ele>18.4</ele>
        <time>2012-07-30T07:21:09Z</time>
      </trkpt>
      <trkpt lat="45.66224" lon="12.23729">
        <ele>19.36</ele>
        <time>2012-07-30T07:21:22Z</time>
      </trkpt>
      <trkpt lat="45.66194" lon="12.23756">
        <ele>17.92</ele>
        <time>2012-07-30T07:21:25Z</time>
      </trkpt>
      <trkpt lat="45.66065" lon="12.23878">
        <ele>16.96</ele>
        <time>2012-07-30T07:21:39Z</time>
      </trkpt>
      <trkpt lat="45.66057" lon="12.23891">
        <ele>17.44</ele>
        <time>2012-07-30T07:21:40Z</time>
      </trkpt>
      <trkpt lat="45.66051" lon="12.23904">
        <ele>17.92</ele>
        <time>2012-07-30T07:21:41Z</time>
      </trkpt>
      <trkpt lat="45.66045" lon="12.23918">
        <ele>16.96</ele>
        <time>2012-07-30T07:21:42Z</time>
      </trkpt>
      <trkpt lat="45.6604" lon="12.23934">
        <ele>16.96</ele>
        <time>2012-07-30T07:21:43Z</time>
      </trkpt>
      <trkpt lat="45.66036" lon="12.2395">
        <ele>16.96</ele>
        <time>2012-07-30T07:21:44Z</time>
      </trkpt>
      <trkpt lat="45.66032" lon="12.23966">
        <ele>16.96</ele>
        <time>2012-07-30T07:21:45Z</time>
      </trkpt>
      <trkpt lat="45.66029" lon="12.23982">
        <ele>17.44</ele>
        <time>2012-07-30T07:21:46Z</time>
      </trkpt>
      <trkpt lat="45.66027" lon="12.23999">
        <ele>18.4</ele>
        <time>2012-07-30T07:21:47Z</time>
      </trkpt>
      <trkpt lat="45.66027" lon="12.24016">
        <ele>19.36</ele>
        <time>2012-07-30T07:21:48Z</time>
      </trkpt>
      <trkpt lat="45.66027" lon="12.24032">
        <ele>17.92</ele>
        <time>2012-07-30T07:21:49Z</time>
      </trkpt>
      <trkpt lat="45.66027" lon="12.24226">
        <ele>17.92</ele>
        <time>2012-07-30T07:22:02Z</time>
      </trkpt>
      <trkpt lat="45.66027" lon="12.24281">
        <ele>19.36</ele>
        <time>2012-07-30T07:22:06Z</time>
      </trkpt>
      <trkpt lat="45.66031" lon="12.24438">
        <ele>16.96</ele>
        <time>2012-07-30T07:22:18Z</time>
      </trkpt>
      <trkpt lat="45.66041" lon="12.24507">
        <ele>16</ele>
        <time>2012-07-30T07:22:26Z</time>
      </trkpt>
      <trkpt lat="45.66045" lon="12.24519">
        <ele>16.48</ele>
        <time>2012-07-30T07:22:36Z</time>
      </trkpt>
      <trkpt lat="45.66057" lon="12.24572">
        <ele>17.92</ele>
        <time>2012-07-30T07:22:44Z</time>
      </trkpt>
      <trkpt lat="45.66058" lon="12.24583">
        <ele>18.88</ele>
        <time>2012-07-30T07:22:45Z</time>
      </trkpt>
      <trkpt lat="45.66058" lon="12.24596">
        <ele>19.84</ele>
        <time>2012-07-30T07:22:46Z</time>
      </trkpt>
      <trkpt lat="45.6606" lon="12.24694">
        <ele>21.77</ele>
        <time>2012-07-30T07:22:53Z</time>
      </trkpt>
      <trkpt lat="45.66058" lon="12.24704">
        <ele>21.77</ele>
        <time>2012-07-30T07:22:54Z</time>
      </trkpt>
      <trkpt lat="45.66056" lon="12.24713">
        <ele>22.25</ele>
        <time>2012-07-30T07:22:55Z</time>
      </trkpt>
      <trkpt lat="45.66053" lon="12.24722">
        <ele>23.21</ele>
        <time>2012-07-30T07:22:56Z</time>
      </trkpt>
      <trkpt lat="45.66049" lon="12.24729">
        <ele>23.21</ele>
        <time>2012-07-30T07:22:57Z</time>
      </trkpt>
      <trkpt lat="45.66046" lon="12.24735">
        <ele>22.73</ele>
        <time>2012-07-30T07:22:58Z</time>
      </trkpt>
      <trkpt lat="45.66041" lon="12.24738">
        <ele>22.73</ele>
        <time>2012-07-30T07:22:59Z</time>
      </trkpt>
      <trkpt lat="45.66035" lon="12.24738">
        <ele>22.73</ele>
        <time>2012-07-30T07:23:00Z</time>
      </trkpt>
      <trkpt lat="45.6603" lon="12.24735">
        <ele>22.25</ele>
        <time>2012-07-30T07:23:01Z</time>
      </trkpt>
      <trkpt lat="45.66024" lon="12.24731">
        <ele>22.73</ele>
        <time>2012-07-30T07:23:02Z</time>
      </trkpt>
      <trkpt lat="45.65999" lon="12.24714">
        <ele>24.17</ele>
        <time>2012-07-30T07:23:05Z</time>
      </trkpt>
      <trkpt lat="45.6588" lon="12.24633">
        <ele>24.65</ele>
        <time>2012-07-30T07:23:16Z</time>
      </trkpt>
      <trkpt lat="45.65798" lon="12.24586">
        <ele>21.77</ele>
        <time>2012-07-30T07:23:23Z</time>
      </trkpt>
      <trkpt lat="45.65744" lon="12.24548">
        <ele>17.92</ele>
        <time>2012-07-30T07:23:28Z</time>
      </trkpt>
      <trkpt lat="45.65734" lon="12.2454">
        <ele>18.4</ele>
        <time>2012-07-30T07:23:29Z</time>
      </trkpt>
      <trkpt lat="45.65683" lon="12.24502">
        <ele>16.48</ele>
        <time>2012-07-30T07:23:35Z</time>
      </trkpt>
      <trkpt lat="45.65678" lon="12.24499">
        <ele>16.48</ele>
        <time>2012-07-30T07:23:36Z</time>
      </trkpt>
      <trkpt lat="45.65667" lon="12.2449">
        <ele>16.48</ele>
        <time>2012-07-30T07:23:44Z</time>
      </trkpt>
      <trkpt lat="45.6566" lon="12.24488">
        <ele>16</ele>
        <time>2012-07-30T07:23:50Z</time>
      </trkpt>
      <trkpt lat="45.65655" lon="12.24485">
        <ele>16.48</ele>
        <time>2012-07-30T07:23:51Z</time>
      </trkpt>
      <trkpt lat="45.65595" lon="12.24439">
        <ele>18.88</ele>
        <time>2012-07-30T07:23:58Z</time>
      </trkpt>
      <trkpt lat="45.65489" lon="12.24365">
        <ele>16.96</ele>
        <time>2012-07-30T07:24:08Z</time>
      </trkpt>
      <trkpt lat="45.65375" lon="12.24286">
        <ele>18.4</ele>
        <time>2012-07-30T07:24:20Z</time>
      </trkpt>
      <trkpt lat="45.6525" lon="12.24238">
        <ele>17.92</ele>
        <time>2012-07-30T07:24:31Z</time>
      </trkpt>
      <trkpt lat="45.65109" lon="12.24216">
        <ele>17.92</ele>
        <time>2012-07-30T07:24:44Z</time>
      </trkpt>
      <trkpt lat="45.65068" lon="12.24205">
        <ele>17.44</ele>
        <time>2012-07-30T07:24:49Z</time>
      </trkpt>
      <trkpt lat="45.65062" lon="12.24201">
        <ele>16.96</ele>
        <time>2012-07-30T07:24:50Z</time>
      </trkpt>
      <trkpt lat="45.65056" lon="12.24195">
        <ele>16.48</ele>
        <time>2012-07-30T07:24:51Z</time>
      </trkpt>
      <trkpt lat="45.65052" lon="12.24189">
        <ele>16</ele>
        <time>2012-07-30T07:24:52Z</time>
      </trkpt>
      <trkpt lat="45.65048" lon="12.2418">
        <ele>16</ele>
        <time>2012-07-30T07:24:53Z</time>
      </trkpt>
      <trkpt lat="45.65045" lon="12.24171">
        <ele>16.48</ele>
        <time>2012-07-30T07:24:54Z</time>
      </trkpt>
      <trkpt lat="45.65041" lon="12.24161">
        <ele>16.96</ele>
        <time>2012-07-30T07:24:55Z</time>
      </trkpt>
      <trkpt lat="45.65037" lon="12.2415">
        <ele>16.96</ele>
        <time>2012-07-30T07:24:56Z</time>
      </trkpt>
      <trkpt lat="45.65031" lon="12.24139">
        <ele>16.96</ele>
        <time>2012-07-30T07:24:57Z</time>
      </trkpt>
      <trkpt lat="45.65024" lon="12.2413">
        <ele>16.96</ele>
        <time>2012-07-30T07:24:58Z</time>
      </trkpt>
      <trkpt lat="45.65016" lon="12.24121">
        <ele>17.44</ele>
        <time>2012-07-30T07:24:59Z</time>
      </trkpt>
      <trkpt lat="45.65006" lon="12.24114">
        <ele>16.96</ele>
        <time>2012-07-30T07:25:00Z</time>
      </trkpt>
      <trkpt lat="45.64994" lon="12.2411">
        <ele>17.92</ele>
        <time>2012-07-30T07:25:01Z</time>
      </trkpt>
      <trkpt lat="45.64982" lon="12.2411">
        <ele>18.88</ele>
        <time>2012-07-30T07:25:02Z</time>
      </trkpt>
      <trkpt lat="45.64969" lon="12.24114">
        <ele>19.84</ele>
        <time>2012-07-30T07:25:03Z</time>
      </trkpt>
      <trkpt lat="45.64957" lon="12.24121">
        <ele>18.4</ele>
        <time>2012-07-30T07:25:04Z</time>
      </trkpt>
      <trkpt lat="45.64947" lon="12.24132">
        <ele>18.88</ele>
        <time>2012-07-30T07:25:05Z</time>
      </trkpt>
      <trkpt lat="45.64938" lon="12.24144">
        <ele>19.36</ele>
        <time>2012-07-30T07:25:06Z</time>
      </trkpt>
      <trkpt lat="45.64929" lon="12.24157">
        <ele>19.36</ele>
        <time>2012-07-30T07:25:07Z</time>
      </trkpt>
      <trkpt lat="45.64921" lon="12.2417">
        <ele>18.4</ele>
        <time>2012-07-30T07:25:08Z</time>
      </trkpt>
      <trkpt lat="45.6491" lon="12.24179">
        <ele>17.92</ele>
        <time>2012-07-30T07:25:09Z</time>
      </trkpt>
      <trkpt lat="45.64897" lon="12.24183">
        <ele>18.4</ele>
        <time>2012-07-30T07:25:10Z</time>
      </trkpt>
      <trkpt lat="45.64883" lon="12.24185">
        <ele>18.88</ele>
        <time>2012-07-30T07:25:11Z</time>
      </trkpt>
      <trkpt lat="45.6487" lon="12.24183">
        <ele>18.4</ele>
        <time>2012-07-30T07:25:12Z</time>
      </trkpt>
      <trkpt lat="45.64857" lon="12.24181">
        <ele>17.92</ele>
        <time>2012-07-30T07:25:13Z</time>
      </trkpt>
      <trkpt lat="45.64741" lon="12.24165">
        <ele>17.44</ele>
        <time>2012-07-30T07:25:22Z</time>
      </trkpt>
      <trkpt lat="45.6457" lon="12.24142">
        <ele>18.4</ele>
        <time>2012-07-30T07:25:35Z</time>
      </trkpt>
      <trkpt lat="45.64382" lon="12.24117">
        <ele>16.96</ele>
        <time>2012-07-30T07:25:50Z</time>
      </trkpt>
      <trkpt lat="45.64259" lon="12.24104">
        <ele>17.44</ele>
        <time>2012-07-30T07:26:00Z</time>
      </trkpt>
      <trkpt lat="45.64246" lon="12.24102">
        <ele>17.44</ele>
        <time>2012-07-30T07:26:01Z</time>
      </trkpt>
      <trkpt lat="45.64076" lon="12.24082">
        <ele>17.44</ele>
        <time>2012-07-30T07:26:14Z</time>
      </trkpt>
      <trkpt lat="45.63834" lon="12.24055">
        <ele>18.4</ele>
        <time>2012-07-30T07:26:32Z</time>
      </trkpt>
      <trkpt lat="45.63792" lon="12.2405">
        <ele>17.44</ele>
        <time>2012-07-30T07:26:35Z</time>
      </trkpt>
      <trkpt lat="45.63726" lon="12.24041">
        <ele>16.48</ele>
        <time>2012-07-30T07:26:40Z</time>
      </trkpt>
      <trkpt lat="45.63506" lon="12.24015">
        <ele>17.44</ele>
        <time>2012-07-30T07:26:56Z</time>
      </trkpt>
      <trkpt lat="45.63269" lon="12.23987">
        <ele>18.88</ele>
        <time>2012-07-30T07:27:11Z</time>
      </trkpt>
      <trkpt lat="45.63218" lon="12.23981">
        <ele>20.32</ele>
        <time>2012-07-30T07:27:14Z</time>
      </trkpt>
      <trkpt lat="45.62991" lon="12.23959">
        <ele>19.36</ele>
        <time>2012-07-30T07:27:28Z</time>
      </trkpt>
      <trkpt lat="45.62847" lon="12.23944">
        <ele>17.44</ele>
        <time>2012-07-30T07:27:38Z</time>
      </trkpt>
      <trkpt lat="45.6269" lon="12.23929">
        <ele>17.92</ele>
        <time>2012-07-30T07:27:51Z</time>
      </trkpt>
      <trkpt lat="45.62488" lon="12.23906">
        <ele>19.84</ele>
        <time>2012-07-30T07:28:06Z</time>
      </trkpt>
      <trkpt lat="45.62417" lon="12.23899">
        <ele>15.04</ele>
        <time>2012-07-30T07:28:11Z</time>
      </trkpt>
      <trkpt lat="45.62401" lon="12.23898">
        <ele>23.21</ele>
        <time>2012-07-30T07:28:12Z</time>
      </trkpt>
      <trkpt lat="45.62352" lon="12.23893">
        <ele>19.84</ele>
        <time>2012-07-30T07:28:15Z</time>
      </trkpt>
      <trkpt lat="45.62145" lon="12.23874">
        <ele>17.44</ele>
        <time>2012-07-30T07:28:28Z</time>
      </trkpt>
      <trkpt lat="45.61936" lon="12.23849">
        <ele>17.92</ele>
        <time>2012-07-30T07:28:41Z</time>
      </trkpt>
      <trkpt lat="45.61797" lon="12.23821">
        <ele>17.44</ele>
        <time>2012-07-30T07:28:51Z</time>
      </trkpt>
      <trkpt lat="45.61571" lon="12.23775">
        <ele>19.36</ele>
        <time>2012-07-30T07:29:07Z</time>
      </trkpt>
      <trkpt lat="45.61328" lon="12.23723">
        <ele>16.96</ele>
        <time>2012-07-30T07:29:23Z</time>
      </trkpt>
      <trkpt lat="45.61164" lon="12.23686">
        <ele>17.92</ele>
        <time>2012-07-30T07:29:34Z</time>
      </trkpt>
      <trkpt lat="45.60992" lon="12.23653">
        <ele>16.48</ele>
        <time>2012-07-30T07:29:45Z</time>
      </trkpt>
      <trkpt lat="45.60803" lon="12.23618">
        <ele>16.96</ele>
        <time>2012-07-30T07:29:58Z</time>
      </trkpt>
      <trkpt lat="45.60618" lon="12.23582">
        <ele>15.04</ele>
        <time>2012-07-30T07:30:12Z</time>
      </trkpt>
      <trkpt lat="45.60491" lon="12.23559">
        <ele>15.04</ele>
        <time>2012-07-30T07:30:24Z</time>
      </trkpt>
      <trkpt lat="45.60424" lon="12.23546">
        <ele>13.6</ele>
        <time>2012-07-30T07:30:35Z</time>
      </trkpt>
      <trkpt lat="45.60424" lon="12.23545">
        <ele>14.56</ele>
        <time>2012-07-30T07:30:47Z</time>
      </trkpt>
      <trkpt lat="45.60403" lon="12.23542">
        <ele>13.6</ele>
        <time>2012-07-30T07:31:02Z</time>
      </trkpt>
      <trkpt lat="45.60384" lon="12.23538">
        <ele>9.75</ele>
        <time>2012-07-30T07:31:05Z</time>
      </trkpt>
      <trkpt lat="45.60379" lon="12.23537">
        <ele>14.56</ele>
        <time>2012-07-30T07:31:06Z</time>
      </trkpt>
      <trkpt lat="45.60313" lon="12.23525">
        <ele>12.15</ele>
        <time>2012-07-30T07:31:16Z</time>
      </trkpt>
      <trkpt lat="45.60304" lon="12.23524">
        <ele>15.52</ele>
        <time>2012-07-30T07:31:17Z</time>
      </trkpt>
      <trkpt lat="45.60294" lon="12.23522">
        <ele>15.04</ele>
        <time>2012-07-30T07:31:18Z</time>
      </trkpt>
      <trkpt lat="45.60248" lon="12.23515">
        <ele>12.15</ele>
        <time>2012-07-30T07:31:23Z</time>
      </trkpt>
      <trkpt lat="45.6023" lon="12.23512">
        <ele>16.48</ele>
        <time>2012-07-30T07:31:25Z</time>
      </trkpt>
      <trkpt lat="45.60221" lon="12.23511">
        <ele>16.48</ele>
        <time>2012-07-30T07:31:26Z</time>
      </trkpt>
      <trkpt lat="45.60101" lon="12.23494">
        <ele>16.96</ele>
        <time>2012-07-30T07:31:36Z</time>
      </trkpt>
      <trkpt lat="45.59933" lon="12.23473">
        <ele>16.96</ele>
        <time>2012-07-30T07:31:48Z</time>
      </trkpt>
      <trkpt lat="45.59776" lon="12.23475">
        <ele>16.48</ele>
        <time>2012-07-30T07:31:59Z</time>
      </trkpt>
      <trkpt lat="45.59511" lon="12.23478">
        <ele>17.44</ele>
        <time>2012-07-30T07:32:16Z</time>
      </trkpt>
      <trkpt lat="45.59478" lon="12.23475">
        <ele>18.4</ele>
        <time>2012-07-30T07:32:18Z</time>
      </trkpt>
      <trkpt lat="45.59209" lon="12.23444">
        <ele>17.44</ele>
        <time>2012-07-30T07:32:34Z</time>
      </trkpt>
      <trkpt lat="45.58971" lon="12.23416">
        <ele>17.44</ele>
        <time>2012-07-30T07:32:48Z</time>
      </trkpt>
      <trkpt lat="45.58826" lon="12.234">
        <ele>16.96</ele>
        <time>2012-07-30T07:32:57Z</time>
      </trkpt>
      <trkpt lat="45.58641" lon="12.23378">
        <ele>17.92</ele>
        <time>2012-07-30T07:33:09Z</time>
      </trkpt>
      <trkpt lat="45.58609" lon="12.23374">
        <ele>16.96</ele>
        <time>2012-07-30T07:33:11Z</time>
      </trkpt>
      <trkpt lat="45.58374" lon="12.23347">
        <ele>16.48</ele>
        <time>2012-07-30T07:33:25Z</time>
      </trkpt>
      <trkpt lat="45.58111" lon="12.23318">
        <ele>16.48</ele>
        <time>2012-07-30T07:33:41Z</time>
      </trkpt>
      <trkpt lat="45.5792" lon="12.2331">
        <ele>21.29</ele>
        <time>2012-07-30T07:33:52Z</time>
      </trkpt>
      <trkpt lat="45.57782" lon="12.23305">
        <ele>19.36</ele>
        <time>2012-07-30T07:33:59Z</time>
      </trkpt>
      <trkpt lat="45.57763" lon="12.2331">
        <ele>19.36</ele>
        <time>2012-07-30T07:34:00Z</time>
      </trkpt>
      <trkpt lat="45.57745" lon="12.23318">
        <ele>19.36</ele>
        <time>2012-07-30T07:34:01Z</time>
      </trkpt>
      <trkpt lat="45.5757" lon="12.2343">
        <ele>18.4</ele>
        <time>2012-07-30T07:34:11Z</time>
      </trkpt>
      <trkpt lat="45.57471" lon="12.23482">
        <ele>16.96</ele>
        <time>2012-07-30T07:34:17Z</time>
      </trkpt>
      <trkpt lat="45.57316" lon="12.23494">
        <ele>15.04</ele>
        <time>2012-07-30T07:34:27Z</time>
      </trkpt>
      <trkpt lat="45.57279" lon="12.23497">
        <ele>13.6</ele>
        <time>2012-07-30T07:34:30Z</time>
      </trkpt>
      <trkpt lat="45.57268" lon="12.23498">
        <ele>14.56</ele>
        <time>2012-07-30T07:34:31Z</time>
      </trkpt>
      <trkpt lat="45.57166" lon="12.23504">
        <ele>15.04</ele>
        <time>2012-07-30T07:34:38Z</time>
      </trkpt>
      <trkpt lat="45.57118" lon="12.23506">
        <ele>16.48</ele>
        <time>2012-07-30T07:34:41Z</time>
      </trkpt>
      <trkpt lat="45.56906" lon="12.23519">
        <ele>13.6</ele>
        <time>2012-07-30T07:34:54Z</time>
      </trkpt>
      <trkpt lat="45.56704" lon="12.23522">
        <ele>14.56</ele>
        <time>2012-07-30T07:35:07Z</time>
      </trkpt>
      <trkpt lat="45.56532" lon="12.23514">
        <ele>13.6</ele>
        <time>2012-07-30T07:35:19Z</time>
      </trkpt>
      <trkpt lat="45.56419" lon="12.23508">
        <ele>13.6</ele>
        <time>2012-07-30T07:35:28Z</time>
      </trkpt>
      <trkpt lat="45.56353" lon="12.23504">
        <ele>11.19</ele>
        <time>2012-07-30T07:35:33Z</time>
      </trkpt>
      <trkpt lat="45.56277" lon="12.23503">
        <ele>10.71</ele>
        <time>2012-07-30T07:35:41Z</time>
      </trkpt>
      <trkpt lat="45.56229" lon="12.23499">
        <ele>10.23</ele>
        <time>2012-07-30T07:35:49Z</time>
      </trkpt>
      <trkpt lat="45.56164" lon="12.235">
        <ele>10.23</ele>
        <time>2012-07-30T07:35:59Z</time>
      </trkpt>
      <trkpt lat="45.56074" lon="12.23489">
        <ele>10.23</ele>
        <time>2012-07-30T07:36:10Z</time>
      </trkpt>
      <trkpt lat="45.55975" lon="12.23471">
        <ele>10.71</ele>
        <time>2012-07-30T07:36:22Z</time>
      </trkpt>
      <trkpt lat="45.55816" lon="12.2345">
        <ele>11.67</ele>
        <time>2012-07-30T07:36:35Z</time>
      </trkpt>
      <trkpt lat="45.55683" lon="12.23436">
        <ele>10.71</ele>
        <time>2012-07-30T07:36:45Z</time>
      </trkpt>
      <trkpt lat="45.55451" lon="12.23413">
        <ele>11.19</ele>
        <time>2012-07-30T07:37:01Z</time>
      </trkpt>
      <trkpt lat="45.55299" lon="12.23426">
        <ele>13.12</ele>
        <time>2012-07-30T07:37:11Z</time>
      </trkpt>
      <trkpt lat="45.55237" lon="12.23436">
        <ele>12.15</ele>
        <time>2012-07-30T07:37:15Z</time>
      </trkpt>
      <trkpt lat="45.55087" lon="12.23439">
        <ele>10.71</ele>
        <time>2012-07-30T07:37:25Z</time>
      </trkpt>
      <trkpt lat="45.54927" lon="12.23451">
        <ele>12.15</ele>
        <time>2012-07-30T07:37:36Z</time>
      </trkpt>
      <trkpt lat="45.54779" lon="12.23488">
        <ele>10.71</ele>
        <time>2012-07-30T07:37:47Z</time>
      </trkpt>
      <trkpt lat="45.54617" lon="12.23538">
        <ele>11.67</ele>
        <time>2012-07-30T07:37:59Z</time>
      </trkpt>
      <trkpt lat="45.54451" lon="12.23589">
        <ele>10.71</ele>
        <time>2012-07-30T07:38:11Z</time>
      </trkpt>
      <trkpt lat="45.54246" lon="12.23652">
        <ele>11.67</ele>
        <time>2012-07-30T07:38:25Z</time>
      </trkpt>
      <trkpt lat="45.54073" lon="12.23713">
        <ele>11.19</ele>
        <time>2012-07-30T07:38:37Z</time>
      </trkpt>
      <trkpt lat="45.53914" lon="12.23814">
        <ele>11.19</ele>
        <time>2012-07-30T07:38:48Z</time>
      </trkpt>
      <trkpt lat="45.53743" lon="12.23923">
        <ele>10.71</ele>
        <time>2012-07-30T07:39:00Z</time>
      </trkpt>
      <trkpt lat="45.53687" lon="12.2395">
        <ele>9.75</ele>
        <time>2012-07-30T07:39:04Z</time>
      </trkpt>
      <trkpt lat="45.53673" lon="12.23952">
        <ele>9.27</ele>
        <time>2012-07-30T07:39:05Z</time>
      </trkpt>
      <trkpt lat="45.53659" lon="12.23952">
        <ele>10.23</ele>
        <time>2012-07-30T07:39:06Z</time>
      </trkpt>
      <trkpt lat="45.53645" lon="12.23949">
        <ele>10.23</ele>
        <time>2012-07-30T07:39:07Z</time>
      </trkpt>
      <trkpt lat="45.53631" lon="12.23945">
        <ele>9.75</ele>
        <time>2012-07-30T07:39:08Z</time>
      </trkpt>
      <trkpt lat="45.53481" lon="12.23921">
        <ele>10.71</ele>
        <time>2012-07-30T07:39:18Z</time>
      </trkpt>
      <trkpt lat="45.53341" lon="12.23912">
        <ele>10.71</ele>
        <time>2012-07-30T07:39:26Z</time>
      </trkpt>
      <trkpt lat="45.53087" lon="12.23896">
        <ele>12.15</ele>
        <time>2012-07-30T07:39:40Z</time>
      </trkpt>
      <trkpt lat="45.52971" lon="12.23888">
        <ele>6.87</ele>
        <time>2012-07-30T07:39:48Z</time>
      </trkpt>
      <trkpt lat="45.52801" lon="12.23876">
        <ele>10.23</ele>
        <time>2012-07-30T07:40:04Z</time>
      </trkpt>
      <trkpt lat="45.52784" lon="12.23875">
        <ele>6.39</ele>
        <time>2012-07-30T07:40:06Z</time>
      </trkpt>
      <trkpt lat="45.52688" lon="12.23869">
        <ele>9.75</ele>
        <time>2012-07-30T07:40:15Z</time>
      </trkpt>
      <trkpt lat="45.52515" lon="12.23861">
        <ele>9.27</ele>
        <time>2012-07-30T07:40:27Z</time>
      </trkpt>
      <trkpt lat="45.52415" lon="12.23856">
        <ele>7.83</ele>
        <time>2012-07-30T07:40:36Z</time>
      </trkpt>
      <trkpt lat="45.52407" lon="12.23856">
        <ele>7.83</ele>
        <time>2012-07-30T07:40:37Z</time>
      </trkpt>
      <trkpt lat="45.52315" lon="12.23853">
        <ele>8.79</ele>
        <time>2012-07-30T07:40:45Z</time>
      </trkpt>
      <trkpt lat="45.52272" lon="12.23852">
        <ele>12.63</ele>
        <time>2012-07-30T07:40:48Z</time>
      </trkpt>
      <trkpt lat="45.52258" lon="12.23852">
        <ele>12.15</ele>
        <time>2012-07-30T07:40:49Z</time>
      </trkpt>
      <trkpt lat="45.52133" lon="12.23848">
        <ele>16</ele>
        <time>2012-07-30T07:40:57Z</time>
      </trkpt>
      <trkpt lat="45.52117" lon="12.23848">
        <ele>16</ele>
        <time>2012-07-30T07:40:58Z</time>
      </trkpt>
      <trkpt lat="45.51955" lon="12.23841">
        <ele>12.63</ele>
        <time>2012-07-30T07:41:08Z</time>
      </trkpt>
      <trkpt lat="45.5194" lon="12.23841">
        <ele>12.63</ele>
        <time>2012-07-30T07:41:09Z</time>
      </trkpt>
      <trkpt lat="45.51911" lon="12.23839">
        <ele>11.19</ele>
        <time>2012-07-30T07:41:11Z</time>
      </trkpt>
      <trkpt lat="45.51869" lon="12.23836">
        <ele>7.83</ele>
        <time>2012-07-30T07:41:14Z</time>
      </trkpt>
      <trkpt lat="45.51749" lon="12.23834">
        <ele>7.83</ele>
        <time>2012-07-30T07:41:23Z</time>
      </trkpt>
      <trkpt lat="45.517" lon="12.23829">
        <ele>6.87</ele>
        <time>2012-07-30T07:41:28Z</time>
      </trkpt>
      <trkpt lat="45.51692" lon="12.23825">
        <ele>7.35</ele>
        <time>2012-07-30T07:41:29Z</time>
      </trkpt>
      <trkpt lat="45.51685" lon="12.23819">
        <ele>7.35</ele>
        <time>2012-07-30T07:41:30Z</time>
      </trkpt>
      <trkpt lat="45.51673" lon="12.23806">
        <ele>7.35</ele>
        <time>2012-07-30T07:41:32Z</time>
      </trkpt>
      <trkpt lat="45.51646" lon="12.2382">
        <ele>6.39</ele>
        <time>2012-07-30T07:41:37Z</time>
      </trkpt>
      <trkpt lat="45.51621" lon="12.23829">
        <ele>5.91</ele>
        <time>2012-07-30T07:41:41Z</time>
      </trkpt>
      <trkpt lat="45.51607" lon="12.23829">
        <ele>7.35</ele>
        <time>2012-07-30T07:41:43Z</time>
      </trkpt>
      <trkpt lat="45.51575" lon="12.23827">
        <ele>7.35</ele>
        <time>2012-07-30T07:41:47Z</time>
      </trkpt>
      <trkpt lat="45.51557" lon="12.23828">
        <ele>5.91</ele>
        <time>2012-07-30T07:41:49Z</time>
      </trkpt>
      <trkpt lat="45.51536" lon="12.23828">
        <ele>7.35</ele>
        <time>2012-07-30T07:41:51Z</time>
      </trkpt>
      <trkpt lat="45.51411" lon="12.23821">
        <ele>9.27</ele>
        <time>2012-07-30T07:42:00Z</time>
      </trkpt>
      <trkpt lat="45.51177" lon="12.23818">
        <ele>10.23</ele>
        <time>2012-07-30T07:42:15Z</time>
      </trkpt>
      <trkpt lat="45.51016" lon="12.23818">
        <ele>10.71</ele>
        <time>2012-07-30T07:42:25Z</time>
      </trkpt>
      <trkpt lat="45.50896" lon="12.23816">
        <ele>8.31</ele>
        <time>2012-07-30T07:42:33Z</time>
      </trkpt>
      <trkpt lat="45.50831" lon="12.23814">
        <ele>5.42</ele>
        <time>2012-07-30T07:42:40Z</time>
      </trkpt>
      <trkpt lat="45.50823" lon="12.23813">
        <ele>5.42</ele>
        <time>2012-07-30T07:42:49Z</time>
      </trkpt>
      <trkpt lat="45.50823" lon="12.23814">
        <ele>5.42</ele>
        <time>2012-07-30T07:43:23Z</time>
      </trkpt>
      <trkpt lat="45.50823" lon="12.23813">
        <ele>5.42</ele>
        <time>2012-07-30T07:43:26Z</time>
      </trkpt>
      <trkpt lat="45.50818" lon="12.23813">
        <ele>5.91</ele>
        <time>2012-07-30T07:43:28Z</time>
      </trkpt>
      <trkpt lat="45.50813" lon="12.23813">
        <ele>5.91</ele>
        <time>2012-07-30T07:43:29Z</time>
      </trkpt>
      <trkpt lat="45.50806" lon="12.23813">
        <ele>6.39</ele>
        <time>2012-07-30T07:43:30Z</time>
      </trkpt>
      <trkpt lat="45.50797" lon="12.23812">
        <ele>6.87</ele>
        <time>2012-07-30T07:43:31Z</time>
      </trkpt>
      <trkpt lat="45.50698" lon="12.23802">
        <ele>8.79</ele>
        <time>2012-07-30T07:43:39Z</time>
      </trkpt>
      <trkpt lat="45.5055" lon="12.23788">
        <ele>8.79</ele>
        <time>2012-07-30T07:43:49Z</time>
      </trkpt>
      <trkpt lat="45.50433" lon="12.2378">
        <ele>9.27</ele>
        <time>2012-07-30T07:43:57Z</time>
      </trkpt>
      <trkpt lat="45.50375" lon="12.23775">
        <ele>6.87</ele>
        <time>2012-07-30T07:44:02Z</time>
      </trkpt>
      <trkpt lat="45.50335" lon="12.2377">
        <ele>4.94</ele>
        <time>2012-07-30T07:44:09Z</time>
      </trkpt>
      <trkpt lat="45.50336" lon="12.23773">
        <ele>5.42</ele>
        <time>2012-07-30T07:44:21Z</time>
      </trkpt>
      <trkpt lat="45.50309" lon="12.23772">
        <ele>6.39</ele>
        <time>2012-07-30T07:44:25Z</time>
      </trkpt>
      <trkpt lat="45.50302" lon="12.23774">
        <ele>6.39</ele>
        <time>2012-07-30T07:44:26Z</time>
      </trkpt>
      <trkpt lat="45.50296" lon="12.23777">
        <ele>6.39</ele>
        <time>2012-07-30T07:44:27Z</time>
      </trkpt>
      <trkpt lat="45.50291" lon="12.23783">
        <ele>6.87</ele>
        <time>2012-07-30T07:44:28Z</time>
      </trkpt>
      <trkpt lat="45.50287" lon="12.23792">
        <ele>6.87</ele>
        <time>2012-07-30T07:44:29Z</time>
      </trkpt>
      <trkpt lat="45.50282" lon="12.23805">
        <ele>7.35</ele>
        <time>2012-07-30T07:44:30Z</time>
      </trkpt>
      <trkpt lat="45.50278" lon="12.23819">
        <ele>7.83</ele>
        <time>2012-07-30T07:44:31Z</time>
      </trkpt>
      <trkpt lat="45.50273" lon="12.23834">
        <ele>7.83</ele>
        <time>2012-07-30T07:44:32Z</time>
      </trkpt>
      <trkpt lat="45.50268" lon="12.23848">
        <ele>8.31</ele>
        <time>2012-07-30T07:44:33Z</time>
      </trkpt>
      <trkpt lat="45.5024" lon="12.2391">
        <ele>12.15</ele>
        <time>2012-07-30T07:44:37Z</time>
      </trkpt>
      <trkpt lat="45.502" lon="12.23993">
        <ele>16</ele>
        <time>2012-07-30T07:44:42Z</time>
      </trkpt>
      <trkpt lat="45.50192" lon="12.24009">
        <ele>16</ele>
        <time>2012-07-30T07:44:43Z</time>
      </trkpt>
      <trkpt lat="45.50154" lon="12.24064">
        <ele>17.44</ele>
        <time>2012-07-30T07:44:47Z</time>
      </trkpt>
      <trkpt lat="45.50081" lon="12.24147">
        <ele>14.08</ele>
        <time>2012-07-30T07:44:53Z</time>
      </trkpt>
      <trkpt lat="45.50055" lon="12.24173">
        <ele>13.12</ele>
        <time>2012-07-30T07:44:55Z</time>
      </trkpt>
      <trkpt lat="45.49991" lon="12.24258">
        <ele>8.31</ele>
        <time>2012-07-30T07:45:01Z</time>
      </trkpt>
      <trkpt lat="45.4997" lon="12.24296">
        <ele>6.87</ele>
        <time>2012-07-30T07:45:04Z</time>
      </trkpt>
      <trkpt lat="45.49937" lon="12.24362">
        <ele>5.42</ele>
        <time>2012-07-30T07:45:10Z</time>
      </trkpt>
      <trkpt lat="45.49931" lon="12.24371">
        <ele>5.91</ele>
        <time>2012-07-30T07:45:11Z</time>
      </trkpt>
      <trkpt lat="45.49925" lon="12.2438">
        <ele>5.42</ele>
        <time>2012-07-30T07:45:12Z</time>
      </trkpt>
      <trkpt lat="45.49921" lon="12.24391">
        <ele>5.42</ele>
        <time>2012-07-30T07:45:13Z</time>
      </trkpt>
      <trkpt lat="45.49919" lon="12.24401">
        <ele>4.94</ele>
        <time>2012-07-30T07:45:14Z</time>
      </trkpt>
      <trkpt lat="45.49916" lon="12.24412">
        <ele>4.94</ele>
        <time>2012-07-30T07:45:15Z</time>
      </trkpt>
      <trkpt lat="45.49887" lon="12.24493">
        <ele>4.94</ele>
        <time>2012-07-30T07:45:24Z</time>
      </trkpt>
      <trkpt lat="45.4988" lon="12.2452">
        <ele>5.42</ele>
        <time>2012-07-30T07:45:27Z</time>
      </trkpt>
      <trkpt lat="45.49864" lon="12.24562">
        <ele>4.94</ele>
        <time>2012-07-30T07:45:35Z</time>
      </trkpt>
      <trkpt lat="45.49835" lon="12.24657">
        <ele>4.94</ele>
        <time>2012-07-30T07:45:47Z</time>
      </trkpt>
      <trkpt lat="45.49781" lon="12.24812">
        <ele>4.94</ele>
        <time>2012-07-30T07:46:02Z</time>
      </trkpt>
      <trkpt lat="45.49758" lon="12.24876">
        <ele>3.98</ele>
        <time>2012-07-30T07:46:09Z</time>
      </trkpt>
      <trkpt lat="45.49755" lon="12.24883">
        <ele>4.46</ele>
        <time>2012-07-30T07:46:10Z</time>
      </trkpt>
      <trkpt lat="45.49751" lon="12.24891">
        <ele>4.46</ele>
        <time>2012-07-30T07:46:11Z</time>
      </trkpt>
      <trkpt lat="45.49744" lon="12.24914">
        <ele>3.5</ele>
        <time>2012-07-30T07:46:17Z</time>
      </trkpt>
      <trkpt lat="45.49733" lon="12.24948">
        <ele>3.98</ele>
        <time>2012-07-30T07:46:23Z</time>
      </trkpt>
      <trkpt lat="45.49692" lon="12.25035">
        <ele>5.91</ele>
        <time>2012-07-30T07:46:30Z</time>
      </trkpt>
      <trkpt lat="45.49683" lon="12.25046">
        <ele>5.42</ele>
        <time>2012-07-30T07:46:31Z</time>
      </trkpt>
      <trkpt lat="45.49674" lon="12.25056">
        <ele>5.42</ele>
        <time>2012-07-30T07:46:32Z</time>
      </trkpt>
      <trkpt lat="45.49664" lon="12.25065">
        <ele>5.42</ele>
        <time>2012-07-30T07:46:33Z</time>
      </trkpt>
      <trkpt lat="45.49655" lon="12.25072">
        <ele>4.46</ele>
        <time>2012-07-30T07:46:34Z</time>
      </trkpt>
      <trkpt lat="45.49596" lon="12.25107">
        <ele>3.98</ele>
        <time>2012-07-30T07:46:41Z</time>
      </trkpt>
      <trkpt lat="45.49564" lon="12.25125">
        <ele>3.5</ele>
        <time>2012-07-30T07:46:47Z</time>
      </trkpt>
      <trkpt lat="45.49562" lon="12.25127">
        <ele>3.02</ele>
        <time>2012-07-30T07:46:57Z</time>
      </trkpt>
      <trkpt lat="45.49543" lon="12.25138">
        <ele>3.5</ele>
        <time>2012-07-30T07:47:15Z</time>
      </trkpt>
      <trkpt lat="45.49466" lon="12.25183">
        <ele>4.46</ele>
        <time>2012-07-30T07:47:25Z</time>
      </trkpt>
      <trkpt lat="45.49439" lon="12.25196">
        <ele>3.98</ele>
        <time>2012-07-30T07:47:29Z</time>
      </trkpt>
      <trkpt lat="45.49433" lon="12.25197">
        <ele>3.5</ele>
        <time>2012-07-30T07:47:30Z</time>
      </trkpt>
      <trkpt lat="45.49426" lon="12.25196">
        <ele>3.5</ele>
        <time>2012-07-30T07:47:31Z</time>
      </trkpt>
      <trkpt lat="45.4942" lon="12.25198">
        <ele>3.5</ele>
        <time>2012-07-30T07:47:32Z</time>
      </trkpt>
      <trkpt lat="45.49414" lon="12.25202">
        <ele>3.98</ele>
        <time>2012-07-30T07:47:33Z</time>
      </trkpt>
      <trkpt lat="45.49408" lon="12.25209">
        <ele>3.98</ele>
        <time>2012-07-30T07:47:34Z</time>
      </trkpt>
      <trkpt lat="45.49382" lon="12.25234">
        <ele>7.83</ele>
        <time>2012-07-30T07:47:37Z</time>
      </trkpt>
      <trkpt lat="45.493" lon="12.25275">
        <ele>6.87</ele>
        <time>2012-07-30T07:47:42Z</time>
      </trkpt>
      <trkpt lat="45.49162" lon="12.25355">
        <ele>7.83</ele>
        <time>2012-07-30T07:47:53Z</time>
      </trkpt>
      <trkpt lat="45.49042" lon="12.25479">
        <ele>6.39</ele>
        <time>2012-07-30T07:48:03Z</time>
      </trkpt>
      <trkpt lat="45.48945" lon="12.25586">
        <ele>5.91</ele>
        <time>2012-07-30T07:48:13Z</time>
      </trkpt>
      <trkpt lat="45.48814" lon="12.2573">
        <ele>5.91</ele>
        <time>2012-07-30T07:48:26Z</time>
      </trkpt>
      <trkpt lat="45.48786" lon="12.25762">
        <ele>4.46</ele>
        <time>2012-07-30T07:48:30Z</time>
      </trkpt>
      <trkpt lat="45.48768" lon="12.25778">
        <ele>3.98</ele>
        <time>2012-07-30T07:48:33Z</time>
      </trkpt>
      <trkpt lat="45.48762" lon="12.25779">
        <ele>3.5</ele>
        <time>2012-07-30T07:48:34Z</time>
      </trkpt>
      <trkpt lat="45.48756" lon="12.25774">
        <ele>3.5</ele>
        <time>2012-07-30T07:48:35Z</time>
      </trkpt>
      <trkpt lat="45.48751" lon="12.25765">
        <ele>3.5</ele>
        <time>2012-07-30T07:48:36Z</time>
      </trkpt>
      <trkpt lat="45.48747" lon="12.25755">
        <ele>3.98</ele>
        <time>2012-07-30T07:48:37Z</time>
      </trkpt>
      <trkpt lat="45.48701" lon="12.25651">
        <ele>4.46</ele>
        <time>2012-07-30T07:48:46Z</time>
      </trkpt>
      <trkpt lat="45.48673" lon="12.25591">
        <ele>3.5</ele>
        <time>2012-07-30T07:48:55Z</time>
      </trkpt>
      <trkpt lat="45.48669" lon="12.25585">
        <ele>3.98</ele>
        <time>2012-07-30T07:49:04Z</time>
      </trkpt>
      <trkpt lat="45.48656" lon="12.25558">
        <ele>3.98</ele>
        <time>2012-07-30T07:49:11Z</time>
      </trkpt>
      <trkpt lat="45.48606" lon="12.25452">
        <ele>6.39</ele>
        <time>2012-07-30T07:49:19Z</time>
      </trkpt>
      <trkpt lat="45.48542" lon="12.2532">
        <ele>4.94</ele>
        <time>2012-07-30T07:49:29Z</time>
      </trkpt>
      <trkpt lat="45.4854" lon="12.25315">
        <ele>4.94</ele>
        <time>2012-07-30T07:49:36Z</time>
      </trkpt>
      <trkpt lat="45.48542" lon="12.25314">
        <ele>4.94</ele>
        <time>2012-07-30T07:50:10Z</time>
      </trkpt>
      <trkpt lat="45.48534" lon="12.25296">
        <ele>6.87</ele>
        <time>2012-07-30T07:50:33Z</time>
      </trkpt>
      <trkpt lat="45.48499" lon="12.25205">
        <ele>6.87</ele>
        <time>2012-07-30T07:50:40Z</time>
      </trkpt>
      <trkpt lat="45.48494" lon="12.2519">
        <ele>6.39</ele>
        <time>2012-07-30T07:50:41Z</time>
      </trkpt>
      <trkpt lat="45.48465" lon="12.25122">
        <ele>5.91</ele>
        <time>2012-07-30T07:50:46Z</time>
      </trkpt>
      <trkpt lat="45.48457" lon="12.2511">
        <ele>6.39</ele>
        <time>2012-07-30T07:50:47Z</time>
      </trkpt>
      <trkpt lat="45.48448" lon="12.25099">
        <ele>5.91</ele>
        <time>2012-07-30T07:50:48Z</time>
      </trkpt>
      <trkpt lat="45.48368" lon="12.25016">
        <ele>5.42</ele>
        <time>2012-07-30T07:50:57Z</time>
      </trkpt>
      <trkpt lat="45.48266" lon="12.2491">
        <ele>4.94</ele>
        <time>2012-07-30T07:51:09Z</time>
      </trkpt>
      <trkpt lat="45.48218" lon="12.24863">
        <ele>4.46</ele>
        <time>2012-07-30T07:51:15Z</time>
      </trkpt>
      <trkpt lat="45.48174" lon="12.24822">
        <ele>3.5</ele>
        <time>2012-07-30T07:51:23Z</time>
      </trkpt>
      <trkpt lat="45.48166" lon="12.2481">
        <ele>3.5</ele>
        <time>2012-07-30T07:51:31Z</time>
      </trkpt>
      <trkpt lat="45.48166" lon="12.24808">
        <ele>3.5</ele>
        <time>2012-07-30T07:51:53Z</time>
      </trkpt>
      <trkpt lat="45.4816" lon="12.248">
        <ele>3.5</ele>
        <time>2012-07-30T07:52:13Z</time>
      </trkpt>
      <trkpt lat="45.48145" lon="12.24786">
        <ele>3.98</ele>
        <time>2012-07-30T07:52:16Z</time>
      </trkpt>
      <trkpt lat="45.48139" lon="12.24785">
        <ele>3.98</ele>
        <time>2012-07-30T07:52:17Z</time>
      </trkpt>
      <trkpt lat="45.48133" lon="12.24787">
        <ele>3.5</ele>
        <time>2012-07-30T07:52:18Z</time>
      </trkpt>
      <trkpt lat="45.48128" lon="12.24793">
        <ele>3.5</ele>
        <time>2012-07-30T07:52:19Z</time>
      </trkpt>
      <trkpt lat="45.48123" lon="12.24801">
        <ele>3.98</ele>
        <time>2012-07-30T07:52:20Z</time>
      </trkpt>
      <trkpt lat="45.48118" lon="12.24812">
        <ele>4.46</ele>
        <time>2012-07-30T07:52:21Z</time>
      </trkpt>
      <trkpt lat="45.48055" lon="12.24938">
        <ele>8.79</ele>
        <time>2012-07-30T07:52:31Z</time>
      </trkpt>
      <trkpt lat="45.48047" lon="12.24954">
        <ele>9.27</ele>
        <time>2012-07-30T07:52:32Z</time>
      </trkpt>
      <trkpt lat="45.48031" lon="12.24985">
        <ele>6.87</ele>
        <time>2012-07-30T07:52:34Z</time>
      </trkpt>
      <trkpt lat="45.47891" lon="12.25236">
        <ele>5.42</ele>
        <time>2012-07-30T07:52:51Z</time>
      </trkpt>
      <trkpt lat="45.47834" lon="12.25336">
        <ele>6.87</ele>
        <time>2012-07-30T07:52:59Z</time>
      </trkpt>
      <trkpt lat="45.4781" lon="12.25379">
        <ele>4.94</ele>
        <time>2012-07-30T07:53:02Z</time>
      </trkpt>
      <trkpt lat="45.47717" lon="12.25546">
        <ele>3.98</ele>
        <time>2012-07-30T07:53:14Z</time>
      </trkpt>
      <trkpt lat="45.47702" lon="12.25567">
        <ele>2.54</ele>
        <time>2012-07-30T07:53:18Z</time>
      </trkpt>
      <trkpt lat="45.47701" lon="12.25566">
        <ele>2.54</ele>
        <time>2012-07-30T07:53:19Z</time>
      </trkpt>
      <trkpt lat="45.477" lon="12.25565">
        <ele>3.02</ele>
        <time>2012-07-30T07:53:20Z</time>
      </trkpt>
      <trkpt lat="45.47698" lon="12.25562">
        <ele>3.02</ele>
        <time>2012-07-30T07:53:26Z</time>
      </trkpt>
      <trkpt lat="45.47695" lon="12.25562">
        <ele>3.5</ele>
        <time>2012-07-30T07:53:27Z</time>
      </trkpt>
      <trkpt lat="45.47691" lon="12.25564">
        <ele>3.98</ele>
        <time>2012-07-30T07:53:28Z</time>
      </trkpt>
      <trkpt lat="45.47687" lon="12.25568">
        <ele>3.5</ele>
        <time>2012-07-30T07:53:29Z</time>
      </trkpt>
      <trkpt lat="45.47681" lon="12.25575">
        <ele>3.98</ele>
        <time>2012-07-30T07:53:30Z</time>
      </trkpt>
      <trkpt lat="45.47674" lon="12.25584">
        <ele>3.98</ele>
        <time>2012-07-30T07:53:31Z</time>
      </trkpt>
      <trkpt lat="45.47641" lon="12.25639">
        <ele>3.5</ele>
        <time>2012-07-30T07:53:36Z</time>
      </trkpt>
      <trkpt lat="45.47618" lon="12.25676">
        <ele>3.02</ele>
        <time>2012-07-30T07:53:43Z</time>
      </trkpt>
      <trkpt lat="45.47618" lon="12.25673">
        <ele>3.5</ele>
        <time>2012-07-30T07:53:50Z</time>
      </trkpt>
      <trkpt lat="45.47616" lon="12.25669">
        <ele>3.98</ele>
        <time>2012-07-30T07:53:51Z</time>
      </trkpt>
      <trkpt lat="45.47585" lon="12.256">
        <ele>3.5</ele>
        <time>2012-07-30T07:54:01Z</time>
      </trkpt>
      <trkpt lat="45.47548" lon="12.25517">
        <ele>2.54</ele>
        <time>2012-07-30T07:54:13Z</time>
      </trkpt>
      <trkpt lat="45.47545" lon="12.2551">
        <ele>2.54</ele>
        <time>2012-07-30T07:54:15Z</time>
      </trkpt>
      <trkpt lat="45.47545" lon="12.25508">
        <ele>2.54</ele>
        <time>2012-07-30T07:54:16Z</time>
      </trkpt>
      <trkpt lat="45.47544" lon="12.25506">
        <ele>3.02</ele>
        <time>2012-07-30T07:54:17Z</time>
      </trkpt>
      <trkpt lat="45.47544" lon="12.25508">
        <ele>3.5</ele>
        <time>2012-07-30T07:54:24Z</time>
      </trkpt>
      <trkpt lat="45.47546" lon="12.25515">
        <ele>3.02</ele>
        <time>2012-07-30T07:54:26Z</time>
      </trkpt>
      <trkpt lat="45.47549" lon="12.25521">
        <ele>3.5</ele>
        <time>2012-07-30T07:54:27Z</time>
      </trkpt>
      <trkpt lat="45.47553" lon="12.25529">
        <ele>3.98</ele>
        <time>2012-07-30T07:54:28Z</time>
      </trkpt>
      <trkpt lat="45.47556" lon="12.25536">
        <ele>3.5</ele>
        <time>2012-07-30T07:54:29Z</time>
      </trkpt>
      <trkpt lat="45.47558" lon="12.25541">
        <ele>3.02</ele>
        <time>2012-07-30T07:54:30Z</time>
      </trkpt>
      <trkpt lat="45.47558" lon="12.25544">
        <ele>3.02</ele>
        <time>2012-07-30T07:54:38Z</time>
      </trkpt>
      <trkpt lat="45.47576" lon="12.25585">
        <ele>5.42</ele>
        <time>2012-07-30T07:54:44Z</time>
      </trkpt>
      <trkpt lat="45.47615" lon="12.25665">
        <ele>3.5</ele>
        <time>2012-07-30T07:54:53Z</time>
      </trkpt>
      <trkpt lat="45.47626" lon="12.25682">
        <ele>3.5</ele>
        <time>2012-07-30T07:54:57Z</time>
      </trkpt>
      <trkpt lat="45.47631" lon="12.25683">
        <ele>3.5</ele>
        <time>2012-07-30T07:54:58Z</time>
      </trkpt>
      <trkpt lat="45.47635" lon="12.25681">
        <ele>3.5</ele>
        <time>2012-07-30T07:54:59Z</time>
      </trkpt>
      <trkpt lat="45.47639" lon="12.25677">
        <ele>3.5</ele>
        <time>2012-07-30T07:55:00Z</time>
      </trkpt>
      <trkpt lat="45.47643" lon="12.25671">
        <ele>3.98</ele>
        <time>2012-07-30T07:55:01Z</time>
      </trkpt>
      <trkpt lat="45.47647" lon="12.25664">
        <ele>4.46</ele>
        <time>2012-07-30T07:55:02Z</time>
      </trkpt>
      <trkpt lat="45.47652" lon="12.25655">
        <ele>4.46</ele>
        <time>2012-07-30T07:55:03Z</time>
      </trkpt>
      <trkpt lat="45.47684" lon="12.25593">
        <ele>3.5</ele>
        <time>2012-07-30T07:55:10Z</time>
      </trkpt>
      <trkpt lat="45.47686" lon="12.25585">
        <ele>3.02</ele>
        <time>2012-07-30T07:55:11Z</time>
      </trkpt>
      <trkpt lat="45.47691" lon="12.25569">
        <ele>3.5</ele>
        <time>2012-07-30T07:55:14Z</time>
      </trkpt>
      <trkpt lat="45.47693" lon="12.25568">
        <ele>2.54</ele>
        <time>2012-07-30T07:55:15Z</time>
      </trkpt>
      <trkpt lat="45.47695" lon="12.25568">
        <ele>2.06</ele>
        <time>2012-07-30T07:55:16Z</time>
      </trkpt>
      <trkpt lat="45.47695" lon="12.25569">
        <ele>3.02</ele>
        <time>2012-07-30T07:55:17Z</time>
      </trkpt>
      <trkpt lat="45.47695" lon="12.25571">
        <ele>3.02</ele>
        <time>2012-07-30T07:55:18Z</time>
      </trkpt>
      <trkpt lat="45.47695" lon="12.25573">
        <ele>3.02</ele>
        <time>2012-07-30T07:55:22Z</time>
      </trkpt>
      <trkpt lat="45.47694" lon="12.25578">
        <ele>3.98</ele>
        <time>2012-07-30T07:55:23Z</time>
      </trkpt>
      <trkpt lat="45.47692" lon="12.25587">
        <ele>3.98</ele>
        <time>2012-07-30T07:55:24Z</time>
      </trkpt>
      <trkpt lat="45.47688" lon="12.25598">
        <ele>3.98</ele>
        <time>2012-07-30T07:55:25Z</time>
      </trkpt>
      <trkpt lat="45.47682" lon="12.25609">
        <ele>4.46</ele>
        <time>2012-07-30T07:55:26Z</time>
      </trkpt>
      <trkpt lat="45.47649" lon="12.25679">
        <ele>4.46</ele>
        <time>2012-07-30T07:55:31Z</time>
      </trkpt>
      <trkpt lat="45.47642" lon="12.25689">
        <ele>4.46</ele>
        <time>2012-07-30T07:55:32Z</time>
      </trkpt>
      <trkpt lat="45.47634" lon="12.25695">
        <ele>3.98</ele>
        <time>2012-07-30T07:55:33Z</time>
      </trkpt>
      <trkpt lat="45.47627" lon="12.257">
        <ele>4.46</ele>
        <time>2012-07-30T07:55:34Z</time>
      </trkpt>
      <trkpt lat="45.47622" lon="12.25707">
        <ele>4.46</ele>
        <time>2012-07-30T07:55:35Z</time>
      </trkpt>
      <trkpt lat="45.47618" lon="12.25715">
        <ele>4.46</ele>
        <time>2012-07-30T07:55:36Z</time>
      </trkpt>
      <trkpt lat="45.47616" lon="12.25724">
        <ele>3.98</ele>
        <time>2012-07-30T07:55:37Z</time>
      </trkpt>
      <trkpt lat="45.47617" lon="12.25733">
        <ele>4.46</ele>
        <time>2012-07-30T07:55:38Z</time>
      </trkpt>
      <trkpt lat="45.47622" lon="12.25741">
        <ele>4.94</ele>
        <time>2012-07-30T07:55:39Z</time>
      </trkpt>
      <trkpt lat="45.47628" lon="12.25746">
        <ele>4.46</ele>
        <time>2012-07-30T07:55:40Z</time>
      </trkpt>
      <trkpt lat="45.47635" lon="12.25746">
        <ele>4.94</ele>
        <time>2012-07-30T07:55:41Z</time>
      </trkpt>
      <trkpt lat="45.47641" lon="12.25742">
        <ele>4.94</ele>
        <time>2012-07-30T07:55:42Z</time>
      </trkpt>
      <trkpt lat="45.47646" lon="12.25735">
        <ele>4.46</ele>
        <time>2012-07-30T07:55:43Z</time>
      </trkpt>
      <trkpt lat="45.47649" lon="12.25724">
        <ele>4.46</ele>
        <time>2012-07-30T07:55:44Z</time>
      </trkpt>
      <trkpt lat="45.47652" lon="12.25713">
        <ele>4.94</ele>
        <time>2012-07-30T07:55:45Z</time>
      </trkpt>
      <trkpt lat="45.47657" lon="12.25688">
        <ele>5.91</ele>
        <time>2012-07-30T07:55:47Z</time>
      </trkpt>
      <trkpt lat="45.47663" lon="12.25676">
        <ele>6.39</ele>
        <time>2012-07-30T07:55:48Z</time>
      </trkpt>
      <trkpt lat="45.4775" lon="12.25509">
        <ele>4.46</ele>
        <time>2012-07-30T07:56:02Z</time>
      </trkpt>
      <trkpt lat="45.47826" lon="12.25373">
        <ele>3.98</ele>
        <time>2012-07-30T07:56:15Z</time>
      </trkpt>
      <trkpt lat="45.47892" lon="12.25257">
        <ele>4.46</ele>
        <time>2012-07-30T07:56:25Z</time>
      </trkpt>
      <trkpt lat="45.4797" lon="12.2512">
        <ele>4.94</ele>
        <time>2012-07-30T07:56:38Z</time>
      </trkpt>
      <trkpt lat="45.47998" lon="12.25067">
        <ele>3.5</ele>
        <time>2012-07-30T07:56:45Z</time>
      </trkpt>
      <trkpt lat="45.48" lon="12.25059">
        <ele>2.54</ele>
        <time>2012-07-30T07:56:56Z</time>
      </trkpt>
      <trkpt lat="45.48009" lon="12.25039">
        <ele>3.5</ele>
        <time>2012-07-30T07:57:14Z</time>
      </trkpt>
      <trkpt lat="45.48011" lon="12.25031">
        <ele>3.5</ele>
        <time>2012-07-30T07:57:15Z</time>
      </trkpt>
      <trkpt lat="45.4801" lon="12.25024">
        <ele>3.5</ele>
        <time>2012-07-30T07:57:16Z</time>
      </trkpt>
      <trkpt lat="45.48008" lon="12.25016">
        <ele>3.5</ele>
        <time>2012-07-30T07:57:17Z</time>
      </trkpt>
      <trkpt lat="45.48004" lon="12.2501">
        <ele>3.5</ele>
        <time>2012-07-30T07:57:18Z</time>
      </trkpt>
      <trkpt lat="45.48" lon="12.25004">
        <ele>3.98</ele>
        <time>2012-07-30T07:57:19Z</time>
      </trkpt>
      <trkpt lat="45.47996" lon="12.25">
        <ele>3.98</ele>
        <time>2012-07-30T07:57:20Z</time>
      </trkpt>
      <trkpt lat="45.47992" lon="12.24997">
        <ele>3.98</ele>
        <time>2012-07-30T07:57:21Z</time>
      </trkpt>
      <trkpt lat="45.47989" lon="12.24996">
        <ele>3.5</ele>
        <time>2012-07-30T07:57:22Z</time>
      </trkpt>
      <trkpt lat="45.47985" lon="12.24997">
        <ele>3.02</ele>
        <time>2012-07-30T07:57:23Z</time>
      </trkpt>
      <trkpt lat="45.47983" lon="12.24999">
        <ele>3.5</ele>
        <time>2012-07-30T07:57:24Z</time>
      </trkpt>
      <trkpt lat="45.47981" lon="12.24999">
        <ele>3.5</ele>
        <time>2012-07-30T07:57:26Z</time>
      </trkpt>
      <trkpt lat="45.4798" lon="12.24998">
        <ele>3.5</ele>
        <time>2012-07-30T07:57:27Z</time>
      </trkpt>
      <trkpt lat="45.47979" lon="12.24997">
        <ele>3.98</ele>
        <time>2012-07-30T07:57:28Z</time>
      </trkpt>
      <trkpt lat="45.47977" lon="12.24995">
        <ele>3.98</ele>
        <time>2012-07-30T07:57:29Z</time>
      </trkpt>
      <trkpt lat="45.47974" lon="12.24992">
        <ele>3.98</ele>
        <time>2012-07-30T07:57:30Z</time>
      </trkpt>
      <trkpt lat="45.47954" lon="12.24973">
        <ele>3.98</ele>
        <time>2012-07-30T07:57:39Z</time>
      </trkpt>
      <trkpt lat="45.47946" lon="12.24964">
        <ele>3.98</ele>
        <time>2012-07-30T07:57:44Z</time>
      </trkpt>
      <trkpt lat="45.47945" lon="12.24965">
        <ele>3.98</ele>
        <time>2012-07-30T07:57:45Z</time>
      </trkpt>
      <trkpt lat="45.47945" lon="12.24963">
        <ele>3.98</ele>
        <time>2012-07-30T07:57:55Z</time>
      </trkpt>
      <trkpt lat="45.47946" lon="12.24966">
        <ele>4.46</ele>
        <time>2012-07-30T07:57:56Z</time>
      </trkpt>
      <trkpt lat="45.4795" lon="12.24973">
        <ele>4.94</ele>
        <time>2012-07-30T07:57:58Z</time>
      </trkpt>
      <trkpt lat="45.47953" lon="12.24977">
        <ele>4.46</ele>
        <time>2012-07-30T07:57:59Z</time>
      </trkpt>
      <trkpt lat="45.47956" lon="12.24979">
        <ele>3.98</ele>
        <time>2012-07-30T07:58:00Z</time>
      </trkpt>
      <trkpt lat="45.47958" lon="12.24981">
        <ele>4.46</ele>
        <time>2012-07-30T07:58:01Z</time>
      </trkpt>
      <trkpt lat="45.47959" lon="12.24981">
        <ele>3.98</ele>
        <time>2012-07-30T07:58:02Z</time>
      </trkpt>
      <trkpt lat="45.47961" lon="12.2498">
        <ele>3.98</ele>
        <time>2012-07-30T07:58:13Z</time>
      </trkpt>
      <trkpt lat="45.47961" lon="12.24975">
        <ele>3.98</ele>
        <time>2012-07-30T07:58:39Z</time>
      </trkpt>
      <trkpt lat="45.47963" lon="12.24972">
        <ele>3.98</ele>
        <time>2012-07-30T07:59:13Z</time>
      </trkpt>
      <trkpt lat="45.47961" lon="12.24968">
        <ele>4.46</ele>
        <time>2012-07-30T07:59:47Z</time>
      </trkpt>
      <trkpt lat="45.4796" lon="12.24966">
        <ele>4.46</ele>
        <time>2012-07-30T08:00:25Z</time>
      </trkpt>
      <trkpt lat="45.4796" lon="12.24966">
        <ele>5.42</ele>
        <time>2012-07-30T08:00:59Z</time>
      </trkpt>
      <trkpt lat="45.4796" lon="12.24961">
        <ele>5.42</ele>
        <time>2012-07-30T08:01:31Z</time>
      </trkpt>
      <trkpt lat="45.47959" lon="12.2496">
        <ele>5.91</ele>
        <time>2012-07-30T08:02:01Z</time>
      </trkpt>
      <trkpt lat="45.4796" lon="12.24956">
        <ele>6.87</ele>
        <time>2012-07-30T08:02:35Z</time>
      </trkpt>
      <trkpt lat="45.47959" lon="12.24955">
        <ele>7.35</ele>
        <time>2012-07-30T08:03:08Z</time>
      </trkpt>
      <trkpt lat="45.4796" lon="12.24953">
        <ele>7.35</ele>
        <time>2012-07-30T08:03:41Z</time>
      </trkpt>
      <trkpt lat="45.47961" lon="12.24956">
        <ele>8.31</ele>
        <time>2012-07-30T08:04:14Z</time>
      </trkpt>
      <trkpt lat="45.47961" lon="12.24958">
        <ele>9.27</ele>
        <time>2012-07-30T08:04:45Z</time>
      </trkpt>
      <trkpt lat="45.4796" lon="12.24958">
        <ele>9.75</ele>
        <time>2012-07-30T08:05:16Z</time>
      </trkpt>
      <trkpt lat="45.47961" lon="12.24956">
        <ele>10.23</ele>
        <time>2012-07-30T08:05:44Z</time>
      </trkpt>
      <trkpt lat="45.4796" lon="12.24955">
        <ele>10.71</ele>
        <time>2012-07-30T08:06:13Z</time>
      </trkpt>
      <trkpt lat="45.47958" lon="12.24955">
        <ele>10.71</ele>
        <time>2012-07-30T08:06:43Z</time>
      </trkpt>
      <trkpt lat="45.47959" lon="12.24956">
        <ele>11.67</ele>
        <time>2012-07-30T08:07:19Z</time>
      </trkpt>
      <trkpt lat="45.47957" lon="12.24956">
        <ele>12.15</ele>
        <time>2012-07-30T08:07:52Z</time>
      </trkpt>
      <trkpt lat="45.47957" lon="12.24955">
        <ele>12.15</ele>
        <time>2012-07-30T08:08:26Z</time>
      </trkpt>
      <trkpt lat="45.47958" lon="12.24953">
        <ele>12.63</ele>
        <time>2012-07-30T08:09:00Z</time>
      </trkpt>
      <trkpt lat="45.4796" lon="12.24953">
        <ele>14.08</ele>
        <time>2012-07-30T08:09:29Z</time>
      </trkpt>
      <trkpt lat="45.47963" lon="12.24955">
        <ele>14.08</ele>
        <time>2012-07-30T08:10:02Z</time>
      </trkpt>
      <trkpt lat="45.47962" lon="12.24954">
        <ele>14.56</ele>
        <time>2012-07-30T08:10:09Z</time>
      </trkpt>
      <trkpt lat="45.47962" lon="12.24955">
        <ele>14.56</ele>
        <time>2012-07-30T08:10:30Z</time>
      </trkpt>
      <trkpt lat="45.47962" lon="12.24953">
        <ele>15.04</ele>
        <time>2012-07-30T08:10:59Z</time>
      </trkpt>
      <trkpt lat="45.47959" lon="12.24953">
        <ele>15.52</ele>
        <time>2012-07-30T08:11:30Z</time>
      </trkpt>
      <trkpt lat="45.47957" lon="12.24955">
        <ele>16</ele>
        <time>2012-07-30T08:12:03Z</time>
      </trkpt>
      <trkpt lat="45.47955" lon="12.24956">
        <ele>16</ele>
        <time>2012-07-30T08:12:34Z</time>
      </trkpt>
      <trkpt lat="45.47955" lon="12.24956">
        <ele>16.96</ele>
        <time>2012-07-30T08:13:04Z</time>
      </trkpt>
      <trkpt lat="45.47957" lon="12.24958">
        <ele>16.96</ele>
        <time>2012-07-30T08:13:36Z</time>
      </trkpt>
      <trkpt lat="45.47958" lon="12.24959">
        <ele>17.44</ele>
        <time>2012-07-30T08:14:08Z</time>
      </trkpt>
      <trkpt lat="45.47961" lon="12.24961">
        <ele>17.92</ele>
        <time>2012-07-30T08:14:35Z</time>
      </trkpt>
      <trkpt lat="45.47965" lon="12.24965">
        <ele>18.4</ele>
        <time>2012-07-30T08:15:12Z</time>
      </trkpt>
      <trkpt lat="45.47969" lon="12.24966">
        <ele>18.4</ele>
        <time>2012-07-30T08:15:42Z</time>
      </trkpt>
      <trkpt lat="45.47972" lon="12.24968">
        <ele>18.88</ele>
        <time>2012-07-30T08:16:22Z</time>
      </trkpt>
      <trkpt lat="45.47971" lon="12.24968">
        <ele>17.92</ele>
        <time>2012-07-30T08:16:41Z</time>
      </trkpt>
      <trkpt lat="45.47969" lon="12.2497">
        <ele>20.81</ele>
        <time>2012-07-30T08:17:04Z</time>
      </trkpt>
      <trkpt lat="45.47967" lon="12.24974">
        <ele>17.44</ele>
        <time>2012-07-30T08:17:27Z</time>
      </trkpt>
      <trkpt lat="45.47966" lon="12.24974">
        <ele>20.81</ele>
        <time>2012-07-30T08:17:43Z</time>
      </trkpt>
      <trkpt lat="45.47966" lon="12.24976">
        <ele>20.81</ele>
        <time>2012-07-30T08:18:10Z</time>
      </trkpt>
      <trkpt lat="45.47967" lon="12.24975">
        <ele>19.84</ele>
        <time>2012-07-30T08:18:38Z</time>
      </trkpt>
      <trkpt lat="45.47967" lon="12.24976">
        <ele>20.81</ele>
        <time>2012-07-30T08:18:58Z</time>
      </trkpt>
      <trkpt lat="45.47966" lon="12.24977">
        <ele>20.81</ele>
        <time>2012-07-30T08:19:25Z</time>
      </trkpt>
      <trkpt lat="45.47965" lon="12.24977">
        <ele>20.81</ele>
        <time>2012-07-30T08:19:55Z</time>
      </trkpt>
      <trkpt lat="45.47964" lon="12.24977">
        <ele>21.29</ele>
        <time>2012-07-30T08:20:20Z</time>
      </trkpt>
      <trkpt lat="45.47965" lon="12.24979">
        <ele>21.29</ele>
        <time>2012-07-30T08:20:25Z</time>
      </trkpt>
      <trkpt lat="45.47967" lon="12.24983">
        <ele>21.77</ele>
        <time>2012-07-30T08:20:28Z</time>
      </trkpt>
      <trkpt lat="45.47968" lon="12.24985">
        <ele>21.29</ele>
        <time>2012-07-30T08:20:29Z</time>
      </trkpt>
      <trkpt lat="45.4797" lon="12.24989">
        <ele>21.77</ele>
        <time>2012-07-30T08:20:30Z</time>
      </trkpt>
      <trkpt lat="45.47973" lon="12.24993">
        <ele>22.25</ele>
        <time>2012-07-30T08:20:31Z</time>
      </trkpt>
      <trkpt lat="45.47976" lon="12.24997">
        <ele>22.25</ele>
        <time>2012-07-30T08:20:32Z</time>
      </trkpt>
      <trkpt lat="45.47979" lon="12.24999">
        <ele>21.77</ele>
        <time>2012-07-30T08:20:33Z</time>
      </trkpt>
      <trkpt lat="45.47981" lon="12.24999">
        <ele>20.81</ele>
        <time>2012-07-30T08:20:34Z</time>
      </trkpt>
      <trkpt lat="45.47982" lon="12.24998">
        <ele>20.81</ele>
        <time>2012-07-30T08:20:35Z</time>
      </trkpt>
      <trkpt lat="45.47984" lon="12.24997">
        <ele>20.81</ele>
        <time>2012-07-30T08:20:36Z</time>
      </trkpt>
      <trkpt lat="45.47984" lon="12.24995">
        <ele>20.32</ele>
        <time>2012-07-30T08:20:37Z</time>
      </trkpt>
      <trkpt lat="45.47985" lon="12.24992">
        <ele>21.29</ele>
        <time>2012-07-30T08:20:38Z</time>
      </trkpt>
      <trkpt lat="45.47984" lon="12.24989">
        <ele>20.81</ele>
        <time>2012-07-30T08:20:39Z</time>
      </trkpt>
      <trkpt lat="45.47982" lon="12.24986">
        <ele>20.81</ele>
        <time>2012-07-30T08:20:40Z</time>
      </trkpt>
      <trkpt lat="45.47977" lon="12.24981">
        <ele>21.29</ele>
        <time>2012-07-30T08:20:41Z</time>
      </trkpt>
      <trkpt lat="45.47931" lon="12.2493">
        <ele>22.25</ele>
        <time>2012-07-30T08:20:47Z</time>
      </trkpt>
      <trkpt lat="45.47914" lon="12.2491">
        <ele>21.29</ele>
        <time>2012-07-30T08:20:50Z</time>
      </trkpt>
      <trkpt lat="45.47912" lon="12.24904">
        <ele>21.29</ele>
        <time>2012-07-30T08:20:51Z</time>
      </trkpt>
      <trkpt lat="45.47912" lon="12.24897">
        <ele>21.29</ele>
        <time>2012-07-30T08:20:52Z</time>
      </trkpt>
      <trkpt lat="45.47915" lon="12.24888">
        <ele>21.77</ele>
        <time>2012-07-30T08:20:53Z</time>
      </trkpt>
      <trkpt lat="45.4792" lon="12.24878">
        <ele>22.73</ele>
        <time>2012-07-30T08:20:54Z</time>
      </trkpt>
      <trkpt lat="45.47925" lon="12.24867">
        <ele>23.21</ele>
        <time>2012-07-30T08:20:55Z</time>
      </trkpt>
      <trkpt lat="45.47942" lon="12.24829">
        <ele>23.69</ele>
        <time>2012-07-30T08:20:58Z</time>
      </trkpt>
      <trkpt lat="45.47978" lon="12.24751">
        <ele>23.21</ele>
        <time>2012-07-30T08:21:04Z</time>
      </trkpt>
      <trkpt lat="45.48006" lon="12.24672">
        <ele>22.25</ele>
        <time>2012-07-30T08:21:11Z</time>
      </trkpt>
      <trkpt lat="45.4801" lon="12.2466">
        <ele>22.73</ele>
        <time>2012-07-30T08:21:12Z</time>
      </trkpt>
      <trkpt lat="45.4807" lon="12.24532">
        <ele>21.29</ele>
        <time>2012-07-30T08:21:24Z</time>
      </trkpt>
      <trkpt lat="45.48072" lon="12.24526">
        <ele>20.81</ele>
        <time>2012-07-30T08:21:25Z</time>
      </trkpt>
      <trkpt lat="45.48077" lon="12.24509">
        <ele>21.77</ele>
        <time>2012-07-30T08:21:30Z</time>
      </trkpt>
      <trkpt lat="45.48074" lon="12.24504">
        <ele>21.77</ele>
        <time>2012-07-30T08:21:31Z</time>
      </trkpt>
      <trkpt lat="45.48069" lon="12.24498">
        <ele>21.77</ele>
        <time>2012-07-30T08:21:32Z</time>
      </trkpt>
      <trkpt lat="45.48035" lon="12.24461">
        <ele>21.29</ele>
        <time>2012-07-30T08:21:37Z</time>
      </trkpt>
      <trkpt lat="45.4803" lon="12.24452">
        <ele>21.29</ele>
        <time>2012-07-30T08:21:38Z</time>
      </trkpt>
      <trkpt lat="45.48025" lon="12.24442">
        <ele>21.77</ele>
        <time>2012-07-30T08:21:39Z</time>
      </trkpt>
      <trkpt lat="45.48022" lon="12.24432">
        <ele>21.29</ele>
        <time>2012-07-30T08:21:40Z</time>
      </trkpt>
      <trkpt lat="45.4802" lon="12.2442">
        <ele>21.29</ele>
        <time>2012-07-30T08:21:41Z</time>
      </trkpt>
      <trkpt lat="45.4802" lon="12.24406">
        <ele>21.77</ele>
        <time>2012-07-30T08:21:42Z</time>
      </trkpt>
      <trkpt lat="45.48022" lon="12.24393">
        <ele>21.77</ele>
        <time>2012-07-30T08:21:43Z</time>
      </trkpt>
      <trkpt lat="45.48024" lon="12.24379">
        <ele>22.25</ele>
        <time>2012-07-30T08:21:44Z</time>
      </trkpt>
      <trkpt lat="45.48028" lon="12.24364">
        <ele>22.73</ele>
        <time>2012-07-30T08:21:45Z</time>
      </trkpt>
      <trkpt lat="45.48076" lon="12.24161">
        <ele>22.73</ele>
        <time>2012-07-30T08:21:58Z</time>
      </trkpt>
      <trkpt lat="45.48119" lon="12.23979">
        <ele>22.73</ele>
        <time>2012-07-30T08:22:10Z</time>
      </trkpt>
      <trkpt lat="45.48123" lon="12.23966">
        <ele>22.73</ele>
        <time>2012-07-30T08:22:11Z</time>
      </trkpt>
      <trkpt lat="45.48127" lon="12.23953">
        <ele>22.73</ele>
        <time>2012-07-30T08:22:12Z</time>
      </trkpt>
      <trkpt lat="45.48129" lon="12.2394">
        <ele>23.21</ele>
        <time>2012-07-30T08:22:13Z</time>
      </trkpt>
      <trkpt lat="45.48131" lon="12.23925">
        <ele>22.73</ele>
        <time>2012-07-30T08:22:14Z</time>
      </trkpt>
      <trkpt lat="45.48134" lon="12.23909">
        <ele>23.21</ele>
        <time>2012-07-30T08:22:15Z</time>
      </trkpt>
      <trkpt lat="45.48178" lon="12.23738">
        <ele>22.73</ele>
        <time>2012-07-30T08:22:27Z</time>
      </trkpt>
      <trkpt lat="45.48207" lon="12.23601">
        <ele>23.21</ele>
        <time>2012-07-30T08:22:37Z</time>
      </trkpt>
      <trkpt lat="45.48212" lon="12.23572">
        <ele>21.77</ele>
        <time>2012-07-30T08:22:40Z</time>
      </trkpt>
      <trkpt lat="45.48214" lon="12.23556">
        <ele>20.32</ele>
        <time>2012-07-30T08:22:47Z</time>
      </trkpt>
      <trkpt lat="45.48215" lon="12.23551">
        <ele>21.29</ele>
        <time>2012-07-30T08:22:55Z</time>
      </trkpt>
      <trkpt lat="45.48218" lon="12.23549">
        <ele>20.81</ele>
        <time>2012-07-30T08:22:56Z</time>
      </trkpt>
      <trkpt lat="45.48222" lon="12.23549">
        <ele>21.29</ele>
        <time>2012-07-30T08:22:57Z</time>
      </trkpt>
      <trkpt lat="45.48228" lon="12.23552">
        <ele>21.29</ele>
        <time>2012-07-30T08:22:58Z</time>
      </trkpt>
      <trkpt lat="45.48235" lon="12.23556">
        <ele>22.25</ele>
        <time>2012-07-30T08:22:59Z</time>
      </trkpt>
      <trkpt lat="45.48255" lon="12.2357">
        <ele>21.29</ele>
        <time>2012-07-30T08:23:02Z</time>
      </trkpt>
      <trkpt lat="45.48259" lon="12.23576">
        <ele>20.81</ele>
        <time>2012-07-30T08:23:03Z</time>
      </trkpt>
      <trkpt lat="45.48262" lon="12.23584">
        <ele>21.29</ele>
        <time>2012-07-30T08:23:04Z</time>
      </trkpt>
      <trkpt lat="45.48265" lon="12.2359">
        <ele>20.81</ele>
        <time>2012-07-30T08:23:05Z</time>
      </trkpt>
      <trkpt lat="45.48269" lon="12.23594">
        <ele>20.81</ele>
        <time>2012-07-30T08:23:06Z</time>
      </trkpt>
      <trkpt lat="45.48273" lon="12.23595">
        <ele>20.81</ele>
        <time>2012-07-30T08:23:07Z</time>
      </trkpt>
      <trkpt lat="45.48276" lon="12.23592">
        <ele>20.81</ele>
        <time>2012-07-30T08:23:08Z</time>
      </trkpt>
      <trkpt lat="45.48279" lon="12.23588">
        <ele>21.29</ele>
        <time>2012-07-30T08:23:09Z</time>
      </trkpt>
      <trkpt lat="45.48281" lon="12.23582">
        <ele>21.29</ele>
        <time>2012-07-30T08:23:10Z</time>
      </trkpt>
      <trkpt lat="45.48283" lon="12.23577">
        <ele>21.29</ele>
        <time>2012-07-30T08:23:11Z</time>
      </trkpt>
      <trkpt lat="45.48286" lon="12.23571">
        <ele>21.29</ele>
        <time>2012-07-30T08:23:12Z</time>
      </trkpt>
      <trkpt lat="45.48289" lon="12.23566">
        <ele>21.29</ele>
        <time>2012-07-30T08:23:13Z</time>
      </trkpt>
      <trkpt lat="45.48293" lon="12.23562">
        <ele>21.29</ele>
        <time>2012-07-30T08:23:14Z</time>
      </trkpt>
      <trkpt lat="45.48298" lon="12.23556">
        <ele>21.77</ele>
        <time>2012-07-30T08:23:15Z</time>
      </trkpt>
      <trkpt lat="45.48303" lon="12.2355">
        <ele>22.25</ele>
        <time>2012-07-30T08:23:16Z</time>
      </trkpt>
      <trkpt lat="45.48307" lon="12.23541">
        <ele>22.25</ele>
        <time>2012-07-30T08:23:17Z</time>
      </trkpt>
      <trkpt lat="45.4831" lon="12.23531">
        <ele>22.25</ele>
        <time>2012-07-30T08:23:18Z</time>
      </trkpt>
      <trkpt lat="45.48317" lon="12.23491">
        <ele>19.84</ele>
        <time>2012-07-30T08:23:24Z</time>
      </trkpt>
      <trkpt lat="45.483" lon="12.23472">
        <ele>20.32</ele>
        <time>2012-07-30T08:23:29Z</time>
      </trkpt>
      <trkpt lat="45.48265" lon="12.23451">
        <ele>19.84</ele>
        <time>2012-07-30T08:23:41Z</time>
      </trkpt>
      <trkpt lat="45.48244" lon="12.23436">
        <ele>19.36</ele>
        <time>2012-07-30T08:23:51Z</time>
      </trkpt>
      <trkpt lat="45.48235" lon="12.23429">
        <ele>19.84</ele>
        <time>2012-07-30T08:23:55Z</time>
      </trkpt>
      <trkpt lat="45.48229" lon="12.23416">
        <ele>20.81</ele>
        <time>2012-07-30T08:23:58Z</time>
      </trkpt>
      <trkpt lat="45.4823" lon="12.23408">
        <ele>20.81</ele>
        <time>2012-07-30T08:23:59Z</time>
      </trkpt>
      <trkpt lat="45.48231" lon="12.23399">
        <ele>21.29</ele>
        <time>2012-07-30T08:24:00Z</time>
      </trkpt>
      <trkpt lat="45.48233" lon="12.2339">
        <ele>21.29</ele>
        <time>2012-07-30T08:24:01Z</time>
      </trkpt>
      <trkpt lat="45.48255" lon="12.23289">
        <ele>21.29</ele>
        <time>2012-07-30T08:24:13Z</time>
      </trkpt>
      <trkpt lat="45.48272" lon="12.2323">
        <ele>20.81</ele>
        <time>2012-07-30T08:24:20Z</time>
      </trkpt>
      <trkpt lat="45.48275" lon="12.23225">
        <ele>20.81</ele>
        <time>2012-07-30T08:24:21Z</time>
      </trkpt>
      <trkpt lat="45.48278" lon="12.23221">
        <ele>20.32</ele>
        <time>2012-07-30T08:24:22Z</time>
      </trkpt>
      <trkpt lat="45.48281" lon="12.2322">
        <ele>20.32</ele>
        <time>2012-07-30T08:24:23Z</time>
      </trkpt>
      <trkpt lat="45.48284" lon="12.23221">
        <ele>20.32</ele>
        <time>2012-07-30T08:24:24Z</time>
      </trkpt>
      <trkpt lat="45.48289" lon="12.23223">
        <ele>20.32</ele>
        <time>2012-07-30T08:24:25Z</time>
      </trkpt>
      <trkpt lat="45.48294" lon="12.23226">
        <ele>20.32</ele>
        <time>2012-07-30T08:24:26Z</time>
      </trkpt>
      <trkpt lat="45.48378" lon="12.23271">
        <ele>20.81</ele>
        <time>2012-07-30T08:24:40Z</time>
      </trkpt>
      <trkpt lat="45.4847" lon="12.23315">
        <ele>20.32</ele>
        <time>2012-07-30T08:24:52Z</time>
      </trkpt>
      <trkpt lat="45.48512" lon="12.23337">
        <ele>20.81</ele>
        <time>2012-07-30T08:24:57Z</time>
      </trkpt>
      <trkpt lat="45.48589" lon="12.23367">
        <ele>20.81</ele>
        <time>2012-07-30T08:25:06Z</time>
      </trkpt>
      <trkpt lat="45.48691" lon="12.23405">
        <ele>21.29</ele>
        <time>2012-07-30T08:25:19Z</time>
      </trkpt>
      <trkpt lat="45.48781" lon="12.23439">
        <ele>19.84</ele>
        <time>2012-07-30T08:25:32Z</time>
      </trkpt>
      <trkpt lat="45.48861" lon="12.23473">
        <ele>20.81</ele>
        <time>2012-07-30T08:25:44Z</time>
      </trkpt>
      <trkpt lat="45.48868" lon="12.23475">
        <ele>19.84</ele>
        <time>2012-07-30T08:25:45Z</time>
      </trkpt>
      <trkpt lat="45.48876" lon="12.23477">
        <ele>19.84</ele>
        <time>2012-07-30T08:25:46Z</time>
      </trkpt>
      <trkpt lat="45.4889" lon="12.23482">
        <ele>20.32</ele>
        <time>2012-07-30T08:25:48Z</time>
      </trkpt>
      <trkpt lat="45.48898" lon="12.23485">
        <ele>20.81</ele>
        <time>2012-07-30T08:25:49Z</time>
      </trkpt>
      <trkpt lat="45.48974" lon="12.2351">
        <ele>24.17</ele>
        <time>2012-07-30T08:25:58Z</time>
      </trkpt>
      <trkpt lat="45.49051" lon="12.23541">
        <ele>20.81</ele>
        <time>2012-07-30T08:26:05Z</time>
      </trkpt>
      <trkpt lat="45.4906" lon="12.23544">
        <ele>20.81</ele>
        <time>2012-07-30T08:26:06Z</time>
      </trkpt>
      <trkpt lat="45.49152" lon="12.23583">
        <ele>20.81</ele>
        <time>2012-07-30T08:26:18Z</time>
      </trkpt>
      <trkpt lat="45.49163" lon="12.23588">
        <ele>19.84</ele>
        <time>2012-07-30T08:26:25Z</time>
      </trkpt>
      <trkpt lat="45.49165" lon="12.23584">
        <ele>19.84</ele>
        <time>2012-07-30T08:26:47Z</time>
      </trkpt>
      <trkpt lat="45.49165" lon="12.23585">
        <ele>19.84</ele>
        <time>2012-07-30T08:27:11Z</time>
      </trkpt>
      <trkpt lat="45.49195" lon="12.23598">
        <ele>20.81</ele>
        <time>2012-07-30T08:27:18Z</time>
      </trkpt>
      <trkpt lat="45.49243" lon="12.23607">
        <ele>20.32</ele>
        <time>2012-07-30T08:27:24Z</time>
      </trkpt>
      <trkpt lat="45.49267" lon="12.23619">
        <ele>19.84</ele>
        <time>2012-07-30T08:27:30Z</time>
      </trkpt>
      <trkpt lat="45.49268" lon="12.23622">
        <ele>20.32</ele>
        <time>2012-07-30T08:27:31Z</time>
      </trkpt>
      <trkpt lat="45.49269" lon="12.23673">
        <ele>19.84</ele>
        <time>2012-07-30T08:27:41Z</time>
      </trkpt>
      <trkpt lat="45.49271" lon="12.23679">
        <ele>19.36</ele>
        <time>2012-07-30T08:27:42Z</time>
      </trkpt>
      <trkpt lat="45.49272" lon="12.23685">
        <ele>19.36</ele>
        <time>2012-07-30T08:27:43Z</time>
      </trkpt>
      <trkpt lat="45.49274" lon="12.2369">
        <ele>19.84</ele>
        <time>2012-07-30T08:27:44Z</time>
      </trkpt>
      <trkpt lat="45.49275" lon="12.23696">
        <ele>19.84</ele>
        <time>2012-07-30T08:27:45Z</time>
      </trkpt>
      <trkpt lat="45.49278" lon="12.23766">
        <ele>19.84</ele>
        <time>2012-07-30T08:27:56Z</time>
      </trkpt>
      <trkpt lat="45.49275" lon="12.23773">
        <ele>19.36</ele>
        <time>2012-07-30T08:28:06Z</time>
      </trkpt>
      <trkpt lat="45.49275" lon="12.23774">
        <ele>19.36</ele>
        <time>2012-07-30T08:28:23Z</time>
      </trkpt>
      <trkpt lat="45.49275" lon="12.23774">
        <ele>19.84</ele>
        <time>2012-07-30T08:28:51Z</time>
      </trkpt>
      <trkpt lat="45.49272" lon="12.23774">
        <ele>19.84</ele>
        <time>2012-07-30T08:29:27Z</time>
      </trkpt>
      <trkpt lat="45.4927" lon="12.23773">
        <ele>18.88</ele>
        <time>2012-07-30T08:30:03Z</time>
      </trkpt>
      <trkpt lat="45.49269" lon="12.23773">
        <ele>18.88</ele>
        <time>2012-07-30T08:30:41Z</time>
      </trkpt>
      <trkpt lat="45.4927" lon="12.23773">
        <ele>19.36</ele>
        <time>2012-07-30T08:31:10Z</time>
      </trkpt>
      <trkpt lat="45.49271" lon="12.23772">
        <ele>18.88</ele>
        <time>2012-07-30T08:31:45Z</time>
      </trkpt>
      <trkpt lat="45.49271" lon="12.23772">
        <ele>19.36</ele>
        <time>2012-07-30T08:32:13Z</time>
      </trkpt>
      <trkpt lat="45.49272" lon="12.23771">
        <ele>18.88</ele>
        <time>2012-07-30T08:32:44Z</time>
      </trkpt>
      <trkpt lat="45.49269" lon="12.23772">
        <ele>19.36</ele>
        <time>2012-07-30T08:32:50Z</time>
      </trkpt>
      <trkpt lat="45.49263" lon="12.23773">
        <ele>18.88</ele>
        <time>2012-07-30T08:32:51Z</time>
      </trkpt>
      <trkpt lat="45.49257" lon="12.23773">
        <ele>19.36</ele>
        <time>2012-07-30T08:32:52Z</time>
      </trkpt>
      <trkpt lat="45.49214" lon="12.23773">
        <ele>19.36</ele>
        <time>2012-07-30T08:32:58Z</time>
      </trkpt>
      <trkpt lat="45.49204" lon="12.23769">
        <ele>18.88</ele>
        <time>2012-07-30T08:32:59Z</time>
      </trkpt>
      <trkpt lat="45.49184" lon="12.23762">
        <ele>18.88</ele>
        <time>2012-07-30T08:33:05Z</time>
      </trkpt>
      <trkpt lat="45.49181" lon="12.23761">
        <ele>19.36</ele>
        <time>2012-07-30T08:33:06Z</time>
      </trkpt>
      <trkpt lat="45.49179" lon="12.23755">
        <ele>19.36</ele>
        <time>2012-07-30T08:33:07Z</time>
      </trkpt>
      <trkpt lat="45.4918" lon="12.2375">
        <ele>20.32</ele>
        <time>2012-07-30T08:33:08Z</time>
      </trkpt>
      <trkpt lat="45.49191" lon="12.23709">
        <ele>18.88</ele>
        <time>2012-07-30T08:33:17Z</time>
      </trkpt>
      <trkpt lat="45.49193" lon="12.23686">
        <ele>18.88</ele>
        <time>2012-07-30T08:33:32Z</time>
      </trkpt>
      <trkpt lat="45.49195" lon="12.2368">
        <ele>19.36</ele>
        <time>2012-07-30T08:33:33Z</time>
      </trkpt>
      <trkpt lat="45.49196" lon="12.23675">
        <ele>19.36</ele>
        <time>2012-07-30T08:33:34Z</time>
      </trkpt>
      <trkpt lat="45.49197" lon="12.2367">
        <ele>18.88</ele>
        <time>2012-07-30T08:33:35Z</time>
      </trkpt>
      <trkpt lat="45.49196" lon="12.23667">
        <ele>18.88</ele>
        <time>2012-07-30T08:33:36Z</time>
      </trkpt>
      <trkpt lat="45.49193" lon="12.23657">
        <ele>19.36</ele>
        <time>2012-07-30T08:33:49Z</time>
      </trkpt>
      <trkpt lat="45.49191" lon="12.23655">
        <ele>19.36</ele>
        <time>2012-07-30T08:34:06Z</time>
      </trkpt>
      <trkpt lat="45.49188" lon="12.23655">
        <ele>18.88</ele>
        <time>2012-07-30T08:34:35Z</time>
      </trkpt>
      <trkpt lat="45.49186" lon="12.23655">
        <ele>18.88</ele>
        <time>2012-07-30T08:34:57Z</time>
      </trkpt>
      <trkpt lat="45.49184" lon="12.23651">
        <ele>19.36</ele>
        <time>2012-07-30T08:35:01Z</time>
      </trkpt>
      <trkpt lat="45.49185" lon="12.23646">
        <ele>19.36</ele>
        <time>2012-07-30T08:35:02Z</time>
      </trkpt>
      <trkpt lat="45.49185" lon="12.23641">
        <ele>19.36</ele>
        <time>2012-07-30T08:35:03Z</time>
      </trkpt>
      <trkpt lat="45.49195" lon="12.23574">
        <ele>20.32</ele>
        <time>2012-07-30T08:35:13Z</time>
      </trkpt>
      <trkpt lat="45.49202" lon="12.23517">
        <ele>19.84</ele>
        <time>2012-07-30T08:35:23Z</time>
      </trkpt>
      <trkpt lat="45.49204" lon="12.23513">
        <ele>19.84</ele>
        <time>2012-07-30T08:35:24Z</time>
      </trkpt>
      <trkpt lat="45.49207" lon="12.23511">
        <ele>19.36</ele>
        <time>2012-07-30T08:35:25Z</time>
      </trkpt>
      <trkpt lat="45.49209" lon="12.23509">
        <ele>19.84</ele>
        <time>2012-07-30T08:35:26Z</time>
      </trkpt>
      <trkpt lat="45.49212" lon="12.23508">
        <ele>19.84</ele>
        <time>2012-07-30T08:35:27Z</time>
      </trkpt>
      <trkpt lat="45.49215" lon="12.23508">
        <ele>19.36</ele>
        <time>2012-07-30T08:35:28Z</time>
      </trkpt>
      <trkpt lat="45.49219" lon="12.23508">
        <ele>19.84</ele>
        <time>2012-07-30T08:35:29Z</time>
      </trkpt>
      <trkpt lat="45.49224" lon="12.23507">
        <ele>19.36</ele>
        <time>2012-07-30T08:35:30Z</time>
      </trkpt>
      <trkpt lat="45.49229" lon="12.23507">
        <ele>19.84</ele>
        <time>2012-07-30T08:35:31Z</time>
      </trkpt>
      <trkpt lat="45.49236" lon="12.23509">
        <ele>19.84</ele>
        <time>2012-07-30T08:35:32Z</time>
      </trkpt>
      <trkpt lat="45.49288" lon="12.23517">
        <ele>19.36</ele>
        <time>2012-07-30T08:35:41Z</time>
      </trkpt>
      <trkpt lat="45.49292" lon="12.23518">
        <ele>18.88</ele>
        <time>2012-07-30T08:35:52Z</time>
      </trkpt>
      <trkpt lat="45.49296" lon="12.23517">
        <ele>18.4</ele>
        <time>2012-07-30T08:35:56Z</time>
      </trkpt>
      <trkpt lat="45.49299" lon="12.23514">
        <ele>18.88</ele>
        <time>2012-07-30T08:35:57Z</time>
      </trkpt>
      <trkpt lat="45.49302" lon="12.2351">
        <ele>18.88</ele>
        <time>2012-07-30T08:35:58Z</time>
      </trkpt>
      <trkpt lat="45.49304" lon="12.23505">
        <ele>19.36</ele>
        <time>2012-07-30T08:35:59Z</time>
      </trkpt>
      <trkpt lat="45.49305" lon="12.23498">
        <ele>19.36</ele>
        <time>2012-07-30T08:36:00Z</time>
      </trkpt>
      <trkpt lat="45.49305" lon="12.23492">
        <ele>18.88</ele>
        <time>2012-07-30T08:36:01Z</time>
      </trkpt>
      <trkpt lat="45.49307" lon="12.23483">
        <ele>18.88</ele>
        <time>2012-07-30T08:36:03Z</time>
      </trkpt>
      <trkpt lat="45.49308" lon="12.23482">
        <ele>18.4</ele>
        <time>2012-07-30T08:36:04Z</time>
      </trkpt>
      <trkpt lat="45.49311" lon="12.23477">
        <ele>18.4</ele>
        <time>2012-07-30T08:36:16Z</time>
      </trkpt>
      <trkpt lat="45.49307" lon="12.23473">
        <ele>18.4</ele>
        <time>2012-07-30T08:36:36Z</time>
      </trkpt>
      <trkpt lat="45.49306" lon="12.23473">
        <ele>18.4</ele>
        <time>2012-07-30T08:36:39Z</time>
      </trkpt>
      <trkpt lat="45.49303" lon="12.23461">
        <ele>18.4</ele>
        <time>2012-07-30T08:55:48Z</time>
      </trkpt>
      <trkpt lat="45.49303" lon="12.23462">
        <ele>17.92</ele>
        <time>2012-07-30T08:55:49Z</time>
      </trkpt>
      <trkpt lat="45.49298" lon="12.23476">
        <ele>17.44</ele>
        <time>2012-07-30T08:56:24Z</time>
      </trkpt>
      <trkpt lat="45.49302" lon="12.23476">
        <ele>17.92</ele>
        <time>2012-07-30T08:56:57Z</time>
      </trkpt>
      <trkpt lat="45.49301" lon="12.23475">
        <ele>18.4</ele>
        <time>2012-07-30T08:57:35Z</time>
      </trkpt>
      <trkpt lat="45.49301" lon="12.23474">
        <ele>18.4</ele>
        <time>2012-07-30T08:58:12Z</time>
      </trkpt>
      <trkpt lat="45.493" lon="12.23475">
        <ele>18.4</ele>
        <time>2012-07-30T08:58:42Z</time>
      </trkpt>
      <trkpt lat="45.49301" lon="12.23475">
        <ele>16.96</ele>
        <time>2012-07-30T08:58:59Z</time>
      </trkpt>
      <trkpt lat="45.49303" lon="12.23473">
        <ele>17.92</ele>
        <time>2012-07-30T08:59:31Z</time>
      </trkpt>
      <trkpt lat="45.49304" lon="12.23472">
        <ele>14.56</ele>
        <time>2012-07-30T09:00:03Z</time>
      </trkpt>
      <trkpt lat="45.49304" lon="12.23472">
        <ele>18.4</ele>
        <time>2012-07-30T09:00:04Z</time>
      </trkpt>
      <trkpt lat="45.49304" lon="12.23471">
        <ele>17.92</ele>
        <time>2012-07-30T09:00:24Z</time>
      </trkpt>
      <trkpt lat="45.49305" lon="12.23471">
        <ele>17.92</ele>
        <time>2012-07-30T09:00:46Z</time>
      </trkpt>
      <trkpt lat="45.49305" lon="12.23471">
        <ele>17.44</ele>
        <time>2012-07-30T09:01:20Z</time>
      </trkpt>
      <trkpt lat="45.49305" lon="12.23471">
        <ele>16.96</ele>
        <time>2012-07-30T09:01:51Z</time>
      </trkpt>
      <trkpt lat="45.49305" lon="12.23471">
        <ele>17.44</ele>
        <time>2012-07-30T09:02:07Z</time>
      </trkpt>
      <trkpt lat="45.49306" lon="12.23471">
        <ele>16.96</ele>
        <time>2012-07-30T09:02:38Z</time>
      </trkpt>
      <trkpt lat="45.49307" lon="12.23471">
        <ele>16.96</ele>
        <time>2012-07-30T09:03:14Z</time>
      </trkpt>
      <trkpt lat="45.49306" lon="12.2347">
        <ele>16.96</ele>
        <time>2012-07-30T09:03:53Z</time>
      </trkpt>
      <trkpt lat="45.49305" lon="12.2347">
        <ele>16.48</ele>
        <time>2012-07-30T09:04:34Z</time>
      </trkpt>
      <trkpt lat="45.49306" lon="12.23471">
        <ele>16</ele>
        <time>2012-07-30T09:05:19Z</time>
      </trkpt>
      <trkpt lat="45.49306" lon="12.23471">
        <ele>16</ele>
        <time>2012-07-30T09:06:00Z</time>
      </trkpt>
      <trkpt lat="45.49305" lon="12.23471">
        <ele>16</ele>
        <time>2012-07-30T09:06:43Z</time>
      </trkpt>
      <trkpt lat="45.49304" lon="12.23471">
        <ele>15.52</ele>
        <time>2012-07-30T09:07:22Z</time>
      </trkpt>
      <trkpt lat="45.49304" lon="12.23471">
        <ele>15.52</ele>
        <time>2012-07-30T09:07:59Z</time>
      </trkpt>
      <trkpt lat="45.49304" lon="12.23471">
        <ele>15.52</ele>
        <time>2012-07-30T09:08:35Z</time>
      </trkpt>
      <trkpt lat="45.49304" lon="12.2347">
        <ele>15.52</ele>
        <time>2012-07-30T09:09:13Z</time>
      </trkpt>
      <trkpt lat="45.49304" lon="12.23471">
        <ele>15.52</ele>
        <time>2012-07-30T09:09:54Z</time>
      </trkpt>
      <trkpt lat="45.49304" lon="12.23471">
        <ele>15.52</ele>
        <time>2012-07-30T09:10:32Z</time>
      </trkpt>
      <trkpt lat="45.49305" lon="12.23471">
        <ele>12.15</ele>
        <time>2012-07-30T09:10:55Z</time>
      </trkpt>
      <trkpt lat="45.49305" lon="12.23471">
        <ele>16</ele>
        <time>2012-07-30T09:10:56Z</time>
      </trkpt>
      <trkpt lat="45.49305" lon="12.23471">
        <ele>16</ele>
        <time>2012-07-30T09:10:57Z</time>
      </trkpt>
      <trkpt lat="45.49305" lon="12.23471">
        <ele>16</ele>
        <time>2012-07-30T09:11:15Z</time>
      </trkpt>
      <trkpt lat="45.49306" lon="12.23472">
        <ele>11.19</ele>
        <time>2012-07-30T09:11:46Z</time>
      </trkpt>
      <trkpt lat="45.49306" lon="12.23472">
        <ele>17.92</ele>
        <time>2012-07-30T09:11:47Z</time>
      </trkpt>
      <trkpt lat="45.49306" lon="12.23472">
        <ele>14.56</ele>
        <time>2012-07-30T09:11:51Z</time>
      </trkpt>
      <trkpt lat="45.49306" lon="12.23472">
        <ele>18.4</ele>
        <time>2012-07-30T09:11:58Z</time>
      </trkpt>
      <trkpt lat="45.49306" lon="12.23472">
        <ele>14.08</ele>
        <time>2012-07-30T09:12:02Z</time>
      </trkpt>
      <trkpt lat="45.49306" lon="12.23472">
        <ele>17.44</ele>
        <time>2012-07-30T09:12:03Z</time>
      </trkpt>
      <trkpt lat="45.49306" lon="12.23472">
        <ele>16.96</ele>
        <time>2012-07-30T09:12:04Z</time>
      </trkpt>
      <trkpt lat="45.49306" lon="12.23472">
        <ele>13.6</ele>
        <time>2012-07-30T09:12:09Z</time>
      </trkpt>
      <trkpt lat="45.49306" lon="12.23472">
        <ele>15.04</ele>
        <time>2012-07-30T09:12:10Z</time>
      </trkpt>
      <trkpt lat="45.49306" lon="12.23472">
        <ele>13.6</ele>
        <time>2012-07-30T09:12:16Z</time>
      </trkpt>
      <trkpt lat="45.49306" lon="12.23472">
        <ele>15.52</ele>
        <time>2012-07-30T09:12:43Z</time>
      </trkpt>
      <trkpt lat="45.49306" lon="12.23472">
        <ele>15.04</ele>
        <time>2012-07-30T09:13:15Z</time>
      </trkpt>
      <trkpt lat="45.49306" lon="12.23472">
        <ele>11.67</ele>
        <time>2012-07-30T09:13:38Z</time>
      </trkpt>
      <trkpt lat="45.49306" lon="12.23472">
        <ele>16</ele>
        <time>2012-07-30T09:13:39Z</time>
      </trkpt>
      <trkpt lat="45.49306" lon="12.23473">
        <ele>15.52</ele>
        <time>2012-07-30T09:14:08Z</time>
      </trkpt>
      <trkpt lat="45.49306" lon="12.23473">
        <ele>15.52</ele>
        <time>2012-07-30T09:14:32Z</time>
      </trkpt>
      <trkpt lat="45.49306" lon="12.23473">
        <ele>14.08</ele>
        <time>2012-07-30T09:14:37Z</time>
      </trkpt>
      <trkpt lat="45.49306" lon="12.23473">
        <ele>12.15</ele>
        <time>2012-07-30T09:14:41Z</time>
      </trkpt>
      <trkpt lat="45.49306" lon="12.23473">
        <ele>16</ele>
        <time>2012-07-30T09:14:42Z</time>
      </trkpt>
      <trkpt lat="45.49306" lon="12.23473">
        <ele>14.08</ele>
        <time>2012-07-30T09:14:43Z</time>
      </trkpt>
      <trkpt lat="45.49306" lon="12.23473">
        <ele>17.44</ele>
        <time>2012-07-30T09:14:49Z</time>
      </trkpt>
      <trkpt lat="45.49306" lon="12.23473">
        <ele>13.12</ele>
        <time>2012-07-30T09:14:50Z</time>
      </trkpt>
      <trkpt lat="45.49307" lon="12.23477">
        <ele>16.48</ele>
        <time>2012-07-30T09:14:57Z</time>
      </trkpt>
      <trkpt lat="45.49307" lon="12.23477">
        <ele>16</ele>
        <time>2012-07-30T09:14:58Z</time>
      </trkpt>
      <trkpt lat="45.49307" lon="12.23479">
        <ele>12.63</ele>
        <time>2012-07-30T09:15:00Z</time>
      </trkpt>
      <trkpt lat="45.49307" lon="12.23479">
        <ele>16.96</ele>
        <time>2012-07-30T09:15:01Z</time>
      </trkpt>
      <trkpt lat="45.49306" lon="12.23476">
        <ele>13.12</ele>
        <time>2012-07-30T09:15:14Z</time>
      </trkpt>
      <trkpt lat="45.49309" lon="12.2347">
        <ele>15.52</ele>
        <time>2012-07-30T09:15:39Z</time>
      </trkpt>
      <trkpt lat="45.49306" lon="12.23467">
        <ele>15.04</ele>
        <time>2012-07-30T09:16:15Z</time>
      </trkpt>
      <trkpt lat="45.49306" lon="12.23467">
        <ele>13.6</ele>
        <time>2012-07-30T09:16:42Z</time>
      </trkpt>
      <trkpt lat="45.49306" lon="12.2347">
        <ele>15.04</ele>
        <time>2012-07-30T09:17:10Z</time>
      </trkpt>
      <trkpt lat="45.49306" lon="12.23472">
        <ele>13.6</ele>
        <time>2012-07-30T09:17:32Z</time>
      </trkpt>
      <trkpt lat="45.49306" lon="12.23472">
        <ele>16.96</ele>
        <time>2012-07-30T09:17:36Z</time>
      </trkpt>
      <trkpt lat="45.49306" lon="12.23472">
        <ele>16.48</ele>
        <time>2012-07-30T09:17:37Z</time>
      </trkpt>
      <trkpt lat="45.49306" lon="12.23473">
        <ele>16</ele>
        <time>2012-07-30T09:17:50Z</time>
      </trkpt>
      <trkpt lat="45.49306" lon="12.23473">
        <ele>14.56</ele>
        <time>2012-07-30T09:17:52Z</time>
      </trkpt>
      <trkpt lat="45.49305" lon="12.23475">
        <ele>14.08</ele>
        <time>2012-07-30T09:18:36Z</time>
      </trkpt>
      <trkpt lat="45.49304" lon="12.23478">
        <ele>15.04</ele>
        <time>2012-07-30T09:19:02Z</time>
      </trkpt>
      <trkpt lat="45.49304" lon="12.23478">
        <ele>15.52</ele>
        <time>2012-07-30T09:19:23Z</time>
      </trkpt>
      <trkpt lat="45.49305" lon="12.23479">
        <ele>15.52</ele>
        <time>2012-07-30T09:19:56Z</time>
      </trkpt>
      <trkpt lat="45.49305" lon="12.23479">
        <ele>11.67</ele>
        <time>2012-07-30T09:20:25Z</time>
      </trkpt>
      <trkpt lat="45.49305" lon="12.23479">
        <ele>15.52</ele>
        <time>2012-07-30T09:20:26Z</time>
      </trkpt>
      <trkpt lat="45.49305" lon="12.23479">
        <ele>12.63</ele>
        <time>2012-07-30T09:20:36Z</time>
      </trkpt>
      <trkpt lat="45.49305" lon="12.23479">
        <ele>16.48</ele>
        <time>2012-07-30T09:20:41Z</time>
      </trkpt>
      <trkpt lat="45.49306" lon="12.23479">
        <ele>12.63</ele>
        <time>2012-07-30T09:20:51Z</time>
      </trkpt>
      <trkpt lat="45.49306" lon="12.23479">
        <ele>16.96</ele>
        <time>2012-07-30T09:20:52Z</time>
      </trkpt>
      <trkpt lat="45.49306" lon="12.23479">
        <ele>13.6</ele>
        <time>2012-07-30T09:21:02Z</time>
      </trkpt>
      <trkpt lat="45.49306" lon="12.23478">
        <ele>16.96</ele>
        <time>2012-07-30T09:21:10Z</time>
      </trkpt>
      <trkpt lat="45.49306" lon="12.23478">
        <ele>13.12</ele>
        <time>2012-07-30T09:21:11Z</time>
      </trkpt>
      <trkpt lat="45.49306" lon="12.23477">
        <ele>16.48</ele>
        <time>2012-07-30T09:21:30Z</time>
      </trkpt>
      <trkpt lat="45.49306" lon="12.23477">
        <ele>15.52</ele>
        <time>2012-07-30T09:21:38Z</time>
      </trkpt>
      <trkpt lat="45.49306" lon="12.23477">
        <ele>16.96</ele>
        <time>2012-07-30T09:22:11Z</time>
      </trkpt>
      <trkpt lat="45.49306" lon="12.23477">
        <ele>16.48</ele>
        <time>2012-07-30T09:22:16Z</time>
      </trkpt>
      <trkpt lat="45.49306" lon="12.23477">
        <ele>13.12</ele>
        <time>2012-07-30T09:22:21Z</time>
      </trkpt>
      <trkpt lat="45.49306" lon="12.23477">
        <ele>18.4</ele>
        <time>2012-07-30T09:22:22Z</time>
      </trkpt>
      <trkpt lat="45.49306" lon="12.23477">
        <ele>14.08</ele>
        <time>2012-07-30T09:22:23Z</time>
      </trkpt>
      <trkpt lat="45.49306" lon="12.23477">
        <ele>15.04</ele>
        <time>2012-07-30T09:22:48Z</time>
      </trkpt>
      <trkpt lat="45.49306" lon="12.23479">
        <ele>15.52</ele>
        <time>2012-07-30T09:23:17Z</time>
      </trkpt>
      <trkpt lat="45.49306" lon="12.2348">
        <ele>15.52</ele>
        <time>2012-07-30T09:23:41Z</time>
      </trkpt>
      <trkpt lat="45.49307" lon="12.2348">
        <ele>16</ele>
        <time>2012-07-30T09:24:17Z</time>
      </trkpt>
      <trkpt lat="45.49307" lon="12.23482">
        <ele>16</ele>
        <time>2012-07-30T09:24:48Z</time>
      </trkpt>
      <trkpt lat="45.49307" lon="12.23482">
        <ele>15.52</ele>
        <time>2012-07-30T09:25:19Z</time>
      </trkpt>
      <trkpt lat="45.49307" lon="12.23482">
        <ele>15.04</ele>
        <time>2012-07-30T09:25:48Z</time>
      </trkpt>
      <trkpt lat="45.49307" lon="12.23482">
        <ele>16</ele>
        <time>2012-07-30T09:26:16Z</time>
      </trkpt>
      <trkpt lat="45.49306" lon="12.23482">
        <ele>15.52</ele>
        <time>2012-07-30T09:26:52Z</time>
      </trkpt>
      <trkpt lat="45.49306" lon="12.23482">
        <ele>15.52</ele>
        <time>2012-07-30T09:27:25Z</time>
      </trkpt>
      <trkpt lat="45.49306" lon="12.23481">
        <ele>15.52</ele>
        <time>2012-07-30T09:27:59Z</time>
      </trkpt>
      <trkpt lat="45.49305" lon="12.2348">
        <ele>15.52</ele>
        <time>2012-07-30T09:28:36Z</time>
      </trkpt>
      <trkpt lat="45.49305" lon="12.23479">
        <ele>15.52</ele>
        <time>2012-07-30T09:29:14Z</time>
      </trkpt>
      <trkpt lat="45.49305" lon="12.23478">
        <ele>16</ele>
        <time>2012-07-30T09:29:50Z</time>
      </trkpt>
      <trkpt lat="45.49304" lon="12.23478">
        <ele>15.04</ele>
        <time>2012-07-30T09:30:26Z</time>
      </trkpt>
      <trkpt lat="45.49303" lon="12.23479">
        <ele>15.52</ele>
        <time>2012-07-30T09:30:59Z</time>
      </trkpt>
      <trkpt lat="45.49304" lon="12.23478">
        <ele>16</ele>
        <time>2012-07-30T09:31:36Z</time>
      </trkpt>
      <trkpt lat="45.49303" lon="12.23478">
        <ele>16</ele>
        <time>2012-07-30T09:32:08Z</time>
      </trkpt>
      <trkpt lat="45.49303" lon="12.23477">
        <ele>16</ele>
        <time>2012-07-30T09:32:41Z</time>
      </trkpt>
      <trkpt lat="45.49303" lon="12.23476">
        <ele>16</ele>
        <time>2012-07-30T09:33:15Z</time>
      </trkpt>
      <trkpt lat="45.49304" lon="12.23476">
        <ele>16.48</ele>
        <time>2012-07-30T09:33:55Z</time>
      </trkpt>
      <trkpt lat="45.49304" lon="12.23477">
        <ele>16.48</ele>
        <time>2012-07-30T09:34:28Z</time>
      </trkpt>
      <trkpt lat="45.49304" lon="12.23477">
        <ele>16.48</ele>
        <time>2012-07-30T09:35:00Z</time>
      </trkpt>
      <trkpt lat="45.49304" lon="12.23478">
        <ele>16.48</ele>
        <time>2012-07-30T09:35:29Z</time>
      </trkpt>
      <trkpt lat="45.49304" lon="12.23479">
        <ele>16.96</ele>
        <time>2012-07-30T09:36:01Z</time>
      </trkpt>
      <trkpt lat="45.49304" lon="12.23479">
        <ele>16.48</ele>
        <time>2012-07-30T09:36:34Z</time>
      </trkpt>
      <trkpt lat="45.49304" lon="12.23479">
        <ele>16.96</ele>
        <time>2012-07-30T09:37:00Z</time>
      </trkpt>
      <trkpt lat="45.49304" lon="12.2348">
        <ele>16.96</ele>
        <time>2012-07-30T09:37:35Z</time>
      </trkpt>
      <trkpt lat="45.49303" lon="12.2348">
        <ele>17.44</ele>
        <time>2012-07-30T09:38:11Z</time>
      </trkpt>
      <trkpt lat="45.49303" lon="12.2348">
        <ele>17.44</ele>
        <time>2012-07-30T09:38:49Z</time>
      </trkpt>
      <trkpt lat="45.49302" lon="12.2348">
        <ele>16.96</ele>
        <time>2012-07-30T09:39:20Z</time>
      </trkpt>
      <trkpt lat="45.49304" lon="12.2348">
        <ele>17.44</ele>
        <time>2012-07-30T09:39:53Z</time>
      </trkpt>
      <trkpt lat="45.49304" lon="12.2348">
        <ele>17.44</ele>
        <time>2012-07-30T09:40:21Z</time>
      </trkpt>
      <trkpt lat="45.49304" lon="12.2348">
        <ele>17.44</ele>
        <time>2012-07-30T09:40:48Z</time>
      </trkpt>
      <trkpt lat="45.49304" lon="12.2348">
        <ele>17.92</ele>
        <time>2012-07-30T09:41:16Z</time>
      </trkpt>
      <trkpt lat="45.49303" lon="12.23479">
        <ele>17.92</ele>
        <time>2012-07-30T09:41:47Z</time>
      </trkpt>
      <trkpt lat="45.49303" lon="12.23479">
        <ele>17.44</ele>
        <time>2012-07-30T09:42:23Z</time>
      </trkpt>
      <trkpt lat="45.49302" lon="12.23479">
        <ele>17.92</ele>
        <time>2012-07-30T09:43:01Z</time>
      </trkpt>
      <trkpt lat="45.49302" lon="12.23479">
        <ele>17.92</ele>
        <time>2012-07-30T09:43:36Z</time>
      </trkpt>
      <trkpt lat="45.49301" lon="12.23478">
        <ele>18.4</ele>
        <time>2012-07-30T09:44:13Z</time>
      </trkpt>
      <trkpt lat="45.49301" lon="12.23479">
        <ele>18.4</ele>
        <time>2012-07-30T09:44:41Z</time>
      </trkpt>
      <trkpt lat="45.49301" lon="12.23478">
        <ele>18.88</ele>
        <time>2012-07-30T09:45:18Z</time>
      </trkpt>
      <trkpt lat="45.49301" lon="12.23478">
        <ele>18.4</ele>
        <time>2012-07-30T09:45:54Z</time>
      </trkpt>
      <trkpt lat="45.49302" lon="12.23478">
        <ele>18.88</ele>
        <time>2012-07-30T09:46:29Z</time>
      </trkpt>
      <trkpt lat="45.49301" lon="12.23479">
        <ele>18.88</ele>
        <time>2012-07-30T09:47:01Z</time>
      </trkpt>
      <trkpt lat="45.49302" lon="12.23479">
        <ele>18.4</ele>
        <time>2012-07-30T09:47:31Z</time>
      </trkpt>
      <trkpt lat="45.49302" lon="12.2348">
        <ele>18.4</ele>
        <time>2012-07-30T09:48:01Z</time>
      </trkpt>
      <trkpt lat="45.49302" lon="12.2348">
        <ele>18.4</ele>
        <time>2012-07-30T09:48:36Z</time>
      </trkpt>
      <trkpt lat="45.49301" lon="12.23481">
        <ele>18.88</ele>
        <time>2012-07-30T09:49:12Z</time>
      </trkpt>
      <trkpt lat="45.49301" lon="12.23481">
        <ele>18.88</ele>
        <time>2012-07-30T09:49:52Z</time>
      </trkpt>
      <trkpt lat="45.49303" lon="12.23481">
        <ele>18.88</ele>
        <time>2012-07-30T09:50:27Z</time>
      </trkpt>
      <trkpt lat="45.49303" lon="12.23481">
        <ele>18.88</ele>
        <time>2012-07-30T09:50:58Z</time>
      </trkpt>
      <trkpt lat="45.49303" lon="12.23482">
        <ele>17.92</ele>
        <time>2012-07-30T09:51:32Z</time>
      </trkpt>
      <trkpt lat="45.49303" lon="12.23481">
        <ele>18.4</ele>
        <time>2012-07-30T09:52:02Z</time>
      </trkpt>
      <trkpt lat="45.49303" lon="12.23481">
        <ele>18.88</ele>
        <time>2012-07-30T09:52:35Z</time>
      </trkpt>
      <trkpt lat="45.49303" lon="12.23481">
        <ele>18.4</ele>
        <time>2012-07-30T09:53:11Z</time>
      </trkpt>
      <trkpt lat="45.49303" lon="12.23481">
        <ele>18.88</ele>
        <time>2012-07-30T09:53:35Z</time>
      </trkpt>
      <trkpt lat="45.49303" lon="12.2348">
        <ele>14.56</ele>
        <time>2012-07-30T09:53:55Z</time>
      </trkpt>
      <trkpt lat="45.49303" lon="12.2348">
        <ele>20.32</ele>
        <time>2012-07-30T09:53:56Z</time>
      </trkpt>
      <trkpt lat="45.49303" lon="12.23479">
        <ele>16.48</ele>
        <time>2012-07-30T09:54:19Z</time>
      </trkpt>
      <trkpt lat="45.49303" lon="12.23479">
        <ele>20.32</ele>
        <time>2012-07-30T09:54:20Z</time>
      </trkpt>
      <trkpt lat="45.49303" lon="12.23479">
        <ele>16</ele>
        <time>2012-07-30T09:54:22Z</time>
      </trkpt>
      <trkpt lat="45.49303" lon="12.23479">
        <ele>19.36</ele>
        <time>2012-07-30T09:54:23Z</time>
      </trkpt>
      <trkpt lat="45.49304" lon="12.23479">
        <ele>19.36</ele>
        <time>2012-07-30T09:54:52Z</time>
      </trkpt>
      <trkpt lat="45.49304" lon="12.23479">
        <ele>19.36</ele>
        <time>2012-07-30T09:55:09Z</time>
      </trkpt>
      <trkpt lat="45.49305" lon="12.23479">
        <ele>15.04</ele>
        <time>2012-07-30T09:55:23Z</time>
      </trkpt>
      <trkpt lat="45.49305" lon="12.23479">
        <ele>20.32</ele>
        <time>2012-07-30T09:55:24Z</time>
      </trkpt>
      <trkpt lat="45.49305" lon="12.23478">
        <ele>17.44</ele>
        <time>2012-07-30T09:55:29Z</time>
      </trkpt>
      <trkpt lat="45.49305" lon="12.23478">
        <ele>20.32</ele>
        <time>2012-07-30T09:55:42Z</time>
      </trkpt>
      <trkpt lat="45.49305" lon="12.23478">
        <ele>19.36</ele>
        <time>2012-07-30T09:55:43Z</time>
      </trkpt>
      <trkpt lat="45.49305" lon="12.23478">
        <ele>18.4</ele>
        <time>2012-07-30T09:55:45Z</time>
      </trkpt>
      <trkpt lat="45.49305" lon="12.23478">
        <ele>19.36</ele>
        <time>2012-07-30T09:56:12Z</time>
      </trkpt>
      <trkpt lat="45.49305" lon="12.23478">
        <ele>17.44</ele>
        <time>2012-07-30T09:56:37Z</time>
      </trkpt>
      <trkpt lat="45.49305" lon="12.23478">
        <ele>19.36</ele>
        <time>2012-07-30T09:56:39Z</time>
      </trkpt>
      <trkpt lat="45.49305" lon="12.23478">
        <ele>20.81</ele>
        <time>2012-07-30T09:57:11Z</time>
      </trkpt>
      <trkpt lat="45.49305" lon="12.23478">
        <ele>16</ele>
        <time>2012-07-30T09:57:27Z</time>
      </trkpt>
      <trkpt lat="45.49305" lon="12.23478">
        <ele>18.88</ele>
        <time>2012-07-30T09:57:28Z</time>
      </trkpt>
      <trkpt lat="45.49306" lon="12.23477">
        <ele>19.36</ele>
        <time>2012-07-30T09:57:57Z</time>
      </trkpt>
      <trkpt lat="45.49306" lon="12.23476">
        <ele>19.36</ele>
        <time>2012-07-30T09:58:27Z</time>
      </trkpt>
      <trkpt lat="45.49306" lon="12.23476">
        <ele>18.88</ele>
        <time>2012-07-30T09:59:02Z</time>
      </trkpt>
      <trkpt lat="45.49306" lon="12.23475">
        <ele>18.4</ele>
        <time>2012-07-30T09:59:39Z</time>
      </trkpt>
      <trkpt lat="45.49306" lon="12.23475">
        <ele>17.92</ele>
        <time>2012-07-30T10:00:08Z</time>
      </trkpt>
      <trkpt lat="45.49306" lon="12.23475">
        <ele>19.36</ele>
        <time>2012-07-30T10:00:12Z</time>
      </trkpt>
      <trkpt lat="45.49306" lon="12.23475">
        <ele>18.88</ele>
        <time>2012-07-30T10:00:36Z</time>
      </trkpt>
      <trkpt lat="45.49306" lon="12.23475">
        <ele>18.4</ele>
        <time>2012-07-30T10:01:02Z</time>
      </trkpt>
      <trkpt lat="45.49304" lon="12.23477">
        <ele>18.4</ele>
        <time>2012-07-30T10:01:16Z</time>
      </trkpt>
      <trkpt lat="45.49306" lon="12.23477">
        <ele>18.88</ele>
        <time>2012-07-30T10:01:34Z</time>
      </trkpt>
      <trkpt lat="45.49304" lon="12.23477">
        <ele>17.92</ele>
        <time>2012-07-30T10:01:44Z</time>
      </trkpt>
      <trkpt lat="45.49305" lon="12.23477">
        <ele>17.92</ele>
        <time>2012-07-30T10:02:05Z</time>
      </trkpt>
      <trkpt lat="45.49305" lon="12.23477">
        <ele>18.88</ele>
        <time>2012-07-30T10:02:07Z</time>
      </trkpt>
      <trkpt lat="45.49305" lon="12.23477">
        <ele>18.88</ele>
        <time>2012-07-30T10:02:27Z</time>
      </trkpt>
      <trkpt lat="45.49305" lon="12.23477">
        <ele>14.56</ele>
        <time>2012-07-30T10:02:38Z</time>
      </trkpt>
      <trkpt lat="45.49305" lon="12.23477">
        <ele>18.88</ele>
        <time>2012-07-30T10:02:39Z</time>
      </trkpt>
      <trkpt lat="45.49305" lon="12.23477">
        <ele>18.4</ele>
        <time>2012-07-30T10:02:40Z</time>
      </trkpt>
      <trkpt lat="45.49304" lon="12.23478">
        <ele>18.88</ele>
        <time>2012-07-30T10:02:48Z</time>
      </trkpt>
      <trkpt lat="45.49304" lon="12.23476">
        <ele>18.4</ele>
        <time>2012-07-30T10:03:10Z</time>
      </trkpt>
      <trkpt lat="45.49303" lon="12.23475">
        <ele>17.44</ele>
        <time>2012-07-30T10:03:30Z</time>
      </trkpt>
      <trkpt lat="45.49301" lon="12.23476">
        <ele>18.4</ele>
        <time>2012-07-30T10:03:54Z</time>
      </trkpt>
      <trkpt lat="45.49301" lon="12.23476">
        <ele>17.44</ele>
        <time>2012-07-30T10:04:14Z</time>
      </trkpt>
      <trkpt lat="45.493" lon="12.23475">
        <ele>18.4</ele>
        <time>2012-07-30T10:04:39Z</time>
      </trkpt>
      <trkpt lat="45.493" lon="12.23476">
        <ele>18.4</ele>
        <time>2012-07-30T10:05:04Z</time>
      </trkpt>
      <trkpt lat="45.493" lon="12.23476">
        <ele>17.92</ele>
        <time>2012-07-30T10:05:27Z</time>
      </trkpt>
      <trkpt lat="45.49301" lon="12.23477">
        <ele>15.04</ele>
        <time>2012-07-30T10:05:54Z</time>
      </trkpt>
      <trkpt lat="45.49301" lon="12.23477">
        <ele>18.4</ele>
        <time>2012-07-30T10:05:55Z</time>
      </trkpt>
      <trkpt lat="45.49301" lon="12.23477">
        <ele>16.96</ele>
        <time>2012-07-30T10:06:01Z</time>
      </trkpt>
      <trkpt lat="45.49301" lon="12.23478">
        <ele>18.4</ele>
        <time>2012-07-30T10:06:20Z</time>
      </trkpt>
      <trkpt lat="45.49301" lon="12.23479">
        <ele>17.92</ele>
        <time>2012-07-30T10:06:49Z</time>
      </trkpt>
      <trkpt lat="45.49304" lon="12.23478">
        <ele>17.44</ele>
        <time>2012-07-30T10:07:13Z</time>
      </trkpt>
      <trkpt lat="45.49304" lon="12.23477">
        <ele>16</ele>
        <time>2012-07-30T10:07:30Z</time>
      </trkpt>
      <trkpt lat="45.49303" lon="12.23477">
        <ele>17.92</ele>
        <time>2012-07-30T10:07:43Z</time>
      </trkpt>
      <trkpt lat="45.49308" lon="12.23475">
        <ele>18.4</ele>
        <time>2012-07-30T10:08:00Z</time>
      </trkpt>
      <trkpt lat="45.49308" lon="12.23475">
        <ele>15.04</ele>
        <time>2012-07-30T10:08:06Z</time>
      </trkpt>
      <trkpt lat="45.49308" lon="12.23475">
        <ele>18.88</ele>
        <time>2012-07-30T10:08:07Z</time>
      </trkpt>
      <trkpt lat="45.49308" lon="12.23475">
        <ele>17.44</ele>
        <time>2012-07-30T10:08:10Z</time>
      </trkpt>
      <trkpt lat="45.49309" lon="12.23475">
        <ele>12.15</ele>
        <time>2012-07-30T10:08:13Z</time>
      </trkpt>
      <trkpt lat="45.49309" lon="12.23475">
        <ele>18.88</ele>
        <time>2012-07-30T10:08:14Z</time>
      </trkpt>
      <trkpt lat="45.49309" lon="12.23476">
        <ele>16</ele>
        <time>2012-07-30T10:08:38Z</time>
      </trkpt>
      <trkpt lat="45.49306" lon="12.23481">
        <ele>17.44</ele>
        <time>2012-07-30T10:09:01Z</time>
      </trkpt>
      <trkpt lat="45.49306" lon="12.2348">
        <ele>16.48</ele>
        <time>2012-07-30T10:09:24Z</time>
      </trkpt>
      <trkpt lat="45.49306" lon="12.2348">
        <ele>18.4</ele>
        <time>2012-07-30T10:09:31Z</time>
      </trkpt>
      <trkpt lat="45.49306" lon="12.23479">
        <ele>16</ele>
        <time>2012-07-30T10:09:32Z</time>
      </trkpt>
      <trkpt lat="45.49305" lon="12.23478">
        <ele>16.96</ele>
        <time>2012-07-30T10:09:34Z</time>
      </trkpt>
      <trkpt lat="45.49305" lon="12.23476">
        <ele>16</ele>
        <time>2012-07-30T10:09:35Z</time>
      </trkpt>
      <trkpt lat="45.49304" lon="12.2347">
        <ele>15.52</ele>
        <time>2012-07-30T10:09:40Z</time>
      </trkpt>
      <trkpt lat="45.49304" lon="12.23469">
        <ele>17.44</ele>
        <time>2012-07-30T10:09:43Z</time>
      </trkpt>
      <trkpt lat="45.49306" lon="12.23471">
        <ele>16</ele>
        <time>2012-07-30T10:10:07Z</time>
      </trkpt>
      <trkpt lat="45.49306" lon="12.23472">
        <ele>16.96</ele>
        <time>2012-07-30T10:10:35Z</time>
      </trkpt>
      <trkpt lat="45.49306" lon="12.23473">
        <ele>16.48</ele>
        <time>2012-07-30T10:11:00Z</time>
      </trkpt>
      <trkpt lat="45.49306" lon="12.23481">
        <ele>16</ele>
        <time>2012-07-30T10:11:21Z</time>
      </trkpt>
      <trkpt lat="45.49307" lon="12.23483">
        <ele>16.48</ele>
        <time>2012-07-30T10:11:38Z</time>
      </trkpt>
      <trkpt lat="45.49306" lon="12.23484">
        <ele>16</ele>
        <time>2012-07-30T10:12:02Z</time>
      </trkpt>
      <trkpt lat="45.49308" lon="12.23485">
        <ele>15.52</ele>
        <time>2012-07-30T10:12:32Z</time>
      </trkpt>
      <trkpt lat="45.49308" lon="12.23484">
        <ele>15.52</ele>
        <time>2012-07-30T10:12:55Z</time>
      </trkpt>
      <trkpt lat="45.49307" lon="12.23486">
        <ele>15.52</ele>
        <time>2012-07-30T10:13:21Z</time>
      </trkpt>
      <trkpt lat="45.49305" lon="12.23486">
        <ele>15.04</ele>
        <time>2012-07-30T10:13:48Z</time>
      </trkpt>
      <trkpt lat="45.49304" lon="12.23486">
        <ele>16</ele>
        <time>2012-07-30T10:14:11Z</time>
      </trkpt>
      <trkpt lat="45.49305" lon="12.23485">
        <ele>15.52</ele>
        <time>2012-07-30T10:14:39Z</time>
      </trkpt>
      <trkpt lat="45.49305" lon="12.23485">
        <ele>15.04</ele>
        <time>2012-07-30T10:15:17Z</time>
      </trkpt>
      <trkpt lat="45.49304" lon="12.23484">
        <ele>16</ele>
        <time>2012-07-30T10:15:50Z</time>
      </trkpt>
      <trkpt lat="45.49304" lon="12.23478">
        <ele>15.52</ele>
        <time>2012-07-30T10:16:02Z</time>
      </trkpt>
      <trkpt lat="45.49302" lon="12.23476">
        <ele>13.6</ele>
        <time>2012-07-30T10:16:18Z</time>
      </trkpt>
      <trkpt lat="45.49303" lon="12.23474">
        <ele>15.52</ele>
        <time>2012-07-30T10:16:41Z</time>
      </trkpt>
      <trkpt lat="45.49302" lon="12.23472">
        <ele>15.52</ele>
        <time>2012-07-30T10:17:01Z</time>
      </trkpt>
      <trkpt lat="45.49302" lon="12.2347">
        <ele>15.52</ele>
        <time>2012-07-30T10:17:06Z</time>
      </trkpt>
      <trkpt lat="45.49303" lon="12.23472">
        <ele>15.04</ele>
        <time>2012-07-30T10:17:21Z</time>
      </trkpt>
      <trkpt lat="45.49304" lon="12.23474">
        <ele>14.56</ele>
        <time>2012-07-30T10:17:44Z</time>
      </trkpt>
      <trkpt lat="45.49305" lon="12.23474">
        <ele>14.56</ele>
        <time>2012-07-30T10:18:11Z</time>
      </trkpt>
      <trkpt lat="45.49304" lon="12.23477">
        <ele>15.04</ele>
        <time>2012-07-30T10:18:38Z</time>
      </trkpt>
      <trkpt lat="45.49305" lon="12.23476">
        <ele>14.56</ele>
        <time>2012-07-30T10:19:04Z</time>
      </trkpt>
      <trkpt lat="45.49305" lon="12.23478">
        <ele>14.56</ele>
        <time>2012-07-30T10:19:32Z</time>
      </trkpt>
      <trkpt lat="45.49304" lon="12.23477">
        <ele>14.56</ele>
        <time>2012-07-30T10:19:59Z</time>
      </trkpt>
      <trkpt lat="45.49303" lon="12.23478">
        <ele>14.56</ele>
        <time>2012-07-30T10:20:32Z</time>
      </trkpt>
      <trkpt lat="45.49303" lon="12.23479">
        <ele>13.6</ele>
        <time>2012-07-30T10:21:00Z</time>
      </trkpt>
      <trkpt lat="45.49302" lon="12.23478">
        <ele>13.6</ele>
        <time>2012-07-30T10:21:26Z</time>
      </trkpt>
      <trkpt lat="45.49302" lon="12.23478">
        <ele>14.08</ele>
        <time>2012-07-30T10:21:49Z</time>
      </trkpt>
      <trkpt lat="45.49302" lon="12.23478">
        <ele>14.08</ele>
        <time>2012-07-30T10:22:15Z</time>
      </trkpt>
      <trkpt lat="45.49302" lon="12.23479">
        <ele>14.08</ele>
        <time>2012-07-30T10:22:36Z</time>
      </trkpt>
      <trkpt lat="45.49303" lon="12.23478">
        <ele>14.08</ele>
        <time>2012-07-30T10:23:00Z</time>
      </trkpt>
      <trkpt lat="45.49303" lon="12.23477">
        <ele>13.6</ele>
        <time>2012-07-30T10:23:22Z</time>
      </trkpt>
      <trkpt lat="45.49303" lon="12.23477">
        <ele>14.08</ele>
        <time>2012-07-30T10:23:45Z</time>
      </trkpt>
      <trkpt lat="45.49304" lon="12.23478">
        <ele>13.6</ele>
        <time>2012-07-30T10:24:12Z</time>
      </trkpt>
      <trkpt lat="45.49304" lon="12.23477">
        <ele>13.6</ele>
        <time>2012-07-30T10:24:41Z</time>
      </trkpt>
      <trkpt lat="45.49303" lon="12.23477">
        <ele>13.6</ele>
        <time>2012-07-30T10:25:06Z</time>
      </trkpt>
      <trkpt lat="45.49302" lon="12.23477">
        <ele>13.6</ele>
        <time>2012-07-30T10:25:32Z</time>
      </trkpt>
      <trkpt lat="45.49301" lon="12.23478">
        <ele>14.08</ele>
        <time>2012-07-30T10:25:55Z</time>
      </trkpt>
      <trkpt lat="45.49302" lon="12.23478">
        <ele>13.6</ele>
        <time>2012-07-30T10:26:13Z</time>
      </trkpt>
      <trkpt lat="45.49305" lon="12.23479">
        <ele>13.6</ele>
        <time>2012-07-30T10:26:23Z</time>
      </trkpt>
      <trkpt lat="45.49306" lon="12.23474">
        <ele>13.6</ele>
        <time>2012-07-30T10:26:29Z</time>
      </trkpt>
      <trkpt lat="45.49303" lon="12.23473">
        <ele>14.08</ele>
        <time>2012-07-30T10:26:31Z</time>
      </trkpt>
      <trkpt lat="45.493" lon="12.23472">
        <ele>13.6</ele>
        <time>2012-07-30T10:26:35Z</time>
      </trkpt>
      <trkpt lat="45.49296" lon="12.23483">
        <ele>13.6</ele>
        <time>2012-07-30T10:26:39Z</time>
      </trkpt>
      <trkpt lat="45.49297" lon="12.2349">
        <ele>14.08</ele>
        <time>2012-07-30T10:26:40Z</time>
      </trkpt>
      <trkpt lat="45.49297" lon="12.23497">
        <ele>13.6</ele>
        <time>2012-07-30T10:26:41Z</time>
      </trkpt>
      <trkpt lat="45.49295" lon="12.23509">
        <ele>14.08</ele>
        <time>2012-07-30T10:26:44Z</time>
      </trkpt>
      <trkpt lat="45.49254" lon="12.23506">
        <ele>15.04</ele>
        <time>2012-07-30T10:26:49Z</time>
      </trkpt>
      <trkpt lat="45.4921" lon="12.23502">
        <ele>14.08</ele>
        <time>2012-07-30T10:26:56Z</time>
      </trkpt>
      <trkpt lat="45.49203" lon="12.23505">
        <ele>14.56</ele>
        <time>2012-07-30T10:26:58Z</time>
      </trkpt>
      <trkpt lat="45.49201" lon="12.23511">
        <ele>14.56</ele>
        <time>2012-07-30T10:26:59Z</time>
      </trkpt>
      <trkpt lat="45.49199" lon="12.2352">
        <ele>14.56</ele>
        <time>2012-07-30T10:27:00Z</time>
      </trkpt>
      <trkpt lat="45.49198" lon="12.23532">
        <ele>15.04</ele>
        <time>2012-07-30T10:27:01Z</time>
      </trkpt>
      <trkpt lat="45.49197" lon="12.23543">
        <ele>15.04</ele>
        <time>2012-07-30T10:27:02Z</time>
      </trkpt>
      <trkpt lat="45.49196" lon="12.23551">
        <ele>14.56</ele>
        <time>2012-07-30T10:27:03Z</time>
      </trkpt>
      <trkpt lat="45.49195" lon="12.23564">
        <ele>14.08</ele>
        <time>2012-07-30T10:27:10Z</time>
      </trkpt>
      <trkpt lat="45.49198" lon="12.23564">
        <ele>13.6</ele>
        <time>2012-07-30T10:27:40Z</time>
      </trkpt>
      <trkpt lat="45.49198" lon="12.23565">
        <ele>13.6</ele>
        <time>2012-07-30T10:28:09Z</time>
      </trkpt>
      <trkpt lat="45.49198" lon="12.2357">
        <ele>14.08</ele>
        <time>2012-07-30T10:28:17Z</time>
      </trkpt>
      <trkpt lat="45.49199" lon="12.23578">
        <ele>14.56</ele>
        <time>2012-07-30T10:28:18Z</time>
      </trkpt>
      <trkpt lat="45.49201" lon="12.23586">
        <ele>14.08</ele>
        <time>2012-07-30T10:28:19Z</time>
      </trkpt>
      <trkpt lat="45.49203" lon="12.23592">
        <ele>15.04</ele>
        <time>2012-07-30T10:28:20Z</time>
      </trkpt>
      <trkpt lat="45.49208" lon="12.23596">
        <ele>14.56</ele>
        <time>2012-07-30T10:28:21Z</time>
      </trkpt>
      <trkpt lat="45.49216" lon="12.23598">
        <ele>15.52</ele>
        <time>2012-07-30T10:28:22Z</time>
      </trkpt>
      <trkpt lat="45.49225" lon="12.236">
        <ele>15.04</ele>
        <time>2012-07-30T10:28:23Z</time>
      </trkpt>
      <trkpt lat="45.49332" lon="12.23603">
        <ele>16.48</ele>
        <time>2012-07-30T10:28:33Z</time>
      </trkpt>
      <trkpt lat="45.4948" lon="12.23601">
        <ele>15.04</ele>
        <time>2012-07-30T10:28:46Z</time>
      </trkpt>
      <trkpt lat="45.49624" lon="12.23607">
        <ele>16</ele>
        <time>2012-07-30T10:28:58Z</time>
      </trkpt>
      <trkpt lat="45.49658" lon="12.23616">
        <ele>16</ele>
        <time>2012-07-30T10:29:01Z</time>
      </trkpt>
      <trkpt lat="45.49682" lon="12.23628">
        <ele>14.56</ele>
        <time>2012-07-30T10:29:04Z</time>
      </trkpt>
      <trkpt lat="45.49687" lon="12.23636">
        <ele>14.56</ele>
        <time>2012-07-30T10:29:05Z</time>
      </trkpt>
      <trkpt lat="45.49692" lon="12.23646">
        <ele>15.04</ele>
        <time>2012-07-30T10:29:06Z</time>
      </trkpt>
      <trkpt lat="45.49696" lon="12.23655">
        <ele>14.56</ele>
        <time>2012-07-30T10:29:07Z</time>
      </trkpt>
      <trkpt lat="45.497" lon="12.23662">
        <ele>14.56</ele>
        <time>2012-07-30T10:29:08Z</time>
      </trkpt>
      <trkpt lat="45.49706" lon="12.23666">
        <ele>14.56</ele>
        <time>2012-07-30T10:29:09Z</time>
      </trkpt>
      <trkpt lat="45.49712" lon="12.23666">
        <ele>14.56</ele>
        <time>2012-07-30T10:29:10Z</time>
      </trkpt>
      <trkpt lat="45.4972" lon="12.23663">
        <ele>14.56</ele>
        <time>2012-07-30T10:29:11Z</time>
      </trkpt>
      <trkpt lat="45.49728" lon="12.23662">
        <ele>14.56</ele>
        <time>2012-07-30T10:29:12Z</time>
      </trkpt>
      <trkpt lat="45.49736" lon="12.23664">
        <ele>15.04</ele>
        <time>2012-07-30T10:29:13Z</time>
      </trkpt>
      <trkpt lat="45.49744" lon="12.2367">
        <ele>15.04</ele>
        <time>2012-07-30T10:29:14Z</time>
      </trkpt>
      <trkpt lat="45.49751" lon="12.23675">
        <ele>14.08</ele>
        <time>2012-07-30T10:29:15Z</time>
      </trkpt>
      <trkpt lat="45.49757" lon="12.23679">
        <ele>14.08</ele>
        <time>2012-07-30T10:29:16Z</time>
      </trkpt>
      <trkpt lat="45.4976" lon="12.23683">
        <ele>14.08</ele>
        <time>2012-07-30T10:29:17Z</time>
      </trkpt>
      <trkpt lat="45.49765" lon="12.23686">
        <ele>13.6</ele>
        <time>2012-07-30T10:29:26Z</time>
      </trkpt>
      <trkpt lat="45.49767" lon="12.23687">
        <ele>13.6</ele>
        <time>2012-07-30T10:29:56Z</time>
      </trkpt>
      <trkpt lat="45.49785" lon="12.23705">
        <ele>14.08</ele>
        <time>2012-07-30T10:30:03Z</time>
      </trkpt>
      <trkpt lat="45.49797" lon="12.23714">
        <ele>15.04</ele>
        <time>2012-07-30T10:30:05Z</time>
      </trkpt>
      <trkpt lat="45.49805" lon="12.23718">
        <ele>15.04</ele>
        <time>2012-07-30T10:30:06Z</time>
      </trkpt>
      <trkpt lat="45.49813" lon="12.2372">
        <ele>15.04</ele>
        <time>2012-07-30T10:30:07Z</time>
      </trkpt>
      <trkpt lat="45.49893" lon="12.23731">
        <ele>12.15</ele>
        <time>2012-07-30T10:30:14Z</time>
      </trkpt>
      <trkpt lat="45.49906" lon="12.23733">
        <ele>11.67</ele>
        <time>2012-07-30T10:30:15Z</time>
      </trkpt>
      <trkpt lat="45.49933" lon="12.23736">
        <ele>10.23</ele>
        <time>2012-07-30T10:30:17Z</time>
      </trkpt>
      <trkpt lat="45.50006" lon="12.23746">
        <ele>13.6</ele>
        <time>2012-07-30T10:30:22Z</time>
      </trkpt>
      <trkpt lat="45.50069" lon="12.23751">
        <ele>17.44</ele>
        <time>2012-07-30T10:30:26Z</time>
      </trkpt>
      <trkpt lat="45.50235" lon="12.23765">
        <ele>16</ele>
        <time>2012-07-30T10:30:37Z</time>
      </trkpt>
      <trkpt lat="45.50245" lon="12.23766">
        <ele>16</ele>
        <time>2012-07-30T10:30:38Z</time>
      </trkpt>
      <trkpt lat="45.5026" lon="12.23766">
        <ele>14.56</ele>
        <time>2012-07-30T10:30:40Z</time>
      </trkpt>
      <trkpt lat="45.5027" lon="12.23766">
        <ele>14.08</ele>
        <time>2012-07-30T10:30:46Z</time>
      </trkpt>
      <trkpt lat="45.50286" lon="12.23765">
        <ele>14.08</ele>
        <time>2012-07-30T10:31:08Z</time>
      </trkpt>
      <trkpt lat="45.50292" lon="12.23765">
        <ele>14.08</ele>
        <time>2012-07-30T10:31:09Z</time>
      </trkpt>
      <trkpt lat="45.50298" lon="12.23764">
        <ele>14.56</ele>
        <time>2012-07-30T10:31:10Z</time>
      </trkpt>
      <trkpt lat="45.50303" lon="12.23761">
        <ele>14.56</ele>
        <time>2012-07-30T10:31:11Z</time>
      </trkpt>
      <trkpt lat="45.50308" lon="12.23753">
        <ele>14.56</ele>
        <time>2012-07-30T10:31:12Z</time>
      </trkpt>
      <trkpt lat="45.50311" lon="12.23744">
        <ele>14.56</ele>
        <time>2012-07-30T10:31:13Z</time>
      </trkpt>
      <trkpt lat="45.50313" lon="12.23733">
        <ele>14.56</ele>
        <time>2012-07-30T10:31:14Z</time>
      </trkpt>
      <trkpt lat="45.50343" lon="12.23611">
        <ele>16</ele>
        <time>2012-07-30T10:31:22Z</time>
      </trkpt>
      <trkpt lat="45.50402" lon="12.23419">
        <ele>15.04</ele>
        <time>2012-07-30T10:31:33Z</time>
      </trkpt>
      <trkpt lat="45.50408" lon="12.23407">
        <ele>15.04</ele>
        <time>2012-07-30T10:31:34Z</time>
      </trkpt>
      <trkpt lat="45.50416" lon="12.23397">
        <ele>14.56</ele>
        <time>2012-07-30T10:31:35Z</time>
      </trkpt>
      <trkpt lat="45.50426" lon="12.2339">
        <ele>15.04</ele>
        <time>2012-07-30T10:31:36Z</time>
      </trkpt>
      <trkpt lat="45.50437" lon="12.23385">
        <ele>16</ele>
        <time>2012-07-30T10:31:37Z</time>
      </trkpt>
      <trkpt lat="45.50449" lon="12.2338">
        <ele>15.52</ele>
        <time>2012-07-30T10:31:38Z</time>
      </trkpt>
      <trkpt lat="45.50461" lon="12.23374">
        <ele>16</ele>
        <time>2012-07-30T10:31:39Z</time>
      </trkpt>
      <trkpt lat="45.50473" lon="12.23368">
        <ele>16</ele>
        <time>2012-07-30T10:31:40Z</time>
      </trkpt>
      <trkpt lat="45.50485" lon="12.23366">
        <ele>16.48</ele>
        <time>2012-07-30T10:31:41Z</time>
      </trkpt>
      <trkpt lat="45.50498" lon="12.23367">
        <ele>16.48</ele>
        <time>2012-07-30T10:31:42Z</time>
      </trkpt>
      <trkpt lat="45.50512" lon="12.23372">
        <ele>17.44</ele>
        <time>2012-07-30T10:31:43Z</time>
      </trkpt>
      <trkpt lat="45.50525" lon="12.2338">
        <ele>17.92</ele>
        <time>2012-07-30T10:31:44Z</time>
      </trkpt>
      <trkpt lat="45.50539" lon="12.23388">
        <ele>17.92</ele>
        <time>2012-07-30T10:31:45Z</time>
      </trkpt>
      <trkpt lat="45.50612" lon="12.23433">
        <ele>22.25</ele>
        <time>2012-07-30T10:31:50Z</time>
      </trkpt>
      <trkpt lat="45.50711" lon="12.23493">
        <ele>25.13</ele>
        <time>2012-07-30T10:31:56Z</time>
      </trkpt>
      <trkpt lat="45.5093" lon="12.23621">
        <ele>24.17</ele>
        <time>2012-07-30T10:32:08Z</time>
      </trkpt>
      <trkpt lat="45.50989" lon="12.2366">
        <ele>26.09</ele>
        <time>2012-07-30T10:32:11Z</time>
      </trkpt>
      <trkpt lat="45.51124" lon="12.23803">
        <ele>27.53</ele>
        <time>2012-07-30T10:32:19Z</time>
      </trkpt>
      <trkpt lat="45.51252" lon="12.24001">
        <ele>29.94</ele>
        <time>2012-07-30T10:32:27Z</time>
      </trkpt>
      <trkpt lat="45.51499" lon="12.24397">
        <ele>27.05</ele>
        <time>2012-07-30T10:32:43Z</time>
      </trkpt>
      <trkpt lat="45.51651" lon="12.24687">
        <ele>28.98</ele>
        <time>2012-07-30T10:32:54Z</time>
      </trkpt>
      <trkpt lat="45.51913" lon="12.25126">
        <ele>28.98</ele>
        <time>2012-07-30T10:33:11Z</time>
      </trkpt>
      <trkpt lat="45.5213" lon="12.25451">
        <ele>24.17</ele>
        <time>2012-07-30T10:33:24Z</time>
      </trkpt>
      <trkpt lat="45.52147" lon="12.25476">
        <ele>25.61</ele>
        <time>2012-07-30T10:33:25Z</time>
      </trkpt>
      <trkpt lat="45.52333" lon="12.25758">
        <ele>21.77</ele>
        <time>2012-07-30T10:33:36Z</time>
      </trkpt>
      <trkpt lat="45.52462" lon="12.25954">
        <ele>26.57</ele>
        <time>2012-07-30T10:33:44Z</time>
      </trkpt>
      <trkpt lat="45.52477" lon="12.25978">
        <ele>26.09</ele>
        <time>2012-07-30T10:33:45Z</time>
      </trkpt>
      <trkpt lat="45.52493" lon="12.26002">
        <ele>21.77</ele>
        <time>2012-07-30T10:33:46Z</time>
      </trkpt>
      <trkpt lat="45.52537" lon="12.26074">
        <ele>23.21</ele>
        <time>2012-07-30T10:33:49Z</time>
      </trkpt>
      <trkpt lat="45.52783" lon="12.26504">
        <ele>22.25</ele>
        <time>2012-07-30T10:34:06Z</time>
      </trkpt>
      <trkpt lat="45.5284" lon="12.2661">
        <ele>21.77</ele>
        <time>2012-07-30T10:34:10Z</time>
      </trkpt>
      <trkpt lat="45.52994" lon="12.26906">
        <ele>21.29</ele>
        <time>2012-07-30T10:34:21Z</time>
      </trkpt>
      <trkpt lat="45.53114" lon="12.27138">
        <ele>24.65</ele>
        <time>2012-07-30T10:34:30Z</time>
      </trkpt>
      <trkpt lat="45.5322" lon="12.27343">
        <ele>20.81</ele>
        <time>2012-07-30T10:34:38Z</time>
      </trkpt>
      <trkpt lat="45.53233" lon="12.27367">
        <ele>20.32</ele>
        <time>2012-07-30T10:34:39Z</time>
      </trkpt>
      <trkpt lat="45.53322" lon="12.27584">
        <ele>19.36</ele>
        <time>2012-07-30T10:34:48Z</time>
      </trkpt>
      <trkpt lat="45.5334" lon="12.27727">
        <ele>21.29</ele>
        <time>2012-07-30T10:34:53Z</time>
      </trkpt>
      <trkpt lat="45.53363" lon="12.27993">
        <ele>18.88</ele>
        <time>2012-07-30T10:35:02Z</time>
      </trkpt>
      <trkpt lat="45.53392" lon="12.284">
        <ele>17.92</ele>
        <time>2012-07-30T10:35:17Z</time>
      </trkpt>
      <trkpt lat="45.53412" lon="12.28654">
        <ele>20.81</ele>
        <time>2012-07-30T10:35:26Z</time>
      </trkpt>
      <trkpt lat="45.53442" lon="12.29052">
        <ele>22.25</ele>
        <time>2012-07-30T10:35:39Z</time>
      </trkpt>
      <trkpt lat="45.5345" lon="12.29281">
        <ele>26.09</ele>
        <time>2012-07-30T10:35:46Z</time>
      </trkpt>
      <trkpt lat="45.53452" lon="12.2942">
        <ele>29.46</ele>
        <time>2012-07-30T10:35:50Z</time>
      </trkpt>
      <trkpt lat="45.53453" lon="12.29523">
        <ele>30.9</ele>
        <time>2012-07-30T10:35:53Z</time>
      </trkpt>
      <trkpt lat="45.53447" lon="12.29827">
        <ele>29.46</ele>
        <time>2012-07-30T10:36:02Z</time>
      </trkpt>
      <trkpt lat="45.53408" lon="12.30342">
        <ele>28.98</ele>
        <time>2012-07-30T10:36:17Z</time>
      </trkpt>
      <trkpt lat="45.53379" lon="12.30547">
        <ele>27.53</ele>
        <time>2012-07-30T10:36:23Z</time>
      </trkpt>
      <trkpt lat="45.53343" lon="12.30749">
        <ele>24.17</ele>
        <time>2012-07-30T10:36:29Z</time>
      </trkpt>
      <trkpt lat="45.53281" lon="12.31018">
        <ele>22.25</ele>
        <time>2012-07-30T10:36:37Z</time>
      </trkpt>
      <trkpt lat="45.53144" lon="12.31458">
        <ele>22.73</ele>
        <time>2012-07-30T10:36:51Z</time>
      </trkpt>
      <trkpt lat="45.53024" lon="12.31753">
        <ele>25.61</ele>
        <time>2012-07-30T10:37:01Z</time>
      </trkpt>
      <trkpt lat="45.5287" lon="12.32062">
        <ele>28.98</ele>
        <time>2012-07-30T10:37:12Z</time>
      </trkpt>
      <trkpt lat="45.52855" lon="12.32089">
        <ele>28.5</ele>
        <time>2012-07-30T10:37:13Z</time>
      </trkpt>
      <trkpt lat="45.52777" lon="12.32221">
        <ele>25.13</ele>
        <time>2012-07-30T10:37:18Z</time>
      </trkpt>
      <trkpt lat="45.52744" lon="12.32273">
        <ele>24.17</ele>
        <time>2012-07-30T10:37:20Z</time>
      </trkpt>
      <trkpt lat="45.52711" lon="12.32324">
        <ele>22.73</ele>
        <time>2012-07-30T10:37:22Z</time>
      </trkpt>
      <trkpt lat="45.52577" lon="12.32513">
        <ele>19.36</ele>
        <time>2012-07-30T10:37:30Z</time>
      </trkpt>
      <trkpt lat="45.52438" lon="12.32685">
        <ele>17.92</ele>
        <time>2012-07-30T10:37:38Z</time>
      </trkpt>
      <trkpt lat="45.52191" lon="12.3296">
        <ele>19.84</ele>
        <time>2012-07-30T10:37:53Z</time>
      </trkpt>
      <trkpt lat="45.51972" lon="12.33176">
        <ele>18.88</ele>
        <time>2012-07-30T10:38:05Z</time>
      </trkpt>
      <trkpt lat="45.51953" lon="12.33194">
        <ele>18.88</ele>
        <time>2012-07-30T10:38:06Z</time>
      </trkpt>
      <trkpt lat="45.51601" lon="12.33543">
        <ele>17.92</ele>
        <time>2012-07-30T10:38:25Z</time>
      </trkpt>
      <trkpt lat="45.51545" lon="12.336">
        <ele>19.36</ele>
        <time>2012-07-30T10:38:28Z</time>
      </trkpt>
      <trkpt lat="45.51394" lon="12.33748">
        <ele>17.44</ele>
        <time>2012-07-30T10:38:36Z</time>
      </trkpt>
      <trkpt lat="45.51347" lon="12.33793">
        <ele>13.6</ele>
        <time>2012-07-30T10:38:39Z</time>
      </trkpt>
      <trkpt lat="45.51321" lon="12.33817">
        <ele>12.63</ele>
        <time>2012-07-30T10:38:41Z</time>
      </trkpt>
      <trkpt lat="45.5127" lon="12.33865">
        <ele>9.27</ele>
        <time>2012-07-30T10:38:46Z</time>
      </trkpt>
      <trkpt lat="45.51261" lon="12.33873">
        <ele>8.31</ele>
        <time>2012-07-30T10:38:48Z</time>
      </trkpt>
      <trkpt lat="45.51248" lon="12.33885">
        <ele>7.83</ele>
        <time>2012-07-30T10:38:57Z</time>
      </trkpt>
      <trkpt lat="45.51248" lon="12.33886">
        <ele>7.83</ele>
        <time>2012-07-30T10:39:25Z</time>
      </trkpt>
      <trkpt lat="45.51231" lon="12.33906">
        <ele>8.31</ele>
        <time>2012-07-30T10:39:38Z</time>
      </trkpt>
      <trkpt lat="45.51182" lon="12.33988">
        <ele>8.79</ele>
        <time>2012-07-30T10:39:48Z</time>
      </trkpt>
      <trkpt lat="45.51164" lon="12.34107">
        <ele>10.23</ele>
        <time>2012-07-30T10:39:57Z</time>
      </trkpt>
      <trkpt lat="45.51176" lon="12.34215">
        <ele>8.79</ele>
        <time>2012-07-30T10:40:03Z</time>
      </trkpt>
      <trkpt lat="45.51211" lon="12.34495">
        <ele>11.19</ele>
        <time>2012-07-30T10:40:17Z</time>
      </trkpt>
      <trkpt lat="45.51222" lon="12.34629">
        <ele>10.71</ele>
        <time>2012-07-30T10:40:23Z</time>
      </trkpt>
      <trkpt lat="45.51247" lon="12.34832">
        <ele>9.75</ele>
        <time>2012-07-30T10:40:34Z</time>
      </trkpt>
      <trkpt lat="45.51306" lon="12.3502">
        <ele>10.23</ele>
        <time>2012-07-30T10:40:45Z</time>
      </trkpt>
      <trkpt lat="45.5141" lon="12.35202">
        <ele>10.23</ele>
        <time>2012-07-30T10:40:56Z</time>
      </trkpt>
      <trkpt lat="45.5151" lon="12.35306">
        <ele>12.15</ele>
        <time>2012-07-30T10:41:03Z</time>
      </trkpt>
      <trkpt lat="45.5169" lon="12.35455">
        <ele>11.19</ele>
        <time>2012-07-30T10:41:14Z</time>
      </trkpt>
      <trkpt lat="45.51805" lon="12.35579">
        <ele>9.75</ele>
        <time>2012-07-30T10:41:23Z</time>
      </trkpt>
      <trkpt lat="45.51894" lon="12.35739">
        <ele>10.71</ele>
        <time>2012-07-30T10:41:33Z</time>
      </trkpt>
      <trkpt lat="45.51971" lon="12.35962">
        <ele>12.15</ele>
        <time>2012-07-30T10:41:43Z</time>
      </trkpt>
      <trkpt lat="45.52068" lon="12.36207">
        <ele>15.52</ele>
        <time>2012-07-30T10:41:53Z</time>
      </trkpt>
      <trkpt lat="45.52252" lon="12.36549">
        <ele>15.04</ele>
        <time>2012-07-30T10:42:07Z</time>
      </trkpt>
      <trkpt lat="45.52408" lon="12.36828">
        <ele>15.04</ele>
        <time>2012-07-30T10:42:19Z</time>
      </trkpt>
      <trkpt lat="45.52535" lon="12.37085">
        <ele>13.12</ele>
        <time>2012-07-30T10:42:30Z</time>
      </trkpt>
      <trkpt lat="45.52588" lon="12.37317">
        <ele>14.56</ele>
        <time>2012-07-30T10:42:38Z</time>
      </trkpt>
      <trkpt lat="45.52694" lon="12.37921">
        <ele>15.04</ele>
        <time>2012-07-30T10:42:58Z</time>
      </trkpt>
      <trkpt lat="45.52716" lon="12.38041">
        <ele>15.52</ele>
        <time>2012-07-30T10:43:02Z</time>
      </trkpt>
      <trkpt lat="45.52772" lon="12.38345">
        <ele>12.63</ele>
        <time>2012-07-30T10:43:13Z</time>
      </trkpt>
      <trkpt lat="45.52827" lon="12.38571">
        <ele>10.71</ele>
        <time>2012-07-30T10:43:22Z</time>
      </trkpt>
      <trkpt lat="45.52914" lon="12.38737">
        <ele>9.27</ele>
        <time>2012-07-30T10:43:31Z</time>
      </trkpt>
      <trkpt lat="45.52992" lon="12.38853">
        <ele>12.63</ele>
        <time>2012-07-30T10:43:38Z</time>
      </trkpt>
      <trkpt lat="45.53003" lon="12.3887">
        <ele>12.15</ele>
        <time>2012-07-30T10:43:39Z</time>
      </trkpt>
      <trkpt lat="45.53114" lon="12.39041">
        <ele>13.12</ele>
        <time>2012-07-30T10:43:49Z</time>
      </trkpt>
      <trkpt lat="45.53317" lon="12.39351">
        <ele>10.23</ele>
        <time>2012-07-30T10:44:05Z</time>
      </trkpt>
      <trkpt lat="45.53492" lon="12.39618">
        <ele>10.71</ele>
        <time>2012-07-30T10:44:19Z</time>
      </trkpt>
      <trkpt lat="45.53645" lon="12.39811">
        <ele>10.23</ele>
        <time>2012-07-30T10:44:30Z</time>
      </trkpt>
      <trkpt lat="45.53837" lon="12.40002">
        <ele>13.12</ele>
        <time>2012-07-30T10:44:44Z</time>
      </trkpt>
      <trkpt lat="45.5388" lon="12.40043">
        <ele>12.15</ele>
        <time>2012-07-30T10:44:47Z</time>
      </trkpt>
      <trkpt lat="45.5407" lon="12.40233">
        <ele>11.67</ele>
        <time>2012-07-30T10:45:00Z</time>
      </trkpt>
      <trkpt lat="45.54318" lon="12.40486">
        <ele>10.23</ele>
        <time>2012-07-30T10:45:16Z</time>
      </trkpt>
      <trkpt lat="45.54384" lon="12.40612">
        <ele>9.27</ele>
        <time>2012-07-30T10:45:23Z</time>
      </trkpt>
      <trkpt lat="45.54446" lon="12.40761">
        <ele>12.63</ele>
        <time>2012-07-30T10:45:31Z</time>
      </trkpt>
      <trkpt lat="45.54545" lon="12.41001">
        <ele>12.15</ele>
        <time>2012-07-30T10:45:42Z</time>
      </trkpt>
      <trkpt lat="45.54702" lon="12.41381">
        <ele>10.71</ele>
        <time>2012-07-30T10:45:59Z</time>
      </trkpt>
      <trkpt lat="45.5486" lon="12.41765">
        <ele>12.63</ele>
        <time>2012-07-30T10:46:16Z</time>
      </trkpt>
      <trkpt lat="45.54896" lon="12.41852">
        <ele>9.75</ele>
        <time>2012-07-30T10:46:20Z</time>
      </trkpt>
      <trkpt lat="45.54998" lon="12.42096">
        <ele>12.15</ele>
        <time>2012-07-30T10:46:32Z</time>
      </trkpt>
      <trkpt lat="45.55032" lon="12.42177">
        <ele>17.92</ele>
        <time>2012-07-30T10:46:35Z</time>
      </trkpt>
      <trkpt lat="45.55044" lon="12.42206">
        <ele>16.96</ele>
        <time>2012-07-30T10:46:36Z</time>
      </trkpt>
      <trkpt lat="45.55078" lon="12.42292">
        <ele>13.6</ele>
        <time>2012-07-30T10:46:39Z</time>
      </trkpt>
      <trkpt lat="45.55136" lon="12.42435">
        <ele>10.23</ele>
        <time>2012-07-30T10:46:45Z</time>
      </trkpt>
      <trkpt lat="45.55259" lon="12.42732">
        <ele>8.31</ele>
        <time>2012-07-30T10:46:59Z</time>
      </trkpt>
      <trkpt lat="45.55372" lon="12.43008">
        <ele>7.83</ele>
        <time>2012-07-30T10:47:13Z</time>
      </trkpt>
      <trkpt lat="45.5544" lon="12.43174">
        <ele>10.71</ele>
        <time>2012-07-30T10:47:21Z</time>
      </trkpt>
      <trkpt lat="45.55459" lon="12.43223">
        <ele>12.15</ele>
        <time>2012-07-30T10:47:23Z</time>
      </trkpt>
      <trkpt lat="45.55584" lon="12.43524">
        <ele>15.52</ele>
        <time>2012-07-30T10:47:35Z</time>
      </trkpt>
      <trkpt lat="45.55658" lon="12.43704">
        <ele>18.4</ele>
        <time>2012-07-30T10:47:42Z</time>
      </trkpt>
      <trkpt lat="45.55753" lon="12.43938">
        <ele>18.88</ele>
        <time>2012-07-30T10:47:51Z</time>
      </trkpt>
      <trkpt lat="45.55852" lon="12.44111">
        <ele>16.96</ele>
        <time>2012-07-30T10:47:59Z</time>
      </trkpt>
      <trkpt lat="45.55868" lon="12.44124">
        <ele>16.96</ele>
        <time>2012-07-30T10:48:00Z</time>
      </trkpt>
      <trkpt lat="45.55885" lon="12.44136">
        <ele>16.96</ele>
        <time>2012-07-30T10:48:01Z</time>
      </trkpt>
      <trkpt lat="45.55902" lon="12.44146">
        <ele>17.92</ele>
        <time>2012-07-30T10:48:02Z</time>
      </trkpt>
      <trkpt lat="45.55919" lon="12.44154">
        <ele>17.44</ele>
        <time>2012-07-30T10:48:03Z</time>
      </trkpt>
      <trkpt lat="45.55969" lon="12.44175">
        <ele>16</ele>
        <time>2012-07-30T10:48:06Z</time>
      </trkpt>
      <trkpt lat="45.56017" lon="12.44201">
        <ele>14.56</ele>
        <time>2012-07-30T10:48:09Z</time>
      </trkpt>
      <trkpt lat="45.56032" lon="12.44214">
        <ele>14.08</ele>
        <time>2012-07-30T10:48:10Z</time>
      </trkpt>
      <trkpt lat="45.56095" lon="12.4427">
        <ele>13.12</ele>
        <time>2012-07-30T10:48:14Z</time>
      </trkpt>
      <trkpt lat="45.56186" lon="12.4436">
        <ele>11.19</ele>
        <time>2012-07-30T10:48:20Z</time>
      </trkpt>
      <trkpt lat="45.56249" lon="12.44424">
        <ele>13.6</ele>
        <time>2012-07-30T10:48:24Z</time>
      </trkpt>
      <trkpt lat="45.56315" lon="12.44489">
        <ele>15.04</ele>
        <time>2012-07-30T10:48:28Z</time>
      </trkpt>
      <trkpt lat="45.56382" lon="12.44556">
        <ele>14.08</ele>
        <time>2012-07-30T10:48:32Z</time>
      </trkpt>
      <trkpt lat="45.56467" lon="12.44641">
        <ele>16</ele>
        <time>2012-07-30T10:48:37Z</time>
      </trkpt>
      <trkpt lat="45.56501" lon="12.44675">
        <ele>14.56</ele>
        <time>2012-07-30T10:48:39Z</time>
      </trkpt>
      <trkpt lat="45.56726" lon="12.44898">
        <ele>14.08</ele>
        <time>2012-07-30T10:48:52Z</time>
      </trkpt>
      <trkpt lat="45.57083" lon="12.45257">
        <ele>13.6</ele>
        <time>2012-07-30T10:49:12Z</time>
      </trkpt>
      <trkpt lat="45.57332" lon="12.4551">
        <ele>15.04</ele>
        <time>2012-07-30T10:49:26Z</time>
      </trkpt>
      <trkpt lat="45.57423" lon="12.45601">
        <ele>15.52</ele>
        <time>2012-07-30T10:49:31Z</time>
      </trkpt>
      <trkpt lat="45.57821" lon="12.45994">
        <ele>15.52</ele>
        <time>2012-07-30T10:49:53Z</time>
      </trkpt>
      <trkpt lat="45.57875" lon="12.46047">
        <ele>14.56</ele>
        <time>2012-07-30T10:49:56Z</time>
      </trkpt>
      <trkpt lat="45.5809" lon="12.46256">
        <ele>17.92</ele>
        <time>2012-07-30T10:50:08Z</time>
      </trkpt>
      <trkpt lat="45.58216" lon="12.46379">
        <ele>15.52</ele>
        <time>2012-07-30T10:50:15Z</time>
      </trkpt>
      <trkpt lat="45.58511" lon="12.46667">
        <ele>15.04</ele>
        <time>2012-07-30T10:50:31Z</time>
      </trkpt>
      <trkpt lat="45.58821" lon="12.46982">
        <ele>15.04</ele>
        <time>2012-07-30T10:50:48Z</time>
      </trkpt>
      <trkpt lat="45.59127" lon="12.47302">
        <ele>14.56</ele>
        <time>2012-07-30T10:51:05Z</time>
      </trkpt>
      <trkpt lat="45.594" lon="12.47567">
        <ele>14.08</ele>
        <time>2012-07-30T10:51:20Z</time>
      </trkpt>
      <trkpt lat="45.59647" lon="12.47828">
        <ele>12.15</ele>
        <time>2012-07-30T10:51:34Z</time>
      </trkpt>
      <trkpt lat="45.59682" lon="12.47867">
        <ele>14.08</ele>
        <time>2012-07-30T10:51:36Z</time>
      </trkpt>
      <trkpt lat="45.6003" lon="12.48254">
        <ele>14.56</ele>
        <time>2012-07-30T10:51:56Z</time>
      </trkpt>
      <trkpt lat="45.60224" lon="12.48416">
        <ele>14.56</ele>
        <time>2012-07-30T10:52:06Z</time>
      </trkpt>
      <trkpt lat="45.60605" lon="12.48667">
        <ele>13.6</ele>
        <time>2012-07-30T10:52:25Z</time>
      </trkpt>
      <trkpt lat="45.60946" lon="12.48905">
        <ele>13.12</ele>
        <time>2012-07-30T10:52:42Z</time>
      </trkpt>
      <trkpt lat="45.61137" lon="12.49039">
        <ele>10.23</ele>
        <time>2012-07-30T10:52:53Z</time>
      </trkpt>
      <trkpt lat="45.61186" lon="12.49085">
        <ele>8.31</ele>
        <time>2012-07-30T10:52:57Z</time>
      </trkpt>
      <trkpt lat="45.61195" lon="12.49098">
        <ele>8.79</ele>
        <time>2012-07-30T10:52:58Z</time>
      </trkpt>
      <trkpt lat="45.61203" lon="12.49112">
        <ele>7.35</ele>
        <time>2012-07-30T10:52:59Z</time>
      </trkpt>
      <trkpt lat="45.61208" lon="12.49128">
        <ele>7.35</ele>
        <time>2012-07-30T10:53:00Z</time>
      </trkpt>
      <trkpt lat="45.61211" lon="12.49145">
        <ele>8.79</ele>
        <time>2012-07-30T10:53:01Z</time>
      </trkpt>
      <trkpt lat="45.61211" lon="12.49164">
        <ele>8.79</ele>
        <time>2012-07-30T10:53:02Z</time>
      </trkpt>
      <trkpt lat="45.6121" lon="12.49186">
        <ele>9.27</ele>
        <time>2012-07-30T10:53:03Z</time>
      </trkpt>
      <trkpt lat="45.61212" lon="12.49208">
        <ele>10.71</ele>
        <time>2012-07-30T10:53:04Z</time>
      </trkpt>
      <trkpt lat="45.61217" lon="12.49229">
        <ele>10.23</ele>
        <time>2012-07-30T10:53:05Z</time>
      </trkpt>
      <trkpt lat="45.61224" lon="12.49247">
        <ele>9.27</ele>
        <time>2012-07-30T10:53:06Z</time>
      </trkpt>
      <trkpt lat="45.61231" lon="12.49264">
        <ele>8.31</ele>
        <time>2012-07-30T10:53:07Z</time>
      </trkpt>
      <trkpt lat="45.61236" lon="12.49281">
        <ele>8.79</ele>
        <time>2012-07-30T10:53:08Z</time>
      </trkpt>
      <trkpt lat="45.61238" lon="12.49301">
        <ele>8.79</ele>
        <time>2012-07-30T10:53:09Z</time>
      </trkpt>
      <trkpt lat="45.61237" lon="12.49321">
        <ele>8.79</ele>
        <time>2012-07-30T10:53:10Z</time>
      </trkpt>
      <trkpt lat="45.61232" lon="12.49341">
        <ele>9.27</ele>
        <time>2012-07-30T10:53:11Z</time>
      </trkpt>
      <trkpt lat="45.61225" lon="12.49363">
        <ele>9.75</ele>
        <time>2012-07-30T10:53:12Z</time>
      </trkpt>
      <trkpt lat="45.61202" lon="12.49435">
        <ele>12.63</ele>
        <time>2012-07-30T10:53:15Z</time>
      </trkpt>
      <trkpt lat="45.61117" lon="12.49739">
        <ele>14.08</ele>
        <time>2012-07-30T10:53:26Z</time>
      </trkpt>
      <trkpt lat="45.61047" lon="12.50029">
        <ele>13.12</ele>
        <time>2012-07-30T10:53:36Z</time>
      </trkpt>
      <trkpt lat="45.60939" lon="12.50341">
        <ele>12.63</ele>
        <time>2012-07-30T10:53:47Z</time>
      </trkpt>
      <trkpt lat="45.6087" lon="12.50536">
        <ele>15.52</ele>
        <time>2012-07-30T10:53:54Z</time>
      </trkpt>
      <trkpt lat="45.60739" lon="12.50899">
        <ele>15.04</ele>
        <time>2012-07-30T10:54:07Z</time>
      </trkpt>
      <trkpt lat="45.60616" lon="12.51237">
        <ele>15.04</ele>
        <time>2012-07-30T10:54:19Z</time>
      </trkpt>
      <trkpt lat="45.60596" lon="12.51294">
        <ele>16.48</ele>
        <time>2012-07-30T10:54:21Z</time>
      </trkpt>
      <trkpt lat="45.60502" lon="12.51548">
        <ele>13.12</ele>
        <time>2012-07-30T10:54:30Z</time>
      </trkpt>
      <trkpt lat="45.60482" lon="12.51604">
        <ele>12.63</ele>
        <time>2012-07-30T10:54:32Z</time>
      </trkpt>
      <trkpt lat="45.60387" lon="12.51861">
        <ele>8.31</ele>
        <time>2012-07-30T10:54:41Z</time>
      </trkpt>
      <trkpt lat="45.60376" lon="12.5189">
        <ele>13.12</ele>
        <time>2012-07-30T10:54:42Z</time>
      </trkpt>
      <trkpt lat="45.60248" lon="12.52238">
        <ele>12.15</ele>
        <time>2012-07-30T10:54:54Z</time>
      </trkpt>
      <trkpt lat="45.60091" lon="12.52627">
        <ele>12.63</ele>
        <time>2012-07-30T10:55:08Z</time>
      </trkpt>
      <trkpt lat="45.59934" lon="12.52865">
        <ele>11.19</ele>
        <time>2012-07-30T10:55:18Z</time>
      </trkpt>
      <trkpt lat="45.59726" lon="12.53159">
        <ele>14.08</ele>
        <time>2012-07-30T10:55:31Z</time>
      </trkpt>
      <trkpt lat="45.5942" lon="12.53591">
        <ele>13.6</ele>
        <time>2012-07-30T10:55:50Z</time>
      </trkpt>
      <trkpt lat="45.59359" lon="12.53682">
        <ele>12.63</ele>
        <time>2012-07-30T10:55:54Z</time>
      </trkpt>
      <trkpt lat="45.59268" lon="12.53896">
        <ele>13.12</ele>
        <time>2012-07-30T10:56:02Z</time>
      </trkpt>
      <trkpt lat="45.59231" lon="12.54113">
        <ele>13.12</ele>
        <time>2012-07-30T10:56:09Z</time>
      </trkpt>
      <trkpt lat="45.5922" lon="12.54533">
        <ele>12.15</ele>
        <time>2012-07-30T10:56:22Z</time>
      </trkpt>
      <trkpt lat="45.59215" lon="12.54815">
        <ele>8.79</ele>
        <time>2012-07-30T10:56:31Z</time>
      </trkpt>
      <trkpt lat="45.59214" lon="12.54845">
        <ele>8.79</ele>
        <time>2012-07-30T10:56:32Z</time>
      </trkpt>
      <trkpt lat="45.59212" lon="12.54936">
        <ele>10.23</ele>
        <time>2012-07-30T10:56:35Z</time>
      </trkpt>
      <trkpt lat="45.59207" lon="12.55201">
        <ele>8.31</ele>
        <time>2012-07-30T10:56:44Z</time>
      </trkpt>
      <trkpt lat="45.59203" lon="12.55282">
        <ele>5.42</ele>
        <time>2012-07-30T10:56:48Z</time>
      </trkpt>
      <trkpt lat="45.59201" lon="12.55297">
        <ele>4.46</ele>
        <time>2012-07-30T10:56:49Z</time>
      </trkpt>
      <trkpt lat="45.59196" lon="12.5531">
        <ele>4.46</ele>
        <time>2012-07-30T10:56:50Z</time>
      </trkpt>
      <trkpt lat="45.59188" lon="12.55321">
        <ele>4.46</ele>
        <time>2012-07-30T10:56:51Z</time>
      </trkpt>
      <trkpt lat="45.59178" lon="12.5533">
        <ele>4.46</ele>
        <time>2012-07-30T10:56:52Z</time>
      </trkpt>
      <trkpt lat="45.59165" lon="12.55335">
        <ele>5.42</ele>
        <time>2012-07-30T10:56:53Z</time>
      </trkpt>
      <trkpt lat="45.59151" lon="12.55336">
        <ele>5.91</ele>
        <time>2012-07-30T10:56:54Z</time>
      </trkpt>
      <trkpt lat="45.59136" lon="12.55335">
        <ele>5.42</ele>
        <time>2012-07-30T10:56:55Z</time>
      </trkpt>
      <trkpt lat="45.59121" lon="12.55337">
        <ele>5.42</ele>
        <time>2012-07-30T10:56:56Z</time>
      </trkpt>
      <trkpt lat="45.59106" lon="12.55343">
        <ele>5.42</ele>
        <time>2012-07-30T10:56:57Z</time>
      </trkpt>
      <trkpt lat="45.59093" lon="12.55353">
        <ele>5.42</ele>
        <time>2012-07-30T10:56:58Z</time>
      </trkpt>
      <trkpt lat="45.59081" lon="12.55368">
        <ele>5.91</ele>
        <time>2012-07-30T10:56:59Z</time>
      </trkpt>
      <trkpt lat="45.59071" lon="12.55384">
        <ele>6.39</ele>
        <time>2012-07-30T10:57:00Z</time>
      </trkpt>
      <trkpt lat="45.59064" lon="12.55404">
        <ele>6.39</ele>
        <time>2012-07-30T10:57:01Z</time>
      </trkpt>
      <trkpt lat="45.59059" lon="12.55425">
        <ele>7.35</ele>
        <time>2012-07-30T10:57:02Z</time>
      </trkpt>
      <trkpt lat="45.59058" lon="12.55448">
        <ele>7.83</ele>
        <time>2012-07-30T10:57:03Z</time>
      </trkpt>
      <trkpt lat="45.5906" lon="12.5547">
        <ele>7.35</ele>
        <time>2012-07-30T10:57:04Z</time>
      </trkpt>
      <trkpt lat="45.59062" lon="12.5549">
        <ele>5.91</ele>
        <time>2012-07-30T10:57:05Z</time>
      </trkpt>
      <trkpt lat="45.59061" lon="12.55508">
        <ele>4.94</ele>
        <time>2012-07-30T10:57:06Z</time>
      </trkpt>
      <trkpt lat="45.59057" lon="12.55526">
        <ele>4.94</ele>
        <time>2012-07-30T10:57:07Z</time>
      </trkpt>
      <trkpt lat="45.59049" lon="12.55543">
        <ele>5.91</ele>
        <time>2012-07-30T10:57:08Z</time>
      </trkpt>
      <trkpt lat="45.59038" lon="12.55558">
        <ele>6.39</ele>
        <time>2012-07-30T10:57:09Z</time>
      </trkpt>
      <trkpt lat="45.59024" lon="12.5557">
        <ele>5.91</ele>
        <time>2012-07-30T10:57:10Z</time>
      </trkpt>
      <trkpt lat="45.59009" lon="12.5558">
        <ele>6.87</ele>
        <time>2012-07-30T10:57:11Z</time>
      </trkpt>
      <trkpt lat="45.58992" lon="12.55586">
        <ele>7.35</ele>
        <time>2012-07-30T10:57:12Z</time>
      </trkpt>
      <trkpt lat="45.58974" lon="12.55591">
        <ele>7.83</ele>
        <time>2012-07-30T10:57:13Z</time>
      </trkpt>
      <trkpt lat="45.58955" lon="12.55592">
        <ele>8.79</ele>
        <time>2012-07-30T10:57:14Z</time>
      </trkpt>
      <trkpt lat="45.58935" lon="12.55591">
        <ele>9.27</ele>
        <time>2012-07-30T10:57:15Z</time>
      </trkpt>
      <trkpt lat="45.58916" lon="12.55587">
        <ele>8.31</ele>
        <time>2012-07-30T10:57:16Z</time>
      </trkpt>
      <trkpt lat="45.58897" lon="12.55581">
        <ele>9.27</ele>
        <time>2012-07-30T10:57:17Z</time>
      </trkpt>
      <trkpt lat="45.58779" lon="12.55541">
        <ele>13.12</ele>
        <time>2012-07-30T10:57:23Z</time>
      </trkpt>
      <trkpt lat="45.58739" lon="12.55535">
        <ele>14.08</ele>
        <time>2012-07-30T10:57:25Z</time>
      </trkpt>
      <trkpt lat="45.58552" lon="12.55542">
        <ele>15.52</ele>
        <time>2012-07-30T10:57:34Z</time>
      </trkpt>
      <trkpt lat="45.58411" lon="12.55599">
        <ele>16</ele>
        <time>2012-07-30T10:57:41Z</time>
      </trkpt>
      <trkpt lat="45.58311" lon="12.5572">
        <ele>12.63</ele>
        <time>2012-07-30T10:57:47Z</time>
      </trkpt>
      <trkpt lat="45.58299" lon="12.55744">
        <ele>12.15</ele>
        <time>2012-07-30T10:57:48Z</time>
      </trkpt>
      <trkpt lat="45.58275" lon="12.55786">
        <ele>8.31</ele>
        <time>2012-07-30T10:57:50Z</time>
      </trkpt>
      <trkpt lat="45.58263" lon="12.55804">
        <ele>8.31</ele>
        <time>2012-07-30T10:57:51Z</time>
      </trkpt>
      <trkpt lat="45.5825" lon="12.55821">
        <ele>7.35</ele>
        <time>2012-07-30T10:57:52Z</time>
      </trkpt>
      <trkpt lat="45.58237" lon="12.55834">
        <ele>6.87</ele>
        <time>2012-07-30T10:57:53Z</time>
      </trkpt>
      <trkpt lat="45.58222" lon="12.55845">
        <ele>6.87</ele>
        <time>2012-07-30T10:57:54Z</time>
      </trkpt>
      <trkpt lat="45.58209" lon="12.55853">
        <ele>4.94</ele>
        <time>2012-07-30T10:57:55Z</time>
      </trkpt>
      <trkpt lat="45.58196" lon="12.55857">
        <ele>3.5</ele>
        <time>2012-07-30T10:57:56Z</time>
      </trkpt>
      <trkpt lat="45.58183" lon="12.55858">
        <ele>3.02</ele>
        <time>2012-07-30T10:57:57Z</time>
      </trkpt>
      <trkpt lat="45.58169" lon="12.55854">
        <ele>3.5</ele>
        <time>2012-07-30T10:57:58Z</time>
      </trkpt>
      <trkpt lat="45.58156" lon="12.55845">
        <ele>3.5</ele>
        <time>2012-07-30T10:57:59Z</time>
      </trkpt>
      <trkpt lat="45.58144" lon="12.55832">
        <ele>4.46</ele>
        <time>2012-07-30T10:58:00Z</time>
      </trkpt>
      <trkpt lat="45.5813" lon="12.55819">
        <ele>4.46</ele>
        <time>2012-07-30T10:58:01Z</time>
      </trkpt>
      <trkpt lat="45.58116" lon="12.5581">
        <ele>3.5</ele>
        <time>2012-07-30T10:58:02Z</time>
      </trkpt>
      <trkpt lat="45.58101" lon="12.55805">
        <ele>3.98</ele>
        <time>2012-07-30T10:58:03Z</time>
      </trkpt>
      <trkpt lat="45.58085" lon="12.55804">
        <ele>3.98</ele>
        <time>2012-07-30T10:58:04Z</time>
      </trkpt>
      <trkpt lat="45.5807" lon="12.55807">
        <ele>4.46</ele>
        <time>2012-07-30T10:58:05Z</time>
      </trkpt>
      <trkpt lat="45.58054" lon="12.55814">
        <ele>5.42</ele>
        <time>2012-07-30T10:58:06Z</time>
      </trkpt>
      <trkpt lat="45.5804" lon="12.55824">
        <ele>4.94</ele>
        <time>2012-07-30T10:58:07Z</time>
      </trkpt>
      <trkpt lat="45.58028" lon="12.55837">
        <ele>4.94</ele>
        <time>2012-07-30T10:58:08Z</time>
      </trkpt>
      <trkpt lat="45.58018" lon="12.55855">
        <ele>4.94</ele>
        <time>2012-07-30T10:58:09Z</time>
      </trkpt>
      <trkpt lat="45.58011" lon="12.55875">
        <ele>5.91</ele>
        <time>2012-07-30T10:58:10Z</time>
      </trkpt>
      <trkpt lat="45.58007" lon="12.55897">
        <ele>6.39</ele>
        <time>2012-07-30T10:58:11Z</time>
      </trkpt>
      <trkpt lat="45.58006" lon="12.5592">
        <ele>6.39</ele>
        <time>2012-07-30T10:58:12Z</time>
      </trkpt>
      <trkpt lat="45.58008" lon="12.55943">
        <ele>7.35</ele>
        <time>2012-07-30T10:58:13Z</time>
      </trkpt>
      <trkpt lat="45.58013" lon="12.55966">
        <ele>7.35</ele>
        <time>2012-07-30T10:58:14Z</time>
      </trkpt>
      <trkpt lat="45.58021" lon="12.55987">
        <ele>6.87</ele>
        <time>2012-07-30T10:58:15Z</time>
      </trkpt>
      <trkpt lat="45.58033" lon="12.56006">
        <ele>7.83</ele>
        <time>2012-07-30T10:58:16Z</time>
      </trkpt>
      <trkpt lat="45.58047" lon="12.56022">
        <ele>7.35</ele>
        <time>2012-07-30T10:58:17Z</time>
      </trkpt>
      <trkpt lat="45.58061" lon="12.56035">
        <ele>7.35</ele>
        <time>2012-07-30T10:58:18Z</time>
      </trkpt>
      <trkpt lat="45.58074" lon="12.5605">
        <ele>6.87</ele>
        <time>2012-07-30T10:58:19Z</time>
      </trkpt>
      <trkpt lat="45.58085" lon="12.56068">
        <ele>6.39</ele>
        <time>2012-07-30T10:58:20Z</time>
      </trkpt>
      <trkpt lat="45.58094" lon="12.56089">
        <ele>7.35</ele>
        <time>2012-07-30T10:58:21Z</time>
      </trkpt>
      <trkpt lat="45.581" lon="12.56114">
        <ele>8.79</ele>
        <time>2012-07-30T10:58:22Z</time>
      </trkpt>
      <trkpt lat="45.58104" lon="12.5614">
        <ele>9.27</ele>
        <time>2012-07-30T10:58:23Z</time>
      </trkpt>
      <trkpt lat="45.58106" lon="12.56167">
        <ele>9.75</ele>
        <time>2012-07-30T10:58:24Z</time>
      </trkpt>
      <trkpt lat="45.58154" lon="12.56417">
        <ele>12.15</ele>
        <time>2012-07-30T10:58:33Z</time>
      </trkpt>
      <trkpt lat="45.58162" lon="12.56443">
        <ele>12.63</ele>
        <time>2012-07-30T10:58:34Z</time>
      </trkpt>
      <trkpt lat="45.58231" lon="12.56653">
        <ele>9.27</ele>
        <time>2012-07-30T10:58:42Z</time>
      </trkpt>
      <trkpt lat="45.58291" lon="12.56838">
        <ele>12.63</ele>
        <time>2012-07-30T10:58:49Z</time>
      </trkpt>
      <trkpt lat="45.58408" lon="12.57155">
        <ele>10.23</ele>
        <time>2012-07-30T10:59:01Z</time>
      </trkpt>
      <trkpt lat="45.58429" lon="12.57209">
        <ele>11.67</ele>
        <time>2012-07-30T10:59:03Z</time>
      </trkpt>
      <trkpt lat="45.5857" lon="12.57582">
        <ele>5.91</ele>
        <time>2012-07-30T10:59:17Z</time>
      </trkpt>
      <trkpt lat="45.58579" lon="12.57608">
        <ele>9.27</ele>
        <time>2012-07-30T10:59:18Z</time>
      </trkpt>
      <trkpt lat="45.58606" lon="12.57688">
        <ele>11.67</ele>
        <time>2012-07-30T10:59:21Z</time>
      </trkpt>
      <trkpt lat="45.58646" lon="12.57889">
        <ele>12.15</ele>
        <time>2012-07-30T10:59:28Z</time>
      </trkpt>
      <trkpt lat="45.58707" lon="12.58143">
        <ele>11.19</ele>
        <time>2012-07-30T10:59:37Z</time>
      </trkpt>
      <trkpt lat="45.58716" lon="12.5817">
        <ele>11.67</ele>
        <time>2012-07-30T10:59:38Z</time>
      </trkpt>
      <trkpt lat="45.58735" lon="12.58225">
        <ele>12.63</ele>
        <time>2012-07-30T10:59:40Z</time>
      </trkpt>
      <trkpt lat="45.58866" lon="12.58605">
        <ele>12.15</ele>
        <time>2012-07-30T10:59:54Z</time>
      </trkpt>
      <trkpt lat="45.58997" lon="12.59023">
        <ele>11.67</ele>
        <time>2012-07-30T11:00:09Z</time>
      </trkpt>
      <trkpt lat="45.59035" lon="12.5915">
        <ele>8.31</ele>
        <time>2012-07-30T11:00:14Z</time>
      </trkpt>
      <trkpt lat="45.59043" lon="12.59173">
        <ele>8.31</ele>
        <time>2012-07-30T11:00:15Z</time>
      </trkpt>
      <trkpt lat="45.59077" lon="12.59269">
        <ele>5.42</ele>
        <time>2012-07-30T11:00:20Z</time>
      </trkpt>
      <trkpt lat="45.59078" lon="12.59286">
        <ele>4.94</ele>
        <time>2012-07-30T11:00:21Z</time>
      </trkpt>
      <trkpt lat="45.59076" lon="12.59304">
        <ele>5.42</ele>
        <time>2012-07-30T11:00:22Z</time>
      </trkpt>
      <trkpt lat="45.59071" lon="12.59321">
        <ele>5.91</ele>
        <time>2012-07-30T11:00:23Z</time>
      </trkpt>
      <trkpt lat="45.59063" lon="12.59339">
        <ele>6.39</ele>
        <time>2012-07-30T11:00:24Z</time>
      </trkpt>
      <trkpt lat="45.59055" lon="12.59358">
        <ele>7.35</ele>
        <time>2012-07-30T11:00:25Z</time>
      </trkpt>
      <trkpt lat="45.59049" lon="12.59379">
        <ele>7.35</ele>
        <time>2012-07-30T11:00:26Z</time>
      </trkpt>
      <trkpt lat="45.59046" lon="12.59403">
        <ele>8.31</ele>
        <time>2012-07-30T11:00:27Z</time>
      </trkpt>
      <trkpt lat="45.59046" lon="12.59427">
        <ele>8.31</ele>
        <time>2012-07-30T11:00:28Z</time>
      </trkpt>
      <trkpt lat="45.5905" lon="12.5945">
        <ele>7.83</ele>
        <time>2012-07-30T11:00:29Z</time>
      </trkpt>
      <trkpt lat="45.59057" lon="12.59472">
        <ele>8.31</ele>
        <time>2012-07-30T11:00:30Z</time>
      </trkpt>
      <trkpt lat="45.59066" lon="12.59491">
        <ele>8.31</ele>
        <time>2012-07-30T11:00:31Z</time>
      </trkpt>
      <trkpt lat="45.59078" lon="12.59507">
        <ele>8.31</ele>
        <time>2012-07-30T11:00:32Z</time>
      </trkpt>
      <trkpt lat="45.59093" lon="12.5952">
        <ele>7.83</ele>
        <time>2012-07-30T11:00:33Z</time>
      </trkpt>
      <trkpt lat="45.59109" lon="12.59528">
        <ele>7.83</ele>
        <time>2012-07-30T11:00:34Z</time>
      </trkpt>
      <trkpt lat="45.59126" lon="12.59531">
        <ele>8.79</ele>
        <time>2012-07-30T11:00:35Z</time>
      </trkpt>
      <trkpt lat="45.59143" lon="12.59528">
        <ele>8.79</ele>
        <time>2012-07-30T11:00:36Z</time>
      </trkpt>
      <trkpt lat="45.5916" lon="12.59521">
        <ele>7.83</ele>
        <time>2012-07-30T11:00:37Z</time>
      </trkpt>
      <trkpt lat="45.59175" lon="12.59509">
        <ele>6.87</ele>
        <time>2012-07-30T11:00:38Z</time>
      </trkpt>
      <trkpt lat="45.59188" lon="12.59494">
        <ele>6.39</ele>
        <time>2012-07-30T11:00:39Z</time>
      </trkpt>
      <trkpt lat="45.59199" lon="12.59475">
        <ele>6.39</ele>
        <time>2012-07-30T11:00:40Z</time>
      </trkpt>
      <trkpt lat="45.59207" lon="12.59454">
        <ele>6.87</ele>
        <time>2012-07-30T11:00:41Z</time>
      </trkpt>
      <trkpt lat="45.59214" lon="12.59434">
        <ele>5.42</ele>
        <time>2012-07-30T11:00:42Z</time>
      </trkpt>
      <trkpt lat="45.59221" lon="12.59417">
        <ele>4.46</ele>
        <time>2012-07-30T11:00:43Z</time>
      </trkpt>
      <trkpt lat="45.59231" lon="12.59403">
        <ele>5.42</ele>
        <time>2012-07-30T11:00:44Z</time>
      </trkpt>
      <trkpt lat="45.59245" lon="12.59392">
        <ele>6.87</ele>
        <time>2012-07-30T11:00:45Z</time>
      </trkpt>
      <trkpt lat="45.59261" lon="12.59385">
        <ele>7.83</ele>
        <time>2012-07-30T11:00:46Z</time>
      </trkpt>
      <trkpt lat="45.59278" lon="12.5938">
        <ele>9.27</ele>
        <time>2012-07-30T11:00:47Z</time>
      </trkpt>
      <trkpt lat="45.59512" lon="12.59321">
        <ele>9.27</ele>
        <time>2012-07-30T11:00:59Z</time>
      </trkpt>
      <trkpt lat="45.59677" lon="12.59314">
        <ele>9.75</ele>
        <time>2012-07-30T11:01:07Z</time>
      </trkpt>
      <trkpt lat="45.5984" lon="12.5936">
        <ele>13.12</ele>
        <time>2012-07-30T11:01:15Z</time>
      </trkpt>
      <trkpt lat="45.60092" lon="12.59433">
        <ele>15.04</ele>
        <time>2012-07-30T11:01:27Z</time>
      </trkpt>
      <trkpt lat="45.60435" lon="12.59531">
        <ele>17.92</ele>
        <time>2012-07-30T11:01:43Z</time>
      </trkpt>
      <trkpt lat="45.60521" lon="12.59556">
        <ele>21.77</ele>
        <time>2012-07-30T11:01:47Z</time>
      </trkpt>
      <trkpt lat="45.60649" lon="12.59592">
        <ele>25.13</ele>
        <time>2012-07-30T11:01:53Z</time>
      </trkpt>
      <trkpt lat="45.60714" lon="12.59611">
        <ele>23.69</ele>
        <time>2012-07-30T11:01:56Z</time>
      </trkpt>
      <trkpt lat="45.60799" lon="12.59636">
        <ele>19.36</ele>
        <time>2012-07-30T11:02:00Z</time>
      </trkpt>
      <trkpt lat="45.60864" lon="12.59655">
        <ele>16.48</ele>
        <time>2012-07-30T11:02:03Z</time>
      </trkpt>
      <trkpt lat="45.60907" lon="12.59667">
        <ele>15.04</ele>
        <time>2012-07-30T11:02:05Z</time>
      </trkpt>
      <trkpt lat="45.60992" lon="12.59692">
        <ele>14.08</ele>
        <time>2012-07-30T11:02:09Z</time>
      </trkpt>
      <trkpt lat="45.61227" lon="12.59764">
        <ele>14.56</ele>
        <time>2012-07-30T11:02:20Z</time>
      </trkpt>
      <trkpt lat="45.61372" lon="12.59827">
        <ele>11.67</ele>
        <time>2012-07-30T11:02:27Z</time>
      </trkpt>
      <trkpt lat="45.61636" lon="12.59976">
        <ele>10.71</ele>
        <time>2012-07-30T11:02:40Z</time>
      </trkpt>
      <trkpt lat="45.61909" lon="12.601">
        <ele>11.19</ele>
        <time>2012-07-30T11:02:53Z</time>
      </trkpt>
      <trkpt lat="45.61952" lon="12.60108">
        <ele>13.12</ele>
        <time>2012-07-30T11:02:55Z</time>
      </trkpt>
      <trkpt lat="45.6206" lon="12.60117">
        <ele>15.52</ele>
        <time>2012-07-30T11:03:00Z</time>
      </trkpt>
      <trkpt lat="45.62304" lon="12.60121">
        <ele>12.15</ele>
        <time>2012-07-30T11:03:11Z</time>
      </trkpt>
      <trkpt lat="45.6237" lon="12.60129">
        <ele>10.71</ele>
        <time>2012-07-30T11:03:14Z</time>
      </trkpt>
      <trkpt lat="45.62586" lon="12.60204">
        <ele>10.23</ele>
        <time>2012-07-30T11:03:24Z</time>
      </trkpt>
      <trkpt lat="45.62714" lon="12.60265">
        <ele>12.63</ele>
        <time>2012-07-30T11:03:30Z</time>
      </trkpt>
      <trkpt lat="45.62802" lon="12.60283">
        <ele>10.23</ele>
        <time>2012-07-30T11:03:34Z</time>
      </trkpt>
      <trkpt lat="45.62955" lon="12.60259">
        <ele>10.71</ele>
        <time>2012-07-30T11:03:41Z</time>
      </trkpt>
      <trkpt lat="45.62976" lon="12.60249">
        <ele>9.27</ele>
        <time>2012-07-30T11:03:42Z</time>
      </trkpt>
      <trkpt lat="45.63037" lon="12.6021">
        <ele>12.15</ele>
        <time>2012-07-30T11:03:45Z</time>
      </trkpt>
      <trkpt lat="45.63077" lon="12.6018">
        <ele>10.71</ele>
        <time>2012-07-30T11:03:47Z</time>
      </trkpt>
      <trkpt lat="45.63315" lon="12.60006">
        <ele>14.08</ele>
        <time>2012-07-30T11:03:59Z</time>
      </trkpt>
      <trkpt lat="45.63334" lon="12.59995">
        <ele>14.08</ele>
        <time>2012-07-30T11:04:00Z</time>
      </trkpt>
      <trkpt lat="45.63417" lon="12.5997">
        <ele>17.44</ele>
        <time>2012-07-30T11:04:04Z</time>
      </trkpt>
      <trkpt lat="45.63501" lon="12.59974">
        <ele>14.56</ele>
        <time>2012-07-30T11:04:08Z</time>
      </trkpt>
      <trkpt lat="45.63608" lon="12.6002">
        <ele>11.67</ele>
        <time>2012-07-30T11:04:13Z</time>
      </trkpt>
      <trkpt lat="45.63736" lon="12.60134">
        <ele>11.19</ele>
        <time>2012-07-30T11:04:20Z</time>
      </trkpt>
      <trkpt lat="45.63785" lon="12.60187">
        <ele>8.31</ele>
        <time>2012-07-30T11:04:23Z</time>
      </trkpt>
      <trkpt lat="45.63804" lon="12.60199">
        <ele>8.79</ele>
        <time>2012-07-30T11:04:24Z</time>
      </trkpt>
      <trkpt lat="45.63824" lon="12.60209">
        <ele>7.35</ele>
        <time>2012-07-30T11:04:25Z</time>
      </trkpt>
      <trkpt lat="45.63844" lon="12.60216">
        <ele>7.83</ele>
        <time>2012-07-30T11:04:26Z</time>
      </trkpt>
      <trkpt lat="45.63865" lon="12.6022">
        <ele>7.35</ele>
        <time>2012-07-30T11:04:27Z</time>
      </trkpt>
      <trkpt lat="45.63886" lon="12.6022">
        <ele>7.35</ele>
        <time>2012-07-30T11:04:28Z</time>
      </trkpt>
      <trkpt lat="45.63906" lon="12.60216">
        <ele>7.35</ele>
        <time>2012-07-30T11:04:29Z</time>
      </trkpt>
      <trkpt lat="45.63927" lon="12.60209">
        <ele>6.87</ele>
        <time>2012-07-30T11:04:30Z</time>
      </trkpt>
      <trkpt lat="45.63947" lon="12.60199">
        <ele>7.35</ele>
        <time>2012-07-30T11:04:31Z</time>
      </trkpt>
      <trkpt lat="45.63966" lon="12.60186">
        <ele>7.83</ele>
        <time>2012-07-30T11:04:32Z</time>
      </trkpt>
      <trkpt lat="45.63983" lon="12.60169">
        <ele>9.75</ele>
        <time>2012-07-30T11:04:33Z</time>
      </trkpt>
      <trkpt lat="45.64" lon="12.60151">
        <ele>8.31</ele>
        <time>2012-07-30T11:04:34Z</time>
      </trkpt>
      <trkpt lat="45.6416" lon="12.59937">
        <ele>7.35</ele>
        <time>2012-07-30T11:04:44Z</time>
      </trkpt>
      <trkpt lat="45.64317" lon="12.59694">
        <ele>3.98</ele>
        <time>2012-07-30T11:04:55Z</time>
      </trkpt>
      <trkpt lat="45.64387" lon="12.59579">
        <ele>0.62</ele>
        <time>2012-07-30T11:05:02Z</time>
      </trkpt>
      <trkpt lat="45.64395" lon="12.59567">
        <ele>1.1</ele>
        <time>2012-07-30T11:05:03Z</time>
      </trkpt>
      <trkpt lat="45.64404" lon="12.59558">
        <ele>0.62</ele>
        <time>2012-07-30T11:05:04Z</time>
      </trkpt>
      <trkpt lat="45.64416" lon="12.59551">
        <ele>1.1</ele>
        <time>2012-07-30T11:05:05Z</time>
      </trkpt>
      <trkpt lat="45.64428" lon="12.59545">
        <ele>1.58</ele>
        <time>2012-07-30T11:05:06Z</time>
      </trkpt>
      <trkpt lat="45.64439" lon="12.59542">
        <ele>1.58</ele>
        <time>2012-07-30T11:05:07Z</time>
      </trkpt>
      <trkpt lat="45.6445" lon="12.5954">
        <ele>1.58</ele>
        <time>2012-07-30T11:05:08Z</time>
      </trkpt>
      <trkpt lat="45.64462" lon="12.59543">
        <ele>1.1</ele>
        <time>2012-07-30T11:05:09Z</time>
      </trkpt>
      <trkpt lat="45.64472" lon="12.59549">
        <ele>1.58</ele>
        <time>2012-07-30T11:05:10Z</time>
      </trkpt>
      <trkpt lat="45.6448" lon="12.5956">
        <ele>2.06</ele>
        <time>2012-07-30T11:05:11Z</time>
      </trkpt>
      <trkpt lat="45.64488" lon="12.59573">
        <ele>2.06</ele>
        <time>2012-07-30T11:05:12Z</time>
      </trkpt>
      <trkpt lat="45.64495" lon="12.59586">
        <ele>2.54</ele>
        <time>2012-07-30T11:05:13Z</time>
      </trkpt>
      <trkpt lat="45.64578" lon="12.59717">
        <ele>3.02</ele>
        <time>2012-07-30T11:05:22Z</time>
      </trkpt>
      <trkpt lat="45.64765" lon="12.59911">
        <ele>3.02</ele>
        <time>2012-07-30T11:05:38Z</time>
      </trkpt>
      <trkpt lat="45.6494" lon="12.60094">
        <ele>4.46</ele>
        <time>2012-07-30T11:05:53Z</time>
      </trkpt>
      <trkpt lat="45.64965" lon="12.6012">
        <ele>5.42</ele>
        <time>2012-07-30T11:05:55Z</time>
      </trkpt>
      <trkpt lat="45.6515" lon="12.60302">
        <ele>3.98</ele>
        <time>2012-07-30T11:06:09Z</time>
      </trkpt>
      <trkpt lat="45.65313" lon="12.60465">
        <ele>3.5</ele>
        <time>2012-07-30T11:06:23Z</time>
      </trkpt>
      <trkpt lat="45.65486" lon="12.60637">
        <ele>3.5</ele>
        <time>2012-07-30T11:06:38Z</time>
      </trkpt>
      <trkpt lat="45.65509" lon="12.60661">
        <ele>2.54</ele>
        <time>2012-07-30T11:06:40Z</time>
      </trkpt>
      <trkpt lat="45.65625" lon="12.60777">
        <ele>3.02</ele>
        <time>2012-07-30T11:06:51Z</time>
      </trkpt>
      <trkpt lat="45.65646" lon="12.60797">
        <ele>1.58</ele>
        <time>2012-07-30T11:06:53Z</time>
      </trkpt>
      <trkpt lat="45.65763" lon="12.60915">
        <ele>3.5</ele>
        <time>2012-07-30T11:07:04Z</time>
      </trkpt>
      <trkpt lat="45.65809" lon="12.60961">
        <ele>7.35</ele>
        <time>2012-07-30T11:07:08Z</time>
      </trkpt>
      <trkpt lat="45.65821" lon="12.60973">
        <ele>6.87</ele>
        <time>2012-07-30T11:07:09Z</time>
      </trkpt>
      <trkpt lat="45.659" lon="12.61052">
        <ele>10.23</ele>
        <time>2012-07-30T11:07:15Z</time>
      </trkpt>
      <trkpt lat="45.65943" lon="12.61095">
        <ele>7.35</ele>
        <time>2012-07-30T11:07:18Z</time>
      </trkpt>
      <trkpt lat="45.6602" lon="12.61172">
        <ele>9.27</ele>
        <time>2012-07-30T11:07:23Z</time>
      </trkpt>
      <trkpt lat="45.66067" lon="12.6122">
        <ele>7.83</ele>
        <time>2012-07-30T11:07:26Z</time>
      </trkpt>
      <trkpt lat="45.6637" lon="12.61522">
        <ele>6.39</ele>
        <time>2012-07-30T11:07:44Z</time>
      </trkpt>
      <trkpt lat="45.66652" lon="12.61804">
        <ele>7.83</ele>
        <time>2012-07-30T11:08:01Z</time>
      </trkpt>
      <trkpt lat="45.66932" lon="12.62083">
        <ele>5.91</ele>
        <time>2012-07-30T11:08:18Z</time>
      </trkpt>
      <trkpt lat="45.67032" lon="12.62182">
        <ele>7.35</ele>
        <time>2012-07-30T11:08:24Z</time>
      </trkpt>
      <trkpt lat="45.67277" lon="12.62428">
        <ele>6.39</ele>
        <time>2012-07-30T11:08:39Z</time>
      </trkpt>
      <trkpt lat="45.67409" lon="12.62559">
        <ele>4.46</ele>
        <time>2012-07-30T11:08:47Z</time>
      </trkpt>
      <trkpt lat="45.67552" lon="12.62703">
        <ele>3.98</ele>
        <time>2012-07-30T11:08:56Z</time>
      </trkpt>
      <trkpt lat="45.6758" lon="12.62731">
        <ele>3.02</ele>
        <time>2012-07-30T11:08:58Z</time>
      </trkpt>
      <trkpt lat="45.67701" lon="12.62857">
        <ele>1.58</ele>
        <time>2012-07-30T11:09:08Z</time>
      </trkpt>
      <trkpt lat="45.67757" lon="12.62915">
        <ele>3.02</ele>
        <time>2012-07-30T11:09:13Z</time>
      </trkpt>
      <trkpt lat="45.67912" lon="12.63065">
        <ele>2.54</ele>
        <time>2012-07-30T11:09:27Z</time>
      </trkpt>
      <trkpt lat="45.68101" lon="12.63252">
        <ele>2.06</ele>
        <time>2012-07-30T11:09:44Z</time>
      </trkpt>
      <trkpt lat="45.68267" lon="12.6342">
        <ele>1.58</ele>
        <time>2012-07-30T11:09:59Z</time>
      </trkpt>
      <trkpt lat="45.68287" lon="12.63444">
        <ele>2.06</ele>
        <time>2012-07-30T11:10:01Z</time>
      </trkpt>
      <trkpt lat="45.68295" lon="12.63459">
        <ele>2.06</ele>
        <time>2012-07-30T11:10:02Z</time>
      </trkpt>
      <trkpt lat="45.68304" lon="12.63474">
        <ele>3.02</ele>
        <time>2012-07-30T11:10:03Z</time>
      </trkpt>
      <trkpt lat="45.68311" lon="12.63491">
        <ele>3.02</ele>
        <time>2012-07-30T11:10:04Z</time>
      </trkpt>
      <trkpt lat="45.68318" lon="12.63509">
        <ele>3.02</ele>
        <time>2012-07-30T11:10:05Z</time>
      </trkpt>
      <trkpt lat="45.68359" lon="12.63631">
        <ele>5.42</ele>
        <time>2012-07-30T11:10:12Z</time>
      </trkpt>
      <trkpt lat="45.68422" lon="12.63844">
        <ele>3.5</ele>
        <time>2012-07-30T11:10:25Z</time>
      </trkpt>
      <trkpt lat="45.68452" lon="12.63973">
        <ele>3.02</ele>
        <time>2012-07-30T11:10:32Z</time>
      </trkpt>
      <trkpt lat="45.68477" lon="12.64228">
        <ele>3.02</ele>
        <time>2012-07-30T11:10:46Z</time>
      </trkpt>
      <trkpt lat="45.68505" lon="12.64518">
        <ele>2.54</ele>
        <time>2012-07-30T11:11:01Z</time>
      </trkpt>
      <trkpt lat="45.68509" lon="12.64558">
        <ele>5.42</ele>
        <time>2012-07-30T11:11:03Z</time>
      </trkpt>
      <trkpt lat="45.68526" lon="12.64733">
        <ele>2.54</ele>
        <time>2012-07-30T11:11:12Z</time>
      </trkpt>
      <trkpt lat="45.68549" lon="12.64971">
        <ele>2.54</ele>
        <time>2012-07-30T11:11:24Z</time>
      </trkpt>
      <trkpt lat="45.68569" lon="12.65245">
        <ele>3.02</ele>
        <time>2012-07-30T11:11:38Z</time>
      </trkpt>
      <trkpt lat="45.6855" lon="12.65532">
        <ele>3.98</ele>
        <time>2012-07-30T11:11:51Z</time>
      </trkpt>
      <trkpt lat="45.68523" lon="12.65895">
        <ele>5.42</ele>
        <time>2012-07-30T11:12:06Z</time>
      </trkpt>
      <trkpt lat="45.6852" lon="12.65976">
        <ele>5.42</ele>
        <time>2012-07-30T11:12:09Z</time>
      </trkpt>
      <trkpt lat="45.68521" lon="12.66004">
        <ele>6.39</ele>
        <time>2012-07-30T11:12:10Z</time>
      </trkpt>
      <trkpt lat="45.68546" lon="12.66269">
        <ele>7.35</ele>
        <time>2012-07-30T11:12:20Z</time>
      </trkpt>
      <trkpt lat="45.68549" lon="12.66295">
        <ele>7.35</ele>
        <time>2012-07-30T11:12:21Z</time>
      </trkpt>
      <trkpt lat="45.686" lon="12.66487">
        <ele>6.39</ele>
        <time>2012-07-30T11:12:29Z</time>
      </trkpt>
      <trkpt lat="45.68692" lon="12.66613">
        <ele>6.39</ele>
        <time>2012-07-30T11:12:36Z</time>
      </trkpt>
      <trkpt lat="45.68827" lon="12.66703">
        <ele>8.79</ele>
        <time>2012-07-30T11:12:44Z</time>
      </trkpt>
      <trkpt lat="45.6918" lon="12.669">
        <ele>6.87</ele>
        <time>2012-07-30T11:13:04Z</time>
      </trkpt>
      <trkpt lat="45.69378" lon="12.67013">
        <ele>6.87</ele>
        <time>2012-07-30T11:13:15Z</time>
      </trkpt>
      <trkpt lat="45.69464" lon="12.67058">
        <ele>5.42</ele>
        <time>2012-07-30T11:13:20Z</time>
      </trkpt>
      <trkpt lat="45.69483" lon="12.67063">
        <ele>6.39</ele>
        <time>2012-07-30T11:13:21Z</time>
      </trkpt>
      <trkpt lat="45.69502" lon="12.67067">
        <ele>6.87</ele>
        <time>2012-07-30T11:13:22Z</time>
      </trkpt>
      <trkpt lat="45.69542" lon="12.6707">
        <ele>7.35</ele>
        <time>2012-07-30T11:13:24Z</time>
      </trkpt>
      <trkpt lat="45.69715" lon="12.67114">
        <ele>6.39</ele>
        <time>2012-07-30T11:13:33Z</time>
      </trkpt>
      <trkpt lat="45.69901" lon="12.6722">
        <ele>7.35</ele>
        <time>2012-07-30T11:13:43Z</time>
      </trkpt>
      <trkpt lat="45.70166" lon="12.67421">
        <ele>6.87</ele>
        <time>2012-07-30T11:13:58Z</time>
      </trkpt>
      <trkpt lat="45.70348" lon="12.67589">
        <ele>6.87</ele>
        <time>2012-07-30T11:14:09Z</time>
      </trkpt>
      <trkpt lat="45.70363" lon="12.67608">
        <ele>7.35</ele>
        <time>2012-07-30T11:14:10Z</time>
      </trkpt>
      <trkpt lat="45.70394" lon="12.67645">
        <ele>5.42</ele>
        <time>2012-07-30T11:14:12Z</time>
      </trkpt>
      <trkpt lat="45.70555" lon="12.67851">
        <ele>6.87</ele>
        <time>2012-07-30T11:14:23Z</time>
      </trkpt>
      <trkpt lat="45.70764" lon="12.68111">
        <ele>6.39</ele>
        <time>2012-07-30T11:14:37Z</time>
      </trkpt>
      <trkpt lat="45.71009" lon="12.68416">
        <ele>6.39</ele>
        <time>2012-07-30T11:14:53Z</time>
      </trkpt>
      <trkpt lat="45.71112" lon="12.68545">
        <ele>10.23</ele>
        <time>2012-07-30T11:15:00Z</time>
      </trkpt>
      <trkpt lat="45.71127" lon="12.68564">
        <ele>9.75</ele>
        <time>2012-07-30T11:15:01Z</time>
      </trkpt>
      <trkpt lat="45.71212" lon="12.6867">
        <ele>8.31</ele>
        <time>2012-07-30T11:15:08Z</time>
      </trkpt>
      <trkpt lat="45.71289" lon="12.68765">
        <ele>9.75</ele>
        <time>2012-07-30T11:15:15Z</time>
      </trkpt>
      <trkpt lat="45.71379" lon="12.6888">
        <ele>7.35</ele>
        <time>2012-07-30T11:15:22Z</time>
      </trkpt>
      <trkpt lat="45.71594" lon="12.69174">
        <ele>5.42</ele>
        <time>2012-07-30T11:15:38Z</time>
      </trkpt>
      <trkpt lat="45.71812" lon="12.69466">
        <ele>4.46</ele>
        <time>2012-07-30T11:15:55Z</time>
      </trkpt>
      <trkpt lat="45.71989" lon="12.69695">
        <ele>2.54</ele>
        <time>2012-07-30T11:16:09Z</time>
      </trkpt>
      <trkpt lat="45.72086" lon="12.69824">
        <ele>0.62</ele>
        <time>2012-07-30T11:16:20Z</time>
      </trkpt>
      <trkpt lat="45.7214" lon="12.69895">
        <ele>-1.3</ele>
        <time>2012-07-30T11:16:29Z</time>
      </trkpt>
      <trkpt lat="45.72177" lon="12.69944">
        <ele>0.62</ele>
        <time>2012-07-30T11:16:38Z</time>
      </trkpt>
      <trkpt lat="45.72203" lon="12.6999">
        <ele>-1.3</ele>
        <time>2012-07-30T11:16:45Z</time>
      </trkpt>
      <trkpt lat="45.72208" lon="12.70013">
        <ele>-0.34</ele>
        <time>2012-07-30T11:16:54Z</time>
      </trkpt>
      <trkpt lat="45.7221" lon="12.70022">
        <ele>0.14</ele>
        <time>2012-07-30T11:16:55Z</time>
      </trkpt>
      <trkpt lat="45.72212" lon="12.70033">
        <ele>0.62</ele>
        <time>2012-07-30T11:16:56Z</time>
      </trkpt>
      <trkpt lat="45.72216" lon="12.70044">
        <ele>0.14</ele>
        <time>2012-07-30T11:16:57Z</time>
      </trkpt>
      <trkpt lat="45.72222" lon="12.70055">
        <ele>0.62</ele>
        <time>2012-07-30T11:16:58Z</time>
      </trkpt>
      <trkpt lat="45.72229" lon="12.70065">
        <ele>1.58</ele>
        <time>2012-07-30T11:16:59Z</time>
      </trkpt>
      <trkpt lat="45.72239" lon="12.70072">
        <ele>1.1</ele>
        <time>2012-07-30T11:17:00Z</time>
      </trkpt>
      <trkpt lat="45.72249" lon="12.70075">
        <ele>0.14</ele>
        <time>2012-07-30T11:17:01Z</time>
      </trkpt>
      <trkpt lat="45.7226" lon="12.70076">
        <ele>1.1</ele>
        <time>2012-07-30T11:17:02Z</time>
      </trkpt>
      <trkpt lat="45.72271" lon="12.70078">
        <ele>1.58</ele>
        <time>2012-07-30T11:17:03Z</time>
      </trkpt>
      <trkpt lat="45.72282" lon="12.70085">
        <ele>2.54</ele>
        <time>2012-07-30T11:17:04Z</time>
      </trkpt>
      <trkpt lat="45.72292" lon="12.70094">
        <ele>3.98</ele>
        <time>2012-07-30T11:17:05Z</time>
      </trkpt>
      <trkpt lat="45.72302" lon="12.70107">
        <ele>3.5</ele>
        <time>2012-07-30T11:17:06Z</time>
      </trkpt>
      <trkpt lat="45.72313" lon="12.70121">
        <ele>3.02</ele>
        <time>2012-07-30T11:17:07Z</time>
      </trkpt>
      <trkpt lat="45.72465" lon="12.70322">
        <ele>4.46</ele>
        <time>2012-07-30T11:17:20Z</time>
      </trkpt>
      <trkpt lat="45.72626" lon="12.70535">
        <ele>4.46</ele>
        <time>2012-07-30T11:17:33Z</time>
      </trkpt>
      <trkpt lat="45.72729" lon="12.70707">
        <ele>3.98</ele>
        <time>2012-07-30T11:17:42Z</time>
      </trkpt>
      <trkpt lat="45.72748" lon="12.70752">
        <ele>6.39</ele>
        <time>2012-07-30T11:17:44Z</time>
      </trkpt>
      <trkpt lat="45.72815" lon="12.7092">
        <ele>6.39</ele>
        <time>2012-07-30T11:17:53Z</time>
      </trkpt>
      <trkpt lat="45.72848" lon="12.71001">
        <ele>3.02</ele>
        <time>2012-07-30T11:17:59Z</time>
      </trkpt>
      <trkpt lat="45.72922" lon="12.71184">
        <ele>2.06</ele>
        <time>2012-07-30T11:18:14Z</time>
      </trkpt>
      <trkpt lat="45.72983" lon="12.71334">
        <ele>1.58</ele>
        <time>2012-07-30T11:18:26Z</time>
      </trkpt>
      <trkpt lat="45.7302" lon="12.71426">
        <ele>0.14</ele>
        <time>2012-07-30T11:18:36Z</time>
      </trkpt>
      <trkpt lat="45.73022" lon="12.71433">
        <ele>-0.34</ele>
        <time>2012-07-30T11:18:37Z</time>
      </trkpt>
      <trkpt lat="45.73023" lon="12.71442">
        <ele>-0.34</ele>
        <time>2012-07-30T11:18:38Z</time>
      </trkpt>
      <trkpt lat="45.73022" lon="12.71451">
        <ele>-1.3</ele>
        <time>2012-07-30T11:18:39Z</time>
      </trkpt>
      <trkpt lat="45.73019" lon="12.71461">
        <ele>-0.34</ele>
        <time>2012-07-30T11:18:40Z</time>
      </trkpt>
      <trkpt lat="45.73017" lon="12.71471">
        <ele>-0.34</ele>
        <time>2012-07-30T11:18:41Z</time>
      </trkpt>
      <trkpt lat="45.73016" lon="12.71482">
        <ele>-0.34</ele>
        <time>2012-07-30T11:18:42Z</time>
      </trkpt>
      <trkpt lat="45.73016" lon="12.71493">
        <ele>-0.34</ele>
        <time>2012-07-30T11:18:43Z</time>
      </trkpt>
      <trkpt lat="45.73019" lon="12.71504">
        <ele>0.14</ele>
        <time>2012-07-30T11:18:44Z</time>
      </trkpt>
      <trkpt lat="45.73024" lon="12.71514">
        <ele>0.14</ele>
        <time>2012-07-30T11:18:45Z</time>
      </trkpt>
      <trkpt lat="45.73031" lon="12.71521">
        <ele>0.62</ele>
        <time>2012-07-30T11:18:46Z</time>
      </trkpt>
      <trkpt lat="45.73039" lon="12.71526">
        <ele>0.62</ele>
        <time>2012-07-30T11:18:47Z</time>
      </trkpt>
      <trkpt lat="45.73047" lon="12.71529">
        <ele>0.62</ele>
        <time>2012-07-30T11:18:48Z</time>
      </trkpt>
      <trkpt lat="45.73055" lon="12.71532">
        <ele>0.14</ele>
        <time>2012-07-30T11:18:49Z</time>
      </trkpt>
      <trkpt lat="45.73062" lon="12.71536">
        <ele>-0.34</ele>
        <time>2012-07-30T11:18:50Z</time>
      </trkpt>
      <trkpt lat="45.73067" lon="12.71543">
        <ele>0.14</ele>
        <time>2012-07-30T11:18:51Z</time>
      </trkpt>
      <trkpt lat="45.73072" lon="12.71551">
        <ele>0.14</ele>
        <time>2012-07-30T11:18:52Z</time>
      </trkpt>
      <trkpt lat="45.73076" lon="12.71561">
        <ele>0.14</ele>
        <time>2012-07-30T11:18:53Z</time>
      </trkpt>
      <trkpt lat="45.73125" lon="12.71684">
        <ele>0.14</ele>
        <time>2012-07-30T11:19:03Z</time>
      </trkpt>
      <trkpt lat="45.73171" lon="12.71796">
        <ele>5.42</ele>
        <time>2012-07-30T11:19:12Z</time>
      </trkpt>
      <trkpt lat="45.73176" lon="12.7181">
        <ele>2.54</ele>
        <time>2012-07-30T11:19:13Z</time>
      </trkpt>
      <trkpt lat="45.73222" lon="12.7192">
        <ele>2.06</ele>
        <time>2012-07-30T11:19:22Z</time>
      </trkpt>
      <trkpt lat="45.73289" lon="12.72089">
        <ele>2.06</ele>
        <time>2012-07-30T11:19:30Z</time>
      </trkpt>
      <trkpt lat="45.73304" lon="12.72126">
        <ele>1.1</ele>
        <time>2012-07-30T11:19:32Z</time>
      </trkpt>
      <trkpt lat="45.73361" lon="12.72263">
        <ele>2.54</ele>
        <time>2012-07-30T11:19:40Z</time>
      </trkpt>
      <trkpt lat="45.73382" lon="12.72314">
        <ele>0.62</ele>
        <time>2012-07-30T11:19:43Z</time>
      </trkpt>
      <trkpt lat="45.7342" lon="12.7241">
        <ele>-0.82</ele>
        <time>2012-07-30T11:19:50Z</time>
      </trkpt>
      <trkpt lat="45.73425" lon="12.72422">
        <ele>-1.79</ele>
        <time>2012-07-30T11:19:52Z</time>
      </trkpt>
      <trkpt lat="45.73443" lon="12.72465">
        <ele>1.58</ele>
        <time>2012-07-30T11:19:58Z</time>
      </trkpt>
      <trkpt lat="45.73467" lon="12.72532">
        <ele>4.94</ele>
        <time>2012-07-30T11:20:01Z</time>
      </trkpt>
      <trkpt lat="45.73493" lon="12.72596">
        <ele>2.54</ele>
        <time>2012-07-30T11:20:04Z</time>
      </trkpt>
      <trkpt lat="45.73565" lon="12.72766">
        <ele>6.39</ele>
        <time>2012-07-30T11:20:11Z</time>
      </trkpt>
      <trkpt lat="45.73589" lon="12.72825">
        <ele>12.15</ele>
        <time>2012-07-30T11:20:13Z</time>
      </trkpt>
      <trkpt lat="45.73613" lon="12.72885">
        <ele>8.31</ele>
        <time>2012-07-30T11:20:15Z</time>
      </trkpt>
      <trkpt lat="45.73625" lon="12.72915">
        <ele>8.79</ele>
        <time>2012-07-30T11:20:16Z</time>
      </trkpt>
      <trkpt lat="45.73737" lon="12.73198">
        <ele>6.87</ele>
        <time>2012-07-30T11:20:26Z</time>
      </trkpt>
      <trkpt lat="45.73848" lon="12.73472">
        <ele>6.39</ele>
        <time>2012-07-30T11:20:37Z</time>
      </trkpt>
      <trkpt lat="45.73937" lon="12.73691">
        <ele>6.87</ele>
        <time>2012-07-30T11:20:46Z</time>
      </trkpt>
      <trkpt lat="45.7411" lon="12.74118">
        <ele>8.31</ele>
        <time>2012-07-30T11:21:03Z</time>
      </trkpt>
      <trkpt lat="45.74247" lon="12.74456">
        <ele>6.87</ele>
        <time>2012-07-30T11:21:16Z</time>
      </trkpt>
      <trkpt lat="45.74405" lon="12.74859">
        <ele>8.79</ele>
        <time>2012-07-30T11:21:31Z</time>
      </trkpt>
      <trkpt lat="45.74514" lon="12.75253">
        <ele>7.35</ele>
        <time>2012-07-30T11:21:45Z</time>
      </trkpt>
      <trkpt lat="45.74593" lon="12.75535">
        <ele>6.39</ele>
        <time>2012-07-30T11:21:56Z</time>
      </trkpt>
      <trkpt lat="45.7466" lon="12.75775">
        <ele>3.98</ele>
        <time>2012-07-30T11:22:06Z</time>
      </trkpt>
      <trkpt lat="45.74666" lon="12.75797">
        <ele>3.98</ele>
        <time>2012-07-30T11:22:07Z</time>
      </trkpt>
      <trkpt lat="45.74687" lon="12.75945">
        <ele>7.35</ele>
        <time>2012-07-30T11:22:13Z</time>
      </trkpt>
      <trkpt lat="45.74686" lon="12.76074">
        <ele>4.94</ele>
        <time>2012-07-30T11:22:18Z</time>
      </trkpt>
      <trkpt lat="45.74681" lon="12.76397">
        <ele>5.91</ele>
        <time>2012-07-30T11:22:30Z</time>
      </trkpt>
      <trkpt lat="45.74674" lon="12.76762">
        <ele>5.91</ele>
        <time>2012-07-30T11:22:43Z</time>
      </trkpt>
      <trkpt lat="45.74668" lon="12.76956">
        <ele>4.94</ele>
        <time>2012-07-30T11:22:50Z</time>
      </trkpt>
      <trkpt lat="45.74671" lon="12.76983">
        <ele>4.94</ele>
        <time>2012-07-30T11:22:51Z</time>
      </trkpt>
      <trkpt lat="45.74723" lon="12.77193">
        <ele>5.42</ele>
        <time>2012-07-30T11:22:59Z</time>
      </trkpt>
      <trkpt lat="45.74822" lon="12.77493">
        <ele>5.91</ele>
        <time>2012-07-30T11:23:11Z</time>
      </trkpt>
      <trkpt lat="45.74833" lon="12.77546">
        <ele>4.94</ele>
        <time>2012-07-30T11:23:13Z</time>
      </trkpt>
      <trkpt lat="45.74882" lon="12.77817">
        <ele>4.94</ele>
        <time>2012-07-30T11:23:23Z</time>
      </trkpt>
      <trkpt lat="45.74939" lon="12.7814">
        <ele>6.87</ele>
        <time>2012-07-30T11:23:35Z</time>
      </trkpt>
      <trkpt lat="45.74972" lon="12.78305">
        <ele>7.35</ele>
        <time>2012-07-30T11:23:41Z</time>
      </trkpt>
      <trkpt lat="45.75" lon="12.78384">
        <ele>11.19</ele>
        <time>2012-07-30T11:23:44Z</time>
      </trkpt>
      <trkpt lat="45.75012" lon="12.78408">
        <ele>8.79</ele>
        <time>2012-07-30T11:23:45Z</time>
      </trkpt>
      <trkpt lat="45.75026" lon="12.78431">
        <ele>7.83</ele>
        <time>2012-07-30T11:23:46Z</time>
      </trkpt>
      <trkpt lat="45.75041" lon="12.78452">
        <ele>8.31</ele>
        <time>2012-07-30T11:23:47Z</time>
      </trkpt>
      <trkpt lat="45.7524" lon="12.78682">
        <ele>7.35</ele>
        <time>2012-07-30T11:23:59Z</time>
      </trkpt>
      <trkpt lat="45.7539" lon="12.7888">
        <ele>7.35</ele>
        <time>2012-07-30T11:24:09Z</time>
      </trkpt>
      <trkpt lat="45.75421" lon="12.78956">
        <ele>7.35</ele>
        <time>2012-07-30T11:24:12Z</time>
      </trkpt>
      <trkpt lat="45.75428" lon="12.78984">
        <ele>7.83</ele>
        <time>2012-07-30T11:24:13Z</time>
      </trkpt>
      <trkpt lat="45.755" lon="12.79393">
        <ele>9.75</ele>
        <time>2012-07-30T11:24:27Z</time>
      </trkpt>
      <trkpt lat="45.75582" lon="12.79869">
        <ele>6.39</ele>
        <time>2012-07-30T11:24:44Z</time>
      </trkpt>
      <trkpt lat="45.75599" lon="12.79967">
        <ele>5.91</ele>
        <time>2012-07-30T11:24:48Z</time>
      </trkpt>
      <trkpt lat="45.75616" lon="12.80066">
        <ele>2.06</ele>
        <time>2012-07-30T11:24:52Z</time>
      </trkpt>
      <trkpt lat="45.7562" lon="12.80091">
        <ele>5.91</ele>
        <time>2012-07-30T11:24:53Z</time>
      </trkpt>
      <trkpt lat="45.75662" lon="12.80316">
        <ele>6.87</ele>
        <time>2012-07-30T11:25:03Z</time>
      </trkpt>
      <trkpt lat="45.75696" lon="12.80496">
        <ele>9.75</ele>
        <time>2012-07-30T11:25:10Z</time>
      </trkpt>
      <trkpt lat="45.75717" lon="12.80603">
        <ele>8.31</ele>
        <time>2012-07-30T11:25:14Z</time>
      </trkpt>
      <trkpt lat="45.75762" lon="12.80833">
        <ele>4.94</ele>
        <time>2012-07-30T11:25:23Z</time>
      </trkpt>
      <trkpt lat="45.75767" lon="12.80855">
        <ele>5.42</ele>
        <time>2012-07-30T11:25:24Z</time>
      </trkpt>
      <trkpt lat="45.75805" lon="12.81052">
        <ele>4.46</ele>
        <time>2012-07-30T11:25:34Z</time>
      </trkpt>
      <trkpt lat="45.75835" lon="12.81237">
        <ele>3.02</ele>
        <time>2012-07-30T11:25:44Z</time>
      </trkpt>
      <trkpt lat="45.75872" lon="12.81472">
        <ele>5.42</ele>
        <time>2012-07-30T11:25:55Z</time>
      </trkpt>
      <trkpt lat="45.75935" lon="12.81807">
        <ele>4.94</ele>
        <time>2012-07-30T11:26:09Z</time>
      </trkpt>
      <trkpt lat="45.75945" lon="12.81828">
        <ele>4.94</ele>
        <time>2012-07-30T11:26:10Z</time>
      </trkpt>
      <trkpt lat="45.75956" lon="12.81847">
        <ele>4.46</ele>
        <time>2012-07-30T11:26:11Z</time>
      </trkpt>
      <trkpt lat="45.76092" lon="12.82034">
        <ele>3.5</ele>
        <time>2012-07-30T11:26:22Z</time>
      </trkpt>
      <trkpt lat="45.76251" lon="12.82244">
        <ele>4.94</ele>
        <time>2012-07-30T11:26:35Z</time>
      </trkpt>
      <trkpt lat="45.76411" lon="12.82458">
        <ele>1.58</ele>
        <time>2012-07-30T11:26:49Z</time>
      </trkpt>
      <trkpt lat="45.76428" lon="12.82481">
        <ele>0.14</ele>
        <time>2012-07-30T11:26:52Z</time>
      </trkpt>
      <trkpt lat="45.76433" lon="12.82488">
        <ele>-1.3</ele>
        <time>2012-07-30T11:26:59Z</time>
      </trkpt>
      <trkpt lat="45.76433" lon="12.82486">
        <ele>-0.34</ele>
        <time>2012-07-30T11:27:32Z</time>
      </trkpt>
      <trkpt lat="45.76431" lon="12.82488">
        <ele>-0.82</ele>
        <time>2012-07-30T11:28:06Z</time>
      </trkpt>
      <trkpt lat="45.76448" lon="12.82518">
        <ele>2.06</ele>
        <time>2012-07-30T11:28:19Z</time>
      </trkpt>
      <trkpt lat="45.76475" lon="12.82576">
        <ele>3.5</ele>
        <time>2012-07-30T11:28:23Z</time>
      </trkpt>
      <trkpt lat="45.76552" lon="12.82757">
        <ele>3.98</ele>
        <time>2012-07-30T11:28:33Z</time>
      </trkpt>
      <trkpt lat="45.76616" lon="12.82908">
        <ele>5.91</ele>
        <time>2012-07-30T11:28:41Z</time>
      </trkpt>
      <trkpt lat="45.76754" lon="12.83232">
        <ele>5.42</ele>
        <time>2012-07-30T11:28:58Z</time>
      </trkpt>
      <trkpt lat="45.76874" lon="12.83513">
        <ele>3.98</ele>
        <time>2012-07-30T11:29:13Z</time>
      </trkpt>
      <trkpt lat="45.76918" lon="12.83612">
        <ele>2.54</ele>
        <time>2012-07-30T11:29:19Z</time>
      </trkpt>
      <trkpt lat="45.76928" lon="12.83625">
        <ele>2.06</ele>
        <time>2012-07-30T11:29:20Z</time>
      </trkpt>
      <trkpt lat="45.76939" lon="12.83635">
        <ele>2.54</ele>
        <time>2012-07-30T11:29:21Z</time>
      </trkpt>
      <trkpt lat="45.76951" lon="12.83644">
        <ele>3.5</ele>
        <time>2012-07-30T11:29:22Z</time>
      </trkpt>
      <trkpt lat="45.76963" lon="12.83653">
        <ele>3.5</ele>
        <time>2012-07-30T11:29:23Z</time>
      </trkpt>
      <trkpt lat="45.77079" lon="12.83752">
        <ele>3.5</ele>
        <time>2012-07-30T11:29:33Z</time>
      </trkpt>
      <trkpt lat="45.77205" lon="12.8383">
        <ele>2.54</ele>
        <time>2012-07-30T11:29:44Z</time>
      </trkpt>
      <trkpt lat="45.77248" lon="12.83847">
        <ele>0.62</ele>
        <time>2012-07-30T11:29:50Z</time>
      </trkpt>
      <trkpt lat="45.77253" lon="12.83853">
        <ele>1.1</ele>
        <time>2012-07-30T11:29:51Z</time>
      </trkpt>
      <trkpt lat="45.77259" lon="12.83862">
        <ele>1.58</ele>
        <time>2012-07-30T11:29:52Z</time>
      </trkpt>
      <trkpt lat="45.7733" lon="12.84007">
        <ele>1.58</ele>
        <time>2012-07-30T11:30:04Z</time>
      </trkpt>
      <trkpt lat="45.77405" lon="12.84157">
        <ele>2.54</ele>
        <time>2012-07-30T11:30:16Z</time>
      </trkpt>
      <trkpt lat="45.7741" lon="12.84171">
        <ele>2.54</ele>
        <time>2012-07-30T11:30:17Z</time>
      </trkpt>
      <trkpt lat="45.77414" lon="12.84186">
        <ele>2.54</ele>
        <time>2012-07-30T11:30:18Z</time>
      </trkpt>
      <trkpt lat="45.77435" lon="12.84299">
        <ele>1.58</ele>
        <time>2012-07-30T11:30:26Z</time>
      </trkpt>
      <trkpt lat="45.77434" lon="12.84312">
        <ele>2.06</ele>
        <time>2012-07-30T11:30:27Z</time>
      </trkpt>
      <trkpt lat="45.77433" lon="12.84324">
        <ele>1.1</ele>
        <time>2012-07-30T11:30:28Z</time>
      </trkpt>
      <trkpt lat="45.77434" lon="12.84336">
        <ele>1.1</ele>
        <time>2012-07-30T11:30:29Z</time>
      </trkpt>
      <trkpt lat="45.77438" lon="12.84346">
        <ele>1.1</ele>
        <time>2012-07-30T11:30:30Z</time>
      </trkpt>
      <trkpt lat="45.77444" lon="12.84356">
        <ele>1.58</ele>
        <time>2012-07-30T11:30:31Z</time>
      </trkpt>
      <trkpt lat="45.7745" lon="12.84369">
        <ele>2.06</ele>
        <time>2012-07-30T11:30:32Z</time>
      </trkpt>
      <trkpt lat="45.77455" lon="12.84383">
        <ele>3.02</ele>
        <time>2012-07-30T11:30:33Z</time>
      </trkpt>
      <trkpt lat="45.77501" lon="12.84582">
        <ele>2.54</ele>
        <time>2012-07-30T11:30:45Z</time>
      </trkpt>
      <trkpt lat="45.77502" lon="12.84599">
        <ele>3.02</ele>
        <time>2012-07-30T11:30:46Z</time>
      </trkpt>
      <trkpt lat="45.77503" lon="12.84652">
        <ele>4.46</ele>
        <time>2012-07-30T11:30:49Z</time>
      </trkpt>
      <trkpt lat="45.77507" lon="12.84952">
        <ele>2.06</ele>
        <time>2012-07-30T11:31:06Z</time>
      </trkpt>
      <trkpt lat="45.7751" lon="12.85137">
        <ele>3.98</ele>
        <time>2012-07-30T11:31:17Z</time>
      </trkpt>
      <trkpt lat="45.77512" lon="12.85271">
        <ele>1.58</ele>
        <time>2012-07-30T11:31:27Z</time>
      </trkpt>
      <trkpt lat="45.77516" lon="12.85418">
        <ele>2.54</ele>
        <time>2012-07-30T11:31:37Z</time>
      </trkpt>
      <trkpt lat="45.77527" lon="12.85486">
        <ele>3.5</ele>
        <time>2012-07-30T11:31:43Z</time>
      </trkpt>
      <trkpt lat="45.77554" lon="12.85615">
        <ele>5.42</ele>
        <time>2012-07-30T11:31:50Z</time>
      </trkpt>
      <trkpt lat="45.77605" lon="12.85861">
        <ele>5.42</ele>
        <time>2012-07-30T11:32:03Z</time>
      </trkpt>
      <trkpt lat="45.77646" lon="12.86052">
        <ele>6.39</ele>
        <time>2012-07-30T11:32:13Z</time>
      </trkpt>
      <trkpt lat="45.77718" lon="12.86382">
        <ele>4.46</ele>
        <time>2012-07-30T11:32:30Z</time>
      </trkpt>
      <trkpt lat="45.77754" lon="12.86557">
        <ele>6.39</ele>
        <time>2012-07-30T11:32:39Z</time>
      </trkpt>
      <trkpt lat="45.77815" lon="12.86836">
        <ele>5.91</ele>
        <time>2012-07-30T11:32:53Z</time>
      </trkpt>
      <trkpt lat="45.77885" lon="12.87157">
        <ele>8.31</ele>
        <time>2012-07-30T11:33:08Z</time>
      </trkpt>
      <trkpt lat="45.77991" lon="12.87655">
        <ele>8.31</ele>
        <time>2012-07-30T11:33:29Z</time>
      </trkpt>
      <trkpt lat="45.78107" lon="12.88197">
        <ele>10.71</ele>
        <time>2012-07-30T11:33:51Z</time>
      </trkpt>
      <trkpt lat="45.78171" lon="12.88531">
        <ele>9.75</ele>
        <time>2012-07-30T11:34:04Z</time>
      </trkpt>
      <trkpt lat="45.78162" lon="12.88748">
        <ele>10.71</ele>
        <time>2012-07-30T11:34:12Z</time>
      </trkpt>
      <trkpt lat="45.78103" lon="12.89213">
        <ele>10.23</ele>
        <time>2012-07-30T11:34:29Z</time>
      </trkpt>
      <trkpt lat="45.78048" lon="12.89654">
        <ele>9.27</ele>
        <time>2012-07-30T11:34:45Z</time>
      </trkpt>
      <trkpt lat="45.78043" lon="12.89694">
        <ele>6.39</ele>
        <time>2012-07-30T11:34:47Z</time>
      </trkpt>
      <trkpt lat="45.78041" lon="12.89713">
        <ele>6.39</ele>
        <time>2012-07-30T11:34:48Z</time>
      </trkpt>
      <trkpt lat="45.78021" lon="12.89884">
        <ele>10.23</ele>
        <time>2012-07-30T11:34:55Z</time>
      </trkpt>
      <trkpt lat="45.78014" lon="12.89931">
        <ele>6.87</ele>
        <time>2012-07-30T11:34:57Z</time>
      </trkpt>
      <trkpt lat="45.78005" lon="12.89975">
        <ele>3.5</ele>
        <time>2012-07-30T11:35:00Z</time>
      </trkpt>
      <trkpt lat="45.78002" lon="12.89989">
        <ele>2.54</ele>
        <time>2012-07-30T11:35:03Z</time>
      </trkpt>
      <trkpt lat="45.78003" lon="12.8999">
        <ele>3.02</ele>
        <time>2012-07-30T11:35:19Z</time>
      </trkpt>
      <trkpt lat="45.78003" lon="12.89989">
        <ele>3.02</ele>
        <time>2012-07-30T11:35:54Z</time>
      </trkpt>
      <trkpt lat="45.78003" lon="12.89989">
        <ele>2.54</ele>
        <time>2012-07-30T11:36:26Z</time>
      </trkpt>
      <trkpt lat="45.78004" lon="12.89989">
        <ele>2.54</ele>
        <time>2012-07-30T11:37:07Z</time>
      </trkpt>
      <trkpt lat="45.78003" lon="12.89988">
        <ele>2.54</ele>
        <time>2012-07-30T11:37:47Z</time>
      </trkpt>
      <trkpt lat="45.78002" lon="12.89988">
        <ele>2.06</ele>
        <time>2012-07-30T11:38:27Z</time>
      </trkpt>
      <trkpt lat="45.78002" lon="12.89989">
        <ele>2.54</ele>
        <time>2012-07-30T11:39:07Z</time>
      </trkpt>
      <trkpt lat="45.78003" lon="12.89989">
        <ele>3.02</ele>
        <time>2012-07-30T11:39:42Z</time>
      </trkpt>
      <trkpt lat="45.78003" lon="12.89989">
        <ele>3.02</ele>
        <time>2012-07-30T11:40:17Z</time>
      </trkpt>
      <trkpt lat="45.78004" lon="12.89988">
        <ele>3.02</ele>
        <time>2012-07-30T11:40:55Z</time>
      </trkpt>
      <trkpt lat="45.78004" lon="12.89988">
        <ele>3.02</ele>
        <time>2012-07-30T11:41:32Z</time>
      </trkpt>
      <trkpt lat="45.78003" lon="12.89987">
        <ele>3.02</ele>
        <time>2012-07-30T11:42:08Z</time>
      </trkpt>
      <trkpt lat="45.78003" lon="12.89988">
        <ele>2.06</ele>
        <time>2012-07-30T11:42:35Z</time>
      </trkpt>
      <trkpt lat="45.78004" lon="12.89988">
        <ele>1.1</ele>
        <time>2012-07-30T11:43:02Z</time>
      </trkpt>
      <trkpt lat="45.78004" lon="12.89988">
        <ele>3.02</ele>
        <time>2012-07-30T11:43:05Z</time>
      </trkpt>
      <trkpt lat="45.78004" lon="12.89988">
        <ele>-5.15</ele>
        <time>2012-07-30T11:43:11Z</time>
      </trkpt>
      <trkpt lat="45.78004" lon="12.89988">
        <ele>3.5</ele>
        <time>2012-07-30T11:43:12Z</time>
      </trkpt>
      <trkpt lat="45.78004" lon="12.89987">
        <ele>3.02</ele>
        <time>2012-07-30T11:43:41Z</time>
      </trkpt>
      <trkpt lat="45.78004" lon="12.89989">
        <ele>3.5</ele>
        <time>2012-07-30T11:44:20Z</time>
      </trkpt>
      <trkpt lat="45.78004" lon="12.89989">
        <ele>3.02</ele>
        <time>2012-07-30T11:44:54Z</time>
      </trkpt>
      <trkpt lat="45.78004" lon="12.89989">
        <ele>2.54</ele>
        <time>2012-07-30T11:45:31Z</time>
      </trkpt>
      <trkpt lat="45.78004" lon="12.89988">
        <ele>3.02</ele>
        <time>2012-07-30T11:46:09Z</time>
      </trkpt>
      <trkpt lat="45.78003" lon="12.89991">
        <ele>3.02</ele>
        <time>2012-07-30T11:46:52Z</time>
      </trkpt>
      <trkpt lat="45.78003" lon="12.89991">
        <ele>3.5</ele>
        <time>2012-07-30T11:47:35Z</time>
      </trkpt>
      <trkpt lat="45.78003" lon="12.89991">
        <ele>3.02</ele>
        <time>2012-07-30T11:48:19Z</time>
      </trkpt>
      <trkpt lat="45.78003" lon="12.89989">
        <ele>3.5</ele>
        <time>2012-07-30T11:49:01Z</time>
      </trkpt>
      <trkpt lat="45.78003" lon="12.8999">
        <ele>3.5</ele>
        <time>2012-07-30T11:49:45Z</time>
      </trkpt>
      <trkpt lat="45.78003" lon="12.8999">
        <ele>3.98</ele>
        <time>2012-07-30T11:50:27Z</time>
      </trkpt>
      <trkpt lat="45.78002" lon="12.8999">
        <ele>3.98</ele>
        <time>2012-07-30T11:51:07Z</time>
      </trkpt>
      <trkpt lat="45.78003" lon="12.8999">
        <ele>4.46</ele>
        <time>2012-07-30T11:51:46Z</time>
      </trkpt>
      <trkpt lat="45.78005" lon="12.89989">
        <ele>4.46</ele>
        <time>2012-07-30T11:52:34Z</time>
      </trkpt>
      <trkpt lat="45.78003" lon="12.89988">
        <ele>4.46</ele>
        <time>2012-07-30T11:53:20Z</time>
      </trkpt>
      <trkpt lat="45.78003" lon="12.89988">
        <ele>4.46</ele>
        <time>2012-07-30T11:54:06Z</time>
      </trkpt>
      <trkpt lat="45.78004" lon="12.89989">
        <ele>4.46</ele>
        <time>2012-07-30T11:54:48Z</time>
      </trkpt>
      <trkpt lat="45.78004" lon="12.89989">
        <ele>4.94</ele>
        <time>2012-07-30T11:55:23Z</time>
      </trkpt>
      <trkpt lat="45.78003" lon="12.89991">
        <ele>4.46</ele>
        <time>2012-07-30T11:56:08Z</time>
      </trkpt>
      <trkpt lat="45.78004" lon="12.8999">
        <ele>4.46</ele>
        <time>2012-07-30T11:56:50Z</time>
      </trkpt>
      <trkpt lat="45.78004" lon="12.8999">
        <ele>4.94</ele>
        <time>2012-07-30T11:57:33Z</time>
      </trkpt>
      <trkpt lat="45.78004" lon="12.89991">
        <ele>4.46</ele>
        <time>2012-07-30T11:58:16Z</time>
      </trkpt>
      <trkpt lat="45.78005" lon="12.89991">
        <ele>4.46</ele>
        <time>2012-07-30T11:58:59Z</time>
      </trkpt>
      <trkpt lat="45.78004" lon="12.8999">
        <ele>4.46</ele>
        <time>2012-07-30T11:59:46Z</time>
      </trkpt>
      <trkpt lat="45.78004" lon="12.8999">
        <ele>4.46</ele>
        <time>2012-07-30T12:00:19Z</time>
      </trkpt>
      <trkpt lat="45.78003" lon="12.8999">
        <ele>4.46</ele>
        <time>2012-07-30T12:00:54Z</time>
      </trkpt>
      <trkpt lat="45.78004" lon="12.89991">
        <ele>4.94</ele>
        <time>2012-07-30T12:01:33Z</time>
      </trkpt>
      <trkpt lat="45.78004" lon="12.89991">
        <ele>4.46</ele>
        <time>2012-07-30T12:02:14Z</time>
      </trkpt>
      <trkpt lat="45.78004" lon="12.89992">
        <ele>4.46</ele>
        <time>2012-07-30T12:02:36Z</time>
      </trkpt>
      <trkpt lat="45.78004" lon="12.89992">
        <ele>5.42</ele>
        <time>2012-07-30T12:02:41Z</time>
      </trkpt>
      <trkpt lat="45.78004" lon="12.89998">
        <ele>5.42</ele>
        <time>2012-07-30T12:02:42Z</time>
      </trkpt>
      <trkpt lat="45.78004" lon="12.90009">
        <ele>5.42</ele>
        <time>2012-07-30T12:02:43Z</time>
      </trkpt>
      <trkpt lat="45.78003" lon="12.90021">
        <ele>6.39</ele>
        <time>2012-07-30T12:02:44Z</time>
      </trkpt>
      <trkpt lat="45.78001" lon="12.90036">
        <ele>6.87</ele>
        <time>2012-07-30T12:02:45Z</time>
      </trkpt>
      <trkpt lat="45.77996" lon="12.90069">
        <ele>8.31</ele>
        <time>2012-07-30T12:02:47Z</time>
      </trkpt>
      <trkpt lat="45.77971" lon="12.90276">
        <ele>10.23</ele>
        <time>2012-07-30T12:02:57Z</time>
      </trkpt>
      <trkpt lat="45.77922" lon="12.90694">
        <ele>11.19</ele>
        <time>2012-07-30T12:03:14Z</time>
      </trkpt>
      <trkpt lat="45.77868" lon="12.91157">
        <ele>12.15</ele>
        <time>2012-07-30T12:03:32Z</time>
      </trkpt>
      <trkpt lat="45.77821" lon="12.91554">
        <ele>9.75</ele>
        <time>2012-07-30T12:03:48Z</time>
      </trkpt>
      <trkpt lat="45.77783" lon="12.91866">
        <ele>9.75</ele>
        <time>2012-07-30T12:04:02Z</time>
      </trkpt>
      <trkpt lat="45.77772" lon="12.91956">
        <ele>10.23</ele>
        <time>2012-07-30T12:04:06Z</time>
      </trkpt>
      <trkpt lat="45.7773" lon="12.92318">
        <ele>11.67</ele>
        <time>2012-07-30T12:04:21Z</time>
      </trkpt>
      <trkpt lat="45.77703" lon="12.92542">
        <ele>11.67</ele>
        <time>2012-07-30T12:04:30Z</time>
      </trkpt>
      <trkpt lat="45.77675" lon="12.92774">
        <ele>8.31</ele>
        <time>2012-07-30T12:04:40Z</time>
      </trkpt>
      <trkpt lat="45.77654" lon="12.9289">
        <ele>6.39</ele>
        <time>2012-07-30T12:04:47Z</time>
      </trkpt>
      <trkpt lat="45.77648" lon="12.92902">
        <ele>5.91</ele>
        <time>2012-07-30T12:04:48Z</time>
      </trkpt>
      <trkpt lat="45.77639" lon="12.92911">
        <ele>5.91</ele>
        <time>2012-07-30T12:04:49Z</time>
      </trkpt>
      <trkpt lat="45.77621" lon="12.92929">
        <ele>4.46</ele>
        <time>2012-07-30T12:04:51Z</time>
      </trkpt>
      <trkpt lat="45.77613" lon="12.9294">
        <ele>4.94</ele>
        <time>2012-07-30T12:04:52Z</time>
      </trkpt>
      <trkpt lat="45.77608" lon="12.92953">
        <ele>5.42</ele>
        <time>2012-07-30T12:04:53Z</time>
      </trkpt>
      <trkpt lat="45.77604" lon="12.92967">
        <ele>5.91</ele>
        <time>2012-07-30T12:04:54Z</time>
      </trkpt>
      <trkpt lat="45.77602" lon="12.92982">
        <ele>5.91</ele>
        <time>2012-07-30T12:04:55Z</time>
      </trkpt>
      <trkpt lat="45.77602" lon="12.92996">
        <ele>5.91</ele>
        <time>2012-07-30T12:04:56Z</time>
      </trkpt>
      <trkpt lat="45.77604" lon="12.9301">
        <ele>5.91</ele>
        <time>2012-07-30T12:04:57Z</time>
      </trkpt>
      <trkpt lat="45.77608" lon="12.93024">
        <ele>5.91</ele>
        <time>2012-07-30T12:04:58Z</time>
      </trkpt>
      <trkpt lat="45.77614" lon="12.93036">
        <ele>6.87</ele>
        <time>2012-07-30T12:04:59Z</time>
      </trkpt>
      <trkpt lat="45.77621" lon="12.93049">
        <ele>6.39</ele>
        <time>2012-07-30T12:05:00Z</time>
      </trkpt>
      <trkpt lat="45.77627" lon="12.93062">
        <ele>6.39</ele>
        <time>2012-07-30T12:05:01Z</time>
      </trkpt>
      <trkpt lat="45.77631" lon="12.93077">
        <ele>6.39</ele>
        <time>2012-07-30T12:05:02Z</time>
      </trkpt>
      <trkpt lat="45.77633" lon="12.93094">
        <ele>6.87</ele>
        <time>2012-07-30T12:05:03Z</time>
      </trkpt>
      <trkpt lat="45.77633" lon="12.93111">
        <ele>7.35</ele>
        <time>2012-07-30T12:05:04Z</time>
      </trkpt>
      <trkpt lat="45.77632" lon="12.93129">
        <ele>7.83</ele>
        <time>2012-07-30T12:05:05Z</time>
      </trkpt>
      <trkpt lat="45.77627" lon="12.93192">
        <ele>10.71</ele>
        <time>2012-07-30T12:05:08Z</time>
      </trkpt>
      <trkpt lat="45.77624" lon="12.93216">
        <ele>10.71</ele>
        <time>2012-07-30T12:05:09Z</time>
      </trkpt>
      <trkpt lat="45.7759" lon="12.93487">
        <ele>11.67</ele>
        <time>2012-07-30T12:05:19Z</time>
      </trkpt>
      <trkpt lat="45.77547" lon="12.93851">
        <ele>12.15</ele>
        <time>2012-07-30T12:05:32Z</time>
      </trkpt>
      <trkpt lat="45.77482" lon="12.94401">
        <ele>11.67</ele>
        <time>2012-07-30T12:05:52Z</time>
      </trkpt>
      <trkpt lat="45.77439" lon="12.9476">
        <ele>10.23</ele>
        <time>2012-07-30T12:06:06Z</time>
      </trkpt>
      <trkpt lat="45.7742" lon="12.94922">
        <ele>11.19</ele>
        <time>2012-07-30T12:06:12Z</time>
      </trkpt>
      <trkpt lat="45.77367" lon="12.95364">
        <ele>9.27</ele>
        <time>2012-07-30T12:06:29Z</time>
      </trkpt>
      <trkpt lat="45.77361" lon="12.95415">
        <ele>10.71</ele>
        <time>2012-07-30T12:06:31Z</time>
      </trkpt>
      <trkpt lat="45.77316" lon="12.95799">
        <ele>11.19</ele>
        <time>2012-07-30T12:06:45Z</time>
      </trkpt>
      <trkpt lat="45.77257" lon="12.96294">
        <ele>11.19</ele>
        <time>2012-07-30T12:07:03Z</time>
      </trkpt>
      <trkpt lat="45.77205" lon="12.96728">
        <ele>10.71</ele>
        <time>2012-07-30T12:07:19Z</time>
      </trkpt>
      <trkpt lat="45.77145" lon="12.9723">
        <ele>9.75</ele>
        <time>2012-07-30T12:07:37Z</time>
      </trkpt>
      <trkpt lat="45.77093" lon="12.9767">
        <ele>10.23</ele>
        <time>2012-07-30T12:07:53Z</time>
      </trkpt>
      <trkpt lat="45.7703" lon="12.98197">
        <ele>10.23</ele>
        <time>2012-07-30T12:08:12Z</time>
      </trkpt>
      <trkpt lat="45.77023" lon="12.98248">
        <ele>6.87</ele>
        <time>2012-07-30T12:08:14Z</time>
      </trkpt>
      <trkpt lat="45.77021" lon="12.98273">
        <ele>7.83</ele>
        <time>2012-07-30T12:08:15Z</time>
      </trkpt>
      <trkpt lat="45.76986" lon="12.98538">
        <ele>10.71</ele>
        <time>2012-07-30T12:08:26Z</time>
      </trkpt>
      <trkpt lat="45.76949" lon="12.98854">
        <ele>11.67</ele>
        <time>2012-07-30T12:08:39Z</time>
      </trkpt>
      <trkpt lat="45.76893" lon="12.99157">
        <ele>14.08</ele>
        <time>2012-07-30T12:08:51Z</time>
      </trkpt>
      <trkpt lat="45.76915" lon="12.99344">
        <ele>15.04</ele>
        <time>2012-07-30T12:08:58Z</time>
      </trkpt>
      <trkpt lat="45.76995" lon="12.99615">
        <ele>18.4</ele>
        <time>2012-07-30T12:09:09Z</time>
      </trkpt>
      <trkpt lat="45.77034" lon="12.99747">
        <ele>15.04</ele>
        <time>2012-07-30T12:09:15Z</time>
      </trkpt>
      <trkpt lat="45.77053" lon="12.99811">
        <ele>13.6</ele>
        <time>2012-07-30T12:09:19Z</time>
      </trkpt>
      <trkpt lat="45.7706" lon="12.99824">
        <ele>12.63</ele>
        <time>2012-07-30T12:09:20Z</time>
      </trkpt>
      <trkpt lat="45.77067" lon="12.99833">
        <ele>11.67</ele>
        <time>2012-07-30T12:09:21Z</time>
      </trkpt>
      <trkpt lat="45.77074" lon="12.99838">
        <ele>11.19</ele>
        <time>2012-07-30T12:09:22Z</time>
      </trkpt>
      <trkpt lat="45.7708" lon="12.99841">
        <ele>11.19</ele>
        <time>2012-07-30T12:09:23Z</time>
      </trkpt>
      <trkpt lat="45.77085" lon="12.99842">
        <ele>10.23</ele>
        <time>2012-07-30T12:09:24Z</time>
      </trkpt>
      <trkpt lat="45.7709" lon="12.99841">
        <ele>10.23</ele>
        <time>2012-07-30T12:09:25Z</time>
      </trkpt>
      <trkpt lat="45.77095" lon="12.9984">
        <ele>10.71</ele>
        <time>2012-07-30T12:09:26Z</time>
      </trkpt>
      <trkpt lat="45.77103" lon="12.99837">
        <ele>10.71</ele>
        <time>2012-07-30T12:09:27Z</time>
      </trkpt>
      <trkpt lat="45.77111" lon="12.99834">
        <ele>10.23</ele>
        <time>2012-07-30T12:09:28Z</time>
      </trkpt>
      <trkpt lat="45.77119" lon="12.99829">
        <ele>10.71</ele>
        <time>2012-07-30T12:09:29Z</time>
      </trkpt>
      <trkpt lat="45.77127" lon="12.99824">
        <ele>10.23</ele>
        <time>2012-07-30T12:09:30Z</time>
      </trkpt>
      <trkpt lat="45.77157" lon="12.99808">
        <ele>7.83</ele>
        <time>2012-07-30T12:09:34Z</time>
      </trkpt>
      <trkpt lat="45.77184" lon="12.99792">
        <ele>5.91</ele>
        <time>2012-07-30T12:09:43Z</time>
      </trkpt>
      <trkpt lat="45.77189" lon="12.99788">
        <ele>5.91</ele>
        <time>2012-07-30T12:10:12Z</time>
      </trkpt>
      <trkpt lat="45.772" lon="12.99784">
        <ele>6.87</ele>
        <time>2012-07-30T12:10:15Z</time>
      </trkpt>
      <trkpt lat="45.77237" lon="12.99767">
        <ele>7.35</ele>
        <time>2012-07-30T12:10:19Z</time>
      </trkpt>
      <trkpt lat="45.77248" lon="12.99762">
        <ele>6.87</ele>
        <time>2012-07-30T12:10:20Z</time>
      </trkpt>
      <trkpt lat="45.77429" lon="12.99678">
        <ele>7.35</ele>
        <time>2012-07-30T12:10:36Z</time>
      </trkpt>
      <trkpt lat="45.77473" lon="12.99657">
        <ele>8.31</ele>
        <time>2012-07-30T12:10:40Z</time>
      </trkpt>
      <trkpt lat="45.77524" lon="12.9962">
        <ele>7.35</ele>
        <time>2012-07-30T12:10:45Z</time>
      </trkpt>
      <trkpt lat="45.77532" lon="12.9961">
        <ele>8.31</ele>
        <time>2012-07-30T12:10:46Z</time>
      </trkpt>
      <trkpt lat="45.77539" lon="12.99601">
        <ele>8.31</ele>
        <time>2012-07-30T12:10:47Z</time>
      </trkpt>
      <trkpt lat="45.77546" lon="12.99592">
        <ele>7.83</ele>
        <time>2012-07-30T12:10:48Z</time>
      </trkpt>
      <trkpt lat="45.77551" lon="12.99588">
        <ele>6.87</ele>
        <time>2012-07-30T12:10:49Z</time>
      </trkpt>
      <trkpt lat="45.77558" lon="12.99588">
        <ele>6.87</ele>
        <time>2012-07-30T12:10:50Z</time>
      </trkpt>
      <trkpt lat="45.77564" lon="12.99593">
        <ele>6.87</ele>
        <time>2012-07-30T12:10:51Z</time>
      </trkpt>
      <trkpt lat="45.7757" lon="12.99598">
        <ele>7.35</ele>
        <time>2012-07-30T12:10:52Z</time>
      </trkpt>
      <trkpt lat="45.77578" lon="12.99604">
        <ele>7.35</ele>
        <time>2012-07-30T12:10:53Z</time>
      </trkpt>
      <trkpt lat="45.77669" lon="12.99667">
        <ele>6.87</ele>
        <time>2012-07-30T12:11:02Z</time>
      </trkpt>
      <trkpt lat="45.77713" lon="12.99691">
        <ele>7.35</ele>
        <time>2012-07-30T12:11:06Z</time>
      </trkpt>
      <trkpt lat="45.77725" lon="12.99692">
        <ele>6.87</ele>
        <time>2012-07-30T12:11:07Z</time>
      </trkpt>
      <trkpt lat="45.77737" lon="12.99689">
        <ele>7.35</ele>
        <time>2012-07-30T12:11:08Z</time>
      </trkpt>
      <trkpt lat="45.77748" lon="12.99684">
        <ele>8.31</ele>
        <time>2012-07-30T12:11:09Z</time>
      </trkpt>
      <trkpt lat="45.77759" lon="12.99676">
        <ele>8.31</ele>
        <time>2012-07-30T12:11:10Z</time>
      </trkpt>
      <trkpt lat="45.77793" lon="12.99649">
        <ele>5.91</ele>
        <time>2012-07-30T12:11:14Z</time>
      </trkpt>
      <trkpt lat="45.77815" lon="12.99632">
        <ele>4.46</ele>
        <time>2012-07-30T12:11:20Z</time>
      </trkpt>
      <trkpt lat="45.77816" lon="12.99631">
        <ele>3.98</ele>
        <time>2012-07-30T12:11:52Z</time>
      </trkpt>
      <trkpt lat="45.77836" lon="12.99619">
        <ele>5.42</ele>
        <time>2012-07-30T12:12:05Z</time>
      </trkpt>
      <trkpt lat="45.77841" lon="12.99619">
        <ele>5.42</ele>
        <time>2012-07-30T12:12:06Z</time>
      </trkpt>
      <trkpt lat="45.77846" lon="12.99624">
        <ele>5.42</ele>
        <time>2012-07-30T12:12:07Z</time>
      </trkpt>
      <trkpt lat="45.77852" lon="12.99632">
        <ele>5.91</ele>
        <time>2012-07-30T12:12:08Z</time>
      </trkpt>
      <trkpt lat="45.77857" lon="12.99642">
        <ele>6.39</ele>
        <time>2012-07-30T12:12:09Z</time>
      </trkpt>
      <trkpt lat="45.77863" lon="12.99653">
        <ele>6.39</ele>
        <time>2012-07-30T12:12:10Z</time>
      </trkpt>
      <trkpt lat="45.77929" lon="12.99765">
        <ele>7.83</ele>
        <time>2012-07-30T12:12:19Z</time>
      </trkpt>
      <trkpt lat="45.78044" lon="12.99953">
        <ele>9.27</ele>
        <time>2012-07-30T12:12:33Z</time>
      </trkpt>
      <trkpt lat="45.78196" lon="13.00205">
        <ele>7.83</ele>
        <time>2012-07-30T12:12:50Z</time>
      </trkpt>
      <trkpt lat="45.78358" lon="13.00468">
        <ele>8.79</ele>
        <time>2012-07-30T12:13:07Z</time>
      </trkpt>
      <trkpt lat="45.78554" lon="13.0079">
        <ele>9.27</ele>
        <time>2012-07-30T12:13:27Z</time>
      </trkpt>
      <trkpt lat="45.78695" lon="13.01026">
        <ele>8.79</ele>
        <time>2012-07-30T12:13:41Z</time>
      </trkpt>
      <trkpt lat="45.7886" lon="13.01297">
        <ele>8.79</ele>
        <time>2012-07-30T12:13:57Z</time>
      </trkpt>
      <trkpt lat="45.79043" lon="13.01598">
        <ele>9.75</ele>
        <time>2012-07-30T12:14:14Z</time>
      </trkpt>
      <trkpt lat="45.7921" lon="13.01877">
        <ele>9.27</ele>
        <time>2012-07-30T12:14:30Z</time>
      </trkpt>
      <trkpt lat="45.79236" lon="13.01925">
        <ele>7.83</ele>
        <time>2012-07-30T12:14:33Z</time>
      </trkpt>
      <trkpt lat="45.79243" lon="13.0194">
        <ele>7.35</ele>
        <time>2012-07-30T12:14:34Z</time>
      </trkpt>
      <trkpt lat="45.79254" lon="13.01964">
        <ele>5.42</ele>
        <time>2012-07-30T12:14:36Z</time>
      </trkpt>
      <trkpt lat="45.79258" lon="13.01974">
        <ele>4.94</ele>
        <time>2012-07-30T12:14:37Z</time>
      </trkpt>
      <trkpt lat="45.79261" lon="13.01987">
        <ele>4.94</ele>
        <time>2012-07-30T12:14:38Z</time>
      </trkpt>
      <trkpt lat="45.79263" lon="13.02">
        <ele>5.42</ele>
        <time>2012-07-30T12:14:39Z</time>
      </trkpt>
      <trkpt lat="45.79268" lon="13.02013">
        <ele>5.42</ele>
        <time>2012-07-30T12:14:40Z</time>
      </trkpt>
      <trkpt lat="45.79274" lon="13.02026">
        <ele>5.42</ele>
        <time>2012-07-30T12:14:41Z</time>
      </trkpt>
      <trkpt lat="45.7928" lon="13.02041">
        <ele>5.91</ele>
        <time>2012-07-30T12:14:42Z</time>
      </trkpt>
      <trkpt lat="45.79284" lon="13.02057">
        <ele>6.39</ele>
        <time>2012-07-30T12:14:43Z</time>
      </trkpt>
      <trkpt lat="45.79289" lon="13.02092">
        <ele>7.83</ele>
        <time>2012-07-30T12:14:45Z</time>
      </trkpt>
      <trkpt lat="45.79318" lon="13.0231">
        <ele>8.79</ele>
        <time>2012-07-30T12:14:56Z</time>
      </trkpt>
      <trkpt lat="45.79349" lon="13.02557">
        <ele>10.71</ele>
        <time>2012-07-30T12:15:07Z</time>
      </trkpt>
      <trkpt lat="45.79371" lon="13.02726">
        <ele>11.19</ele>
        <time>2012-07-30T12:15:14Z</time>
      </trkpt>
      <trkpt lat="45.79426" lon="13.03155">
        <ele>14.56</ele>
        <time>2012-07-30T12:15:31Z</time>
      </trkpt>
      <trkpt lat="45.79494" lon="13.03595">
        <ele>12.63</ele>
        <time>2012-07-30T12:15:47Z</time>
      </trkpt>
      <trkpt lat="45.79516" lon="13.03709">
        <ele>16</ele>
        <time>2012-07-30T12:15:51Z</time>
      </trkpt>
      <trkpt lat="45.79521" lon="13.03736">
        <ele>16</ele>
        <time>2012-07-30T12:15:52Z</time>
      </trkpt>
      <trkpt lat="45.79542" lon="13.03847">
        <ele>13.12</ele>
        <time>2012-07-30T12:15:56Z</time>
      </trkpt>
      <trkpt lat="45.79581" lon="13.0404">
        <ele>12.15</ele>
        <time>2012-07-30T12:16:03Z</time>
      </trkpt>
      <trkpt lat="45.79627" lon="13.04281">
        <ele>12.15</ele>
        <time>2012-07-30T12:16:12Z</time>
      </trkpt>
      <trkpt lat="45.79638" lon="13.04337">
        <ele>13.12</ele>
        <time>2012-07-30T12:16:14Z</time>
      </trkpt>
      <trkpt lat="45.79708" lon="13.04705">
        <ele>11.19</ele>
        <time>2012-07-30T12:16:27Z</time>
      </trkpt>
      <trkpt lat="45.79811" lon="13.05207">
        <ele>13.6</ele>
        <time>2012-07-30T12:16:45Z</time>
      </trkpt>
      <trkpt lat="45.79828" lon="13.05291">
        <ele>11.67</ele>
        <time>2012-07-30T12:16:48Z</time>
      </trkpt>
      <trkpt lat="45.79923" lon="13.05737">
        <ele>11.67</ele>
        <time>2012-07-30T12:17:04Z</time>
      </trkpt>
      <trkpt lat="45.79935" lon="13.05793">
        <ele>13.12</ele>
        <time>2012-07-30T12:17:06Z</time>
      </trkpt>
      <trkpt lat="45.80016" lon="13.06214">
        <ele>10.71</ele>
        <time>2012-07-30T12:17:21Z</time>
      </trkpt>
      <trkpt lat="45.80032" lon="13.06295">
        <ele>13.12</ele>
        <time>2012-07-30T12:17:24Z</time>
      </trkpt>
      <trkpt lat="45.80042" lon="13.06347">
        <ele>11.67</ele>
        <time>2012-07-30T12:17:26Z</time>
      </trkpt>
      <trkpt lat="45.80052" lon="13.06399">
        <ele>9.75</ele>
        <time>2012-07-30T12:17:28Z</time>
      </trkpt>
      <trkpt lat="45.80125" lon="13.06728">
        <ele>8.31</ele>
        <time>2012-07-30T12:17:41Z</time>
      </trkpt>
      <trkpt lat="45.80253" lon="13.07063">
        <ele>7.35</ele>
        <time>2012-07-30T12:17:58Z</time>
      </trkpt>
      <trkpt lat="45.80322" lon="13.07323">
        <ele>7.35</ele>
        <time>2012-07-30T12:18:11Z</time>
      </trkpt>
      <trkpt lat="45.8032" lon="13.07578">
        <ele>6.39</ele>
        <time>2012-07-30T12:18:23Z</time>
      </trkpt>
      <trkpt lat="45.80316" lon="13.07811">
        <ele>8.31</ele>
        <time>2012-07-30T12:18:34Z</time>
      </trkpt>
      <trkpt lat="45.80316" lon="13.07892">
        <ele>4.94</ele>
        <time>2012-07-30T12:18:38Z</time>
      </trkpt>
      <trkpt lat="45.80328" lon="13.07996">
        <ele>1.58</ele>
        <time>2012-07-30T12:18:45Z</time>
      </trkpt>
      <trkpt lat="45.80329" lon="13.08004">
        <ele>1.58</ele>
        <time>2012-07-30T12:18:46Z</time>
      </trkpt>
      <trkpt lat="45.80331" lon="13.08015">
        <ele>1.1</ele>
        <time>2012-07-30T12:18:52Z</time>
      </trkpt>
      <trkpt lat="45.80333" lon="13.08031">
        <ele>2.54</ele>
        <time>2012-07-30T12:19:14Z</time>
      </trkpt>
      <trkpt lat="45.80351" lon="13.08109">
        <ele>4.94</ele>
        <time>2012-07-30T12:19:19Z</time>
      </trkpt>
      <trkpt lat="45.80408" lon="13.08298">
        <ele>5.42</ele>
        <time>2012-07-30T12:19:30Z</time>
      </trkpt>
      <trkpt lat="45.80487" lon="13.08525">
        <ele>6.39</ele>
        <time>2012-07-30T12:19:43Z</time>
      </trkpt>
      <trkpt lat="45.80575" lon="13.08777">
        <ele>7.83</ele>
        <time>2012-07-30T12:19:57Z</time>
      </trkpt>
      <trkpt lat="45.80644" lon="13.08965">
        <ele>8.79</ele>
        <time>2012-07-30T12:20:07Z</time>
      </trkpt>
      <trkpt lat="45.80751" lon="13.09272">
        <ele>9.75</ele>
        <time>2012-07-30T12:20:22Z</time>
      </trkpt>
      <trkpt lat="45.80869" lon="13.097">
        <ele>11.67</ele>
        <time>2012-07-30T12:20:40Z</time>
      </trkpt>
      <trkpt lat="45.81" lon="13.1015">
        <ele>11.19</ele>
        <time>2012-07-30T12:20:59Z</time>
      </trkpt>
      <trkpt lat="45.81115" lon="13.10555">
        <ele>12.15</ele>
        <time>2012-07-30T12:21:15Z</time>
      </trkpt>
      <trkpt lat="45.81218" lon="13.10927">
        <ele>12.15</ele>
        <time>2012-07-30T12:21:29Z</time>
      </trkpt>
      <trkpt lat="45.8124" lon="13.11006">
        <ele>11.19</ele>
        <time>2012-07-30T12:21:32Z</time>
      </trkpt>
      <trkpt lat="45.81333" lon="13.11342">
        <ele>10.23</ele>
        <time>2012-07-30T12:21:46Z</time>
      </trkpt>
      <trkpt lat="45.81415" lon="13.11638">
        <ele>8.79</ele>
        <time>2012-07-30T12:22:00Z</time>
      </trkpt>
      <trkpt lat="45.81491" lon="13.11912">
        <ele>7.35</ele>
        <time>2012-07-30T12:22:13Z</time>
      </trkpt>
      <trkpt lat="45.81546" lon="13.12102">
        <ele>6.39</ele>
        <time>2012-07-30T12:22:24Z</time>
      </trkpt>
      <trkpt lat="45.81564" lon="13.12153">
        <ele>4.94</ele>
        <time>2012-07-30T12:22:28Z</time>
      </trkpt>
      <trkpt lat="45.8157" lon="13.12159">
        <ele>4.94</ele>
        <time>2012-07-30T12:22:29Z</time>
      </trkpt>
      <trkpt lat="45.81579" lon="13.12162">
        <ele>4.94</ele>
        <time>2012-07-30T12:22:30Z</time>
      </trkpt>
      <trkpt lat="45.81589" lon="13.12166">
        <ele>5.42</ele>
        <time>2012-07-30T12:22:31Z</time>
      </trkpt>
      <trkpt lat="45.81599" lon="13.12172">
        <ele>5.91</ele>
        <time>2012-07-30T12:22:32Z</time>
      </trkpt>
      <trkpt lat="45.81608" lon="13.12183">
        <ele>6.39</ele>
        <time>2012-07-30T12:22:33Z</time>
      </trkpt>
      <trkpt lat="45.81617" lon="13.12196">
        <ele>7.35</ele>
        <time>2012-07-30T12:22:34Z</time>
      </trkpt>
      <trkpt lat="45.81625" lon="13.12211">
        <ele>6.87</ele>
        <time>2012-07-30T12:22:35Z</time>
      </trkpt>
      <trkpt lat="45.81743" lon="13.12394">
        <ele>11.19</ele>
        <time>2012-07-30T12:22:46Z</time>
      </trkpt>
      <trkpt lat="45.81755" lon="13.12412">
        <ele>11.67</ele>
        <time>2012-07-30T12:22:47Z</time>
      </trkpt>
      <trkpt lat="45.81837" lon="13.12543">
        <ele>10.23</ele>
        <time>2012-07-30T12:22:54Z</time>
      </trkpt>
      <trkpt lat="45.81845" lon="13.12564">
        <ele>11.19</ele>
        <time>2012-07-30T12:22:55Z</time>
      </trkpt>
      <trkpt lat="45.81852" lon="13.12587">
        <ele>11.19</ele>
        <time>2012-07-30T12:22:56Z</time>
      </trkpt>
      <trkpt lat="45.81858" lon="13.1261">
        <ele>10.71</ele>
        <time>2012-07-30T12:22:57Z</time>
      </trkpt>
      <trkpt lat="45.81862" lon="13.12634">
        <ele>11.19</ele>
        <time>2012-07-30T12:22:58Z</time>
      </trkpt>
      <trkpt lat="45.81865" lon="13.12659">
        <ele>11.19</ele>
        <time>2012-07-30T12:22:59Z</time>
      </trkpt>
      <trkpt lat="45.81866" lon="13.12684">
        <ele>10.71</ele>
        <time>2012-07-30T12:23:00Z</time>
      </trkpt>
      <trkpt lat="45.81866" lon="13.12709">
        <ele>10.23</ele>
        <time>2012-07-30T12:23:01Z</time>
      </trkpt>
      <trkpt lat="45.81864" lon="13.12734">
        <ele>11.19</ele>
        <time>2012-07-30T12:23:02Z</time>
      </trkpt>
      <trkpt lat="45.81861" lon="13.12758">
        <ele>10.71</ele>
        <time>2012-07-30T12:23:03Z</time>
      </trkpt>
      <trkpt lat="45.81857" lon="13.12781">
        <ele>10.23</ele>
        <time>2012-07-30T12:23:04Z</time>
      </trkpt>
      <trkpt lat="45.81816" lon="13.13045">
        <ele>8.79</ele>
        <time>2012-07-30T12:23:16Z</time>
      </trkpt>
      <trkpt lat="45.81816" lon="13.13067">
        <ele>9.75</ele>
        <time>2012-07-30T12:23:17Z</time>
      </trkpt>
      <trkpt lat="45.81817" lon="13.13089">
        <ele>10.23</ele>
        <time>2012-07-30T12:23:18Z</time>
      </trkpt>
      <trkpt lat="45.81819" lon="13.1311">
        <ele>9.27</ele>
        <time>2012-07-30T12:23:19Z</time>
      </trkpt>
      <trkpt lat="45.81823" lon="13.13132">
        <ele>9.27</ele>
        <time>2012-07-30T12:23:20Z</time>
      </trkpt>
      <trkpt lat="45.81828" lon="13.13152">
        <ele>9.75</ele>
        <time>2012-07-30T12:23:21Z</time>
      </trkpt>
      <trkpt lat="45.81834" lon="13.13171">
        <ele>9.75</ele>
        <time>2012-07-30T12:23:22Z</time>
      </trkpt>
      <trkpt lat="45.8184" lon="13.1319">
        <ele>10.71</ele>
        <time>2012-07-30T12:23:23Z</time>
      </trkpt>
      <trkpt lat="45.81939" lon="13.135">
        <ele>10.71</ele>
        <time>2012-07-30T12:23:38Z</time>
      </trkpt>
      <trkpt lat="45.82054" lon="13.13911">
        <ele>10.23</ele>
        <time>2012-07-30T12:23:57Z</time>
      </trkpt>
      <trkpt lat="45.82149" lon="13.1425">
        <ele>10.23</ele>
        <time>2012-07-30T12:24:12Z</time>
      </trkpt>
      <trkpt lat="45.82272" lon="13.14693">
        <ele>11.19</ele>
        <time>2012-07-30T12:24:31Z</time>
      </trkpt>
      <trkpt lat="45.82391" lon="13.1511">
        <ele>12.63</ele>
        <time>2012-07-30T12:24:48Z</time>
      </trkpt>
      <trkpt lat="45.82535" lon="13.15618">
        <ele>14.08</ele>
        <time>2012-07-30T12:25:08Z</time>
      </trkpt>
      <trkpt lat="45.82659" lon="13.16054">
        <ele>15.04</ele>
        <time>2012-07-30T12:25:25Z</time>
      </trkpt>
      <trkpt lat="45.82724" lon="13.16282">
        <ele>15.04</ele>
        <time>2012-07-30T12:25:34Z</time>
      </trkpt>
      <trkpt lat="45.82745" lon="13.16356">
        <ele>13.6</ele>
        <time>2012-07-30T12:25:37Z</time>
      </trkpt>
      <trkpt lat="45.8285" lon="13.16731">
        <ele>14.08</ele>
        <time>2012-07-30T12:25:52Z</time>
      </trkpt>
      <trkpt lat="45.82865" lon="13.16782">
        <ele>12.63</ele>
        <time>2012-07-30T12:25:54Z</time>
      </trkpt>
      <trkpt lat="45.82915" lon="13.16961">
        <ele>16</ele>
        <time>2012-07-30T12:26:01Z</time>
      </trkpt>
      <trkpt lat="45.82936" lon="13.17035">
        <ele>14.56</ele>
        <time>2012-07-30T12:26:04Z</time>
      </trkpt>
      <trkpt lat="45.8295" lon="13.17085">
        <ele>13.12</ele>
        <time>2012-07-30T12:26:06Z</time>
      </trkpt>
      <trkpt lat="45.83019" lon="13.1733">
        <ele>10.71</ele>
        <time>2012-07-30T12:26:16Z</time>
      </trkpt>
      <trkpt lat="45.83089" lon="13.17546">
        <ele>9.27</ele>
        <time>2012-07-30T12:26:27Z</time>
      </trkpt>
      <trkpt lat="45.83146" lon="13.17692">
        <ele>9.75</ele>
        <time>2012-07-30T12:26:35Z</time>
      </trkpt>
      <trkpt lat="45.83151" lon="13.17711">
        <ele>9.27</ele>
        <time>2012-07-30T12:26:36Z</time>
      </trkpt>
      <trkpt lat="45.83155" lon="13.17731">
        <ele>9.27</ele>
        <time>2012-07-30T12:26:37Z</time>
      </trkpt>
      <trkpt lat="45.83191" lon="13.17929">
        <ele>7.83</ele>
        <time>2012-07-30T12:26:47Z</time>
      </trkpt>
      <trkpt lat="45.83249" lon="13.18135">
        <ele>8.79</ele>
        <time>2012-07-30T12:27:00Z</time>
      </trkpt>
      <trkpt lat="45.83327" lon="13.18403">
        <ele>8.31</ele>
        <time>2012-07-30T12:27:17Z</time>
      </trkpt>
      <trkpt lat="45.83401" lon="13.18655">
        <ele>8.31</ele>
        <time>2012-07-30T12:27:32Z</time>
      </trkpt>
      <trkpt lat="45.83476" lon="13.18933">
        <ele>8.31</ele>
        <time>2012-07-30T12:27:48Z</time>
      </trkpt>
      <trkpt lat="45.83489" lon="13.19126">
        <ele>8.31</ele>
        <time>2012-07-30T12:27:58Z</time>
      </trkpt>
      <trkpt lat="45.83456" lon="13.1936">
        <ele>7.83</ele>
        <time>2012-07-30T12:28:10Z</time>
      </trkpt>
      <trkpt lat="45.83401" lon="13.19725">
        <ele>8.79</ele>
        <time>2012-07-30T12:28:29Z</time>
      </trkpt>
      <trkpt lat="45.83342" lon="13.20117">
        <ele>7.83</ele>
        <time>2012-07-30T12:28:49Z</time>
      </trkpt>
      <trkpt lat="45.83294" lon="13.20438">
        <ele>5.91</ele>
        <time>2012-07-30T12:29:06Z</time>
      </trkpt>
      <trkpt lat="45.8329" lon="13.20454">
        <ele>3.98</ele>
        <time>2012-07-30T12:29:08Z</time>
      </trkpt>
      <trkpt lat="45.83284" lon="13.20493">
        <ele>3.02</ele>
        <time>2012-07-30T12:29:17Z</time>
      </trkpt>
      <trkpt lat="45.83284" lon="13.20493">
        <ele>3.5</ele>
        <time>2012-07-30T12:29:27Z</time>
      </trkpt>
      <trkpt lat="45.83285" lon="13.20507">
        <ele>3.98</ele>
        <time>2012-07-30T12:29:30Z</time>
      </trkpt>
      <trkpt lat="45.83284" lon="13.20514">
        <ele>3.98</ele>
        <time>2012-07-30T12:29:31Z</time>
      </trkpt>
      <trkpt lat="45.83283" lon="13.20522">
        <ele>3.98</ele>
        <time>2012-07-30T12:29:32Z</time>
      </trkpt>
      <trkpt lat="45.83278" lon="13.20552">
        <ele>5.42</ele>
        <time>2012-07-30T12:29:35Z</time>
      </trkpt>
      <trkpt lat="45.83254" lon="13.20712">
        <ele>4.46</ele>
        <time>2012-07-30T12:29:47Z</time>
      </trkpt>
      <trkpt lat="45.83252" lon="13.2074">
        <ele>3.5</ele>
        <time>2012-07-30T12:29:50Z</time>
      </trkpt>
      <trkpt lat="45.83252" lon="13.20747">
        <ele>3.5</ele>
        <time>2012-07-30T12:29:51Z</time>
      </trkpt>
      <trkpt lat="45.83253" lon="13.20753">
        <ele>3.5</ele>
        <time>2012-07-30T12:29:52Z</time>
      </trkpt>
      <trkpt lat="45.83253" lon="13.20757">
        <ele>3.5</ele>
        <time>2012-07-30T12:29:53Z</time>
      </trkpt>
      <trkpt lat="45.83254" lon="13.2076">
        <ele>3.5</ele>
        <time>2012-07-30T12:29:54Z</time>
      </trkpt>
      <trkpt lat="45.83257" lon="13.20777">
        <ele>3.98</ele>
        <time>2012-07-30T12:30:01Z</time>
      </trkpt>
      <trkpt lat="45.83274" lon="13.20871">
        <ele>4.94</ele>
        <time>2012-07-30T12:30:09Z</time>
      </trkpt>
      <trkpt lat="45.83308" lon="13.21069">
        <ele>5.91</ele>
        <time>2012-07-30T12:30:21Z</time>
      </trkpt>
      <trkpt lat="45.83346" lon="13.21343">
        <ele>5.42</ele>
        <time>2012-07-30T12:30:36Z</time>
      </trkpt>
      <trkpt lat="45.83337" lon="13.21589">
        <ele>5.42</ele>
        <time>2012-07-30T12:30:49Z</time>
      </trkpt>
      <trkpt lat="45.83334" lon="13.21607">
        <ele>5.42</ele>
        <time>2012-07-30T12:30:50Z</time>
      </trkpt>
      <trkpt lat="45.83331" lon="13.21625">
        <ele>5.42</ele>
        <time>2012-07-30T12:30:51Z</time>
      </trkpt>
      <trkpt lat="45.83328" lon="13.21642">
        <ele>5.42</ele>
        <time>2012-07-30T12:30:52Z</time>
      </trkpt>
      <trkpt lat="45.83324" lon="13.2166">
        <ele>4.94</ele>
        <time>2012-07-30T12:30:53Z</time>
      </trkpt>
      <trkpt lat="45.8332" lon="13.21678">
        <ele>5.42</ele>
        <time>2012-07-30T12:30:54Z</time>
      </trkpt>
      <trkpt lat="45.83316" lon="13.21696">
        <ele>5.91</ele>
        <time>2012-07-30T12:30:55Z</time>
      </trkpt>
      <trkpt lat="45.83276" lon="13.21812">
        <ele>6.87</ele>
        <time>2012-07-30T12:31:02Z</time>
      </trkpt>
      <trkpt lat="45.83241" lon="13.21892">
        <ele>6.39</ele>
        <time>2012-07-30T12:31:07Z</time>
      </trkpt>
      <trkpt lat="45.83154" lon="13.22063">
        <ele>6.87</ele>
        <time>2012-07-30T12:31:18Z</time>
      </trkpt>
      <trkpt lat="45.83041" lon="13.22302">
        <ele>7.35</ele>
        <time>2012-07-30T12:31:33Z</time>
      </trkpt>
      <trkpt lat="45.82998" lon="13.22388">
        <ele>3.98</ele>
        <time>2012-07-30T12:31:40Z</time>
      </trkpt>
      <trkpt lat="45.82994" lon="13.22397">
        <ele>3.98</ele>
        <time>2012-07-30T12:31:41Z</time>
      </trkpt>
      <trkpt lat="45.82981" lon="13.22428">
        <ele>3.02</ele>
        <time>2012-07-30T12:31:49Z</time>
      </trkpt>
      <trkpt lat="45.82979" lon="13.22428">
        <ele>3.02</ele>
        <time>2012-07-30T12:32:12Z</time>
      </trkpt>
      <trkpt lat="45.8298" lon="13.22428">
        <ele>3.5</ele>
        <time>2012-07-30T12:32:46Z</time>
      </trkpt>
      <trkpt lat="45.8298" lon="13.22428">
        <ele>3.02</ele>
        <time>2012-07-30T12:33:16Z</time>
      </trkpt>
      <trkpt lat="45.8298" lon="13.2243">
        <ele>3.5</ele>
        <time>2012-07-30T12:33:41Z</time>
      </trkpt>
      <trkpt lat="45.82978" lon="13.22433">
        <ele>3.5</ele>
        <time>2012-07-30T12:33:42Z</time>
      </trkpt>
      <trkpt lat="45.82976" lon="13.22437">
        <ele>3.98</ele>
        <time>2012-07-30T12:33:43Z</time>
      </trkpt>
      <trkpt lat="45.82941" lon="13.22516">
        <ele>3.98</ele>
        <time>2012-07-30T12:33:54Z</time>
      </trkpt>
      <trkpt lat="45.82898" lon="13.22606">
        <ele>3.5</ele>
        <time>2012-07-30T12:34:07Z</time>
      </trkpt>
      <trkpt lat="45.82877" lon="13.22672">
        <ele>3.5</ele>
        <time>2012-07-30T12:34:20Z</time>
      </trkpt>
      <trkpt lat="45.82846" lon="13.22779">
        <ele>4.46</ele>
        <time>2012-07-30T12:34:30Z</time>
      </trkpt>
      <trkpt lat="45.82796" lon="13.22953">
        <ele>4.94</ele>
        <time>2012-07-30T12:34:44Z</time>
      </trkpt>
      <trkpt lat="45.82769" lon="13.23149">
        <ele>6.39</ele>
        <time>2012-07-30T12:34:55Z</time>
      </trkpt>
      <trkpt lat="45.82731" lon="13.23453">
        <ele>8.31</ele>
        <time>2012-07-30T12:35:09Z</time>
      </trkpt>
      <trkpt lat="45.82728" lon="13.23501">
        <ele>8.79</ele>
        <time>2012-07-30T12:35:11Z</time>
      </trkpt>
      <trkpt lat="45.8274" lon="13.23748">
        <ele>9.27</ele>
        <time>2012-07-30T12:35:21Z</time>
      </trkpt>
      <trkpt lat="45.82762" lon="13.24173">
        <ele>9.27</ele>
        <time>2012-07-30T12:35:37Z</time>
      </trkpt>
      <trkpt lat="45.82772" lon="13.24366">
        <ele>10.23</ele>
        <time>2012-07-30T12:35:44Z</time>
      </trkpt>
      <trkpt lat="45.82797" lon="13.24848">
        <ele>10.23</ele>
        <time>2012-07-30T12:36:01Z</time>
      </trkpt>
      <trkpt lat="45.82821" lon="13.25224">
        <ele>12.63</ele>
        <time>2012-07-30T12:36:14Z</time>
      </trkpt>
      <trkpt lat="45.82849" lon="13.25657">
        <ele>9.75</ele>
        <time>2012-07-30T12:36:29Z</time>
      </trkpt>
      <trkpt lat="45.8288" lon="13.26132">
        <ele>7.83</ele>
        <time>2012-07-30T12:36:45Z</time>
      </trkpt>
      <trkpt lat="45.82889" lon="13.26268">
        <ele>7.35</ele>
        <time>2012-07-30T12:36:50Z</time>
      </trkpt>
      <trkpt lat="45.8291" lon="13.266">
        <ele>4.94</ele>
        <time>2012-07-30T12:37:03Z</time>
      </trkpt>
      <trkpt lat="45.82912" lon="13.26619">
        <ele>4.46</ele>
        <time>2012-07-30T12:37:04Z</time>
      </trkpt>
      <trkpt lat="45.82914" lon="13.26697">
        <ele>3.02</ele>
        <time>2012-07-30T12:37:09Z</time>
      </trkpt>
      <trkpt lat="45.82911" lon="13.26707">
        <ele>3.02</ele>
        <time>2012-07-30T12:37:10Z</time>
      </trkpt>
      <trkpt lat="45.82906" lon="13.26714">
        <ele>2.54</ele>
        <time>2012-07-30T12:37:11Z</time>
      </trkpt>
      <trkpt lat="45.829" lon="13.26719">
        <ele>2.54</ele>
        <time>2012-07-30T12:37:12Z</time>
      </trkpt>
      <trkpt lat="45.82892" lon="13.26724">
        <ele>3.02</ele>
        <time>2012-07-30T12:37:13Z</time>
      </trkpt>
      <trkpt lat="45.82884" lon="13.26728">
        <ele>3.02</ele>
        <time>2012-07-30T12:37:14Z</time>
      </trkpt>
      <trkpt lat="45.82776" lon="13.26785">
        <ele>4.46</ele>
        <time>2012-07-30T12:37:24Z</time>
      </trkpt>
      <trkpt lat="45.82698" lon="13.2683">
        <ele>7.83</ele>
        <time>2012-07-30T12:37:30Z</time>
      </trkpt>
      <trkpt lat="45.82685" lon="13.26841">
        <ele>9.27</ele>
        <time>2012-07-30T12:37:31Z</time>
      </trkpt>
      <trkpt lat="45.82673" lon="13.26854">
        <ele>10.23</ele>
        <time>2012-07-30T12:37:32Z</time>
      </trkpt>
      <trkpt lat="45.82661" lon="13.26868">
        <ele>12.15</ele>
        <time>2012-07-30T12:37:33Z</time>
      </trkpt>
      <trkpt lat="45.82627" lon="13.26911">
        <ele>13.6</ele>
        <time>2012-07-30T12:37:36Z</time>
      </trkpt>
      <trkpt lat="45.82616" lon="13.26923">
        <ele>13.6</ele>
        <time>2012-07-30T12:37:37Z</time>
      </trkpt>
      <trkpt lat="45.82605" lon="13.26933">
        <ele>13.12</ele>
        <time>2012-07-30T12:37:38Z</time>
      </trkpt>
      <trkpt lat="45.82593" lon="13.26941">
        <ele>11.19</ele>
        <time>2012-07-30T12:37:39Z</time>
      </trkpt>
      <trkpt lat="45.8258" lon="13.26945">
        <ele>11.19</ele>
        <time>2012-07-30T12:37:40Z</time>
      </trkpt>
      <trkpt lat="45.82567" lon="13.26945">
        <ele>9.75</ele>
        <time>2012-07-30T12:37:41Z</time>
      </trkpt>
      <trkpt lat="45.82553" lon="13.26946">
        <ele>10.23</ele>
        <time>2012-07-30T12:37:42Z</time>
      </trkpt>
      <trkpt lat="45.82509" lon="13.26949">
        <ele>6.87</ele>
        <time>2012-07-30T12:37:45Z</time>
      </trkpt>
      <trkpt lat="45.82495" lon="13.2695">
        <ele>6.39</ele>
        <time>2012-07-30T12:37:46Z</time>
      </trkpt>
      <trkpt lat="45.82453" lon="13.2696">
        <ele>3.02</ele>
        <time>2012-07-30T12:37:50Z</time>
      </trkpt>
      <trkpt lat="45.82447" lon="13.26965">
        <ele>2.06</ele>
        <time>2012-07-30T12:37:51Z</time>
      </trkpt>
      <trkpt lat="45.82442" lon="13.26972">
        <ele>2.06</ele>
        <time>2012-07-30T12:37:52Z</time>
      </trkpt>
      <trkpt lat="45.82441" lon="13.2698">
        <ele>2.54</ele>
        <time>2012-07-30T12:37:53Z</time>
      </trkpt>
      <trkpt lat="45.82441" lon="13.26988">
        <ele>2.06</ele>
        <time>2012-07-30T12:37:54Z</time>
      </trkpt>
      <trkpt lat="45.82442" lon="13.26997">
        <ele>1.58</ele>
        <time>2012-07-30T12:37:55Z</time>
      </trkpt>
      <trkpt lat="45.82442" lon="13.27004">
        <ele>1.1</ele>
        <time>2012-07-30T12:37:56Z</time>
      </trkpt>
      <trkpt lat="45.82438" lon="13.27009">
        <ele>1.1</ele>
        <time>2012-07-30T12:37:57Z</time>
      </trkpt>
      <trkpt lat="45.8242" lon="13.27028">
        <ele>2.54</ele>
        <time>2012-07-30T12:38:00Z</time>
      </trkpt>
      <trkpt lat="45.82414" lon="13.27037">
        <ele>3.02</ele>
        <time>2012-07-30T12:38:01Z</time>
      </trkpt>
      <trkpt lat="45.82409" lon="13.27048">
        <ele>2.54</ele>
        <time>2012-07-30T12:38:02Z</time>
      </trkpt>
      <trkpt lat="45.82405" lon="13.2706">
        <ele>3.02</ele>
        <time>2012-07-30T12:38:03Z</time>
      </trkpt>
      <trkpt lat="45.82404" lon="13.27074">
        <ele>3.5</ele>
        <time>2012-07-30T12:38:04Z</time>
      </trkpt>
      <trkpt lat="45.82404" lon="13.2709">
        <ele>4.46</ele>
        <time>2012-07-30T12:38:05Z</time>
      </trkpt>
      <trkpt lat="45.82406" lon="13.27105">
        <ele>3.5</ele>
        <time>2012-07-30T12:38:06Z</time>
      </trkpt>
      <trkpt lat="45.82411" lon="13.2712">
        <ele>3.5</ele>
        <time>2012-07-30T12:38:07Z</time>
      </trkpt>
      <trkpt lat="45.82417" lon="13.27133">
        <ele>3.5</ele>
        <time>2012-07-30T12:38:08Z</time>
      </trkpt>
      <trkpt lat="45.82425" lon="13.27143">
        <ele>3.02</ele>
        <time>2012-07-30T12:38:09Z</time>
      </trkpt>
      <trkpt lat="45.82434" lon="13.27151">
        <ele>3.5</ele>
        <time>2012-07-30T12:38:10Z</time>
      </trkpt>
      <trkpt lat="45.82444" lon="13.27156">
        <ele>3.5</ele>
        <time>2012-07-30T12:38:11Z</time>
      </trkpt>
      <trkpt lat="45.82454" lon="13.2716">
        <ele>3.98</ele>
        <time>2012-07-30T12:38:12Z</time>
      </trkpt>
      <trkpt lat="45.82471" lon="13.27168">
        <ele>2.54</ele>
        <time>2012-07-30T12:38:14Z</time>
      </trkpt>
      <trkpt lat="45.82477" lon="13.27177">
        <ele>2.54</ele>
        <time>2012-07-30T12:38:15Z</time>
      </trkpt>
      <trkpt lat="45.82481" lon="13.27188">
        <ele>3.02</ele>
        <time>2012-07-30T12:38:16Z</time>
      </trkpt>
      <trkpt lat="45.82482" lon="13.27201">
        <ele>2.54</ele>
        <time>2012-07-30T12:38:17Z</time>
      </trkpt>
      <trkpt lat="45.82482" lon="13.27215">
        <ele>2.54</ele>
        <time>2012-07-30T12:38:18Z</time>
      </trkpt>
      <trkpt lat="45.82482" lon="13.2723">
        <ele>2.54</ele>
        <time>2012-07-30T12:38:19Z</time>
      </trkpt>
      <trkpt lat="45.82477" lon="13.27423">
        <ele>3.5</ele>
        <time>2012-07-30T12:38:31Z</time>
      </trkpt>
      <trkpt lat="45.82473" lon="13.27547">
        <ele>2.06</ele>
        <time>2012-07-30T12:38:40Z</time>
      </trkpt>
      <trkpt lat="45.82472" lon="13.27559">
        <ele>1.1</ele>
        <time>2012-07-30T12:38:42Z</time>
      </trkpt>
      <trkpt lat="45.8247" lon="13.27568">
        <ele>0.62</ele>
        <time>2012-07-30T12:38:50Z</time>
      </trkpt>
      <trkpt lat="45.82469" lon="13.27571">
        <ele>1.1</ele>
        <time>2012-07-30T12:38:58Z</time>
      </trkpt>
      <trkpt lat="45.82464" lon="13.27571">
        <ele>0.62</ele>
        <time>2012-07-30T12:38:59Z</time>
      </trkpt>
      <trkpt lat="45.82459" lon="13.2757">
        <ele>1.1</ele>
        <time>2012-07-30T12:39:00Z</time>
      </trkpt>
      <trkpt lat="45.82446" lon="13.27565">
        <ele>0.62</ele>
        <time>2012-07-30T12:39:02Z</time>
      </trkpt>
      <trkpt lat="45.82441" lon="13.27565">
        <ele>1.1</ele>
        <time>2012-07-30T12:39:03Z</time>
      </trkpt>
      <trkpt lat="45.82438" lon="13.27569">
        <ele>0.62</ele>
        <time>2012-07-30T12:39:04Z</time>
      </trkpt>
      <trkpt lat="45.82436" lon="13.27577">
        <ele>1.1</ele>
        <time>2012-07-30T12:39:05Z</time>
      </trkpt>
      <trkpt lat="45.82433" lon="13.27588">
        <ele>1.58</ele>
        <time>2012-07-30T12:39:06Z</time>
      </trkpt>
      <trkpt lat="45.82431" lon="13.27601">
        <ele>1.58</ele>
        <time>2012-07-30T12:39:07Z</time>
      </trkpt>
      <trkpt lat="45.82408" lon="13.27761">
        <ele>3.02</ele>
        <time>2012-07-30T12:39:17Z</time>
      </trkpt>
      <trkpt lat="45.82396" lon="13.27847">
        <ele>1.1</ele>
        <time>2012-07-30T12:39:23Z</time>
      </trkpt>
      <trkpt lat="45.82382" lon="13.27942">
        <ele>2.54</ele>
        <time>2012-07-30T12:39:31Z</time>
      </trkpt>
      <trkpt lat="45.82371" lon="13.28021">
        <ele>1.1</ele>
        <time>2012-07-30T12:39:39Z</time>
      </trkpt>
      <trkpt lat="45.82371" lon="13.28031">
        <ele>1.58</ele>
        <time>2012-07-30T12:39:44Z</time>
      </trkpt>
      <trkpt lat="45.82374" lon="13.28034">
        <ele>2.06</ele>
        <time>2012-07-30T12:39:45Z</time>
      </trkpt>
      <trkpt lat="45.82379" lon="13.28035">
        <ele>1.58</ele>
        <time>2012-07-30T12:39:46Z</time>
      </trkpt>
      <trkpt lat="45.82386" lon="13.28036">
        <ele>2.54</ele>
        <time>2012-07-30T12:39:47Z</time>
      </trkpt>
      <trkpt lat="45.82393" lon="13.28036">
        <ele>2.54</ele>
        <time>2012-07-30T12:39:48Z</time>
      </trkpt>
      <trkpt lat="45.82427" lon="13.28039">
        <ele>2.54</ele>
        <time>2012-07-30T12:39:52Z</time>
      </trkpt>
      <trkpt lat="45.82492" lon="13.2804">
        <ele>4.46</ele>
        <time>2012-07-30T12:39:58Z</time>
      </trkpt>
      <trkpt lat="45.82503" lon="13.28036">
        <ele>3.98</ele>
        <time>2012-07-30T12:39:59Z</time>
      </trkpt>
      <trkpt lat="45.82513" lon="13.28028">
        <ele>4.46</ele>
        <time>2012-07-30T12:40:00Z</time>
      </trkpt>
      <trkpt lat="45.82521" lon="13.28017">
        <ele>3.98</ele>
        <time>2012-07-30T12:40:01Z</time>
      </trkpt>
      <trkpt lat="45.82527" lon="13.28003">
        <ele>4.46</ele>
        <time>2012-07-30T12:40:02Z</time>
      </trkpt>
      <trkpt lat="45.82532" lon="13.27988">
        <ele>5.42</ele>
        <time>2012-07-30T12:40:03Z</time>
      </trkpt>
      <trkpt lat="45.82537" lon="13.27972">
        <ele>6.87</ele>
        <time>2012-07-30T12:40:04Z</time>
      </trkpt>
      <trkpt lat="45.82544" lon="13.27959">
        <ele>7.83</ele>
        <time>2012-07-30T12:40:05Z</time>
      </trkpt>
      <trkpt lat="45.82554" lon="13.27947">
        <ele>8.79</ele>
        <time>2012-07-30T12:40:06Z</time>
      </trkpt>
      <trkpt lat="45.82565" lon="13.27939">
        <ele>10.23</ele>
        <time>2012-07-30T12:40:07Z</time>
      </trkpt>
      <trkpt lat="45.82578" lon="13.27934">
        <ele>11.19</ele>
        <time>2012-07-30T12:40:08Z</time>
      </trkpt>
      <trkpt lat="45.82591" lon="13.27933">
        <ele>12.15</ele>
        <time>2012-07-30T12:40:09Z</time>
      </trkpt>
      <trkpt lat="45.82604" lon="13.27934">
        <ele>12.15</ele>
        <time>2012-07-30T12:40:10Z</time>
      </trkpt>
      <trkpt lat="45.82654" lon="13.27941">
        <ele>12.15</ele>
        <time>2012-07-30T12:40:14Z</time>
      </trkpt>
      <trkpt lat="45.82665" lon="13.27945">
        <ele>11.67</ele>
        <time>2012-07-30T12:40:15Z</time>
      </trkpt>
      <trkpt lat="45.82677" lon="13.27951">
        <ele>11.19</ele>
        <time>2012-07-30T12:40:16Z</time>
      </trkpt>
      <trkpt lat="45.82689" lon="13.27959">
        <ele>10.23</ele>
        <time>2012-07-30T12:40:17Z</time>
      </trkpt>
      <trkpt lat="45.827" lon="13.27969">
        <ele>9.27</ele>
        <time>2012-07-30T12:40:18Z</time>
      </trkpt>
      <trkpt lat="45.82711" lon="13.2798">
        <ele>9.75</ele>
        <time>2012-07-30T12:40:19Z</time>
      </trkpt>
      <trkpt lat="45.82722" lon="13.27992">
        <ele>8.31</ele>
        <time>2012-07-30T12:40:20Z</time>
      </trkpt>
      <trkpt lat="45.8278" lon="13.28047">
        <ele>7.83</ele>
        <time>2012-07-30T12:40:25Z</time>
      </trkpt>
      <trkpt lat="45.82792" lon="13.28054">
        <ele>6.39</ele>
        <time>2012-07-30T12:40:26Z</time>
      </trkpt>
      <trkpt lat="45.82805" lon="13.28059">
        <ele>5.42</ele>
        <time>2012-07-30T12:40:27Z</time>
      </trkpt>
      <trkpt lat="45.82819" lon="13.28062">
        <ele>5.42</ele>
        <time>2012-07-30T12:40:28Z</time>
      </trkpt>
      <trkpt lat="45.82833" lon="13.28064">
        <ele>5.42</ele>
        <time>2012-07-30T12:40:29Z</time>
      </trkpt>
      <trkpt lat="45.82935" lon="13.28071">
        <ele>3.02</ele>
        <time>2012-07-30T12:40:38Z</time>
      </trkpt>
      <trkpt lat="45.82943" lon="13.28077">
        <ele>3.5</ele>
        <time>2012-07-30T12:40:39Z</time>
      </trkpt>
      <trkpt lat="45.82948" lon="13.28085">
        <ele>2.54</ele>
        <time>2012-07-30T12:40:40Z</time>
      </trkpt>
      <trkpt lat="45.82952" lon="13.28094">
        <ele>3.02</ele>
        <time>2012-07-30T12:40:41Z</time>
      </trkpt>
      <trkpt lat="45.82955" lon="13.28106">
        <ele>3.02</ele>
        <time>2012-07-30T12:40:42Z</time>
      </trkpt>
      <trkpt lat="45.82956" lon="13.2812">
        <ele>3.5</ele>
        <time>2012-07-30T12:40:43Z</time>
      </trkpt>
      <trkpt lat="45.82956" lon="13.28137">
        <ele>4.46</ele>
        <time>2012-07-30T12:40:44Z</time>
      </trkpt>
      <trkpt lat="45.82955" lon="13.28155">
        <ele>4.94</ele>
        <time>2012-07-30T12:40:45Z</time>
      </trkpt>
      <trkpt lat="45.82952" lon="13.28282">
        <ele>8.31</ele>
        <time>2012-07-30T12:40:51Z</time>
      </trkpt>
      <trkpt lat="45.82951" lon="13.28306">
        <ele>8.79</ele>
        <time>2012-07-30T12:40:52Z</time>
      </trkpt>
      <trkpt lat="45.82943" lon="13.28504">
        <ele>8.79</ele>
        <time>2012-07-30T12:41:00Z</time>
      </trkpt>
      <trkpt lat="45.82909" lon="13.28824">
        <ele>10.23</ele>
        <time>2012-07-30T12:41:12Z</time>
      </trkpt>
      <trkpt lat="45.82859" lon="13.29095">
        <ele>9.75</ele>
        <time>2012-07-30T12:41:22Z</time>
      </trkpt>
      <trkpt lat="45.8276" lon="13.29601">
        <ele>8.79</ele>
        <time>2012-07-30T12:41:40Z</time>
      </trkpt>
      <trkpt lat="45.82646" lon="13.3018">
        <ele>8.79</ele>
        <time>2012-07-30T12:42:00Z</time>
      </trkpt>
      <trkpt lat="45.82566" lon="13.30598">
        <ele>6.87</ele>
        <time>2012-07-30T12:42:15Z</time>
      </trkpt>
      <trkpt lat="45.82553" lon="13.3076">
        <ele>8.79</ele>
        <time>2012-07-30T12:42:21Z</time>
      </trkpt>
      <trkpt lat="45.82547" lon="13.30956">
        <ele>7.35</ele>
        <time>2012-07-30T12:42:28Z</time>
      </trkpt>
      <trkpt lat="45.82549" lon="13.31182">
        <ele>10.23</ele>
        <time>2012-07-30T12:42:36Z</time>
      </trkpt>
      <trkpt lat="45.82551" lon="13.3121">
        <ele>10.71</ele>
        <time>2012-07-30T12:42:37Z</time>
      </trkpt>
      <trkpt lat="45.82562" lon="13.3132">
        <ele>14.08</ele>
        <time>2012-07-30T12:42:41Z</time>
      </trkpt>
      <trkpt lat="45.8258" lon="13.31429">
        <ele>16</ele>
        <time>2012-07-30T12:42:45Z</time>
      </trkpt>
      <trkpt lat="45.82592" lon="13.31538">
        <ele>17.92</ele>
        <time>2012-07-30T12:42:49Z</time>
      </trkpt>
      <trkpt lat="45.82591" lon="13.31564">
        <ele>17.44</ele>
        <time>2012-07-30T12:42:50Z</time>
      </trkpt>
      <trkpt lat="45.82588" lon="13.31591">
        <ele>17.92</ele>
        <time>2012-07-30T12:42:51Z</time>
      </trkpt>
      <trkpt lat="45.82583" lon="13.31617">
        <ele>17.92</ele>
        <time>2012-07-30T12:42:52Z</time>
      </trkpt>
      <trkpt lat="45.82577" lon="13.31643">
        <ele>18.4</ele>
        <time>2012-07-30T12:42:53Z</time>
      </trkpt>
      <trkpt lat="45.82572" lon="13.31667">
        <ele>18.4</ele>
        <time>2012-07-30T12:42:54Z</time>
      </trkpt>
      <trkpt lat="45.82568" lon="13.31692">
        <ele>17.44</ele>
        <time>2012-07-30T12:42:55Z</time>
      </trkpt>
      <trkpt lat="45.82567" lon="13.31718">
        <ele>17.92</ele>
        <time>2012-07-30T12:42:56Z</time>
      </trkpt>
      <trkpt lat="45.82569" lon="13.31744">
        <ele>17.92</ele>
        <time>2012-07-30T12:42:57Z</time>
      </trkpt>
      <trkpt lat="45.82572" lon="13.31771">
        <ele>17.92</ele>
        <time>2012-07-30T12:42:58Z</time>
      </trkpt>
      <trkpt lat="45.82576" lon="13.31798">
        <ele>17.92</ele>
        <time>2012-07-30T12:42:59Z</time>
      </trkpt>
      <trkpt lat="45.82616" lon="13.32032">
        <ele>14.08</ele>
        <time>2012-07-30T12:43:08Z</time>
      </trkpt>
      <trkpt lat="45.82615" lon="13.32059">
        <ele>15.04</ele>
        <time>2012-07-30T12:43:09Z</time>
      </trkpt>
      <trkpt lat="45.82612" lon="13.32086">
        <ele>15.52</ele>
        <time>2012-07-30T12:43:10Z</time>
      </trkpt>
      <trkpt lat="45.82607" lon="13.32112">
        <ele>15.04</ele>
        <time>2012-07-30T12:43:11Z</time>
      </trkpt>
      <trkpt lat="45.82601" lon="13.32137">
        <ele>15.52</ele>
        <time>2012-07-30T12:43:12Z</time>
      </trkpt>
      <trkpt lat="45.82585" lon="13.32284">
        <ele>13.12</ele>
        <time>2012-07-30T12:43:18Z</time>
      </trkpt>
      <trkpt lat="45.82587" lon="13.3231">
        <ele>14.08</ele>
        <time>2012-07-30T12:43:19Z</time>
      </trkpt>
      <trkpt lat="45.82591" lon="13.32334">
        <ele>13.6</ele>
        <time>2012-07-30T12:43:20Z</time>
      </trkpt>
      <trkpt lat="45.82598" lon="13.32379">
        <ele>10.23</ele>
        <time>2012-07-30T12:43:22Z</time>
      </trkpt>
      <trkpt lat="45.8261" lon="13.32434">
        <ele>6.39</ele>
        <time>2012-07-30T12:43:25Z</time>
      </trkpt>
      <trkpt lat="45.82613" lon="13.32448">
        <ele>6.39</ele>
        <time>2012-07-30T12:43:26Z</time>
      </trkpt>
      <trkpt lat="45.82616" lon="13.32474">
        <ele>4.94</ele>
        <time>2012-07-30T12:43:28Z</time>
      </trkpt>
      <trkpt lat="45.82615" lon="13.32486">
        <ele>4.46</ele>
        <time>2012-07-30T12:43:29Z</time>
      </trkpt>
      <trkpt lat="45.82614" lon="13.32497">
        <ele>4.46</ele>
        <time>2012-07-30T12:43:30Z</time>
      </trkpt>
      <trkpt lat="45.82612" lon="13.32507">
        <ele>3.98</ele>
        <time>2012-07-30T12:43:31Z</time>
      </trkpt>
      <trkpt lat="45.82613" lon="13.32517">
        <ele>3.98</ele>
        <time>2012-07-30T12:43:32Z</time>
      </trkpt>
      <trkpt lat="45.82615" lon="13.32527">
        <ele>3.5</ele>
        <time>2012-07-30T12:43:33Z</time>
      </trkpt>
      <trkpt lat="45.8262" lon="13.32534">
        <ele>3.02</ele>
        <time>2012-07-30T12:43:34Z</time>
      </trkpt>
      <trkpt lat="45.82625" lon="13.3254">
        <ele>3.5</ele>
        <time>2012-07-30T12:43:35Z</time>
      </trkpt>
      <trkpt lat="45.82631" lon="13.32549">
        <ele>3.98</ele>
        <time>2012-07-30T12:43:36Z</time>
      </trkpt>
      <trkpt lat="45.82636" lon="13.3256">
        <ele>3.98</ele>
        <time>2012-07-30T12:43:37Z</time>
      </trkpt>
      <trkpt lat="45.82641" lon="13.32573">
        <ele>4.46</ele>
        <time>2012-07-30T12:43:38Z</time>
      </trkpt>
      <trkpt lat="45.82644" lon="13.3259">
        <ele>4.94</ele>
        <time>2012-07-30T12:43:39Z</time>
      </trkpt>
      <trkpt lat="45.82648" lon="13.32607">
        <ele>5.42</ele>
        <time>2012-07-30T12:43:40Z</time>
      </trkpt>
      <trkpt lat="45.82656" lon="13.32654">
        <ele>3.98</ele>
        <time>2012-07-30T12:43:43Z</time>
      </trkpt>
      <trkpt lat="45.82657" lon="13.32671">
        <ele>4.46</ele>
        <time>2012-07-30T12:43:44Z</time>
      </trkpt>
      <trkpt lat="45.82657" lon="13.32704">
        <ele>3.98</ele>
        <time>2012-07-30T12:43:46Z</time>
      </trkpt>
      <trkpt lat="45.8266" lon="13.32719">
        <ele>4.46</ele>
        <time>2012-07-30T12:43:47Z</time>
      </trkpt>
      <trkpt lat="45.82665" lon="13.32734">
        <ele>4.46</ele>
        <time>2012-07-30T12:43:48Z</time>
      </trkpt>
      <trkpt lat="45.82672" lon="13.32747">
        <ele>4.94</ele>
        <time>2012-07-30T12:43:49Z</time>
      </trkpt>
      <trkpt lat="45.82682" lon="13.32757">
        <ele>4.94</ele>
        <time>2012-07-30T12:43:50Z</time>
      </trkpt>
      <trkpt lat="45.82694" lon="13.32764">
        <ele>5.42</ele>
        <time>2012-07-30T12:43:51Z</time>
      </trkpt>
      <trkpt lat="45.82708" lon="13.32768">
        <ele>6.39</ele>
        <time>2012-07-30T12:43:52Z</time>
      </trkpt>
      <trkpt lat="45.82722" lon="13.32771">
        <ele>5.42</ele>
        <time>2012-07-30T12:43:53Z</time>
      </trkpt>
      <trkpt lat="45.82814" lon="13.32785">
        <ele>3.98</ele>
        <time>2012-07-30T12:44:00Z</time>
      </trkpt>
      <trkpt lat="45.82824" lon="13.32793">
        <ele>4.46</ele>
        <time>2012-07-30T12:44:01Z</time>
      </trkpt>
      <trkpt lat="45.82834" lon="13.32804">
        <ele>4.94</ele>
        <time>2012-07-30T12:44:02Z</time>
      </trkpt>
      <trkpt lat="45.82842" lon="13.32818">
        <ele>4.46</ele>
        <time>2012-07-30T12:44:03Z</time>
      </trkpt>
      <trkpt lat="45.82849" lon="13.32834">
        <ele>5.42</ele>
        <time>2012-07-30T12:44:04Z</time>
      </trkpt>
      <trkpt lat="45.82854" lon="13.32853">
        <ele>6.39</ele>
        <time>2012-07-30T12:44:05Z</time>
      </trkpt>
      <trkpt lat="45.82859" lon="13.32872">
        <ele>5.91</ele>
        <time>2012-07-30T12:44:06Z</time>
      </trkpt>
      <trkpt lat="45.82934" lon="13.33153">
        <ele>3.98</ele>
        <time>2012-07-30T12:44:21Z</time>
      </trkpt>
      <trkpt lat="45.8295" lon="13.33222">
        <ele>1.58</ele>
        <time>2012-07-30T12:44:28Z</time>
      </trkpt>
      <trkpt lat="45.82972" lon="13.33308">
        <ele>3.02</ele>
        <time>2012-07-30T12:44:38Z</time>
      </trkpt>
      <trkpt lat="45.83003" lon="13.33451">
        <ele>3.5</ele>
        <time>2012-07-30T12:44:48Z</time>
      </trkpt>
      <trkpt lat="45.82993" lon="13.33587">
        <ele>5.91</ele>
        <time>2012-07-30T12:44:55Z</time>
      </trkpt>
      <trkpt lat="45.82966" lon="13.33769">
        <ele>3.98</ele>
        <time>2012-07-30T12:45:04Z</time>
      </trkpt>
      <trkpt lat="45.82961" lon="13.33784">
        <ele>3.98</ele>
        <time>2012-07-30T12:45:05Z</time>
      </trkpt>
      <trkpt lat="45.82953" lon="13.33797">
        <ele>4.46</ele>
        <time>2012-07-30T12:45:06Z</time>
      </trkpt>
      <trkpt lat="45.82944" lon="13.33808">
        <ele>3.5</ele>
        <time>2012-07-30T12:45:07Z</time>
      </trkpt>
      <trkpt lat="45.82934" lon="13.33817">
        <ele>5.91</ele>
        <time>2012-07-30T12:45:08Z</time>
      </trkpt>
      <trkpt lat="45.82788" lon="13.33954">
        <ele>5.42</ele>
        <time>2012-07-30T12:45:21Z</time>
      </trkpt>
      <trkpt lat="45.82695" lon="13.34045">
        <ele>3.98</ele>
        <time>2012-07-30T12:45:30Z</time>
      </trkpt>
      <trkpt lat="45.82689" lon="13.34052">
        <ele>3.5</ele>
        <time>2012-07-30T12:45:31Z</time>
      </trkpt>
      <trkpt lat="45.82684" lon="13.34059">
        <ele>2.54</ele>
        <time>2012-07-30T12:45:32Z</time>
      </trkpt>
      <trkpt lat="45.8268" lon="13.34063">
        <ele>2.06</ele>
        <time>2012-07-30T12:45:33Z</time>
      </trkpt>
      <trkpt lat="45.82678" lon="13.34067">
        <ele>2.06</ele>
        <time>2012-07-30T12:45:40Z</time>
      </trkpt>
      <trkpt lat="45.82657" lon="13.34087">
        <ele>3.02</ele>
        <time>2012-07-30T12:45:45Z</time>
      </trkpt>
      <trkpt lat="45.82653" lon="13.34094">
        <ele>2.54</ele>
        <time>2012-07-30T12:45:46Z</time>
      </trkpt>
      <trkpt lat="45.82652" lon="13.34101">
        <ele>3.02</ele>
        <time>2012-07-30T12:45:47Z</time>
      </trkpt>
      <trkpt lat="45.82653" lon="13.3411">
        <ele>2.54</ele>
        <time>2012-07-30T12:45:48Z</time>
      </trkpt>
      <trkpt lat="45.82657" lon="13.34118">
        <ele>3.02</ele>
        <time>2012-07-30T12:45:49Z</time>
      </trkpt>
      <trkpt lat="45.82662" lon="13.34127">
        <ele>3.02</ele>
        <time>2012-07-30T12:45:50Z</time>
      </trkpt>
      <trkpt lat="45.82718" lon="13.34235">
        <ele>4.94</ele>
        <time>2012-07-30T12:45:59Z</time>
      </trkpt>
      <trkpt lat="45.82818" lon="13.34434">
        <ele>6.87</ele>
        <time>2012-07-30T12:46:12Z</time>
      </trkpt>
      <trkpt lat="45.82927" lon="13.34652">
        <ele>9.75</ele>
        <time>2012-07-30T12:46:24Z</time>
      </trkpt>
      <trkpt lat="45.83066" lon="13.34929">
        <ele>12.15</ele>
        <time>2012-07-30T12:46:37Z</time>
      </trkpt>
      <trkpt lat="45.83261" lon="13.35319">
        <ele>9.75</ele>
        <time>2012-07-30T12:46:55Z</time>
      </trkpt>
      <trkpt lat="45.83275" lon="13.35348">
        <ele>7.83</ele>
        <time>2012-07-30T12:46:57Z</time>
      </trkpt>
      <trkpt lat="45.83303" lon="13.35427">
        <ele>6.39</ele>
        <time>2012-07-30T12:47:04Z</time>
      </trkpt>
      <trkpt lat="45.83326" lon="13.35542">
        <ele>9.75</ele>
        <time>2012-07-30T12:47:10Z</time>
      </trkpt>
      <trkpt lat="45.83354" lon="13.35764">
        <ele>13.12</ele>
        <time>2012-07-30T12:47:19Z</time>
      </trkpt>
      <trkpt lat="45.83358" lon="13.3579">
        <ele>13.6</ele>
        <time>2012-07-30T12:47:20Z</time>
      </trkpt>
      <trkpt lat="45.83382" lon="13.35978">
        <ele>12.15</ele>
        <time>2012-07-30T12:47:27Z</time>
      </trkpt>
      <trkpt lat="45.83386" lon="13.36005">
        <ele>16.48</ele>
        <time>2012-07-30T12:47:28Z</time>
      </trkpt>
      <trkpt lat="45.83389" lon="13.36033">
        <ele>9.27</ele>
        <time>2012-07-30T12:47:29Z</time>
      </trkpt>
      <trkpt lat="45.83393" lon="13.36061">
        <ele>12.63</ele>
        <time>2012-07-30T12:47:30Z</time>
      </trkpt>
      <trkpt lat="45.83474" lon="13.36679">
        <ele>11.67</ele>
        <time>2012-07-30T12:47:52Z</time>
      </trkpt>
      <trkpt lat="45.83485" lon="13.36764">
        <ele>14.56</ele>
        <time>2012-07-30T12:47:55Z</time>
      </trkpt>
      <trkpt lat="45.83544" lon="13.36977">
        <ele>15.04</ele>
        <time>2012-07-30T12:48:03Z</time>
      </trkpt>
      <trkpt lat="45.83753" lon="13.37494">
        <ele>16.48</ele>
        <time>2012-07-30T12:48:24Z</time>
      </trkpt>
      <trkpt lat="45.83804" lon="13.37708">
        <ele>15.04</ele>
        <time>2012-07-30T12:48:32Z</time>
      </trkpt>
      <trkpt lat="45.83844" lon="13.38088">
        <ele>17.44</ele>
        <time>2012-07-30T12:48:45Z</time>
      </trkpt>
      <trkpt lat="45.83851" lon="13.38146">
        <ele>16.48</ele>
        <time>2012-07-30T12:48:47Z</time>
      </trkpt>
      <trkpt lat="45.8386" lon="13.38233">
        <ele>12.15</ele>
        <time>2012-07-30T12:48:50Z</time>
      </trkpt>
      <trkpt lat="45.83863" lon="13.38262">
        <ele>16.48</ele>
        <time>2012-07-30T12:48:51Z</time>
      </trkpt>
      <trkpt lat="45.83869" lon="13.38321">
        <ele>17.92</ele>
        <time>2012-07-30T12:48:53Z</time>
      </trkpt>
      <trkpt lat="45.83888" lon="13.38494">
        <ele>17.44</ele>
        <time>2012-07-30T12:48:59Z</time>
      </trkpt>
      <trkpt lat="45.8395" lon="13.39015">
        <ele>17.44</ele>
        <time>2012-07-30T12:49:17Z</time>
      </trkpt>
      <trkpt lat="45.83965" lon="13.39071">
        <ele>18.88</ele>
        <time>2012-07-30T12:49:19Z</time>
      </trkpt>
      <trkpt lat="45.84016" lon="13.39222">
        <ele>14.08</ele>
        <time>2012-07-30T12:49:25Z</time>
      </trkpt>
      <trkpt lat="45.84127" lon="13.39546">
        <ele>14.56</ele>
        <time>2012-07-30T12:49:40Z</time>
      </trkpt>
      <trkpt lat="45.84221" lon="13.39823">
        <ele>15.04</ele>
        <time>2012-07-30T12:49:54Z</time>
      </trkpt>
      <trkpt lat="45.84315" lon="13.40096">
        <ele>18.4</ele>
        <time>2012-07-30T12:50:07Z</time>
      </trkpt>
      <trkpt lat="45.84364" lon="13.4024">
        <ele>20.32</ele>
        <time>2012-07-30T12:50:13Z</time>
      </trkpt>
      <trkpt lat="45.8449" lon="13.40608">
        <ele>21.77</ele>
        <time>2012-07-30T12:50:27Z</time>
      </trkpt>
      <trkpt lat="45.84683" lon="13.41177">
        <ele>23.21</ele>
        <time>2012-07-30T12:50:48Z</time>
      </trkpt>
      <trkpt lat="45.84787" lon="13.41471">
        <ele>23.21</ele>
        <time>2012-07-30T12:50:59Z</time>
      </trkpt>
      <trkpt lat="45.84883" lon="13.41624">
        <ele>24.17</ele>
        <time>2012-07-30T12:51:06Z</time>
      </trkpt>
      <trkpt lat="45.84974" lon="13.41729">
        <ele>21.29</ele>
        <time>2012-07-30T12:51:12Z</time>
      </trkpt>
      <trkpt lat="45.85013" lon="13.41781">
        <ele>23.21</ele>
        <time>2012-07-30T12:51:15Z</time>
      </trkpt>
      <trkpt lat="45.851" lon="13.41958">
        <ele>24.65</ele>
        <time>2012-07-30T12:51:23Z</time>
      </trkpt>
      <trkpt lat="45.85177" lon="13.42114">
        <ele>25.13</ele>
        <time>2012-07-30T12:51:31Z</time>
      </trkpt>
      <trkpt lat="45.85289" lon="13.42294">
        <ele>22.73</ele>
        <time>2012-07-30T12:51:40Z</time>
      </trkpt>
      <trkpt lat="45.85528" lon="13.427">
        <ele>22.25</ele>
        <time>2012-07-30T12:51:59Z</time>
      </trkpt>
      <trkpt lat="45.85627" lon="13.42796">
        <ele>25.13</ele>
        <time>2012-07-30T12:52:05Z</time>
      </trkpt>
      <trkpt lat="45.85645" lon="13.4281">
        <ele>25.13</ele>
        <time>2012-07-30T12:52:06Z</time>
      </trkpt>
      <trkpt lat="45.85745" lon="13.42896">
        <ele>28.98</ele>
        <time>2012-07-30T12:52:12Z</time>
      </trkpt>
      <trkpt lat="45.85762" lon="13.42909">
        <ele>28.98</ele>
        <time>2012-07-30T12:52:13Z</time>
      </trkpt>
      <trkpt lat="45.85881" lon="13.43028">
        <ele>28.02</ele>
        <time>2012-07-30T12:52:21Z</time>
      </trkpt>
      <trkpt lat="45.85922" lon="13.43086">
        <ele>26.09</ele>
        <time>2012-07-30T12:52:24Z</time>
      </trkpt>
      <trkpt lat="45.86025" lon="13.43245">
        <ele>21.77</ele>
        <time>2012-07-30T12:52:32Z</time>
      </trkpt>
      <trkpt lat="45.86038" lon="13.43265">
        <ele>21.77</ele>
        <time>2012-07-30T12:52:33Z</time>
      </trkpt>
      <trkpt lat="45.86231" lon="13.43564">
        <ele>25.13</ele>
        <time>2012-07-30T12:52:48Z</time>
      </trkpt>
      <trkpt lat="45.86283" lon="13.43643">
        <ele>22.73</ele>
        <time>2012-07-30T12:52:52Z</time>
      </trkpt>
      <trkpt lat="45.86464" lon="13.43919">
        <ele>19.36</ele>
        <time>2012-07-30T12:53:07Z</time>
      </trkpt>
      <trkpt lat="45.86472" lon="13.43932">
        <ele>18.88</ele>
        <time>2012-07-30T12:53:08Z</time>
      </trkpt>
      <trkpt lat="45.86487" lon="13.43956">
        <ele>17.92</ele>
        <time>2012-07-30T12:53:10Z</time>
      </trkpt>
      <trkpt lat="45.86491" lon="13.43968">
        <ele>16.96</ele>
        <time>2012-07-30T12:53:11Z</time>
      </trkpt>
      <trkpt lat="45.86494" lon="13.43979">
        <ele>16</ele>
        <time>2012-07-30T12:53:12Z</time>
      </trkpt>
      <trkpt lat="45.86495" lon="13.4399">
        <ele>16</ele>
        <time>2012-07-30T12:53:13Z</time>
      </trkpt>
      <trkpt lat="45.86495" lon="13.44002">
        <ele>16</ele>
        <time>2012-07-30T12:53:14Z</time>
      </trkpt>
      <trkpt lat="45.86497" lon="13.44014">
        <ele>16.48</ele>
        <time>2012-07-30T12:53:15Z</time>
      </trkpt>
      <trkpt lat="45.86499" lon="13.44025">
        <ele>16</ele>
        <time>2012-07-30T12:53:16Z</time>
      </trkpt>
      <trkpt lat="45.86503" lon="13.44033">
        <ele>16</ele>
        <time>2012-07-30T12:53:17Z</time>
      </trkpt>
      <trkpt lat="45.86509" lon="13.44039">
        <ele>16.48</ele>
        <time>2012-07-30T12:53:18Z</time>
      </trkpt>
      <trkpt lat="45.86517" lon="13.44043">
        <ele>16</ele>
        <time>2012-07-30T12:53:19Z</time>
      </trkpt>
      <trkpt lat="45.86525" lon="13.44045">
        <ele>16</ele>
        <time>2012-07-30T12:53:20Z</time>
      </trkpt>
      <trkpt lat="45.86548" lon="13.44057">
        <ele>16.48</ele>
        <time>2012-07-30T12:53:23Z</time>
      </trkpt>
      <trkpt lat="45.86556" lon="13.44064">
        <ele>16.96</ele>
        <time>2012-07-30T12:53:24Z</time>
      </trkpt>
      <trkpt lat="45.86564" lon="13.44072">
        <ele>16.96</ele>
        <time>2012-07-30T12:53:25Z</time>
      </trkpt>
      <trkpt lat="45.86572" lon="13.44082">
        <ele>17.92</ele>
        <time>2012-07-30T12:53:26Z</time>
      </trkpt>
      <trkpt lat="45.8658" lon="13.44093">
        <ele>17.92</ele>
        <time>2012-07-30T12:53:27Z</time>
      </trkpt>
      <trkpt lat="45.86606" lon="13.44131">
        <ele>19.36</ele>
        <time>2012-07-30T12:53:30Z</time>
      </trkpt>
      <trkpt lat="45.86751" lon="13.44357">
        <ele>19.36</ele>
        <time>2012-07-30T12:53:46Z</time>
      </trkpt>
      <trkpt lat="45.8685" lon="13.44553">
        <ele>19.36</ele>
        <time>2012-07-30T12:53:58Z</time>
      </trkpt>
      <trkpt lat="45.86889" lon="13.44726">
        <ele>17.92</ele>
        <time>2012-07-30T12:54:09Z</time>
      </trkpt>
      <trkpt lat="45.86889" lon="13.44738">
        <ele>17.92</ele>
        <time>2012-07-30T12:54:10Z</time>
      </trkpt>
      <trkpt lat="45.86887" lon="13.44751">
        <ele>16.96</ele>
        <time>2012-07-30T12:54:11Z</time>
      </trkpt>
      <trkpt lat="45.86884" lon="13.44762">
        <ele>16.96</ele>
        <time>2012-07-30T12:54:12Z</time>
      </trkpt>
      <trkpt lat="45.86881" lon="13.44772">
        <ele>17.44</ele>
        <time>2012-07-30T12:54:13Z</time>
      </trkpt>
      <trkpt lat="45.86881" lon="13.44783">
        <ele>16.48</ele>
        <time>2012-07-30T12:54:14Z</time>
      </trkpt>
      <trkpt lat="45.86883" lon="13.44792">
        <ele>16.96</ele>
        <time>2012-07-30T12:54:15Z</time>
      </trkpt>
      <trkpt lat="45.86889" lon="13.448">
        <ele>17.44</ele>
        <time>2012-07-30T12:54:16Z</time>
      </trkpt>
      <trkpt lat="45.86896" lon="13.44807">
        <ele>17.44</ele>
        <time>2012-07-30T12:54:17Z</time>
      </trkpt>
      <trkpt lat="45.86903" lon="13.44816">
        <ele>17.44</ele>
        <time>2012-07-30T12:54:18Z</time>
      </trkpt>
      <trkpt lat="45.8691" lon="13.44826">
        <ele>17.92</ele>
        <time>2012-07-30T12:54:19Z</time>
      </trkpt>
      <trkpt lat="45.86916" lon="13.44838">
        <ele>17.92</ele>
        <time>2012-07-30T12:54:20Z</time>
      </trkpt>
      <trkpt lat="45.86964" lon="13.44932">
        <ele>19.84</ele>
        <time>2012-07-30T12:54:27Z</time>
      </trkpt>
      <trkpt lat="45.87059" lon="13.4507">
        <ele>19.84</ele>
        <time>2012-07-30T12:54:37Z</time>
      </trkpt>
      <trkpt lat="45.87208" lon="13.45283">
        <ele>22.25</ele>
        <time>2012-07-30T12:54:52Z</time>
      </trkpt>
      <trkpt lat="45.87365" lon="13.45511">
        <ele>23.21</ele>
        <time>2012-07-30T12:55:07Z</time>
      </trkpt>
      <trkpt lat="45.87485" lon="13.45685">
        <ele>24.17</ele>
        <time>2012-07-30T12:55:18Z</time>
      </trkpt>
      <trkpt lat="45.87622" lon="13.45883">
        <ele>23.69</ele>
        <time>2012-07-30T12:55:30Z</time>
      </trkpt>
      <trkpt lat="45.87786" lon="13.46142">
        <ele>26.09</ele>
        <time>2012-07-30T12:55:44Z</time>
      </trkpt>
      <trkpt lat="45.87979" lon="13.46512">
        <ele>27.05</ele>
        <time>2012-07-30T12:56:02Z</time>
      </trkpt>
      <trkpt lat="45.88088" lon="13.4678">
        <ele>28.02</ele>
        <time>2012-07-30T12:56:14Z</time>
      </trkpt>
      <trkpt lat="45.88121" lon="13.47032">
        <ele>24.65</ele>
        <time>2012-07-30T12:56:24Z</time>
      </trkpt>
      <trkpt lat="45.88149" lon="13.47258">
        <ele>23.21</ele>
        <time>2012-07-30T12:56:35Z</time>
      </trkpt>
      <trkpt lat="45.88457" lon="13.49331">
        <ele>50.13</ele>
        <time>2012-07-30T12:58:42Z</time>
      </trkpt>
      <trkpt lat="45.88533" lon="13.49495">
        <ele>47.24</ele>
        <time>2012-07-30T12:58:51Z</time>
      </trkpt>
      <trkpt lat="45.88595" lon="13.49635">
        <ele>42.44</ele>
        <time>2012-07-30T12:58:59Z</time>
      </trkpt>
      <trkpt lat="45.88634" lon="13.49722">
        <ele>41.47</ele>
        <time>2012-07-30T12:59:04Z</time>
      </trkpt>
      <trkpt lat="45.8865" lon="13.49757">
        <ele>40.03</ele>
        <time>2012-07-30T12:59:06Z</time>
      </trkpt>
      <trkpt lat="45.88736" lon="13.49949">
        <ele>37.15</ele>
        <time>2012-07-30T12:59:17Z</time>
      </trkpt>
      <trkpt lat="45.88744" lon="13.49966">
        <ele>36.67</ele>
        <time>2012-07-30T12:59:18Z</time>
      </trkpt>
      <trkpt lat="45.8877" lon="13.50023">
        <ele>34.74</ele>
        <time>2012-07-30T12:59:22Z</time>
      </trkpt>
      <trkpt lat="45.88798" lon="13.5009">
        <ele>34.74</ele>
        <time>2012-07-30T12:59:28Z</time>
      </trkpt>
      <trkpt lat="45.88801" lon="13.50095">
        <ele>33.78</ele>
        <time>2012-07-30T12:59:29Z</time>
      </trkpt>
      <trkpt lat="45.88802" lon="13.501">
        <ele>33.78</ele>
        <time>2012-07-30T12:59:30Z</time>
      </trkpt>
      <trkpt lat="45.88803" lon="13.50104">
        <ele>33.3</ele>
        <time>2012-07-30T12:59:38Z</time>
      </trkpt>
      <trkpt lat="45.8881" lon="13.50116">
        <ele>34.74</ele>
        <time>2012-07-30T13:00:03Z</time>
      </trkpt>
      <trkpt lat="45.88864" lon="13.50148">
        <ele>36.19</ele>
        <time>2012-07-30T13:00:09Z</time>
      </trkpt>
      <trkpt lat="45.88898" lon="13.50157">
        <ele>35.71</ele>
        <time>2012-07-30T13:00:13Z</time>
      </trkpt>
      <trkpt lat="45.88913" lon="13.50154">
        <ele>36.19</ele>
        <time>2012-07-30T13:00:15Z</time>
      </trkpt>
      <trkpt lat="45.88976" lon="13.50123">
        <ele>37.63</ele>
        <time>2012-07-30T13:00:23Z</time>
      </trkpt>
      <trkpt lat="45.89094" lon="13.50072">
        <ele>39.07</ele>
        <time>2012-07-30T13:00:33Z</time>
      </trkpt>
      <trkpt lat="45.8921" lon="13.50028">
        <ele>39.55</ele>
        <time>2012-07-30T13:00:43Z</time>
      </trkpt>
      <trkpt lat="45.89219" lon="13.50028">
        <ele>39.07</ele>
        <time>2012-07-30T13:00:44Z</time>
      </trkpt>
      <trkpt lat="45.89228" lon="13.50029">
        <ele>39.55</ele>
        <time>2012-07-30T13:00:45Z</time>
      </trkpt>
      <trkpt lat="45.89237" lon="13.50032">
        <ele>40.03</ele>
        <time>2012-07-30T13:00:46Z</time>
      </trkpt>
      <trkpt lat="45.89335" lon="13.5008">
        <ele>41.95</ele>
        <time>2012-07-30T13:00:54Z</time>
      </trkpt>
      <trkpt lat="45.89477" lon="13.50176">
        <ele>40.51</ele>
        <time>2012-07-30T13:01:04Z</time>
      </trkpt>
      <trkpt lat="45.89488" lon="13.50193">
        <ele>40.99</ele>
        <time>2012-07-30T13:01:05Z</time>
      </trkpt>
      <trkpt lat="45.89498" lon="13.50211">
        <ele>41.47</ele>
        <time>2012-07-30T13:01:06Z</time>
      </trkpt>
      <trkpt lat="45.89506" lon="13.50231">
        <ele>41.47</ele>
        <time>2012-07-30T13:01:07Z</time>
      </trkpt>
      <trkpt lat="45.89514" lon="13.50252">
        <ele>41.47</ele>
        <time>2012-07-30T13:01:08Z</time>
      </trkpt>
      <trkpt lat="45.89554" lon="13.50351">
        <ele>40.03</ele>
        <time>2012-07-30T13:01:13Z</time>
      </trkpt>
      <trkpt lat="45.89565" lon="13.50368">
        <ele>40.51</ele>
        <time>2012-07-30T13:01:14Z</time>
      </trkpt>
      <trkpt lat="45.89577" lon="13.50384">
        <ele>40.51</ele>
        <time>2012-07-30T13:01:15Z</time>
      </trkpt>
      <trkpt lat="45.89693" lon="13.50517">
        <ele>40.51</ele>
        <time>2012-07-30T13:01:24Z</time>
      </trkpt>
      <trkpt lat="45.89704" lon="13.50536">
        <ele>39.55</ele>
        <time>2012-07-30T13:01:25Z</time>
      </trkpt>
      <trkpt lat="45.89776" lon="13.50727">
        <ele>40.99</ele>
        <time>2012-07-30T13:01:34Z</time>
      </trkpt>
      <trkpt lat="45.89816" lon="13.50908">
        <ele>41.95</ele>
        <time>2012-07-30T13:01:42Z</time>
      </trkpt>
      <trkpt lat="45.89824" lon="13.50929">
        <ele>41.95</ele>
        <time>2012-07-30T13:01:43Z</time>
      </trkpt>
      <trkpt lat="45.89833" lon="13.50948">
        <ele>41.95</ele>
        <time>2012-07-30T13:01:44Z</time>
      </trkpt>
      <trkpt lat="45.89843" lon="13.50967">
        <ele>41.47</ele>
        <time>2012-07-30T13:01:45Z</time>
      </trkpt>
      <trkpt lat="45.89854" lon="13.50985">
        <ele>42.44</ele>
        <time>2012-07-30T13:01:46Z</time>
      </trkpt>
      <trkpt lat="45.89997" lon="13.51231">
        <ele>43.4</ele>
        <time>2012-07-30T13:01:59Z</time>
      </trkpt>
      <trkpt lat="45.90072" lon="13.51416">
        <ele>41.95</ele>
        <time>2012-07-30T13:02:08Z</time>
      </trkpt>
      <trkpt lat="45.90087" lon="13.5145">
        <ele>41.47</ele>
        <time>2012-07-30T13:02:10Z</time>
      </trkpt>
      <trkpt lat="45.90096" lon="13.51465">
        <ele>41.95</ele>
        <time>2012-07-30T13:02:11Z</time>
      </trkpt>
      <trkpt lat="45.90136" lon="13.51523">
        <ele>40.03</ele>
        <time>2012-07-30T13:02:15Z</time>
      </trkpt>
      <trkpt lat="45.90158" lon="13.51549">
        <ele>40.99</ele>
        <time>2012-07-30T13:02:17Z</time>
      </trkpt>
      <trkpt lat="45.90239" lon="13.51676">
        <ele>38.59</ele>
        <time>2012-07-30T13:02:25Z</time>
      </trkpt>
      <trkpt lat="45.90309" lon="13.5184">
        <ele>37.15</ele>
        <time>2012-07-30T13:02:34Z</time>
      </trkpt>
      <trkpt lat="45.90313" lon="13.5186">
        <ele>37.15</ele>
        <time>2012-07-30T13:02:35Z</time>
      </trkpt>
      <trkpt lat="45.90317" lon="13.51882">
        <ele>37.15</ele>
        <time>2012-07-30T13:02:36Z</time>
      </trkpt>
      <trkpt lat="45.90351" lon="13.52181">
        <ele>38.11</ele>
        <time>2012-07-30T13:02:50Z</time>
      </trkpt>
      <trkpt lat="45.90367" lon="13.52312">
        <ele>38.11</ele>
        <time>2012-07-30T13:02:56Z</time>
      </trkpt>
      <trkpt lat="45.904" lon="13.52594">
        <ele>40.03</ele>
        <time>2012-07-30T13:03:08Z</time>
      </trkpt>
      <trkpt lat="45.90426" lon="13.52932">
        <ele>40.51</ele>
        <time>2012-07-30T13:03:22Z</time>
      </trkpt>
      <trkpt lat="45.90428" lon="13.53243">
        <ele>36.67</ele>
        <time>2012-07-30T13:03:35Z</time>
      </trkpt>
      <trkpt lat="45.90429" lon="13.53267">
        <ele>40.03</ele>
        <time>2012-07-30T13:03:36Z</time>
      </trkpt>
      <trkpt lat="45.90432" lon="13.53512">
        <ele>40.03</ele>
        <time>2012-07-30T13:03:47Z</time>
      </trkpt>
      <trkpt lat="45.90433" lon="13.53575">
        <ele>38.11</ele>
        <time>2012-07-30T13:03:50Z</time>
      </trkpt>
      <trkpt lat="45.90435" lon="13.53768">
        <ele>39.07</ele>
        <time>2012-07-30T13:04:00Z</time>
      </trkpt>
      <trkpt lat="45.90438" lon="13.54096">
        <ele>39.55</ele>
        <time>2012-07-30T13:04:15Z</time>
      </trkpt>
      <trkpt lat="45.90441" lon="13.54375">
        <ele>40.99</ele>
        <time>2012-07-30T13:04:28Z</time>
      </trkpt>
      <trkpt lat="45.90443" lon="13.54486">
        <ele>41.95</ele>
        <time>2012-07-30T13:04:33Z</time>
      </trkpt>
      <trkpt lat="45.90474" lon="13.547">
        <ele>43.88</ele>
        <time>2012-07-30T13:04:43Z</time>
      </trkpt>
      <trkpt lat="45.90547" lon="13.54882">
        <ele>44.36</ele>
        <time>2012-07-30T13:04:52Z</time>
      </trkpt>
      <trkpt lat="45.9064" lon="13.5504">
        <ele>44.36</ele>
        <time>2012-07-30T13:05:01Z</time>
      </trkpt>
      <trkpt lat="45.9065" lon="13.55058">
        <ele>44.36</ele>
        <time>2012-07-30T13:05:02Z</time>
      </trkpt>
      <trkpt lat="45.90661" lon="13.55076">
        <ele>44.84</ele>
        <time>2012-07-30T13:05:03Z</time>
      </trkpt>
      <trkpt lat="45.90672" lon="13.55093">
        <ele>44.36</ele>
        <time>2012-07-30T13:05:04Z</time>
      </trkpt>
      <trkpt lat="45.90682" lon="13.55111">
        <ele>43.4</ele>
        <time>2012-07-30T13:05:05Z</time>
      </trkpt>
      <trkpt lat="45.90804" lon="13.5527">
        <ele>44.36</ele>
        <time>2012-07-30T13:05:15Z</time>
      </trkpt>
      <trkpt lat="45.90958" lon="13.55436">
        <ele>45.32</ele>
        <time>2012-07-30T13:05:27Z</time>
      </trkpt>
      <trkpt lat="45.91142" lon="13.55633">
        <ele>44.36</ele>
        <time>2012-07-30T13:05:41Z</time>
      </trkpt>
      <trkpt lat="45.91273" lon="13.55774">
        <ele>44.36</ele>
        <time>2012-07-30T13:05:52Z</time>
      </trkpt>
      <trkpt lat="45.91385" lon="13.55895">
        <ele>47.24</ele>
        <time>2012-07-30T13:06:01Z</time>
      </trkpt>
      <trkpt lat="45.91525" lon="13.56044">
        <ele>50.61</ele>
        <time>2012-07-30T13:06:12Z</time>
      </trkpt>
      <trkpt lat="45.91704" lon="13.56237">
        <ele>51.09</ele>
        <time>2012-07-30T13:06:26Z</time>
      </trkpt>
      <trkpt lat="45.91913" lon="13.56461">
        <ele>51.57</ele>
        <time>2012-07-30T13:06:42Z</time>
      </trkpt>
      <trkpt lat="45.92081" lon="13.56642">
        <ele>51.09</ele>
        <time>2012-07-30T13:06:55Z</time>
      </trkpt>
      <trkpt lat="45.92165" lon="13.56742">
        <ele>51.09</ele>
        <time>2012-07-30T13:07:03Z</time>
      </trkpt>
      <trkpt lat="45.92169" lon="13.56755">
        <ele>50.61</ele>
        <time>2012-07-30T13:07:04Z</time>
      </trkpt>
      <trkpt lat="45.9217" lon="13.56769">
        <ele>50.61</ele>
        <time>2012-07-30T13:07:05Z</time>
      </trkpt>
      <trkpt lat="45.92167" lon="13.56785">
        <ele>51.09</ele>
        <time>2012-07-30T13:07:06Z</time>
      </trkpt>
      <trkpt lat="45.92161" lon="13.56801">
        <ele>53.01</ele>
        <time>2012-07-30T13:07:07Z</time>
      </trkpt>
      <trkpt lat="45.92154" lon="13.56818">
        <ele>53.49</ele>
        <time>2012-07-30T13:07:08Z</time>
      </trkpt>
      <trkpt lat="45.92065" lon="13.57027">
        <ele>53.49</ele>
        <time>2012-07-30T13:07:19Z</time>
      </trkpt>
      <trkpt lat="45.92063" lon="13.57048">
        <ele>53.49</ele>
        <time>2012-07-30T13:07:20Z</time>
      </trkpt>
      <trkpt lat="45.92064" lon="13.57069">
        <ele>52.53</ele>
        <time>2012-07-30T13:07:21Z</time>
      </trkpt>
      <trkpt lat="45.92068" lon="13.57089">
        <ele>52.05</ele>
        <time>2012-07-30T13:07:22Z</time>
      </trkpt>
      <trkpt lat="45.92075" lon="13.57109">
        <ele>52.05</ele>
        <time>2012-07-30T13:07:23Z</time>
      </trkpt>
      <trkpt lat="45.92086" lon="13.57127">
        <ele>52.53</ele>
        <time>2012-07-30T13:07:24Z</time>
      </trkpt>
      <trkpt lat="45.92098" lon="13.57143">
        <ele>53.01</ele>
        <time>2012-07-30T13:07:25Z</time>
      </trkpt>
      <trkpt lat="45.92111" lon="13.57158">
        <ele>52.53</ele>
        <time>2012-07-30T13:07:26Z</time>
      </trkpt>
      <trkpt lat="45.92264" lon="13.57341">
        <ele>55.41</ele>
        <time>2012-07-30T13:07:38Z</time>
      </trkpt>
      <trkpt lat="45.92271" lon="13.57361">
        <ele>54.45</ele>
        <time>2012-07-30T13:07:39Z</time>
      </trkpt>
      <trkpt lat="45.92275" lon="13.57382">
        <ele>54.45</ele>
        <time>2012-07-30T13:07:40Z</time>
      </trkpt>
      <trkpt lat="45.92276" lon="13.57403">
        <ele>54.45</ele>
        <time>2012-07-30T13:07:41Z</time>
      </trkpt>
      <trkpt lat="45.92275" lon="13.57424">
        <ele>54.45</ele>
        <time>2012-07-30T13:07:42Z</time>
      </trkpt>
      <trkpt lat="45.92274" lon="13.57447">
        <ele>55.89</ele>
        <time>2012-07-30T13:07:43Z</time>
      </trkpt>
      <trkpt lat="45.92271" lon="13.57494">
        <ele>58.3</ele>
        <time>2012-07-30T13:07:45Z</time>
      </trkpt>
      <trkpt lat="45.92229" lon="13.57856">
        <ele>56.86</ele>
        <time>2012-07-30T13:07:59Z</time>
      </trkpt>
      <trkpt lat="45.92153" lon="13.5817">
        <ele>55.89</ele>
        <time>2012-07-30T13:08:11Z</time>
      </trkpt>
      <trkpt lat="45.92128" lon="13.58244">
        <ele>54.45</ele>
        <time>2012-07-30T13:08:14Z</time>
      </trkpt>
      <trkpt lat="45.92093" lon="13.58341">
        <ele>56.37</ele>
        <time>2012-07-30T13:08:18Z</time>
      </trkpt>
      <trkpt lat="45.91952" lon="13.58712">
        <ele>59.26</ele>
        <time>2012-07-30T13:08:33Z</time>
      </trkpt>
      <trkpt lat="45.91826" lon="13.59047">
        <ele>60.22</ele>
        <time>2012-07-30T13:08:47Z</time>
      </trkpt>
      <trkpt lat="45.91807" lon="13.59097">
        <ele>61.66</ele>
        <time>2012-07-30T13:08:49Z</time>
      </trkpt>
      <trkpt lat="45.91666" lon="13.59473">
        <ele>64.07</ele>
        <time>2012-07-30T13:09:05Z</time>
      </trkpt>
      <trkpt lat="45.9155" lon="13.59788">
        <ele>66.47</ele>
        <time>2012-07-30T13:09:19Z</time>
      </trkpt>
      <trkpt lat="45.91453" lon="13.60127">
        <ele>65.99</ele>
        <time>2012-07-30T13:09:32Z</time>
      </trkpt>
      <trkpt lat="45.91402" lon="13.60344">
        <ele>69.35</ele>
        <time>2012-07-30T13:09:40Z</time>
      </trkpt>
      <trkpt lat="45.91396" lon="13.60372">
        <ele>69.83</ele>
        <time>2012-07-30T13:09:41Z</time>
      </trkpt>
      <trkpt lat="45.91364" lon="13.60567">
        <ele>72.24</ele>
        <time>2012-07-30T13:09:48Z</time>
      </trkpt>
      <trkpt lat="45.91309" lon="13.61021">
        <ele>70.79</ele>
        <time>2012-07-30T13:10:05Z</time>
      </trkpt>
      <trkpt lat="45.91294" lon="13.61122">
        <ele>67.91</ele>
        <time>2012-07-30T13:10:10Z</time>
      </trkpt>
      <trkpt lat="45.91291" lon="13.61138">
        <ele>66.95</ele>
        <time>2012-07-30T13:10:11Z</time>
      </trkpt>
      <trkpt lat="45.91285" lon="13.61153">
        <ele>67.43</ele>
        <time>2012-07-30T13:10:12Z</time>
      </trkpt>
      <trkpt lat="45.91272" lon="13.61179">
        <ele>66.95</ele>
        <time>2012-07-30T13:10:14Z</time>
      </trkpt>
      <trkpt lat="45.91491" lon="13.61301">
        <ele>80.41</ele>
        <time>2012-07-30T13:54:04Z</time>
      </trkpt>
      <trkpt lat="45.91693" lon="13.61354">
        <ele>76.08</ele>
        <time>2012-07-30T13:54:16Z</time>
      </trkpt>
      <trkpt lat="45.91707" lon="13.61358">
        <ele>76.56</ele>
        <time>2012-07-30T13:54:17Z</time>
      </trkpt>
      <trkpt lat="45.91762" lon="13.61382">
        <ele>76.08</ele>
        <time>2012-07-30T13:54:22Z</time>
      </trkpt>
      <trkpt lat="45.91772" lon="13.61389">
        <ele>75.6</ele>
        <time>2012-07-30T13:54:23Z</time>
      </trkpt>
      <trkpt lat="45.9178" lon="13.61398">
        <ele>76.56</ele>
        <time>2012-07-30T13:54:24Z</time>
      </trkpt>
      <trkpt lat="45.91789" lon="13.61407">
        <ele>76.56</ele>
        <time>2012-07-30T13:54:25Z</time>
      </trkpt>
      <trkpt lat="45.91797" lon="13.61417">
        <ele>77.04</ele>
        <time>2012-07-30T13:54:26Z</time>
      </trkpt>
      <trkpt lat="45.91821" lon="13.61447">
        <ele>78</ele>
        <time>2012-07-30T13:54:29Z</time>
      </trkpt>
      <trkpt lat="45.91831" lon="13.61455">
        <ele>78</ele>
        <time>2012-07-30T13:54:30Z</time>
      </trkpt>
      <trkpt lat="45.91841" lon="13.61462">
        <ele>78</ele>
        <time>2012-07-30T13:54:31Z</time>
      </trkpt>
      <trkpt lat="45.91851" lon="13.61468">
        <ele>78.48</ele>
        <time>2012-07-30T13:54:32Z</time>
      </trkpt>
      <trkpt lat="45.91861" lon="13.61471">
        <ele>78.97</ele>
        <time>2012-07-30T13:54:33Z</time>
      </trkpt>
      <trkpt lat="45.91872" lon="13.61472">
        <ele>79.45</ele>
        <time>2012-07-30T13:54:34Z</time>
      </trkpt>
      <trkpt lat="45.91883" lon="13.6147">
        <ele>79.45</ele>
        <time>2012-07-30T13:54:35Z</time>
      </trkpt>
      <trkpt lat="45.91894" lon="13.61467">
        <ele>79.45</ele>
        <time>2012-07-30T13:54:36Z</time>
      </trkpt>
      <trkpt lat="45.91905" lon="13.61461">
        <ele>79.45</ele>
        <time>2012-07-30T13:54:37Z</time>
      </trkpt>
      <trkpt lat="45.91914" lon="13.61452">
        <ele>79.93</ele>
        <time>2012-07-30T13:54:38Z</time>
      </trkpt>
      <trkpt lat="45.91923" lon="13.61442">
        <ele>80.41</ele>
        <time>2012-07-30T13:54:39Z</time>
      </trkpt>
      <trkpt lat="45.91931" lon="13.61431">
        <ele>79.93</ele>
        <time>2012-07-30T13:54:40Z</time>
      </trkpt>
      <trkpt lat="45.91939" lon="13.61418">
        <ele>81.37</ele>
        <time>2012-07-30T13:54:41Z</time>
      </trkpt>
      <trkpt lat="45.91945" lon="13.61405">
        <ele>81.37</ele>
        <time>2012-07-30T13:54:42Z</time>
      </trkpt>
      <trkpt lat="45.91952" lon="13.61392">
        <ele>81.37</ele>
        <time>2012-07-30T13:54:43Z</time>
      </trkpt>
      <trkpt lat="45.91958" lon="13.61381">
        <ele>82.33</ele>
        <time>2012-07-30T13:54:44Z</time>
      </trkpt>
      <trkpt lat="45.91965" lon="13.61372">
        <ele>81.85</ele>
        <time>2012-07-30T13:54:45Z</time>
      </trkpt>
      <trkpt lat="45.91974" lon="13.61365">
        <ele>81.85</ele>
        <time>2012-07-30T13:54:46Z</time>
      </trkpt>
      <trkpt lat="45.91983" lon="13.61361">
        <ele>81.85</ele>
        <time>2012-07-30T13:54:47Z</time>
      </trkpt>
      <trkpt lat="45.91994" lon="13.6136">
        <ele>82.33</ele>
        <time>2012-07-30T13:54:48Z</time>
      </trkpt>
      <trkpt lat="45.92005" lon="13.61359">
        <ele>82.81</ele>
        <time>2012-07-30T13:54:49Z</time>
      </trkpt>
      <trkpt lat="45.92116" lon="13.61352">
        <ele>83.77</ele>
        <time>2012-07-30T13:54:58Z</time>
      </trkpt>
      <trkpt lat="45.92223" lon="13.61345">
        <ele>80.89</ele>
        <time>2012-07-30T13:55:06Z</time>
      </trkpt>
      <trkpt lat="45.92249" lon="13.61343">
        <ele>79.93</ele>
        <time>2012-07-30T13:55:08Z</time>
      </trkpt>
      <trkpt lat="45.92355" lon="13.61336">
        <ele>76.56</ele>
        <time>2012-07-30T13:55:17Z</time>
      </trkpt>
      <trkpt lat="45.92364" lon="13.61338">
        <ele>76.08</ele>
        <time>2012-07-30T13:55:18Z</time>
      </trkpt>
      <trkpt lat="45.92371" lon="13.61343">
        <ele>76.08</ele>
        <time>2012-07-30T13:55:19Z</time>
      </trkpt>
      <trkpt lat="45.92376" lon="13.61351">
        <ele>77.04</ele>
        <time>2012-07-30T13:55:20Z</time>
      </trkpt>
      <trkpt lat="45.9238" lon="13.61362">
        <ele>77.04</ele>
        <time>2012-07-30T13:55:21Z</time>
      </trkpt>
      <trkpt lat="45.92382" lon="13.61376">
        <ele>77.52</ele>
        <time>2012-07-30T13:55:22Z</time>
      </trkpt>
      <trkpt lat="45.92382" lon="13.61391">
        <ele>77.52</ele>
        <time>2012-07-30T13:55:23Z</time>
      </trkpt>
      <trkpt lat="45.92382" lon="13.61408">
        <ele>78</ele>
        <time>2012-07-30T13:55:24Z</time>
      </trkpt>
      <trkpt lat="45.92383" lon="13.61537">
        <ele>78.48</ele>
        <time>2012-07-30T13:55:31Z</time>
      </trkpt>
      <trkpt lat="45.92387" lon="13.61556">
        <ele>78.97</ele>
        <time>2012-07-30T13:55:32Z</time>
      </trkpt>
      <trkpt lat="45.92393" lon="13.61574">
        <ele>79.45</ele>
        <time>2012-07-30T13:55:33Z</time>
      </trkpt>
      <trkpt lat="45.92401" lon="13.6159">
        <ele>79.45</ele>
        <time>2012-07-30T13:55:34Z</time>
      </trkpt>
      <trkpt lat="45.9241" lon="13.61606">
        <ele>78.97</ele>
        <time>2012-07-30T13:55:35Z</time>
      </trkpt>
      <trkpt lat="45.92419" lon="13.6162">
        <ele>79.93</ele>
        <time>2012-07-30T13:55:36Z</time>
      </trkpt>
      <trkpt lat="45.92429" lon="13.61633">
        <ele>79.93</ele>
        <time>2012-07-30T13:55:37Z</time>
      </trkpt>
      <trkpt lat="45.92572" lon="13.61825">
        <ele>78.97</ele>
        <time>2012-07-30T13:55:52Z</time>
      </trkpt>
      <trkpt lat="45.92669" lon="13.61955">
        <ele>79.45</ele>
        <time>2012-07-30T13:56:02Z</time>
      </trkpt>
      <trkpt lat="45.92709" lon="13.62008">
        <ele>80.41</ele>
        <time>2012-07-30T13:56:06Z</time>
      </trkpt>
      <trkpt lat="45.92886" lon="13.62243">
        <ele>82.33</ele>
        <time>2012-07-30T13:56:23Z</time>
      </trkpt>
      <trkpt lat="45.93026" lon="13.62429">
        <ele>82.81</ele>
        <time>2012-07-30T13:56:37Z</time>
      </trkpt>
      <trkpt lat="45.93196" lon="13.62654">
        <ele>85.21</ele>
        <time>2012-07-30T13:56:52Z</time>
      </trkpt>
      <trkpt lat="45.93409" lon="13.62937">
        <ele>85.69</ele>
        <time>2012-07-30T13:57:10Z</time>
      </trkpt>
      <trkpt lat="45.93441" lon="13.62981">
        <ele>83.77</ele>
        <time>2012-07-30T13:57:13Z</time>
      </trkpt>
      <trkpt lat="45.93551" lon="13.63079">
        <ele>82.81</ele>
        <time>2012-07-30T14:04:37Z</time>
      </trkpt>
      <trkpt lat="45.93561" lon="13.63079">
        <ele>82.81</ele>
        <time>2012-07-30T14:04:38Z</time>
      </trkpt>
      <trkpt lat="45.93633" lon="13.63087">
        <ele>84.25</ele>
        <time>2012-07-30T14:04:45Z</time>
      </trkpt>
      <trkpt lat="45.93643" lon="13.63091">
        <ele>84.25</ele>
        <time>2012-07-30T14:04:46Z</time>
      </trkpt>
      <trkpt lat="45.93731" lon="13.63154">
        <ele>82.81</ele>
        <time>2012-07-30T14:04:56Z</time>
      </trkpt>
      <trkpt lat="45.93737" lon="13.63161">
        <ele>82.81</ele>
        <time>2012-07-30T14:04:57Z</time>
      </trkpt>
      <trkpt lat="45.93743" lon="13.6317">
        <ele>83.29</ele>
        <time>2012-07-30T14:04:58Z</time>
      </trkpt>
      <trkpt lat="45.93748" lon="13.63179">
        <ele>82.81</ele>
        <time>2012-07-30T14:04:59Z</time>
      </trkpt>
      <trkpt lat="45.93753" lon="13.6319">
        <ele>83.29</ele>
        <time>2012-07-30T14:05:00Z</time>
      </trkpt>
      <trkpt lat="45.93758" lon="13.63201">
        <ele>83.29</ele>
        <time>2012-07-30T14:05:01Z</time>
      </trkpt>
      <trkpt lat="45.93819" lon="13.63313">
        <ele>85.21</ele>
        <time>2012-07-30T14:05:11Z</time>
      </trkpt>
      <trkpt lat="45.93887" lon="13.63385">
        <ele>84.25</ele>
        <time>2012-07-30T14:05:21Z</time>
      </trkpt>
      <trkpt lat="45.93905" lon="13.63403">
        <ele>85.21</ele>
        <time>2012-07-30T14:05:25Z</time>
      </trkpt>
      <trkpt lat="45.9391" lon="13.6341">
        <ele>85.21</ele>
        <time>2012-07-30T14:05:26Z</time>
      </trkpt>
      <trkpt lat="45.93914" lon="13.63418">
        <ele>85.21</ele>
        <time>2012-07-30T14:05:27Z</time>
      </trkpt>
      <trkpt lat="45.9395" lon="13.63482">
        <ele>85.69</ele>
        <time>2012-07-30T14:05:34Z</time>
      </trkpt>
      <trkpt lat="45.93957" lon="13.6349">
        <ele>85.69</ele>
        <time>2012-07-30T14:05:35Z</time>
      </trkpt>
      <trkpt lat="45.93965" lon="13.63498">
        <ele>86.18</ele>
        <time>2012-07-30T14:05:36Z</time>
      </trkpt>
      <trkpt lat="45.93973" lon="13.63504">
        <ele>86.66</ele>
        <time>2012-07-30T14:05:37Z</time>
      </trkpt>
      <trkpt lat="45.93982" lon="13.6351">
        <ele>86.66</ele>
        <time>2012-07-30T14:05:38Z</time>
      </trkpt>
      <trkpt lat="45.93992" lon="13.63515">
        <ele>86.66</ele>
        <time>2012-07-30T14:05:39Z</time>
      </trkpt>
      <trkpt lat="45.94002" lon="13.63519">
        <ele>86.66</ele>
        <time>2012-07-30T14:05:40Z</time>
      </trkpt>
      <trkpt lat="45.94012" lon="13.63523">
        <ele>86.66</ele>
        <time>2012-07-30T14:05:41Z</time>
      </trkpt>
      <trkpt lat="45.94023" lon="13.63525">
        <ele>86.18</ele>
        <time>2012-07-30T14:05:42Z</time>
      </trkpt>
      <trkpt lat="45.94034" lon="13.63527">
        <ele>86.66</ele>
        <time>2012-07-30T14:05:43Z</time>
      </trkpt>
      <trkpt lat="45.94044" lon="13.63527">
        <ele>86.66</ele>
        <time>2012-07-30T14:05:44Z</time>
      </trkpt>
      <trkpt lat="45.94055" lon="13.63525">
        <ele>86.66</ele>
        <time>2012-07-30T14:05:45Z</time>
      </trkpt>
      <trkpt lat="45.94066" lon="13.63523">
        <ele>87.14</ele>
        <time>2012-07-30T14:05:46Z</time>
      </trkpt>
      <trkpt lat="45.94077" lon="13.63519">
        <ele>87.14</ele>
        <time>2012-07-30T14:05:47Z</time>
      </trkpt>
      <trkpt lat="45.94087" lon="13.63514">
        <ele>86.66</ele>
        <time>2012-07-30T14:05:48Z</time>
      </trkpt>
      <trkpt lat="45.94149" lon="13.63484">
        <ele>86.18</ele>
        <time>2012-07-30T14:05:56Z</time>
      </trkpt>
      <trkpt lat="45.94163" lon="13.6348">
        <ele>85.69</ele>
        <time>2012-07-30T14:06:03Z</time>
      </trkpt>
      <trkpt lat="45.94162" lon="13.63481">
        <ele>85.69</ele>
        <time>2012-07-30T14:06:16Z</time>
      </trkpt>
      <trkpt lat="45.94164" lon="13.63483">
        <ele>85.69</ele>
        <time>2012-07-30T14:06:17Z</time>
      </trkpt>
      <trkpt lat="45.94166" lon="13.63485">
        <ele>85.69</ele>
        <time>2012-07-30T14:06:28Z</time>
      </trkpt>
      <trkpt lat="45.94171" lon="13.63495">
        <ele>86.18</ele>
        <time>2012-07-30T14:06:31Z</time>
      </trkpt>
      <trkpt lat="45.94173" lon="13.635">
        <ele>86.18</ele>
        <time>2012-07-30T14:06:32Z</time>
      </trkpt>
      <trkpt lat="45.94173" lon="13.63506">
        <ele>85.69</ele>
        <time>2012-07-30T14:06:33Z</time>
      </trkpt>
      <trkpt lat="45.94173" lon="13.63543">
        <ele>85.69</ele>
        <time>2012-07-30T14:06:39Z</time>
      </trkpt>
      <trkpt lat="45.94171" lon="13.63545">
        <ele>85.21</ele>
        <time>2012-07-30T14:06:40Z</time>
      </trkpt>
      <trkpt lat="45.94168" lon="13.63545">
        <ele>86.18</ele>
        <time>2012-07-30T14:06:41Z</time>
      </trkpt>
      <trkpt lat="45.94167" lon="13.63545">
        <ele>85.69</ele>
        <time>2012-07-30T14:06:42Z</time>
      </trkpt>
      <trkpt lat="45.94158" lon="13.63545">
        <ele>85.69</ele>
        <time>2012-07-30T14:06:56Z</time>
      </trkpt>
      <trkpt lat="45.94152" lon="13.63538">
        <ele>85.69</ele>
        <time>2012-07-30T14:07:01Z</time>
      </trkpt>
      <trkpt lat="45.9415" lon="13.63538">
        <ele>85.69</ele>
        <time>2012-07-30T14:07:02Z</time>
      </trkpt>
      <trkpt lat="45.94147" lon="13.63539">
        <ele>86.18</ele>
        <time>2012-07-30T14:07:03Z</time>
      </trkpt>
      <trkpt lat="45.94146" lon="13.63541">
        <ele>85.69</ele>
        <time>2012-07-30T14:07:04Z</time>
      </trkpt>
      <trkpt lat="45.94145" lon="13.63545">
        <ele>85.21</ele>
        <time>2012-07-30T14:07:05Z</time>
      </trkpt>
      <trkpt lat="45.94147" lon="13.63548">
        <ele>85.21</ele>
        <time>2012-07-30T14:07:06Z</time>
      </trkpt>
      <trkpt lat="45.94156" lon="13.63552">
        <ele>86.18</ele>
        <time>2012-07-30T14:07:09Z</time>
      </trkpt>
      <trkpt lat="45.9416" lon="13.63554">
        <ele>86.18</ele>
        <time>2012-07-30T14:07:10Z</time>
      </trkpt>
      <trkpt lat="45.94164" lon="13.63557">
        <ele>86.18</ele>
        <time>2012-07-30T14:07:11Z</time>
      </trkpt>
      <trkpt lat="45.94167" lon="13.6356">
        <ele>86.18</ele>
        <time>2012-07-30T14:07:12Z</time>
      </trkpt>
      <trkpt lat="45.94171" lon="13.63564">
        <ele>85.69</ele>
        <time>2012-07-30T14:07:13Z</time>
      </trkpt>
      <trkpt lat="45.94174" lon="13.63569">
        <ele>85.69</ele>
        <time>2012-07-30T14:07:14Z</time>
      </trkpt>
      <trkpt lat="45.9418" lon="13.63586">
        <ele>86.18</ele>
        <time>2012-07-30T14:07:16Z</time>
      </trkpt>
      <trkpt lat="45.94182" lon="13.63596">
        <ele>86.18</ele>
        <time>2012-07-30T14:07:17Z</time>
      </trkpt>
      <trkpt lat="45.94183" lon="13.63606">
        <ele>85.69</ele>
        <time>2012-07-30T14:07:18Z</time>
      </trkpt>
      <trkpt lat="45.94184" lon="13.63616">
        <ele>86.18</ele>
        <time>2012-07-30T14:07:19Z</time>
      </trkpt>
      <trkpt lat="45.94184" lon="13.63626">
        <ele>86.18</ele>
        <time>2012-07-30T14:07:20Z</time>
      </trkpt>
      <trkpt lat="45.94186" lon="13.63723">
        <ele>86.18</ele>
        <time>2012-07-30T14:07:32Z</time>
      </trkpt>
      <trkpt lat="45.94188" lon="13.63755">
        <ele>86.18</ele>
        <time>2012-07-30T14:07:36Z</time>
      </trkpt>
      <trkpt lat="45.94188" lon="13.6376">
        <ele>86.18</ele>
        <time>2012-07-30T14:07:37Z</time>
      </trkpt>
      <trkpt lat="45.94187" lon="13.63766">
        <ele>85.69</ele>
        <time>2012-07-30T14:07:38Z</time>
      </trkpt>
      <trkpt lat="45.94186" lon="13.63772">
        <ele>85.69</ele>
        <time>2012-07-30T14:07:39Z</time>
      </trkpt>
      <trkpt lat="45.94185" lon="13.63777">
        <ele>86.18</ele>
        <time>2012-07-30T14:07:40Z</time>
      </trkpt>
      <trkpt lat="45.94186" lon="13.63783">
        <ele>86.18</ele>
        <time>2012-07-30T14:07:41Z</time>
      </trkpt>
      <trkpt lat="45.94187" lon="13.63788">
        <ele>85.69</ele>
        <time>2012-07-30T14:07:42Z</time>
      </trkpt>
      <trkpt lat="45.94189" lon="13.63793">
        <ele>86.18</ele>
        <time>2012-07-30T14:07:43Z</time>
      </trkpt>
      <trkpt lat="45.94193" lon="13.63806">
        <ele>86.18</ele>
        <time>2012-07-30T14:07:45Z</time>
      </trkpt>
      <trkpt lat="45.94194" lon="13.63814">
        <ele>86.66</ele>
        <time>2012-07-30T14:07:46Z</time>
      </trkpt>
      <trkpt lat="45.94204" lon="13.63902">
        <ele>86.18</ele>
        <time>2012-07-30T14:07:57Z</time>
      </trkpt>
      <trkpt lat="45.94206" lon="13.63904">
        <ele>86.18</ele>
        <time>2012-07-30T14:07:58Z</time>
      </trkpt>
      <trkpt lat="45.94209" lon="13.63904">
        <ele>86.18</ele>
        <time>2012-07-30T14:07:59Z</time>
      </trkpt>
      <trkpt lat="45.94211" lon="13.63901">
        <ele>86.18</ele>
        <time>2012-07-30T14:08:00Z</time>
      </trkpt>
      <trkpt lat="45.94214" lon="13.63895">
        <ele>86.18</ele>
        <time>2012-07-30T14:08:01Z</time>
      </trkpt>
      <trkpt lat="45.94216" lon="13.6389">
        <ele>86.18</ele>
        <time>2012-07-30T14:08:02Z</time>
      </trkpt>
      <trkpt lat="45.94217" lon="13.63887">
        <ele>85.69</ele>
        <time>2012-07-30T14:08:03Z</time>
      </trkpt>
      <trkpt lat="45.9422" lon="13.63877">
        <ele>85.69</ele>
        <time>2012-07-30T14:08:15Z</time>
      </trkpt>
      <trkpt lat="45.94222" lon="13.63871">
        <ele>85.69</ele>
        <time>2012-07-30T14:08:35Z</time>
      </trkpt>
      <trkpt lat="45.94221" lon="13.6387">
        <ele>85.69</ele>
        <time>2012-07-30T14:08:51Z</time>
      </trkpt>
      <trkpt lat="45.94221" lon="13.63869">
        <ele>86.18</ele>
        <time>2012-07-30T14:09:19Z</time>
      </trkpt>
      <trkpt lat="45.94221" lon="13.63871">
        <ele>86.18</ele>
        <time>2012-07-30T14:09:46Z</time>
      </trkpt>
      <trkpt lat="45.94221" lon="13.63874">
        <ele>85.69</ele>
        <time>2012-07-30T14:10:15Z</time>
      </trkpt>
      <trkpt lat="45.94221" lon="13.63874">
        <ele>85.69</ele>
        <time>2012-07-30T14:10:44Z</time>
      </trkpt>
      <trkpt lat="45.94221" lon="13.63873">
        <ele>85.69</ele>
        <time>2012-07-30T14:11:08Z</time>
      </trkpt>
      <trkpt lat="45.94221" lon="13.63871">
        <ele>85.69</ele>
        <time>2012-07-30T14:11:27Z</time>
      </trkpt>
      <trkpt lat="45.9422" lon="13.63869">
        <ele>85.69</ele>
        <time>2012-07-30T14:11:56Z</time>
      </trkpt>
      <trkpt lat="45.94219" lon="13.63866">
        <ele>85.21</ele>
        <time>2012-07-30T14:12:25Z</time>
      </trkpt>
      <trkpt lat="45.94219" lon="13.63865">
        <ele>85.21</ele>
        <time>2012-07-30T14:12:55Z</time>
      </trkpt>
      <trkpt lat="45.94219" lon="13.63865">
        <ele>85.21</ele>
        <time>2012-07-30T14:13:21Z</time>
      </trkpt>
      <trkpt lat="45.94217" lon="13.63864">
        <ele>85.21</ele>
        <time>2012-07-30T14:13:49Z</time>
      </trkpt>
      <trkpt lat="45.94215" lon="13.63863">
        <ele>84.73</ele>
        <time>2012-07-30T14:14:23Z</time>
      </trkpt>
      <trkpt lat="45.94215" lon="13.63861">
        <ele>84.25</ele>
        <time>2012-07-30T14:14:58Z</time>
      </trkpt>
      <trkpt lat="45.94215" lon="13.6386">
        <ele>84.73</ele>
        <time>2012-07-30T14:15:29Z</time>
      </trkpt>
      <trkpt lat="45.94215" lon="13.6386">
        <ele>84.25</ele>
        <time>2012-07-30T14:16:04Z</time>
      </trkpt>
      <trkpt lat="45.94215" lon="13.63859">
        <ele>84.25</ele>
        <time>2012-07-30T14:16:28Z</time>
      </trkpt>
      <trkpt lat="45.94214" lon="13.63857">
        <ele>84.25</ele>
        <time>2012-07-30T14:16:56Z</time>
      </trkpt>
      <trkpt lat="45.94213" lon="13.63856">
        <ele>83.77</ele>
        <time>2012-07-30T14:17:29Z</time>
      </trkpt>
      <trkpt lat="45.94213" lon="13.63857">
        <ele>83.77</ele>
        <time>2012-07-30T14:17:50Z</time>
      </trkpt>
      <trkpt lat="45.94212" lon="13.63857">
        <ele>83.77</ele>
        <time>2012-07-30T14:18:24Z</time>
      </trkpt>
      <trkpt lat="45.9421" lon="13.63857">
        <ele>84.73</ele>
        <time>2012-07-30T14:18:51Z</time>
      </trkpt>
      <trkpt lat="45.94209" lon="13.63856">
        <ele>84.25</ele>
        <time>2012-07-30T14:18:52Z</time>
      </trkpt>
      <trkpt lat="45.94209" lon="13.63851">
        <ele>84.25</ele>
        <time>2012-07-30T14:19:01Z</time>
      </trkpt>
      <trkpt lat="45.94207" lon="13.63847">
        <ele>84.25</ele>
        <time>2012-07-30T14:19:20Z</time>
      </trkpt>
      <trkpt lat="45.94204" lon="13.63842">
        <ele>83.77</ele>
        <time>2012-07-30T14:19:46Z</time>
      </trkpt>
      <trkpt lat="45.94205" lon="13.63842">
        <ele>84.25</ele>
        <time>2012-07-30T14:19:47Z</time>
      </trkpt>
      <trkpt lat="45.94203" lon="13.6384">
        <ele>84.25</ele>
        <time>2012-07-30T14:19:48Z</time>
      </trkpt>
      <trkpt lat="45.94201" lon="13.63838">
        <ele>83.77</ele>
        <time>2012-07-30T14:19:49Z</time>
      </trkpt>
      <trkpt lat="45.942" lon="13.63835">
        <ele>83.77</ele>
        <time>2012-07-30T14:19:50Z</time>
      </trkpt>
      <trkpt lat="45.94198" lon="13.63832">
        <ele>83.77</ele>
        <time>2012-07-30T14:19:51Z</time>
      </trkpt>
      <trkpt lat="45.94197" lon="13.63827">
        <ele>84.25</ele>
        <time>2012-07-30T14:19:52Z</time>
      </trkpt>
      <trkpt lat="45.94197" lon="13.6382">
        <ele>84.25</ele>
        <time>2012-07-30T14:19:53Z</time>
      </trkpt>
      <trkpt lat="45.94197" lon="13.63812">
        <ele>84.25</ele>
        <time>2012-07-30T14:19:54Z</time>
      </trkpt>
      <trkpt lat="45.94199" lon="13.63802">
        <ele>85.21</ele>
        <time>2012-07-30T14:19:55Z</time>
      </trkpt>
      <trkpt lat="45.94201" lon="13.63794">
        <ele>83.77</ele>
        <time>2012-07-30T14:19:56Z</time>
      </trkpt>
      <trkpt lat="45.94201" lon="13.63786">
        <ele>84.25</ele>
        <time>2012-07-30T14:19:57Z</time>
      </trkpt>
      <trkpt lat="45.942" lon="13.63779">
        <ele>83.77</ele>
        <time>2012-07-30T14:19:58Z</time>
      </trkpt>
      <trkpt lat="45.94197" lon="13.63775">
        <ele>83.77</ele>
        <time>2012-07-30T14:19:59Z</time>
      </trkpt>
      <trkpt lat="45.94192" lon="13.63774">
        <ele>84.25</ele>
        <time>2012-07-30T14:20:00Z</time>
      </trkpt>
      <trkpt lat="45.94187" lon="13.63776">
        <ele>84.25</ele>
        <time>2012-07-30T14:20:01Z</time>
      </trkpt>
      <trkpt lat="45.94181" lon="13.63778">
        <ele>85.21</ele>
        <time>2012-07-30T14:20:02Z</time>
      </trkpt>
      <trkpt lat="45.94174" lon="13.63781">
        <ele>84.73</ele>
        <time>2012-07-30T14:20:03Z</time>
      </trkpt>
      <trkpt lat="45.94166" lon="13.63783">
        <ele>84.73</ele>
        <time>2012-07-30T14:20:04Z</time>
      </trkpt>
      <trkpt lat="45.94158" lon="13.63783">
        <ele>84.73</ele>
        <time>2012-07-30T14:20:05Z</time>
      </trkpt>
      <trkpt lat="45.9408" lon="13.63792">
        <ele>85.21</ele>
        <time>2012-07-30T14:20:13Z</time>
      </trkpt>
      <trkpt lat="45.94066" lon="13.63793">
        <ele>84.25</ele>
        <time>2012-07-30T14:20:15Z</time>
      </trkpt>
      <trkpt lat="45.9406" lon="13.63793">
        <ele>84.25</ele>
        <time>2012-07-30T14:20:16Z</time>
      </trkpt>
      <trkpt lat="45.94056" lon="13.63791">
        <ele>84.25</ele>
        <time>2012-07-30T14:20:17Z</time>
      </trkpt>
      <trkpt lat="45.94053" lon="13.6379">
        <ele>84.25</ele>
        <time>2012-07-30T14:20:18Z</time>
      </trkpt>
      <trkpt lat="45.9405" lon="13.63788">
        <ele>84.25</ele>
        <time>2012-07-30T14:20:19Z</time>
      </trkpt>
      <trkpt lat="45.94042" lon="13.63778">
        <ele>84.73</ele>
        <time>2012-07-30T14:20:23Z</time>
      </trkpt>
      <trkpt lat="45.94026" lon="13.63752">
        <ele>85.21</ele>
        <time>2012-07-30T14:20:26Z</time>
      </trkpt>
      <trkpt lat="45.94019" lon="13.63747">
        <ele>85.69</ele>
        <time>2012-07-30T14:20:27Z</time>
      </trkpt>
      <trkpt lat="45.94011" lon="13.63744">
        <ele>85.69</ele>
        <time>2012-07-30T14:20:28Z</time>
      </trkpt>
      <trkpt lat="45.94003" lon="13.63744">
        <ele>85.69</ele>
        <time>2012-07-30T14:20:29Z</time>
      </trkpt>
      <trkpt lat="45.93994" lon="13.63747">
        <ele>85.21</ele>
        <time>2012-07-30T14:20:30Z</time>
      </trkpt>
      <trkpt lat="45.93987" lon="13.63752">
        <ele>85.21</ele>
        <time>2012-07-30T14:20:31Z</time>
      </trkpt>
      <trkpt lat="45.9398" lon="13.63759">
        <ele>86.18</ele>
        <time>2012-07-30T14:20:32Z</time>
      </trkpt>
      <trkpt lat="45.93975" lon="13.6377">
        <ele>85.69</ele>
        <time>2012-07-30T14:20:33Z</time>
      </trkpt>
      <trkpt lat="45.93972" lon="13.63782">
        <ele>85.69</ele>
        <time>2012-07-30T14:20:34Z</time>
      </trkpt>
      <trkpt lat="45.93971" lon="13.63794">
        <ele>85.69</ele>
        <time>2012-07-30T14:20:35Z</time>
      </trkpt>
      <trkpt lat="45.93969" lon="13.63807">
        <ele>85.69</ele>
        <time>2012-07-30T14:20:36Z</time>
      </trkpt>
      <trkpt lat="45.93966" lon="13.63819">
        <ele>86.18</ele>
        <time>2012-07-30T14:20:37Z</time>
      </trkpt>
      <trkpt lat="45.93961" lon="13.63829">
        <ele>85.69</ele>
        <time>2012-07-30T14:20:38Z</time>
      </trkpt>
      <trkpt lat="45.93954" lon="13.63837">
        <ele>85.21</ele>
        <time>2012-07-30T14:20:39Z</time>
      </trkpt>
      <trkpt lat="45.93945" lon="13.63843">
        <ele>85.69</ele>
        <time>2012-07-30T14:20:40Z</time>
      </trkpt>
      <trkpt lat="45.93934" lon="13.63845">
        <ele>87.14</ele>
        <time>2012-07-30T14:20:41Z</time>
      </trkpt>
      <trkpt lat="45.93923" lon="13.63846">
        <ele>87.14</ele>
        <time>2012-07-30T14:20:42Z</time>
      </trkpt>
      <trkpt lat="45.93863" lon="13.63857">
        <ele>90.02</ele>
        <time>2012-07-30T14:20:47Z</time>
      </trkpt>
      <trkpt lat="45.93809" lon="13.63864">
        <ele>91.46</ele>
        <time>2012-07-30T14:20:51Z</time>
      </trkpt>
      <trkpt lat="45.93736" lon="13.63869">
        <ele>93.39</ele>
        <time>2012-07-30T14:20:56Z</time>
      </trkpt>
      <trkpt lat="45.93721" lon="13.63874">
        <ele>94.83</ele>
        <time>2012-07-30T14:20:57Z</time>
      </trkpt>
      <trkpt lat="45.93707" lon="13.63881">
        <ele>95.79</ele>
        <time>2012-07-30T14:20:58Z</time>
      </trkpt>
      <trkpt lat="45.93693" lon="13.63891">
        <ele>95.79</ele>
        <time>2012-07-30T14:20:59Z</time>
      </trkpt>
      <trkpt lat="45.9368" lon="13.63901">
        <ele>96.27</ele>
        <time>2012-07-30T14:21:00Z</time>
      </trkpt>
      <trkpt lat="45.93667" lon="13.63912">
        <ele>95.31</ele>
        <time>2012-07-30T14:21:01Z</time>
      </trkpt>
      <trkpt lat="45.93582" lon="13.6399">
        <ele>95.79</ele>
        <time>2012-07-30T14:21:08Z</time>
      </trkpt>
      <trkpt lat="45.93568" lon="13.63995">
        <ele>96.27</ele>
        <time>2012-07-30T14:21:09Z</time>
      </trkpt>
      <trkpt lat="45.93554" lon="13.63999">
        <ele>95.31</ele>
        <time>2012-07-30T14:21:10Z</time>
      </trkpt>
      <trkpt lat="45.93539" lon="13.64">
        <ele>95.31</ele>
        <time>2012-07-30T14:21:11Z</time>
      </trkpt>
      <trkpt lat="45.93524" lon="13.63997">
        <ele>94.83</ele>
        <time>2012-07-30T14:21:12Z</time>
      </trkpt>
      <trkpt lat="45.9351" lon="13.63992">
        <ele>93.87</ele>
        <time>2012-07-30T14:21:13Z</time>
      </trkpt>
      <trkpt lat="45.93495" lon="13.63985">
        <ele>92.9</ele>
        <time>2012-07-30T14:21:14Z</time>
      </trkpt>
      <trkpt lat="45.93452" lon="13.63961">
        <ele>89.54</ele>
        <time>2012-07-30T14:21:17Z</time>
      </trkpt>
      <trkpt lat="45.93402" lon="13.63931">
        <ele>86.18</ele>
        <time>2012-07-30T14:21:21Z</time>
      </trkpt>
      <trkpt lat="45.93356" lon="13.63903">
        <ele>82.33</ele>
        <time>2012-07-30T14:21:25Z</time>
      </trkpt>
      <trkpt lat="45.93312" lon="13.63873">
        <ele>75.6</ele>
        <time>2012-07-30T14:21:30Z</time>
      </trkpt>
      <trkpt lat="45.93303" lon="13.63866">
        <ele>79.93</ele>
        <time>2012-07-30T14:21:31Z</time>
      </trkpt>
      <trkpt lat="45.93266" lon="13.63837">
        <ele>78</ele>
        <time>2012-07-30T14:21:35Z</time>
      </trkpt>
      <trkpt lat="45.93223" lon="13.63802">
        <ele>76.56</ele>
        <time>2012-07-30T14:21:42Z</time>
      </trkpt>
      <trkpt lat="45.93215" lon="13.63798">
        <ele>76.56</ele>
        <time>2012-07-30T14:21:50Z</time>
      </trkpt>
      <trkpt lat="45.93214" lon="13.6381">
        <ele>76.56</ele>
        <time>2012-07-30T14:21:53Z</time>
      </trkpt>
      <trkpt lat="45.93217" lon="13.63815">
        <ele>77.04</ele>
        <time>2012-07-30T14:21:54Z</time>
      </trkpt>
      <trkpt lat="45.9322" lon="13.63819">
        <ele>77.04</ele>
        <time>2012-07-30T14:21:55Z</time>
      </trkpt>
      <trkpt lat="45.93224" lon="13.63822">
        <ele>77.04</ele>
        <time>2012-07-30T14:21:56Z</time>
      </trkpt>
      <trkpt lat="45.93228" lon="13.63825">
        <ele>77.04</ele>
        <time>2012-07-30T14:21:57Z</time>
      </trkpt>
      <trkpt lat="45.93231" lon="13.63828">
        <ele>77.04</ele>
        <time>2012-07-30T14:21:58Z</time>
      </trkpt>
      <trkpt lat="45.93234" lon="13.63831">
        <ele>76.56</ele>
        <time>2012-07-30T14:21:59Z</time>
      </trkpt>
      <trkpt lat="45.93237" lon="13.63833">
        <ele>76.56</ele>
        <time>2012-07-30T14:22:00Z</time>
      </trkpt>
      <trkpt lat="45.93241" lon="13.63834">
        <ele>76.56</ele>
        <time>2012-07-30T14:22:01Z</time>
      </trkpt>
      <trkpt lat="45.93245" lon="13.63834">
        <ele>77.04</ele>
        <time>2012-07-30T14:22:02Z</time>
      </trkpt>
      <trkpt lat="45.9325" lon="13.63836">
        <ele>77.04</ele>
        <time>2012-07-30T14:22:03Z</time>
      </trkpt>
      <trkpt lat="45.93258" lon="13.6384">
        <ele>78</ele>
        <time>2012-07-30T14:22:04Z</time>
      </trkpt>
      <trkpt lat="45.93266" lon="13.63847">
        <ele>77.52</ele>
        <time>2012-07-30T14:22:05Z</time>
      </trkpt>
      <trkpt lat="45.9332" lon="13.63891">
        <ele>80.89</ele>
        <time>2012-07-30T14:22:11Z</time>
      </trkpt>
      <trkpt lat="45.9344" lon="13.63962">
        <ele>84.25</ele>
        <time>2012-07-30T14:22:23Z</time>
      </trkpt>
      <trkpt lat="45.93481" lon="13.63986">
        <ele>87.62</ele>
        <time>2012-07-30T14:22:27Z</time>
      </trkpt>
      <trkpt lat="45.93503" lon="13.63998">
        <ele>89.06</ele>
        <time>2012-07-30T14:22:29Z</time>
      </trkpt>
      <trkpt lat="45.93549" lon="13.64008">
        <ele>90.98</ele>
        <time>2012-07-30T14:22:33Z</time>
      </trkpt>
      <trkpt lat="45.9356" lon="13.64007">
        <ele>90.98</ele>
        <time>2012-07-30T14:22:34Z</time>
      </trkpt>
      <trkpt lat="45.9357" lon="13.64004">
        <ele>90.5</ele>
        <time>2012-07-30T14:22:35Z</time>
      </trkpt>
      <trkpt lat="45.9358" lon="13.64">
        <ele>90.5</ele>
        <time>2012-07-30T14:22:36Z</time>
      </trkpt>
      <trkpt lat="45.93589" lon="13.63995">
        <ele>90.5</ele>
        <time>2012-07-30T14:22:37Z</time>
      </trkpt>
      <trkpt lat="45.93598" lon="13.63989">
        <ele>90.98</ele>
        <time>2012-07-30T14:22:38Z</time>
      </trkpt>
      <trkpt lat="45.93607" lon="13.63982">
        <ele>91.46</ele>
        <time>2012-07-30T14:22:39Z</time>
      </trkpt>
      <trkpt lat="45.93719" lon="13.63882">
        <ele>90.02</ele>
        <time>2012-07-30T14:22:51Z</time>
      </trkpt>
      <trkpt lat="45.9373" lon="13.63877">
        <ele>90.02</ele>
        <time>2012-07-30T14:22:52Z</time>
      </trkpt>
      <trkpt lat="45.93742" lon="13.63874">
        <ele>90.02</ele>
        <time>2012-07-30T14:22:53Z</time>
      </trkpt>
      <trkpt lat="45.93892" lon="13.63859">
        <ele>90.02</ele>
        <time>2012-07-30T14:23:05Z</time>
      </trkpt>
      <trkpt lat="45.93944" lon="13.63846">
        <ele>86.66</ele>
        <time>2012-07-30T14:23:10Z</time>
      </trkpt>
      <trkpt lat="45.93964" lon="13.63842">
        <ele>84.73</ele>
        <time>2012-07-30T14:23:13Z</time>
      </trkpt>
      <trkpt lat="45.9399" lon="13.63842">
        <ele>85.21</ele>
        <time>2012-07-30T14:23:18Z</time>
      </trkpt>
      <trkpt lat="45.9401" lon="13.63843">
        <ele>85.69</ele>
        <time>2012-07-30T14:23:20Z</time>
      </trkpt>
      <trkpt lat="45.9402" lon="13.63839">
        <ele>85.69</ele>
        <time>2012-07-30T14:23:21Z</time>
      </trkpt>
      <trkpt lat="45.94029" lon="13.6383">
        <ele>86.18</ele>
        <time>2012-07-30T14:23:22Z</time>
      </trkpt>
      <trkpt lat="45.94035" lon="13.63819">
        <ele>85.69</ele>
        <time>2012-07-30T14:23:23Z</time>
      </trkpt>
      <trkpt lat="45.94039" lon="13.63805">
        <ele>85.21</ele>
        <time>2012-07-30T14:23:24Z</time>
      </trkpt>
      <trkpt lat="45.94039" lon="13.63791">
        <ele>85.21</ele>
        <time>2012-07-30T14:23:25Z</time>
      </trkpt>
      <trkpt lat="45.94037" lon="13.63778">
        <ele>85.21</ele>
        <time>2012-07-30T14:23:26Z</time>
      </trkpt>
      <trkpt lat="45.94032" lon="13.63766">
        <ele>85.69</ele>
        <time>2012-07-30T14:23:27Z</time>
      </trkpt>
      <trkpt lat="45.94025" lon="13.63757">
        <ele>85.69</ele>
        <time>2012-07-30T14:23:28Z</time>
      </trkpt>
      <trkpt lat="45.94016" lon="13.63751">
        <ele>86.18</ele>
        <time>2012-07-30T14:23:29Z</time>
      </trkpt>
      <trkpt lat="45.94006" lon="13.63748">
        <ele>85.69</ele>
        <time>2012-07-30T14:23:30Z</time>
      </trkpt>
      <trkpt lat="45.93996" lon="13.63748">
        <ele>85.21</ele>
        <time>2012-07-30T14:23:31Z</time>
      </trkpt>
      <trkpt lat="45.93985" lon="13.63751">
        <ele>85.69</ele>
        <time>2012-07-30T14:23:32Z</time>
      </trkpt>
      <trkpt lat="45.93973" lon="13.63754">
        <ele>86.18</ele>
        <time>2012-07-30T14:23:33Z</time>
      </trkpt>
      <trkpt lat="45.9396" lon="13.63756">
        <ele>86.18</ele>
        <time>2012-07-30T14:23:34Z</time>
      </trkpt>
      <trkpt lat="45.93947" lon="13.63756">
        <ele>86.18</ele>
        <time>2012-07-30T14:23:35Z</time>
      </trkpt>
      <trkpt lat="45.93934" lon="13.63757">
        <ele>86.66</ele>
        <time>2012-07-30T14:23:36Z</time>
      </trkpt>
      <trkpt lat="45.9392" lon="13.6376">
        <ele>87.14</ele>
        <time>2012-07-30T14:23:37Z</time>
      </trkpt>
      <trkpt lat="45.93773" lon="13.63824">
        <ele>88.58</ele>
        <time>2012-07-30T14:23:47Z</time>
      </trkpt>
      <trkpt lat="45.93607" lon="13.63931">
        <ele>90.5</ele>
        <time>2012-07-30T14:23:58Z</time>
      </trkpt>
      <trkpt lat="45.93398" lon="13.6416">
        <ele>89.54</ele>
        <time>2012-07-30T14:24:13Z</time>
      </trkpt>
      <trkpt lat="45.9328" lon="13.64286">
        <ele>90.5</ele>
        <time>2012-07-30T14:24:21Z</time>
      </trkpt>
      <trkpt lat="45.93053" lon="13.64539">
        <ele>90.98</ele>
        <time>2012-07-30T14:24:36Z</time>
      </trkpt>
      <trkpt lat="45.92878" lon="13.64679">
        <ele>89.54</ele>
        <time>2012-07-30T14:24:46Z</time>
      </trkpt>
      <trkpt lat="45.92655" lon="13.6481">
        <ele>91.94</ele>
        <time>2012-07-30T14:24:58Z</time>
      </trkpt>
      <trkpt lat="45.92607" lon="13.64865">
        <ele>95.31</ele>
        <time>2012-07-30T14:25:01Z</time>
      </trkpt>
      <trkpt lat="45.92593" lon="13.64885">
        <ele>95.79</ele>
        <time>2012-07-30T14:25:02Z</time>
      </trkpt>
      <trkpt lat="45.92526" lon="13.65031">
        <ele>98.19</ele>
        <time>2012-07-30T14:25:08Z</time>
      </trkpt>
      <trkpt lat="45.92509" lon="13.65079">
        <ele>97.23</ele>
        <time>2012-07-30T14:25:10Z</time>
      </trkpt>
      <trkpt lat="45.92499" lon="13.65099">
        <ele>97.23</ele>
        <time>2012-07-30T14:25:11Z</time>
      </trkpt>
      <trkpt lat="45.92489" lon="13.65117">
        <ele>96.27</ele>
        <time>2012-07-30T14:25:12Z</time>
      </trkpt>
      <trkpt lat="45.92477" lon="13.65132">
        <ele>96.75</ele>
        <time>2012-07-30T14:25:13Z</time>
      </trkpt>
      <trkpt lat="45.92463" lon="13.65144">
        <ele>96.75</ele>
        <time>2012-07-30T14:25:14Z</time>
      </trkpt>
      <trkpt lat="45.92447" lon="13.65153">
        <ele>96.27</ele>
        <time>2012-07-30T14:25:15Z</time>
      </trkpt>
      <trkpt lat="45.92431" lon="13.6516">
        <ele>96.75</ele>
        <time>2012-07-30T14:25:16Z</time>
      </trkpt>
      <trkpt lat="45.92414" lon="13.65165">
        <ele>97.23</ele>
        <time>2012-07-30T14:25:17Z</time>
      </trkpt>
      <trkpt lat="45.92379" lon="13.65174">
        <ele>98.67</ele>
        <time>2012-07-30T14:25:19Z</time>
      </trkpt>
      <trkpt lat="45.92346" lon="13.65189">
        <ele>96.27</ele>
        <time>2012-07-30T14:25:21Z</time>
      </trkpt>
      <trkpt lat="45.92316" lon="13.65209">
        <ele>94.83</ele>
        <time>2012-07-30T14:25:23Z</time>
      </trkpt>
      <trkpt lat="45.92302" lon="13.65221">
        <ele>93.87</ele>
        <time>2012-07-30T14:25:24Z</time>
      </trkpt>
      <trkpt lat="45.92288" lon="13.65235">
        <ele>93.87</ele>
        <time>2012-07-30T14:25:25Z</time>
      </trkpt>
      <trkpt lat="45.92275" lon="13.65251">
        <ele>93.87</ele>
        <time>2012-07-30T14:25:26Z</time>
      </trkpt>
      <trkpt lat="45.92262" lon="13.65267">
        <ele>92.42</ele>
        <time>2012-07-30T14:25:27Z</time>
      </trkpt>
      <trkpt lat="45.92139" lon="13.65438">
        <ele>89.06</ele>
        <time>2012-07-30T14:25:37Z</time>
      </trkpt>
      <trkpt lat="45.92061" lon="13.65504">
        <ele>85.69</ele>
        <time>2012-07-30T14:25:42Z</time>
      </trkpt>
      <trkpt lat="45.92001" lon="13.65566">
        <ele>82.33</ele>
        <time>2012-07-30T14:25:46Z</time>
      </trkpt>
      <trkpt lat="45.91927" lon="13.65681">
        <ele>78.97</ele>
        <time>2012-07-30T14:25:52Z</time>
      </trkpt>
      <trkpt lat="45.91916" lon="13.65702">
        <ele>78.48</ele>
        <time>2012-07-30T14:25:53Z</time>
      </trkpt>
      <trkpt lat="45.91815" lon="13.65837">
        <ele>76.56</ele>
        <time>2012-07-30T14:26:01Z</time>
      </trkpt>
      <trkpt lat="45.91737" lon="13.65956">
        <ele>74.64</ele>
        <time>2012-07-30T14:26:08Z</time>
      </trkpt>
      <trkpt lat="45.91635" lon="13.66125">
        <ele>71.76</ele>
        <time>2012-07-30T14:26:18Z</time>
      </trkpt>
      <trkpt lat="45.91629" lon="13.66143">
        <ele>71.27</ele>
        <time>2012-07-30T14:26:19Z</time>
      </trkpt>
      <trkpt lat="45.91624" lon="13.66163">
        <ele>71.27</ele>
        <time>2012-07-30T14:26:20Z</time>
      </trkpt>
      <trkpt lat="45.9162" lon="13.66183">
        <ele>70.79</ele>
        <time>2012-07-30T14:26:21Z</time>
      </trkpt>
      <trkpt lat="45.91617" lon="13.66202">
        <ele>69.35</ele>
        <time>2012-07-30T14:26:22Z</time>
      </trkpt>
      <trkpt lat="45.91612" lon="13.66221">
        <ele>68.87</ele>
        <time>2012-07-30T14:26:23Z</time>
      </trkpt>
      <trkpt lat="45.91606" lon="13.66239">
        <ele>69.35</ele>
        <time>2012-07-30T14:26:24Z</time>
      </trkpt>
      <trkpt lat="45.91598" lon="13.66256">
        <ele>70.31</ele>
        <time>2012-07-30T14:26:25Z</time>
      </trkpt>
      <trkpt lat="45.91589" lon="13.66274">
        <ele>70.31</ele>
        <time>2012-07-30T14:26:26Z</time>
      </trkpt>
      <trkpt lat="45.91579" lon="13.66292">
        <ele>70.31</ele>
        <time>2012-07-30T14:26:27Z</time>
      </trkpt>
      <trkpt lat="45.91462" lon="13.66501">
        <ele>69.35</ele>
        <time>2012-07-30T14:26:39Z</time>
      </trkpt>
      <trkpt lat="45.91353" lon="13.66715">
        <ele>67.43</ele>
        <time>2012-07-30T14:26:51Z</time>
      </trkpt>
      <trkpt lat="45.9126" lon="13.66884">
        <ele>66.47</ele>
        <time>2012-07-30T14:27:01Z</time>
      </trkpt>
      <trkpt lat="45.91216" lon="13.67001">
        <ele>64.07</ele>
        <time>2012-07-30T14:27:07Z</time>
      </trkpt>
      <trkpt lat="45.91092" lon="13.67282">
        <ele>63.58</ele>
        <time>2012-07-30T14:27:22Z</time>
      </trkpt>
      <trkpt lat="45.90992" lon="13.67395">
        <ele>64.55</ele>
        <time>2012-07-30T14:27:30Z</time>
      </trkpt>
      <trkpt lat="45.90816" lon="13.67534">
        <ele>63.1</ele>
        <time>2012-07-30T14:27:43Z</time>
      </trkpt>
      <trkpt lat="45.90803" lon="13.67545">
        <ele>62.62</ele>
        <time>2012-07-30T14:27:44Z</time>
      </trkpt>
      <trkpt lat="45.90735" lon="13.67602">
        <ele>62.14</ele>
        <time>2012-07-30T14:27:49Z</time>
      </trkpt>
      <trkpt lat="45.90721" lon="13.67609">
        <ele>62.14</ele>
        <time>2012-07-30T14:27:50Z</time>
      </trkpt>
      <trkpt lat="45.90707" lon="13.67614">
        <ele>61.66</ele>
        <time>2012-07-30T14:27:51Z</time>
      </trkpt>
      <trkpt lat="45.90562" lon="13.67672">
        <ele>61.66</ele>
        <time>2012-07-30T14:28:01Z</time>
      </trkpt>
      <trkpt lat="45.90403" lon="13.67724">
        <ele>59.74</ele>
        <time>2012-07-30T14:28:12Z</time>
      </trkpt>
      <trkpt lat="45.90378" lon="13.67731">
        <ele>59.74</ele>
        <time>2012-07-30T14:28:14Z</time>
      </trkpt>
      <trkpt lat="45.90368" lon="13.67738">
        <ele>59.26</ele>
        <time>2012-07-30T14:28:15Z</time>
      </trkpt>
      <trkpt lat="45.90359" lon="13.6775">
        <ele>60.7</ele>
        <time>2012-07-30T14:28:16Z</time>
      </trkpt>
      <trkpt lat="45.90352" lon="13.67765">
        <ele>60.22</ele>
        <time>2012-07-30T14:28:17Z</time>
      </trkpt>
      <trkpt lat="45.90345" lon="13.67781">
        <ele>61.18</ele>
        <time>2012-07-30T14:28:18Z</time>
      </trkpt>
      <trkpt lat="45.90339" lon="13.67798">
        <ele>61.66</ele>
        <time>2012-07-30T14:28:19Z</time>
      </trkpt>
      <trkpt lat="45.9031" lon="13.67876">
        <ele>62.62</ele>
        <time>2012-07-30T14:28:24Z</time>
      </trkpt>
      <trkpt lat="45.90302" lon="13.67886">
        <ele>62.62</ele>
        <time>2012-07-30T14:28:25Z</time>
      </trkpt>
      <trkpt lat="45.90293" lon="13.6789">
        <ele>63.1</ele>
        <time>2012-07-30T14:28:26Z</time>
      </trkpt>
      <trkpt lat="45.90284" lon="13.67888">
        <ele>63.58</ele>
        <time>2012-07-30T14:28:27Z</time>
      </trkpt>
      <trkpt lat="45.90275" lon="13.67883">
        <ele>64.07</ele>
        <time>2012-07-30T14:28:28Z</time>
      </trkpt>
      <trkpt lat="45.90266" lon="13.67881">
        <ele>63.1</ele>
        <time>2012-07-30T14:28:29Z</time>
      </trkpt>
      <trkpt lat="45.90255" lon="13.67883">
        <ele>63.58</ele>
        <time>2012-07-30T14:28:30Z</time>
      </trkpt>
      <trkpt lat="45.90245" lon="13.6789">
        <ele>64.07</ele>
        <time>2012-07-30T14:28:31Z</time>
      </trkpt>
      <trkpt lat="45.90233" lon="13.67901">
        <ele>64.07</ele>
        <time>2012-07-30T14:28:32Z</time>
      </trkpt>
      <trkpt lat="45.90221" lon="13.67914">
        <ele>64.07</ele>
        <time>2012-07-30T14:28:33Z</time>
      </trkpt>
      <trkpt lat="45.90106" lon="13.68018">
        <ele>59.26</ele>
        <time>2012-07-30T14:28:41Z</time>
      </trkpt>
      <trkpt lat="45.90083" lon="13.68037">
        <ele>58.3</ele>
        <time>2012-07-30T14:28:43Z</time>
      </trkpt>
      <trkpt lat="45.90072" lon="13.68051">
        <ele>59.26</ele>
        <time>2012-07-30T14:28:44Z</time>
      </trkpt>
      <trkpt lat="45.90062" lon="13.68068">
        <ele>59.26</ele>
        <time>2012-07-30T14:28:45Z</time>
      </trkpt>
      <trkpt lat="45.90053" lon="13.68087">
        <ele>58.78</ele>
        <time>2012-07-30T14:28:46Z</time>
      </trkpt>
      <trkpt lat="45.90044" lon="13.68107">
        <ele>59.26</ele>
        <time>2012-07-30T14:28:47Z</time>
      </trkpt>
      <trkpt lat="45.89971" lon="13.68231">
        <ele>58.78</ele>
        <time>2012-07-30T14:28:54Z</time>
      </trkpt>
      <trkpt lat="45.89964" lon="13.6825">
        <ele>58.3</ele>
        <time>2012-07-30T14:28:55Z</time>
      </trkpt>
      <trkpt lat="45.8996" lon="13.68272">
        <ele>59.26</ele>
        <time>2012-07-30T14:28:56Z</time>
      </trkpt>
      <trkpt lat="45.89958" lon="13.68295">
        <ele>59.26</ele>
        <time>2012-07-30T14:28:57Z</time>
      </trkpt>
      <trkpt lat="45.89957" lon="13.68318">
        <ele>59.26</ele>
        <time>2012-07-30T14:28:58Z</time>
      </trkpt>
      <trkpt lat="45.89951" lon="13.68388">
        <ele>58.78</ele>
        <time>2012-07-30T14:29:01Z</time>
      </trkpt>
      <trkpt lat="45.89947" lon="13.68411">
        <ele>58.3</ele>
        <time>2012-07-30T14:29:02Z</time>
      </trkpt>
      <trkpt lat="45.8994" lon="13.68433">
        <ele>58.78</ele>
        <time>2012-07-30T14:29:03Z</time>
      </trkpt>
      <trkpt lat="45.89931" lon="13.68454">
        <ele>58.3</ele>
        <time>2012-07-30T14:29:04Z</time>
      </trkpt>
      <trkpt lat="45.89921" lon="13.68473">
        <ele>58.3</ele>
        <time>2012-07-30T14:29:05Z</time>
      </trkpt>
      <trkpt lat="45.89909" lon="13.68491">
        <ele>59.26</ele>
        <time>2012-07-30T14:29:06Z</time>
      </trkpt>
      <trkpt lat="45.89847" lon="13.68604">
        <ele>58.78</ele>
        <time>2012-07-30T14:29:12Z</time>
      </trkpt>
      <trkpt lat="45.89835" lon="13.68619">
        <ele>58.3</ele>
        <time>2012-07-30T14:29:13Z</time>
      </trkpt>
      <trkpt lat="45.8981" lon="13.68644">
        <ele>57.82</ele>
        <time>2012-07-30T14:29:15Z</time>
      </trkpt>
      <trkpt lat="45.898" lon="13.68659">
        <ele>57.82</ele>
        <time>2012-07-30T14:29:16Z</time>
      </trkpt>
      <trkpt lat="45.89791" lon="13.68677">
        <ele>57.82</ele>
        <time>2012-07-30T14:29:17Z</time>
      </trkpt>
      <trkpt lat="45.89784" lon="13.68697">
        <ele>58.3</ele>
        <time>2012-07-30T14:29:18Z</time>
      </trkpt>
      <trkpt lat="45.8978" lon="13.68718">
        <ele>59.26</ele>
        <time>2012-07-30T14:29:19Z</time>
      </trkpt>
      <trkpt lat="45.89777" lon="13.68741">
        <ele>59.74</ele>
        <time>2012-07-30T14:29:20Z</time>
      </trkpt>
      <trkpt lat="45.89737" lon="13.68943">
        <ele>60.22</ele>
        <time>2012-07-30T14:29:29Z</time>
      </trkpt>
      <trkpt lat="45.89642" lon="13.69225">
        <ele>62.62</ele>
        <time>2012-07-30T14:29:42Z</time>
      </trkpt>
      <trkpt lat="45.89589" lon="13.69339">
        <ele>59.26</ele>
        <time>2012-07-30T14:29:48Z</time>
      </trkpt>
      <trkpt lat="45.89576" lon="13.69374">
        <ele>57.82</ele>
        <time>2012-07-30T14:29:50Z</time>
      </trkpt>
      <trkpt lat="45.89573" lon="13.69392">
        <ele>57.34</ele>
        <time>2012-07-30T14:29:51Z</time>
      </trkpt>
      <trkpt lat="45.89572" lon="13.69411">
        <ele>56.86</ele>
        <time>2012-07-30T14:29:52Z</time>
      </trkpt>
      <trkpt lat="45.89573" lon="13.6943">
        <ele>57.34</ele>
        <time>2012-07-30T14:29:53Z</time>
      </trkpt>
      <trkpt lat="45.89574" lon="13.69448">
        <ele>54.93</ele>
        <time>2012-07-30T14:29:54Z</time>
      </trkpt>
      <trkpt lat="45.89576" lon="13.69465">
        <ele>55.41</ele>
        <time>2012-07-30T14:29:55Z</time>
      </trkpt>
      <trkpt lat="45.89577" lon="13.69484">
        <ele>56.37</ele>
        <time>2012-07-30T14:29:56Z</time>
      </trkpt>
      <trkpt lat="45.89578" lon="13.69504">
        <ele>56.86</ele>
        <time>2012-07-30T14:29:57Z</time>
      </trkpt>
      <trkpt lat="45.89577" lon="13.69725">
        <ele>60.22</ele>
        <time>2012-07-30T14:30:06Z</time>
      </trkpt>
      <trkpt lat="45.89557" lon="13.69984">
        <ele>58.3</ele>
        <time>2012-07-30T14:30:16Z</time>
      </trkpt>
      <trkpt lat="45.89512" lon="13.70179">
        <ele>60.7</ele>
        <time>2012-07-30T14:30:24Z</time>
      </trkpt>
      <trkpt lat="45.89441" lon="13.70478">
        <ele>60.7</ele>
        <time>2012-07-30T14:30:36Z</time>
      </trkpt>
      <trkpt lat="45.89421" lon="13.70547">
        <ele>61.18</ele>
        <time>2012-07-30T14:30:39Z</time>
      </trkpt>
      <trkpt lat="45.89411" lon="13.70568">
        <ele>61.18</ele>
        <time>2012-07-30T14:30:40Z</time>
      </trkpt>
      <trkpt lat="45.894" lon="13.70587">
        <ele>62.14</ele>
        <time>2012-07-30T14:30:41Z</time>
      </trkpt>
      <trkpt lat="45.89387" lon="13.70605">
        <ele>62.14</ele>
        <time>2012-07-30T14:30:42Z</time>
      </trkpt>
      <trkpt lat="45.89373" lon="13.70622">
        <ele>63.1</ele>
        <time>2012-07-30T14:30:43Z</time>
      </trkpt>
      <trkpt lat="45.89358" lon="13.70637">
        <ele>63.1</ele>
        <time>2012-07-30T14:30:44Z</time>
      </trkpt>
      <trkpt lat="45.89343" lon="13.70652">
        <ele>62.62</ele>
        <time>2012-07-30T14:30:45Z</time>
      </trkpt>
      <trkpt lat="45.89076" lon="13.70909">
        <ele>62.62</ele>
        <time>2012-07-30T14:31:02Z</time>
      </trkpt>
      <trkpt lat="45.88882" lon="13.71101">
        <ele>62.62</ele>
        <time>2012-07-30T14:31:14Z</time>
      </trkpt>
      <trkpt lat="45.8887" lon="13.71121">
        <ele>63.1</ele>
        <time>2012-07-30T14:31:15Z</time>
      </trkpt>
      <trkpt lat="45.88859" lon="13.71144">
        <ele>64.55</ele>
        <time>2012-07-30T14:31:16Z</time>
      </trkpt>
      <trkpt lat="45.88758" lon="13.7138">
        <ele>64.07</ele>
        <time>2012-07-30T14:31:26Z</time>
      </trkpt>
      <trkpt lat="45.88655" lon="13.71607">
        <ele>63.1</ele>
        <time>2012-07-30T14:31:36Z</time>
      </trkpt>
      <trkpt lat="45.88649" lon="13.71634">
        <ele>63.58</ele>
        <time>2012-07-30T14:31:37Z</time>
      </trkpt>
      <trkpt lat="45.88645" lon="13.71661">
        <ele>64.07</ele>
        <time>2012-07-30T14:31:38Z</time>
      </trkpt>
      <trkpt lat="45.88643" lon="13.7169">
        <ele>64.55</ele>
        <time>2012-07-30T14:31:39Z</time>
      </trkpt>
      <trkpt lat="45.88642" lon="13.71718">
        <ele>63.58</ele>
        <time>2012-07-30T14:31:40Z</time>
      </trkpt>
      <trkpt lat="45.88633" lon="13.72045">
        <ele>65.03</ele>
        <time>2012-07-30T14:31:52Z</time>
      </trkpt>
      <trkpt lat="45.88621" lon="13.72125">
        <ele>63.58</ele>
        <time>2012-07-30T14:31:55Z</time>
      </trkpt>
      <trkpt lat="45.88594" lon="13.7229">
        <ele>65.99</ele>
        <time>2012-07-30T14:32:01Z</time>
      </trkpt>
      <trkpt lat="45.88568" lon="13.72453">
        <ele>65.99</ele>
        <time>2012-07-30T14:32:07Z</time>
      </trkpt>
      <trkpt lat="45.88542" lon="13.72614">
        <ele>68.87</ele>
        <time>2012-07-30T14:32:13Z</time>
      </trkpt>
      <trkpt lat="45.88533" lon="13.72667">
        <ele>69.83</ele>
        <time>2012-07-30T14:32:15Z</time>
      </trkpt>
      <trkpt lat="45.88518" lon="13.72762">
        <ele>67.91</ele>
        <time>2012-07-30T14:32:19Z</time>
      </trkpt>
      <trkpt lat="45.88511" lon="13.72836">
        <ele>68.39</ele>
        <time>2012-07-30T14:32:22Z</time>
      </trkpt>
      <trkpt lat="45.88512" lon="13.72862">
        <ele>68.87</ele>
        <time>2012-07-30T14:32:23Z</time>
      </trkpt>
      <trkpt lat="45.88519" lon="13.72966">
        <ele>70.79</ele>
        <time>2012-07-30T14:32:27Z</time>
      </trkpt>
      <trkpt lat="45.88526" lon="13.73143">
        <ele>69.35</ele>
        <time>2012-07-30T14:32:34Z</time>
      </trkpt>
      <trkpt lat="45.88532" lon="13.73229">
        <ele>67.43</ele>
        <time>2012-07-30T14:32:38Z</time>
      </trkpt>
      <trkpt lat="45.88531" lon="13.73251">
        <ele>67.43</ele>
        <time>2012-07-30T14:32:39Z</time>
      </trkpt>
      <trkpt lat="45.88528" lon="13.73273">
        <ele>67.43</ele>
        <time>2012-07-30T14:32:40Z</time>
      </trkpt>
      <trkpt lat="45.88524" lon="13.73296">
        <ele>66.95</ele>
        <time>2012-07-30T14:32:41Z</time>
      </trkpt>
      <trkpt lat="45.88516" lon="13.73341">
        <ele>67.43</ele>
        <time>2012-07-30T14:32:43Z</time>
      </trkpt>
      <trkpt lat="45.88515" lon="13.73362">
        <ele>67.43</ele>
        <time>2012-07-30T14:32:44Z</time>
      </trkpt>
      <trkpt lat="45.88516" lon="13.73383">
        <ele>67.91</ele>
        <time>2012-07-30T14:32:45Z</time>
      </trkpt>
      <trkpt lat="45.88522" lon="13.73402">
        <ele>68.39</ele>
        <time>2012-07-30T14:32:46Z</time>
      </trkpt>
      <trkpt lat="45.88531" lon="13.73419">
        <ele>69.35</ele>
        <time>2012-07-30T14:32:47Z</time>
      </trkpt>
      <trkpt lat="45.88543" lon="13.73433">
        <ele>70.31</ele>
        <time>2012-07-30T14:32:48Z</time>
      </trkpt>
      <trkpt lat="45.88554" lon="13.73446">
        <ele>70.79</ele>
        <time>2012-07-30T14:32:49Z</time>
      </trkpt>
      <trkpt lat="45.88566" lon="13.73457">
        <ele>70.79</ele>
        <time>2012-07-30T14:32:50Z</time>
      </trkpt>
      <trkpt lat="45.88603" lon="13.73503">
        <ele>66.95</ele>
        <time>2012-07-30T14:32:54Z</time>
      </trkpt>
      <trkpt lat="45.88608" lon="13.73515">
        <ele>66.47</ele>
        <time>2012-07-30T14:32:55Z</time>
      </trkpt>
      <trkpt lat="45.8861" lon="13.73527">
        <ele>66.47</ele>
        <time>2012-07-30T14:32:56Z</time>
      </trkpt>
      <trkpt lat="45.88609" lon="13.73539">
        <ele>66.95</ele>
        <time>2012-07-30T14:32:57Z</time>
      </trkpt>
      <trkpt lat="45.88606" lon="13.73552">
        <ele>66.95</ele>
        <time>2012-07-30T14:32:58Z</time>
      </trkpt>
      <trkpt lat="45.88601" lon="13.73565">
        <ele>66.95</ele>
        <time>2012-07-30T14:32:59Z</time>
      </trkpt>
      <trkpt lat="45.88595" lon="13.73578">
        <ele>67.91</ele>
        <time>2012-07-30T14:33:00Z</time>
      </trkpt>
      <trkpt lat="45.88582" lon="13.73604">
        <ele>68.39</ele>
        <time>2012-07-30T14:33:02Z</time>
      </trkpt>
      <trkpt lat="45.88575" lon="13.73614">
        <ele>68.39</ele>
        <time>2012-07-30T14:33:03Z</time>
      </trkpt>
      <trkpt lat="45.88566" lon="13.73623">
        <ele>68.87</ele>
        <time>2012-07-30T14:33:04Z</time>
      </trkpt>
      <trkpt lat="45.88556" lon="13.73629">
        <ele>69.35</ele>
        <time>2012-07-30T14:33:05Z</time>
      </trkpt>
      <trkpt lat="45.88546" lon="13.73635">
        <ele>69.83</ele>
        <time>2012-07-30T14:33:06Z</time>
      </trkpt>
      <trkpt lat="45.88515" lon="13.73656">
        <ele>71.27</ele>
        <time>2012-07-30T14:33:09Z</time>
      </trkpt>
      <trkpt lat="45.88426" lon="13.73747">
        <ele>73.2</ele>
        <time>2012-07-30T14:33:19Z</time>
      </trkpt>
      <trkpt lat="45.88418" lon="13.73752">
        <ele>73.2</ele>
        <time>2012-07-30T14:33:20Z</time>
      </trkpt>
      <trkpt lat="45.88409" lon="13.73757">
        <ele>74.16</ele>
        <time>2012-07-30T14:33:21Z</time>
      </trkpt>
      <trkpt lat="45.8838" lon="13.73769">
        <ele>77.04</ele>
        <time>2012-07-30T14:33:24Z</time>
      </trkpt>
      <trkpt lat="45.88371" lon="13.73777">
        <ele>77.04</ele>
        <time>2012-07-30T14:33:25Z</time>
      </trkpt>
      <trkpt lat="45.88362" lon="13.73787">
        <ele>77.04</ele>
        <time>2012-07-30T14:33:26Z</time>
      </trkpt>
      <trkpt lat="45.88328" lon="13.73835">
        <ele>80.41</ele>
        <time>2012-07-30T14:33:30Z</time>
      </trkpt>
      <trkpt lat="45.88308" lon="13.73862">
        <ele>81.85</ele>
        <time>2012-07-30T14:33:32Z</time>
      </trkpt>
      <trkpt lat="45.88282" lon="13.73905">
        <ele>83.29</ele>
        <time>2012-07-30T14:33:35Z</time>
      </trkpt>
      <trkpt lat="45.88275" lon="13.7392">
        <ele>83.29</ele>
        <time>2012-07-30T14:33:36Z</time>
      </trkpt>
      <trkpt lat="45.88257" lon="13.73968">
        <ele>79.45</ele>
        <time>2012-07-30T14:33:39Z</time>
      </trkpt>
      <trkpt lat="45.88243" lon="13.74">
        <ele>78.97</ele>
        <time>2012-07-30T14:33:41Z</time>
      </trkpt>
      <trkpt lat="45.88234" lon="13.74014">
        <ele>77.04</ele>
        <time>2012-07-30T14:33:42Z</time>
      </trkpt>
      <trkpt lat="45.88223" lon="13.74026">
        <ele>76.08</ele>
        <time>2012-07-30T14:33:43Z</time>
      </trkpt>
      <trkpt lat="45.88211" lon="13.74037">
        <ele>76.08</ele>
        <time>2012-07-30T14:33:44Z</time>
      </trkpt>
      <trkpt lat="45.88198" lon="13.74047">
        <ele>75.12</ele>
        <time>2012-07-30T14:33:45Z</time>
      </trkpt>
      <trkpt lat="45.88184" lon="13.74056">
        <ele>74.64</ele>
        <time>2012-07-30T14:33:46Z</time>
      </trkpt>
      <trkpt lat="45.88169" lon="13.74064">
        <ele>74.16</ele>
        <time>2012-07-30T14:33:47Z</time>
      </trkpt>
      <trkpt lat="45.88108" lon="13.74108">
        <ele>70.79</ele>
        <time>2012-07-30T14:33:51Z</time>
      </trkpt>
      <trkpt lat="45.88046" lon="13.74181">
        <ele>68.39</ele>
        <time>2012-07-30T14:33:56Z</time>
      </trkpt>
      <trkpt lat="45.88005" lon="13.74247">
        <ele>65.99</ele>
        <time>2012-07-30T14:34:00Z</time>
      </trkpt>
      <trkpt lat="45.87971" lon="13.743">
        <ele>67.91</ele>
        <time>2012-07-30T14:34:03Z</time>
      </trkpt>
      <trkpt lat="45.87921" lon="13.74365">
        <ele>70.79</ele>
        <time>2012-07-30T14:34:07Z</time>
      </trkpt>
      <trkpt lat="45.87866" lon="13.74465">
        <ele>72.24</ele>
        <time>2012-07-30T14:34:12Z</time>
      </trkpt>
      <trkpt lat="45.87789" lon="13.74734">
        <ele>70.79</ele>
        <time>2012-07-30T14:34:23Z</time>
      </trkpt>
      <trkpt lat="45.87784" lon="13.74908">
        <ele>69.83</ele>
        <time>2012-07-30T14:34:30Z</time>
      </trkpt>
      <trkpt lat="45.87775" lon="13.75008">
        <ele>71.76</ele>
        <time>2012-07-30T14:34:34Z</time>
      </trkpt>
      <trkpt lat="45.8777" lon="13.75057">
        <ele>72.24</ele>
        <time>2012-07-30T14:34:36Z</time>
      </trkpt>
      <trkpt lat="45.87771" lon="13.75082">
        <ele>72.72</ele>
        <time>2012-07-30T14:34:37Z</time>
      </trkpt>
      <trkpt lat="45.87772" lon="13.75154">
        <ele>73.68</ele>
        <time>2012-07-30T14:34:40Z</time>
      </trkpt>
      <trkpt lat="45.87769" lon="13.75178">
        <ele>73.68</ele>
        <time>2012-07-30T14:34:41Z</time>
      </trkpt>
      <trkpt lat="45.87765" lon="13.75201">
        <ele>74.64</ele>
        <time>2012-07-30T14:34:42Z</time>
      </trkpt>
      <trkpt lat="45.87757" lon="13.75223">
        <ele>74.64</ele>
        <time>2012-07-30T14:34:43Z</time>
      </trkpt>
      <trkpt lat="45.87746" lon="13.75244">
        <ele>74.64</ele>
        <time>2012-07-30T14:34:44Z</time>
      </trkpt>
      <trkpt lat="45.87734" lon="13.75265">
        <ele>74.16</ele>
        <time>2012-07-30T14:34:45Z</time>
      </trkpt>
      <trkpt lat="45.87687" lon="13.75346">
        <ele>70.79</ele>
        <time>2012-07-30T14:34:49Z</time>
      </trkpt>
      <trkpt lat="45.87668" lon="13.75383">
        <ele>69.83</ele>
        <time>2012-07-30T14:34:51Z</time>
      </trkpt>
      <trkpt lat="45.8766" lon="13.75403">
        <ele>68.87</ele>
        <time>2012-07-30T14:34:52Z</time>
      </trkpt>
      <trkpt lat="45.87653" lon="13.75424">
        <ele>68.87</ele>
        <time>2012-07-30T14:34:53Z</time>
      </trkpt>
      <trkpt lat="45.87649" lon="13.75446">
        <ele>69.35</ele>
        <time>2012-07-30T14:34:54Z</time>
      </trkpt>
      <trkpt lat="45.87648" lon="13.7547">
        <ele>68.87</ele>
        <time>2012-07-30T14:34:55Z</time>
      </trkpt>
      <trkpt lat="45.87648" lon="13.75495">
        <ele>69.83</ele>
        <time>2012-07-30T14:34:56Z</time>
      </trkpt>
      <trkpt lat="45.87645" lon="13.75566">
        <ele>69.83</ele>
        <time>2012-07-30T14:34:59Z</time>
      </trkpt>
      <trkpt lat="45.87641" lon="13.75587">
        <ele>69.35</ele>
        <time>2012-07-30T14:35:00Z</time>
      </trkpt>
      <trkpt lat="45.87635" lon="13.75607">
        <ele>70.31</ele>
        <time>2012-07-30T14:35:01Z</time>
      </trkpt>
      <trkpt lat="45.87627" lon="13.75627">
        <ele>70.31</ele>
        <time>2012-07-30T14:35:02Z</time>
      </trkpt>
      <trkpt lat="45.87619" lon="13.75647">
        <ele>70.79</ele>
        <time>2012-07-30T14:35:03Z</time>
      </trkpt>
      <trkpt lat="45.87576" lon="13.75762">
        <ele>72.72</ele>
        <time>2012-07-30T14:35:10Z</time>
      </trkpt>
      <trkpt lat="45.87576" lon="13.75774">
        <ele>72.24</ele>
        <time>2012-07-30T14:35:11Z</time>
      </trkpt>
      <trkpt lat="45.8758" lon="13.75785">
        <ele>71.27</ele>
        <time>2012-07-30T14:35:12Z</time>
      </trkpt>
      <trkpt lat="45.87586" lon="13.75796">
        <ele>72.24</ele>
        <time>2012-07-30T14:35:13Z</time>
      </trkpt>
      <trkpt lat="45.87593" lon="13.75806">
        <ele>71.76</ele>
        <time>2012-07-30T14:35:14Z</time>
      </trkpt>
      <trkpt lat="45.87598" lon="13.75818">
        <ele>71.27</ele>
        <time>2012-07-30T14:35:15Z</time>
      </trkpt>
      <trkpt lat="45.87602" lon="13.75832">
        <ele>70.79</ele>
        <time>2012-07-30T14:35:16Z</time>
      </trkpt>
      <trkpt lat="45.87603" lon="13.75848">
        <ele>70.79</ele>
        <time>2012-07-30T14:35:17Z</time>
      </trkpt>
      <trkpt lat="45.87603" lon="13.75864">
        <ele>70.31</ele>
        <time>2012-07-30T14:35:18Z</time>
      </trkpt>
      <trkpt lat="45.87601" lon="13.75881">
        <ele>70.31</ele>
        <time>2012-07-30T14:35:19Z</time>
      </trkpt>
      <trkpt lat="45.87593" lon="13.7598">
        <ele>69.83</ele>
        <time>2012-07-30T14:35:24Z</time>
      </trkpt>
      <trkpt lat="45.87588" lon="13.75999">
        <ele>69.83</ele>
        <time>2012-07-30T14:35:25Z</time>
      </trkpt>
      <trkpt lat="45.8758" lon="13.76018">
        <ele>70.31</ele>
        <time>2012-07-30T14:35:26Z</time>
      </trkpt>
      <trkpt lat="45.87572" lon="13.76036">
        <ele>70.31</ele>
        <time>2012-07-30T14:35:27Z</time>
      </trkpt>
      <trkpt lat="45.87563" lon="13.76053">
        <ele>68.87</ele>
        <time>2012-07-30T14:35:28Z</time>
      </trkpt>
      <trkpt lat="45.8755" lon="13.76085">
        <ele>67.91</ele>
        <time>2012-07-30T14:35:30Z</time>
      </trkpt>
      <trkpt lat="45.87546" lon="13.761">
        <ele>67.43</ele>
        <time>2012-07-30T14:35:31Z</time>
      </trkpt>
      <trkpt lat="45.87544" lon="13.76116">
        <ele>66.47</ele>
        <time>2012-07-30T14:35:32Z</time>
      </trkpt>
      <trkpt lat="45.87542" lon="13.76131">
        <ele>66.95</ele>
        <time>2012-07-30T14:35:33Z</time>
      </trkpt>
      <trkpt lat="45.87541" lon="13.76146">
        <ele>66.47</ele>
        <time>2012-07-30T14:35:34Z</time>
      </trkpt>
      <trkpt lat="45.87535" lon="13.76307">
        <ele>67.43</ele>
        <time>2012-07-30T14:35:43Z</time>
      </trkpt>
      <trkpt lat="45.87531" lon="13.76323">
        <ele>68.39</ele>
        <time>2012-07-30T14:35:44Z</time>
      </trkpt>
      <trkpt lat="45.87525" lon="13.7634">
        <ele>69.35</ele>
        <time>2012-07-30T14:35:45Z</time>
      </trkpt>
      <trkpt lat="45.87518" lon="13.76356">
        <ele>69.83</ele>
        <time>2012-07-30T14:35:46Z</time>
      </trkpt>
      <trkpt lat="45.87509" lon="13.76373">
        <ele>71.27</ele>
        <time>2012-07-30T14:35:47Z</time>
      </trkpt>
      <trkpt lat="45.875" lon="13.76388">
        <ele>70.79</ele>
        <time>2012-07-30T14:35:48Z</time>
      </trkpt>
      <trkpt lat="45.8749" lon="13.76401">
        <ele>70.31</ele>
        <time>2012-07-30T14:35:49Z</time>
      </trkpt>
      <trkpt lat="45.8738" lon="13.76516">
        <ele>70.79</ele>
        <time>2012-07-30T14:35:58Z</time>
      </trkpt>
      <trkpt lat="45.87344" lon="13.76548">
        <ele>67.91</ele>
        <time>2012-07-30T14:36:01Z</time>
      </trkpt>
      <trkpt lat="45.87278" lon="13.76593">
        <ele>68.87</ele>
        <time>2012-07-30T14:36:08Z</time>
      </trkpt>
      <trkpt lat="45.87258" lon="13.76603">
        <ele>69.83</ele>
        <time>2012-07-30T14:36:13Z</time>
      </trkpt>
      <trkpt lat="45.87257" lon="13.76605">
        <ele>69.83</ele>
        <time>2012-07-30T14:36:14Z</time>
      </trkpt>
      <trkpt lat="45.87258" lon="13.76608">
        <ele>68.87</ele>
        <time>2012-07-30T14:36:25Z</time>
      </trkpt>
      <trkpt lat="45.87258" lon="13.76607">
        <ele>68.87</ele>
        <time>2012-07-30T14:36:43Z</time>
      </trkpt>
      <trkpt lat="45.87259" lon="13.7661">
        <ele>68.87</ele>
        <time>2012-07-30T14:36:44Z</time>
      </trkpt>
      <trkpt lat="45.87261" lon="13.76612">
        <ele>68.87</ele>
        <time>2012-07-30T14:36:45Z</time>
      </trkpt>
      <trkpt lat="45.87268" lon="13.76608">
        <ele>69.35</ele>
        <time>2012-07-30T14:36:47Z</time>
      </trkpt>
      <trkpt lat="45.87275" lon="13.76601">
        <ele>69.35</ele>
        <time>2012-07-30T14:36:48Z</time>
      </trkpt>
      <trkpt lat="45.87318" lon="13.76571">
        <ele>67.91</ele>
        <time>2012-07-30T14:36:52Z</time>
      </trkpt>
      <trkpt lat="45.87453" lon="13.76448">
        <ele>70.31</ele>
        <time>2012-07-30T14:37:02Z</time>
      </trkpt>
      <trkpt lat="45.87467" lon="13.76433">
        <ele>70.79</ele>
        <time>2012-07-30T14:37:03Z</time>
      </trkpt>
      <trkpt lat="45.87517" lon="13.76365">
        <ele>68.87</ele>
        <time>2012-07-30T14:37:07Z</time>
      </trkpt>
      <trkpt lat="45.87526" lon="13.76345">
        <ele>68.39</ele>
        <time>2012-07-30T14:37:08Z</time>
      </trkpt>
      <trkpt lat="45.87533" lon="13.76324">
        <ele>69.35</ele>
        <time>2012-07-30T14:37:09Z</time>
      </trkpt>
      <trkpt lat="45.87539" lon="13.76301">
        <ele>70.31</ele>
        <time>2012-07-30T14:37:10Z</time>
      </trkpt>
      <trkpt lat="45.87542" lon="13.76276">
        <ele>69.83</ele>
        <time>2012-07-30T14:37:11Z</time>
      </trkpt>
      <trkpt lat="45.87544" lon="13.7625">
        <ele>70.79</ele>
        <time>2012-07-30T14:37:12Z</time>
      </trkpt>
      <trkpt lat="45.87544" lon="13.76224">
        <ele>70.31</ele>
        <time>2012-07-30T14:37:13Z</time>
      </trkpt>
      <trkpt lat="45.87546" lon="13.76123">
        <ele>68.39</ele>
        <time>2012-07-30T14:37:17Z</time>
      </trkpt>
      <trkpt lat="45.87551" lon="13.76098">
        <ele>68.87</ele>
        <time>2012-07-30T14:37:18Z</time>
      </trkpt>
      <trkpt lat="45.87557" lon="13.76074">
        <ele>68.87</ele>
        <time>2012-07-30T14:37:19Z</time>
      </trkpt>
      <trkpt lat="45.87567" lon="13.76051">
        <ele>67.91</ele>
        <time>2012-07-30T14:37:20Z</time>
      </trkpt>
      <trkpt lat="45.87577" lon="13.76029">
        <ele>68.87</ele>
        <time>2012-07-30T14:37:21Z</time>
      </trkpt>
      <trkpt lat="45.87587" lon="13.76008">
        <ele>68.39</ele>
        <time>2012-07-30T14:37:22Z</time>
      </trkpt>
      <trkpt lat="45.87595" lon="13.75984">
        <ele>69.35</ele>
        <time>2012-07-30T14:37:23Z</time>
      </trkpt>
      <trkpt lat="45.876" lon="13.75958">
        <ele>70.31</ele>
        <time>2012-07-30T14:37:24Z</time>
      </trkpt>
      <trkpt lat="45.87603" lon="13.75932">
        <ele>71.76</ele>
        <time>2012-07-30T14:37:25Z</time>
      </trkpt>
      <trkpt lat="45.87604" lon="13.75906">
        <ele>72.72</ele>
        <time>2012-07-30T14:37:26Z</time>
      </trkpt>
      <trkpt lat="45.87606" lon="13.75881">
        <ele>72.24</ele>
        <time>2012-07-30T14:37:27Z</time>
      </trkpt>
      <trkpt lat="45.87607" lon="13.75839">
        <ele>71.27</ele>
        <time>2012-07-30T14:37:29Z</time>
      </trkpt>
      <trkpt lat="45.87605" lon="13.75821">
        <ele>71.27</ele>
        <time>2012-07-30T14:37:30Z</time>
      </trkpt>
      <trkpt lat="45.87599" lon="13.75805">
        <ele>73.2</ele>
        <time>2012-07-30T14:37:31Z</time>
      </trkpt>
      <trkpt lat="45.87591" lon="13.75793">
        <ele>72.72</ele>
        <time>2012-07-30T14:37:32Z</time>
      </trkpt>
      <trkpt lat="45.87584" lon="13.75782">
        <ele>71.76</ele>
        <time>2012-07-30T14:37:33Z</time>
      </trkpt>
      <trkpt lat="45.87581" lon="13.75772">
        <ele>71.27</ele>
        <time>2012-07-30T14:37:34Z</time>
      </trkpt>
      <trkpt lat="45.87579" lon="13.75762">
        <ele>71.27</ele>
        <time>2012-07-30T14:37:35Z</time>
      </trkpt>
      <trkpt lat="45.87577" lon="13.75752">
        <ele>71.27</ele>
        <time>2012-07-30T14:37:36Z</time>
      </trkpt>
      <trkpt lat="45.87581" lon="13.75716">
        <ele>72.24</ele>
        <time>2012-07-30T14:37:39Z</time>
      </trkpt>
      <trkpt lat="45.87587" lon="13.757">
        <ele>71.27</ele>
        <time>2012-07-30T14:37:40Z</time>
      </trkpt>
      <trkpt lat="45.87595" lon="13.75682">
        <ele>71.27</ele>
        <time>2012-07-30T14:37:41Z</time>
      </trkpt>
      <trkpt lat="45.87609" lon="13.75656">
        <ele>71.27</ele>
        <time>2012-07-30T14:37:42Z</time>
      </trkpt>
      <trkpt lat="45.87621" lon="13.75633">
        <ele>69.83</ele>
        <time>2012-07-30T14:37:43Z</time>
      </trkpt>
      <trkpt lat="45.87638" lon="13.75588">
        <ele>69.35</ele>
        <time>2012-07-30T14:37:45Z</time>
      </trkpt>
      <trkpt lat="45.87644" lon="13.75564">
        <ele>69.35</ele>
        <time>2012-07-30T14:37:46Z</time>
      </trkpt>
      <trkpt lat="45.87647" lon="13.7554">
        <ele>69.35</ele>
        <time>2012-07-30T14:37:47Z</time>
      </trkpt>
      <trkpt lat="45.87649" lon="13.75516">
        <ele>68.87</ele>
        <time>2012-07-30T14:37:48Z</time>
      </trkpt>
      <trkpt lat="45.87653" lon="13.75445">
        <ele>69.35</ele>
        <time>2012-07-30T14:37:51Z</time>
      </trkpt>
      <trkpt lat="45.87657" lon="13.75422">
        <ele>69.35</ele>
        <time>2012-07-30T14:37:52Z</time>
      </trkpt>
      <trkpt lat="45.87663" lon="13.75401">
        <ele>69.35</ele>
        <time>2012-07-30T14:37:53Z</time>
      </trkpt>
      <trkpt lat="45.87671" lon="13.7538">
        <ele>69.83</ele>
        <time>2012-07-30T14:37:54Z</time>
      </trkpt>
      <trkpt lat="45.87681" lon="13.75359">
        <ele>69.83</ele>
        <time>2012-07-30T14:37:55Z</time>
      </trkpt>
      <trkpt lat="45.87746" lon="13.7524">
        <ele>70.31</ele>
        <time>2012-07-30T14:38:01Z</time>
      </trkpt>
      <trkpt lat="45.87754" lon="13.75224">
        <ele>70.79</ele>
        <time>2012-07-30T14:38:02Z</time>
      </trkpt>
      <trkpt lat="45.87761" lon="13.75206">
        <ele>71.27</ele>
        <time>2012-07-30T14:38:03Z</time>
      </trkpt>
      <trkpt lat="45.87766" lon="13.75187">
        <ele>71.27</ele>
        <time>2012-07-30T14:38:04Z</time>
      </trkpt>
      <trkpt lat="45.8777" lon="13.75168">
        <ele>71.27</ele>
        <time>2012-07-30T14:38:05Z</time>
      </trkpt>
      <trkpt lat="45.87773" lon="13.75146">
        <ele>72.72</ele>
        <time>2012-07-30T14:38:06Z</time>
      </trkpt>
      <trkpt lat="45.87774" lon="13.75123">
        <ele>72.72</ele>
        <time>2012-07-30T14:38:07Z</time>
      </trkpt>
      <trkpt lat="45.87773" lon="13.751">
        <ele>73.2</ele>
        <time>2012-07-30T14:38:08Z</time>
      </trkpt>
      <trkpt lat="45.87773" lon="13.75051">
        <ele>73.2</ele>
        <time>2012-07-30T14:38:10Z</time>
      </trkpt>
      <trkpt lat="45.87775" lon="13.75025">
        <ele>72.72</ele>
        <time>2012-07-30T14:38:11Z</time>
      </trkpt>
      <trkpt lat="45.87779" lon="13.75">
        <ele>71.76</ele>
        <time>2012-07-30T14:38:12Z</time>
      </trkpt>
      <trkpt lat="45.87783" lon="13.74975">
        <ele>71.76</ele>
        <time>2012-07-30T14:38:13Z</time>
      </trkpt>
      <trkpt lat="45.87789" lon="13.74925">
        <ele>70.31</ele>
        <time>2012-07-30T14:38:15Z</time>
      </trkpt>
      <trkpt lat="45.8779" lon="13.749">
        <ele>69.35</ele>
        <time>2012-07-30T14:38:16Z</time>
      </trkpt>
      <trkpt lat="45.87789" lon="13.74876">
        <ele>69.35</ele>
        <time>2012-07-30T14:38:17Z</time>
      </trkpt>
      <trkpt lat="45.87796" lon="13.74732">
        <ele>67.91</ele>
        <time>2012-07-30T14:38:24Z</time>
      </trkpt>
      <trkpt lat="45.87799" lon="13.74718">
        <ele>66.47</ele>
        <time>2012-07-30T14:38:25Z</time>
      </trkpt>
      <trkpt lat="45.87802" lon="13.74708">
        <ele>65.99</ele>
        <time>2012-07-30T14:38:26Z</time>
      </trkpt>
      <trkpt lat="45.87804" lon="13.747">
        <ele>65.99</ele>
        <time>2012-07-30T14:38:27Z</time>
      </trkpt>
      <trkpt lat="45.87807" lon="13.74695">
        <ele>65.51</ele>
        <time>2012-07-30T14:38:28Z</time>
      </trkpt>
      <trkpt lat="45.87809" lon="13.7469">
        <ele>65.51</ele>
        <time>2012-07-30T14:38:29Z</time>
      </trkpt>
      <trkpt lat="45.8781" lon="13.74687">
        <ele>65.03</ele>
        <time>2012-07-30T14:38:30Z</time>
      </trkpt>
      <trkpt lat="45.8781" lon="13.74684">
        <ele>65.51</ele>
        <time>2012-07-30T14:38:31Z</time>
      </trkpt>
      <trkpt lat="45.87809" lon="13.74681">
        <ele>65.99</ele>
        <time>2012-07-30T14:38:36Z</time>
      </trkpt>
      <trkpt lat="45.87804" lon="13.7468">
        <ele>65.99</ele>
        <time>2012-07-30T14:38:39Z</time>
      </trkpt>
      <trkpt lat="45.878" lon="13.74689">
        <ele>65.51</ele>
        <time>2012-07-30T14:38:48Z</time>
      </trkpt>
      <trkpt lat="45.87801" lon="13.7469">
        <ele>65.99</ele>
        <time>2012-07-30T14:39:13Z</time>
      </trkpt>
      <trkpt lat="45.87803" lon="13.7469">
        <ele>66.47</ele>
        <time>2012-07-30T14:39:53Z</time>
      </trkpt>
      <trkpt lat="45.87803" lon="13.7469">
        <ele>65.99</ele>
        <time>2012-07-30T14:40:21Z</time>
      </trkpt>
      <trkpt lat="45.87802" lon="13.7469">
        <ele>66.47</ele>
        <time>2012-07-30T14:40:51Z</time>
      </trkpt>
      <trkpt lat="45.87802" lon="13.7469">
        <ele>65.99</ele>
        <time>2012-07-30T14:41:19Z</time>
      </trkpt>
      <trkpt lat="45.87802" lon="13.7469">
        <ele>66.47</ele>
        <time>2012-07-30T14:41:50Z</time>
      </trkpt>
      <trkpt lat="45.87802" lon="13.7469">
        <ele>65.99</ele>
        <time>2012-07-30T14:42:08Z</time>
      </trkpt>
      <trkpt lat="45.87801" lon="13.7469">
        <ele>65.99</ele>
        <time>2012-07-30T14:42:14Z</time>
      </trkpt>
      <trkpt lat="45.878" lon="13.74705">
        <ele>66.47</ele>
        <time>2012-07-30T14:42:18Z</time>
      </trkpt>
      <trkpt lat="45.87799" lon="13.74714">
        <ele>67.43</ele>
        <time>2012-07-30T14:42:19Z</time>
      </trkpt>
      <trkpt lat="45.87797" lon="13.74726">
        <ele>67.43</ele>
        <time>2012-07-30T14:42:20Z</time>
      </trkpt>
      <trkpt lat="45.87788" lon="13.7485">
        <ele>69.35</ele>
        <time>2012-07-30T14:42:27Z</time>
      </trkpt>
      <trkpt lat="45.87775" lon="13.75032">
        <ele>72.24</ele>
        <time>2012-07-30T14:42:35Z</time>
      </trkpt>
      <trkpt lat="45.87774" lon="13.75057">
        <ele>73.2</ele>
        <time>2012-07-30T14:42:36Z</time>
      </trkpt>
      <trkpt lat="45.87774" lon="13.75155">
        <ele>74.16</ele>
        <time>2012-07-30T14:42:40Z</time>
      </trkpt>
      <trkpt lat="45.87772" lon="13.75178">
        <ele>75.12</ele>
        <time>2012-07-30T14:42:41Z</time>
      </trkpt>
      <trkpt lat="45.87767" lon="13.752">
        <ele>75.12</ele>
        <time>2012-07-30T14:42:42Z</time>
      </trkpt>
      <trkpt lat="45.8776" lon="13.75222">
        <ele>75.12</ele>
        <time>2012-07-30T14:42:43Z</time>
      </trkpt>
      <trkpt lat="45.87751" lon="13.75244">
        <ele>75.6</ele>
        <time>2012-07-30T14:42:44Z</time>
      </trkpt>
      <trkpt lat="45.87739" lon="13.75265">
        <ele>75.6</ele>
        <time>2012-07-30T14:42:45Z</time>
      </trkpt>
      <trkpt lat="45.87693" lon="13.75347">
        <ele>72.24</ele>
        <time>2012-07-30T14:42:49Z</time>
      </trkpt>
      <trkpt lat="45.87663" lon="13.75406">
        <ele>71.27</ele>
        <time>2012-07-30T14:42:52Z</time>
      </trkpt>
      <trkpt lat="45.87655" lon="13.75427">
        <ele>71.76</ele>
        <time>2012-07-30T14:42:53Z</time>
      </trkpt>
      <trkpt lat="45.87651" lon="13.7545">
        <ele>71.76</ele>
        <time>2012-07-30T14:42:54Z</time>
      </trkpt>
      <trkpt lat="45.8765" lon="13.75475">
        <ele>71.76</ele>
        <time>2012-07-30T14:42:55Z</time>
      </trkpt>
      <trkpt lat="45.8765" lon="13.755">
        <ele>71.76</ele>
        <time>2012-07-30T14:42:56Z</time>
      </trkpt>
      <trkpt lat="45.87645" lon="13.75572">
        <ele>72.24</ele>
        <time>2012-07-30T14:42:59Z</time>
      </trkpt>
      <trkpt lat="45.87639" lon="13.75595">
        <ele>72.24</ele>
        <time>2012-07-30T14:43:00Z</time>
      </trkpt>
      <trkpt lat="45.87632" lon="13.75617">
        <ele>73.68</ele>
        <time>2012-07-30T14:43:01Z</time>
      </trkpt>
      <trkpt lat="45.8758" lon="13.75749">
        <ele>73.68</ele>
        <time>2012-07-30T14:43:08Z</time>
      </trkpt>
      <trkpt lat="45.87578" lon="13.75763">
        <ele>73.68</ele>
        <time>2012-07-30T14:43:09Z</time>
      </trkpt>
      <trkpt lat="45.87579" lon="13.75776">
        <ele>73.68</ele>
        <time>2012-07-30T14:43:10Z</time>
      </trkpt>
      <trkpt lat="45.87584" lon="13.75788">
        <ele>74.16</ele>
        <time>2012-07-30T14:43:11Z</time>
      </trkpt>
      <trkpt lat="45.87591" lon="13.75798">
        <ele>74.16</ele>
        <time>2012-07-30T14:43:12Z</time>
      </trkpt>
      <trkpt lat="45.87597" lon="13.75809">
        <ele>73.2</ele>
        <time>2012-07-30T14:43:13Z</time>
      </trkpt>
      <trkpt lat="45.87602" lon="13.75825">
        <ele>73.68</ele>
        <time>2012-07-30T14:43:14Z</time>
      </trkpt>
      <trkpt lat="45.87605" lon="13.75845">
        <ele>74.64</ele>
        <time>2012-07-30T14:43:15Z</time>
      </trkpt>
      <trkpt lat="45.87604" lon="13.75866">
        <ele>73.2</ele>
        <time>2012-07-30T14:43:16Z</time>
      </trkpt>
      <trkpt lat="45.87603" lon="13.75889">
        <ele>73.2</ele>
        <time>2012-07-30T14:43:17Z</time>
      </trkpt>
      <trkpt lat="45.87593" lon="13.75984">
        <ele>73.2</ele>
        <time>2012-07-30T14:43:21Z</time>
      </trkpt>
      <trkpt lat="45.87586" lon="13.76007">
        <ele>72.72</ele>
        <time>2012-07-30T14:43:22Z</time>
      </trkpt>
      <trkpt lat="45.87577" lon="13.76028">
        <ele>71.76</ele>
        <time>2012-07-30T14:43:23Z</time>
      </trkpt>
      <trkpt lat="45.87567" lon="13.76048">
        <ele>71.76</ele>
        <time>2012-07-30T14:43:24Z</time>
      </trkpt>
      <trkpt lat="45.87557" lon="13.76069">
        <ele>71.27</ele>
        <time>2012-07-30T14:43:25Z</time>
      </trkpt>
      <trkpt lat="45.8755" lon="13.76091">
        <ele>71.27</ele>
        <time>2012-07-30T14:43:26Z</time>
      </trkpt>
      <trkpt lat="45.87546" lon="13.76115">
        <ele>71.27</ele>
        <time>2012-07-30T14:43:27Z</time>
      </trkpt>
      <trkpt lat="45.87543" lon="13.76141">
        <ele>72.24</ele>
        <time>2012-07-30T14:43:28Z</time>
      </trkpt>
      <trkpt lat="45.87542" lon="13.76167">
        <ele>72.24</ele>
        <time>2012-07-30T14:43:29Z</time>
      </trkpt>
      <trkpt lat="45.87542" lon="13.76193">
        <ele>71.76</ele>
        <time>2012-07-30T14:43:30Z</time>
      </trkpt>
      <trkpt lat="45.87538" lon="13.76294">
        <ele>73.68</ele>
        <time>2012-07-30T14:43:34Z</time>
      </trkpt>
      <trkpt lat="45.87532" lon="13.76318">
        <ele>72.24</ele>
        <time>2012-07-30T14:43:35Z</time>
      </trkpt>
      <trkpt lat="45.87525" lon="13.7634">
        <ele>72.72</ele>
        <time>2012-07-30T14:43:36Z</time>
      </trkpt>
      <trkpt lat="45.87515" lon="13.76361">
        <ele>73.68</ele>
        <time>2012-07-30T14:43:37Z</time>
      </trkpt>
      <trkpt lat="45.87504" lon="13.76381">
        <ele>74.16</ele>
        <time>2012-07-30T14:43:38Z</time>
      </trkpt>
      <trkpt lat="45.87492" lon="13.764">
        <ele>74.64</ele>
        <time>2012-07-30T14:43:39Z</time>
      </trkpt>
      <trkpt lat="45.87478" lon="13.76418">
        <ele>74.16</ele>
        <time>2012-07-30T14:43:40Z</time>
      </trkpt>
      <trkpt lat="45.87464" lon="13.76435">
        <ele>75.12</ele>
        <time>2012-07-30T14:43:41Z</time>
      </trkpt>
      <trkpt lat="45.87448" lon="13.7645">
        <ele>75.12</ele>
        <time>2012-07-30T14:43:42Z</time>
      </trkpt>
      <trkpt lat="45.87272" lon="13.76599">
        <ele>77.04</ele>
        <time>2012-07-30T14:43:53Z</time>
      </trkpt>
      <trkpt lat="45.87259" lon="13.76613">
        <ele>77.04</ele>
        <time>2012-07-30T14:43:54Z</time>
      </trkpt>
      <trkpt lat="45.87246" lon="13.76629">
        <ele>77.52</ele>
        <time>2012-07-30T14:43:55Z</time>
      </trkpt>
      <trkpt lat="45.87234" lon="13.76647">
        <ele>78</ele>
        <time>2012-07-30T14:43:56Z</time>
      </trkpt>
      <trkpt lat="45.87222" lon="13.76666">
        <ele>77.04</ele>
        <time>2012-07-30T14:43:57Z</time>
      </trkpt>
      <trkpt lat="45.87131" lon="13.76873">
        <ele>76.56</ele>
        <time>2012-07-30T14:44:06Z</time>
      </trkpt>
      <trkpt lat="45.87017" lon="13.77135">
        <ele>74.64</ele>
        <time>2012-07-30T14:44:17Z</time>
      </trkpt>
      <trkpt lat="45.86918" lon="13.77259">
        <ele>72.72</ele>
        <time>2012-07-30T14:44:24Z</time>
      </trkpt>
      <trkpt lat="45.86892" lon="13.77292">
        <ele>73.68</ele>
        <time>2012-07-30T14:44:26Z</time>
      </trkpt>
      <trkpt lat="45.86881" lon="13.77313">
        <ele>75.12</ele>
        <time>2012-07-30T14:44:27Z</time>
      </trkpt>
      <trkpt lat="45.8687" lon="13.77335">
        <ele>76.08</ele>
        <time>2012-07-30T14:44:28Z</time>
      </trkpt>
      <trkpt lat="45.86861" lon="13.77358">
        <ele>75.6</ele>
        <time>2012-07-30T14:44:29Z</time>
      </trkpt>
      <trkpt lat="45.86831" lon="13.77428">
        <ele>77.04</ele>
        <time>2012-07-30T14:44:32Z</time>
      </trkpt>
      <trkpt lat="45.86741" lon="13.77646">
        <ele>77.52</ele>
        <time>2012-07-30T14:44:41Z</time>
      </trkpt>
      <trkpt lat="45.86697" lon="13.77856">
        <ele>76.56</ele>
        <time>2012-07-30T14:44:49Z</time>
      </trkpt>
      <trkpt lat="45.86681" lon="13.77946">
        <ele>78.97</ele>
        <time>2012-07-30T14:44:53Z</time>
      </trkpt>
      <trkpt lat="45.86673" lon="13.77967">
        <ele>78.48</ele>
        <time>2012-07-30T14:44:54Z</time>
      </trkpt>
      <trkpt lat="45.86663" lon="13.77985">
        <ele>79.45</ele>
        <time>2012-07-30T14:44:55Z</time>
      </trkpt>
      <trkpt lat="45.86651" lon="13.78002">
        <ele>78.48</ele>
        <time>2012-07-30T14:44:56Z</time>
      </trkpt>
      <trkpt lat="45.86638" lon="13.78017">
        <ele>78.48</ele>
        <time>2012-07-30T14:44:57Z</time>
      </trkpt>
      <trkpt lat="45.86623" lon="13.78031">
        <ele>78.97</ele>
        <time>2012-07-30T14:44:58Z</time>
      </trkpt>
      <trkpt lat="45.86608" lon="13.78044">
        <ele>79.45</ele>
        <time>2012-07-30T14:44:59Z</time>
      </trkpt>
      <trkpt lat="45.86592" lon="13.78054">
        <ele>78.97</ele>
        <time>2012-07-30T14:45:00Z</time>
      </trkpt>
      <trkpt lat="45.86472" lon="13.78153">
        <ele>77.04</ele>
        <time>2012-07-30T14:45:08Z</time>
      </trkpt>
      <trkpt lat="45.86457" lon="13.78163">
        <ele>78</ele>
        <time>2012-07-30T14:45:09Z</time>
      </trkpt>
      <trkpt lat="45.86441" lon="13.7817">
        <ele>77.04</ele>
        <time>2012-07-30T14:45:10Z</time>
      </trkpt>
      <trkpt lat="45.8633" lon="13.78224">
        <ele>77.04</ele>
        <time>2012-07-30T14:45:17Z</time>
      </trkpt>
      <trkpt lat="45.86318" lon="13.78237">
        <ele>76.08</ele>
        <time>2012-07-30T14:45:18Z</time>
      </trkpt>
      <trkpt lat="45.86255" lon="13.78334">
        <ele>78</ele>
        <time>2012-07-30T14:45:24Z</time>
      </trkpt>
      <trkpt lat="45.86188" lon="13.78462">
        <ele>78.48</ele>
        <time>2012-07-30T14:45:32Z</time>
      </trkpt>
      <trkpt lat="45.86177" lon="13.78473">
        <ele>78.97</ele>
        <time>2012-07-30T14:45:33Z</time>
      </trkpt>
      <trkpt lat="45.86166" lon="13.78483">
        <ele>78.97</ele>
        <time>2012-07-30T14:45:34Z</time>
      </trkpt>
      <trkpt lat="45.86154" lon="13.7849">
        <ele>79.93</ele>
        <time>2012-07-30T14:45:35Z</time>
      </trkpt>
      <trkpt lat="45.86143" lon="13.78497">
        <ele>79.93</ele>
        <time>2012-07-30T14:45:36Z</time>
      </trkpt>
      <trkpt lat="45.86131" lon="13.78505">
        <ele>80.89</ele>
        <time>2012-07-30T14:45:37Z</time>
      </trkpt>
      <trkpt lat="45.86121" lon="13.78516">
        <ele>81.37</ele>
        <time>2012-07-30T14:45:38Z</time>
      </trkpt>
      <trkpt lat="45.86111" lon="13.78529">
        <ele>80.89</ele>
        <time>2012-07-30T14:45:39Z</time>
      </trkpt>
      <trkpt lat="45.86102" lon="13.78544">
        <ele>81.37</ele>
        <time>2012-07-30T14:45:40Z</time>
      </trkpt>
      <trkpt lat="45.86094" lon="13.78558">
        <ele>81.37</ele>
        <time>2012-07-30T14:45:41Z</time>
      </trkpt>
      <trkpt lat="45.8606" lon="13.78614">
        <ele>82.81</ele>
        <time>2012-07-30T14:45:45Z</time>
      </trkpt>
      <trkpt lat="45.85991" lon="13.7868">
        <ele>81.37</ele>
        <time>2012-07-30T14:45:51Z</time>
      </trkpt>
      <trkpt lat="45.85946" lon="13.78715">
        <ele>79.93</ele>
        <time>2012-07-30T14:45:55Z</time>
      </trkpt>
      <trkpt lat="45.85912" lon="13.78732">
        <ele>78.48</ele>
        <time>2012-07-30T14:45:58Z</time>
      </trkpt>
      <trkpt lat="45.85903" lon="13.7874">
        <ele>78.97</ele>
        <time>2012-07-30T14:45:59Z</time>
      </trkpt>
      <trkpt lat="45.85894" lon="13.78751">
        <ele>78.48</ele>
        <time>2012-07-30T14:46:00Z</time>
      </trkpt>
      <trkpt lat="45.85888" lon="13.78765">
        <ele>78.48</ele>
        <time>2012-07-30T14:46:01Z</time>
      </trkpt>
      <trkpt lat="45.85883" lon="13.78782">
        <ele>79.45</ele>
        <time>2012-07-30T14:46:02Z</time>
      </trkpt>
      <trkpt lat="45.85878" lon="13.788">
        <ele>79.93</ele>
        <time>2012-07-30T14:46:03Z</time>
      </trkpt>
      <trkpt lat="45.85873" lon="13.78819">
        <ele>79.93</ele>
        <time>2012-07-30T14:46:04Z</time>
      </trkpt>
      <trkpt lat="45.85834" lon="13.78981">
        <ele>82.81</ele>
        <time>2012-07-30T14:46:12Z</time>
      </trkpt>
      <trkpt lat="45.85802" lon="13.79118">
        <ele>84.25</ele>
        <time>2012-07-30T14:46:18Z</time>
      </trkpt>
      <trkpt lat="45.85772" lon="13.79205">
        <ele>87.62</ele>
        <time>2012-07-30T14:46:22Z</time>
      </trkpt>
      <trkpt lat="45.8574" lon="13.79279">
        <ele>89.06</ele>
        <time>2012-07-30T14:46:26Z</time>
      </trkpt>
      <trkpt lat="45.85645" lon="13.79491">
        <ele>91.46</ele>
        <time>2012-07-30T14:46:37Z</time>
      </trkpt>
      <trkpt lat="45.85597" lon="13.79651">
        <ele>95.31</ele>
        <time>2012-07-30T14:46:43Z</time>
      </trkpt>
      <trkpt lat="45.85573" lon="13.79731">
        <ele>97.23</ele>
        <time>2012-07-30T14:46:46Z</time>
      </trkpt>
      <trkpt lat="45.85541" lon="13.79862">
        <ele>94.83</ele>
        <time>2012-07-30T14:46:51Z</time>
      </trkpt>
      <trkpt lat="45.85533" lon="13.79885">
        <ele>94.35</ele>
        <time>2012-07-30T14:46:52Z</time>
      </trkpt>
      <trkpt lat="45.85524" lon="13.79906">
        <ele>94.35</ele>
        <time>2012-07-30T14:46:53Z</time>
      </trkpt>
      <trkpt lat="45.85513" lon="13.79927">
        <ele>94.35</ele>
        <time>2012-07-30T14:46:54Z</time>
      </trkpt>
      <trkpt lat="45.855" lon="13.79947">
        <ele>93.87</ele>
        <time>2012-07-30T14:46:55Z</time>
      </trkpt>
      <trkpt lat="45.85439" lon="13.80038">
        <ele>90.5</ele>
        <time>2012-07-30T14:47:00Z</time>
      </trkpt>
      <trkpt lat="45.85429" lon="13.80055">
        <ele>90.98</ele>
        <time>2012-07-30T14:47:01Z</time>
      </trkpt>
      <trkpt lat="45.8529" lon="13.80273">
        <ele>89.06</ele>
        <time>2012-07-30T14:47:13Z</time>
      </trkpt>
      <trkpt lat="45.85261" lon="13.80334">
        <ele>87.62</ele>
        <time>2012-07-30T14:47:16Z</time>
      </trkpt>
      <trkpt lat="45.8522" lon="13.80421">
        <ele>86.66</ele>
        <time>2012-07-30T14:47:21Z</time>
      </trkpt>
      <trkpt lat="45.85202" lon="13.80445">
        <ele>85.21</ele>
        <time>2012-07-30T14:47:23Z</time>
      </trkpt>
      <trkpt lat="45.85193" lon="13.80453">
        <ele>85.21</ele>
        <time>2012-07-30T14:47:24Z</time>
      </trkpt>
      <trkpt lat="45.85183" lon="13.80458">
        <ele>85.21</ele>
        <time>2012-07-30T14:47:25Z</time>
      </trkpt>
      <trkpt lat="45.85174" lon="13.80459">
        <ele>85.21</ele>
        <time>2012-07-30T14:47:26Z</time>
      </trkpt>
      <trkpt lat="45.85164" lon="13.80458">
        <ele>84.73</ele>
        <time>2012-07-30T14:47:27Z</time>
      </trkpt>
      <trkpt lat="45.85154" lon="13.80454">
        <ele>86.18</ele>
        <time>2012-07-30T14:47:28Z</time>
      </trkpt>
      <trkpt lat="45.85144" lon="13.80447">
        <ele>86.18</ele>
        <time>2012-07-30T14:47:29Z</time>
      </trkpt>
      <trkpt lat="45.85134" lon="13.80437">
        <ele>86.66</ele>
        <time>2012-07-30T14:47:30Z</time>
      </trkpt>
      <trkpt lat="45.85126" lon="13.80427">
        <ele>86.66</ele>
        <time>2012-07-30T14:47:31Z</time>
      </trkpt>
      <trkpt lat="45.85118" lon="13.80416">
        <ele>87.62</ele>
        <time>2012-07-30T14:47:32Z</time>
      </trkpt>
      <trkpt lat="45.85111" lon="13.80405">
        <ele>87.14</ele>
        <time>2012-07-30T14:47:33Z</time>
      </trkpt>
      <trkpt lat="45.85091" lon="13.80379">
        <ele>86.66</ele>
        <time>2012-07-30T14:47:39Z</time>
      </trkpt>
      <trkpt lat="45.8509" lon="13.80382">
        <ele>88.1</ele>
        <time>2012-07-30T14:47:49Z</time>
      </trkpt>
      <trkpt lat="45.85094" lon="13.80389">
        <ele>86.66</ele>
        <time>2012-07-30T14:47:51Z</time>
      </trkpt>
      <trkpt lat="45.85099" lon="13.80393">
        <ele>86.18</ele>
        <time>2012-07-30T14:47:52Z</time>
      </trkpt>
      <trkpt lat="45.85104" lon="13.80398">
        <ele>86.18</ele>
        <time>2012-07-30T14:47:53Z</time>
      </trkpt>
      <trkpt lat="45.8511" lon="13.80405">
        <ele>86.66</ele>
        <time>2012-07-30T14:47:54Z</time>
      </trkpt>
      <trkpt lat="45.85115" lon="13.80413">
        <ele>87.14</ele>
        <time>2012-07-30T14:47:55Z</time>
      </trkpt>
      <trkpt lat="45.8512" lon="13.80422">
        <ele>86.18</ele>
        <time>2012-07-30T14:47:56Z</time>
      </trkpt>
      <trkpt lat="45.85126" lon="13.80431">
        <ele>86.66</ele>
        <time>2012-07-30T14:47:57Z</time>
      </trkpt>
      <trkpt lat="45.85132" lon="13.80439">
        <ele>86.66</ele>
        <time>2012-07-30T14:47:58Z</time>
      </trkpt>
      <trkpt lat="45.85139" lon="13.80447">
        <ele>86.18</ele>
        <time>2012-07-30T14:47:59Z</time>
      </trkpt>
      <trkpt lat="45.85147" lon="13.80454">
        <ele>85.69</ele>
        <time>2012-07-30T14:48:00Z</time>
      </trkpt>
      <trkpt lat="45.85157" lon="13.80465">
        <ele>84.73</ele>
        <time>2012-07-30T14:48:02Z</time>
      </trkpt>
      <trkpt lat="45.8516" lon="13.80471">
        <ele>85.21</ele>
        <time>2012-07-30T14:48:03Z</time>
      </trkpt>
      <trkpt lat="45.8516" lon="13.80479">
        <ele>85.69</ele>
        <time>2012-07-30T14:48:04Z</time>
      </trkpt>
      <trkpt lat="45.85157" lon="13.80489">
        <ele>84.73</ele>
        <time>2012-07-30T14:48:05Z</time>
      </trkpt>
      <trkpt lat="45.85154" lon="13.80501">
        <ele>85.69</ele>
        <time>2012-07-30T14:48:06Z</time>
      </trkpt>
      <trkpt lat="45.85138" lon="13.80562">
        <ele>88.1</ele>
        <time>2012-07-30T14:48:10Z</time>
      </trkpt>
      <trkpt lat="45.85095" lon="13.80685">
        <ele>87.14</ele>
        <time>2012-07-30T14:48:19Z</time>
      </trkpt>
      <trkpt lat="45.85052" lon="13.80808">
        <ele>89.06</ele>
        <time>2012-07-30T14:48:28Z</time>
      </trkpt>
      <trkpt lat="45.85049" lon="13.80815">
        <ele>89.06</ele>
        <time>2012-07-30T14:48:29Z</time>
      </trkpt>
      <trkpt lat="45.85047" lon="13.80821">
        <ele>89.06</ele>
        <time>2012-07-30T14:48:30Z</time>
      </trkpt>
      <trkpt lat="45.85045" lon="13.80826">
        <ele>89.06</ele>
        <time>2012-07-30T14:48:31Z</time>
      </trkpt>
      <trkpt lat="45.85044" lon="13.8083">
        <ele>89.54</ele>
        <time>2012-07-30T14:48:32Z</time>
      </trkpt>
      <trkpt lat="45.85039" lon="13.8085">
        <ele>89.54</ele>
        <time>2012-07-30T14:48:37Z</time>
      </trkpt>
      <trkpt lat="45.8504" lon="13.80853">
        <ele>89.54</ele>
        <time>2012-07-30T14:48:38Z</time>
      </trkpt>
      <trkpt lat="45.85042" lon="13.80853">
        <ele>89.54</ele>
        <time>2012-07-30T14:48:39Z</time>
      </trkpt>
      <trkpt lat="45.85044" lon="13.80851">
        <ele>89.54</ele>
        <time>2012-07-30T14:48:40Z</time>
      </trkpt>
      <trkpt lat="45.85046" lon="13.80847">
        <ele>90.02</ele>
        <time>2012-07-30T14:48:41Z</time>
      </trkpt>
      <trkpt lat="45.85047" lon="13.8084">
        <ele>89.54</ele>
        <time>2012-07-30T14:48:42Z</time>
      </trkpt>
      <trkpt lat="45.85063" lon="13.80774">
        <ele>92.9</ele>
        <time>2012-07-30T14:48:46Z</time>
      </trkpt>
      <trkpt lat="45.85071" lon="13.80751">
        <ele>92.9</ele>
        <time>2012-07-30T14:48:47Z</time>
      </trkpt>
      <trkpt lat="45.85095" lon="13.80688">
        <ele>90.5</ele>
        <time>2012-07-30T14:48:50Z</time>
      </trkpt>
      <trkpt lat="45.85122" lon="13.80623">
        <ele>87.14</ele>
        <time>2012-07-30T14:48:54Z</time>
      </trkpt>
      <trkpt lat="45.85136" lon="13.80578">
        <ele>84.25</ele>
        <time>2012-07-30T14:49:00Z</time>
      </trkpt>
      <trkpt lat="45.85137" lon="13.80571">
        <ele>84.73</ele>
        <time>2012-07-30T14:49:08Z</time>
      </trkpt>
      <trkpt lat="45.85147" lon="13.80537">
        <ele>86.18</ele>
        <time>2012-07-30T14:49:11Z</time>
      </trkpt>
      <trkpt lat="45.85165" lon="13.80473">
        <ele>84.25</ele>
        <time>2012-07-30T14:49:18Z</time>
      </trkpt>
      <trkpt lat="45.85165" lon="13.80469">
        <ele>84.73</ele>
        <time>2012-07-30T14:49:19Z</time>
      </trkpt>
      <trkpt lat="45.85163" lon="13.80464">
        <ele>85.21</ele>
        <time>2012-07-30T14:49:20Z</time>
      </trkpt>
      <trkpt lat="45.85159" lon="13.8046">
        <ele>85.21</ele>
        <time>2012-07-30T14:49:21Z</time>
      </trkpt>
      <trkpt lat="45.85153" lon="13.80456">
        <ele>85.69</ele>
        <time>2012-07-30T14:49:22Z</time>
      </trkpt>
      <trkpt lat="45.85147" lon="13.8045">
        <ele>86.66</ele>
        <time>2012-07-30T14:49:23Z</time>
      </trkpt>
      <trkpt lat="45.85139" lon="13.80443">
        <ele>87.14</ele>
        <time>2012-07-30T14:49:24Z</time>
      </trkpt>
      <trkpt lat="45.85131" lon="13.80434">
        <ele>87.62</ele>
        <time>2012-07-30T14:49:25Z</time>
      </trkpt>
      <trkpt lat="45.85122" lon="13.80422">
        <ele>88.1</ele>
        <time>2012-07-30T14:49:26Z</time>
      </trkpt>
      <trkpt lat="45.85115" lon="13.8041">
        <ele>88.58</ele>
        <time>2012-07-30T14:49:27Z</time>
      </trkpt>
      <trkpt lat="45.85108" lon="13.80399">
        <ele>88.58</ele>
        <time>2012-07-30T14:49:28Z</time>
      </trkpt>
      <trkpt lat="45.85099" lon="13.80391">
        <ele>89.06</ele>
        <time>2012-07-30T14:49:29Z</time>
      </trkpt>
      <trkpt lat="45.85089" lon="13.80386">
        <ele>89.54</ele>
        <time>2012-07-30T14:49:30Z</time>
      </trkpt>
      <trkpt lat="45.85079" lon="13.80386">
        <ele>90.02</ele>
        <time>2012-07-30T14:49:31Z</time>
      </trkpt>
      <trkpt lat="45.85068" lon="13.80389">
        <ele>90.98</ele>
        <time>2012-07-30T14:49:32Z</time>
      </trkpt>
      <trkpt lat="45.85056" lon="13.80396">
        <ele>91.94</ele>
        <time>2012-07-30T14:49:33Z</time>
      </trkpt>
      <trkpt lat="45.85044" lon="13.80404">
        <ele>92.42</ele>
        <time>2012-07-30T14:49:34Z</time>
      </trkpt>
      <trkpt lat="45.84994" lon="13.80444">
        <ele>96.75</ele>
        <time>2012-07-30T14:49:38Z</time>
      </trkpt>
      <trkpt lat="45.84951" lon="13.80479">
        <ele>100.6</ele>
        <time>2012-07-30T14:49:41Z</time>
      </trkpt>
      <trkpt lat="45.84921" lon="13.80501">
        <ele>103.48</ele>
        <time>2012-07-30T14:49:43Z</time>
      </trkpt>
      <trkpt lat="45.84892" lon="13.80526">
        <ele>104.44</ele>
        <time>2012-07-30T14:49:45Z</time>
      </trkpt>
      <trkpt lat="45.84878" lon="13.80541">
        <ele>105.88</ele>
        <time>2012-07-30T14:49:46Z</time>
      </trkpt>
      <trkpt lat="45.84825" lon="13.80608">
        <ele>109.25</ele>
        <time>2012-07-30T14:49:50Z</time>
      </trkpt>
      <trkpt lat="45.84773" lon="13.80714">
        <ele>111.65</ele>
        <time>2012-07-30T14:49:55Z</time>
      </trkpt>
      <trkpt lat="45.84756" lon="13.80762">
        <ele>114.05</ele>
        <time>2012-07-30T14:49:57Z</time>
      </trkpt>
      <trkpt lat="45.84723" lon="13.80853">
        <ele>117.42</ele>
        <time>2012-07-30T14:50:01Z</time>
      </trkpt>
      <trkpt lat="45.84704" lon="13.80897">
        <ele>119.34</ele>
        <time>2012-07-30T14:50:03Z</time>
      </trkpt>
      <trkpt lat="45.84677" lon="13.80963">
        <ele>121.26</ele>
        <time>2012-07-30T14:50:06Z</time>
      </trkpt>
      <trkpt lat="45.84661" lon="13.81007">
        <ele>123.19</ele>
        <time>2012-07-30T14:50:08Z</time>
      </trkpt>
      <trkpt lat="45.84655" lon="13.81031">
        <ele>124.15</ele>
        <time>2012-07-30T14:50:09Z</time>
      </trkpt>
      <trkpt lat="45.84651" lon="13.81056">
        <ele>125.11</ele>
        <time>2012-07-30T14:50:10Z</time>
      </trkpt>
      <trkpt lat="45.84637" lon="13.81133">
        <ele>128.95</ele>
        <time>2012-07-30T14:50:13Z</time>
      </trkpt>
      <trkpt lat="45.84632" lon="13.81159">
        <ele>128.95</ele>
        <time>2012-07-30T14:50:14Z</time>
      </trkpt>
      <trkpt lat="45.84615" lon="13.81234">
        <ele>130.88</ele>
        <time>2012-07-30T14:50:17Z</time>
      </trkpt>
      <trkpt lat="45.84591" lon="13.81335">
        <ele>134.72</ele>
        <time>2012-07-30T14:50:21Z</time>
      </trkpt>
      <trkpt lat="45.84564" lon="13.81433">
        <ele>137.61</ele>
        <time>2012-07-30T14:50:25Z</time>
      </trkpt>
      <trkpt lat="45.84542" lon="13.81504">
        <ele>140.97</ele>
        <time>2012-07-30T14:50:28Z</time>
      </trkpt>
      <trkpt lat="45.84509" lon="13.81597">
        <ele>144.34</ele>
        <time>2012-07-30T14:50:32Z</time>
      </trkpt>
      <trkpt lat="45.84481" lon="13.81663">
        <ele>146.26</ele>
        <time>2012-07-30T14:50:35Z</time>
      </trkpt>
      <trkpt lat="45.84435" lon="13.81767">
        <ele>148.18</ele>
        <time>2012-07-30T14:50:40Z</time>
      </trkpt>
      <trkpt lat="45.84423" lon="13.81784">
        <ele>149.14</ele>
        <time>2012-07-30T14:50:41Z</time>
      </trkpt>
      <trkpt lat="45.84409" lon="13.818">
        <ele>148.66</ele>
        <time>2012-07-30T14:50:42Z</time>
      </trkpt>
      <trkpt lat="45.8437" lon="13.81845">
        <ele>148.18</ele>
        <time>2012-07-30T14:50:45Z</time>
      </trkpt>
      <trkpt lat="45.8436" lon="13.81864">
        <ele>148.18</ele>
        <time>2012-07-30T14:50:46Z</time>
      </trkpt>
      <trkpt lat="45.84338" lon="13.81903">
        <ele>152.99</ele>
        <time>2012-07-30T14:50:48Z</time>
      </trkpt>
      <trkpt lat="45.84313" lon="13.8194">
        <ele>156.35</ele>
        <time>2012-07-30T14:50:50Z</time>
      </trkpt>
      <trkpt lat="45.84274" lon="13.81995">
        <ele>161.16</ele>
        <time>2012-07-30T14:50:53Z</time>
      </trkpt>
      <trkpt lat="45.84234" lon="13.82048">
        <ele>164.04</ele>
        <time>2012-07-30T14:50:56Z</time>
      </trkpt>
      <trkpt lat="45.84205" lon="13.82081">
        <ele>164.52</ele>
        <time>2012-07-30T14:50:58Z</time>
      </trkpt>
      <trkpt lat="45.84164" lon="13.82136">
        <ele>166.45</ele>
        <time>2012-07-30T14:51:01Z</time>
      </trkpt>
      <trkpt lat="45.84149" lon="13.82152">
        <ele>166.93</ele>
        <time>2012-07-30T14:51:02Z</time>
      </trkpt>
      <trkpt lat="45.84102" lon="13.82204">
        <ele>169.81</ele>
        <time>2012-07-30T14:51:05Z</time>
      </trkpt>
      <trkpt lat="45.84058" lon="13.82267">
        <ele>173.66</ele>
        <time>2012-07-30T14:51:08Z</time>
      </trkpt>
      <trkpt lat="45.8403" lon="13.82308">
        <ele>177.98</ele>
        <time>2012-07-30T14:51:10Z</time>
      </trkpt>
      <trkpt lat="45.84017" lon="13.82328">
        <ele>177.98</ele>
        <time>2012-07-30T14:51:11Z</time>
      </trkpt>
      <trkpt lat="45.83994" lon="13.82369">
        <ele>181.35</ele>
        <time>2012-07-30T14:51:13Z</time>
      </trkpt>
      <trkpt lat="45.83963" lon="13.8244">
        <ele>184.23</ele>
        <time>2012-07-30T14:51:16Z</time>
      </trkpt>
      <trkpt lat="45.83935" lon="13.82514">
        <ele>188.56</ele>
        <time>2012-07-30T14:51:19Z</time>
      </trkpt>
      <trkpt lat="45.83908" lon="13.82603">
        <ele>191.44</ele>
        <time>2012-07-30T14:51:23Z</time>
      </trkpt>
      <trkpt lat="45.83891" lon="13.82646">
        <ele>194.32</ele>
        <time>2012-07-30T14:51:25Z</time>
      </trkpt>
      <trkpt lat="45.83841" lon="13.82747">
        <ele>196.73</ele>
        <time>2012-07-30T14:51:30Z</time>
      </trkpt>
      <trkpt lat="45.83826" lon="13.82784">
        <ele>197.69</ele>
        <time>2012-07-30T14:51:32Z</time>
      </trkpt>
      <trkpt lat="45.83806" lon="13.82822">
        <ele>197.69</ele>
        <time>2012-07-30T14:51:35Z</time>
      </trkpt>
      <trkpt lat="45.83793" lon="13.82837">
        <ele>198.65</ele>
        <time>2012-07-30T14:51:37Z</time>
      </trkpt>
      <trkpt lat="45.83786" lon="13.82842">
        <ele>199.13</ele>
        <time>2012-07-30T14:51:38Z</time>
      </trkpt>
      <trkpt lat="45.8378" lon="13.82849">
        <ele>200.57</ele>
        <time>2012-07-30T14:51:39Z</time>
      </trkpt>
      <trkpt lat="45.83775" lon="13.82859">
        <ele>201.53</ele>
        <time>2012-07-30T14:51:40Z</time>
      </trkpt>
      <trkpt lat="45.83769" lon="13.8287">
        <ele>203.94</ele>
        <time>2012-07-30T14:51:41Z</time>
      </trkpt>
      <trkpt lat="45.83754" lon="13.829">
        <ele>206.82</ele>
        <time>2012-07-30T14:51:43Z</time>
      </trkpt>
      <trkpt lat="45.83745" lon="13.82915">
        <ele>208.26</ele>
        <time>2012-07-30T14:51:44Z</time>
      </trkpt>
      <trkpt lat="45.83733" lon="13.82928">
        <ele>210.19</ele>
        <time>2012-07-30T14:51:45Z</time>
      </trkpt>
      <trkpt lat="45.83695" lon="13.82965">
        <ele>214.03</ele>
        <time>2012-07-30T14:51:48Z</time>
      </trkpt>
      <trkpt lat="45.83681" lon="13.82975">
        <ele>215.95</ele>
        <time>2012-07-30T14:51:49Z</time>
      </trkpt>
      <trkpt lat="45.83666" lon="13.82982">
        <ele>216.91</ele>
        <time>2012-07-30T14:51:50Z</time>
      </trkpt>
      <trkpt lat="45.83635" lon="13.82998">
        <ele>219.8</ele>
        <time>2012-07-30T14:51:52Z</time>
      </trkpt>
      <trkpt lat="45.8362" lon="13.8301">
        <ele>222.68</ele>
        <time>2012-07-30T14:51:53Z</time>
      </trkpt>
      <trkpt lat="45.83577" lon="13.83047">
        <ele>225.57</ele>
        <time>2012-07-30T14:51:56Z</time>
      </trkpt>
      <trkpt lat="45.83538" lon="13.83077">
        <ele>227.49</ele>
        <time>2012-07-30T14:51:59Z</time>
      </trkpt>
      <trkpt lat="45.83526" lon="13.83091">
        <ele>229.41</ele>
        <time>2012-07-30T14:52:00Z</time>
      </trkpt>
      <trkpt lat="45.83514" lon="13.83107">
        <ele>229.41</ele>
        <time>2012-07-30T14:52:01Z</time>
      </trkpt>
      <trkpt lat="45.83405" lon="13.83238">
        <ele>230.37</ele>
        <time>2012-07-30T14:52:09Z</time>
      </trkpt>
      <trkpt lat="45.83339" lon="13.83335">
        <ele>228.45</ele>
        <time>2012-07-30T14:52:14Z</time>
      </trkpt>
      <trkpt lat="45.83233" lon="13.83466">
        <ele>230.37</ele>
        <time>2012-07-30T14:52:21Z</time>
      </trkpt>
      <trkpt lat="45.83169" lon="13.83531">
        <ele>233.74</ele>
        <time>2012-07-30T14:52:25Z</time>
      </trkpt>
      <trkpt lat="45.8312" lon="13.83579">
        <ele>238.06</ele>
        <time>2012-07-30T14:52:28Z</time>
      </trkpt>
      <trkpt lat="45.83104" lon="13.83595">
        <ele>238.06</ele>
        <time>2012-07-30T14:52:29Z</time>
      </trkpt>
      <trkpt lat="45.83072" lon="13.83632">
        <ele>240.95</ele>
        <time>2012-07-30T14:52:31Z</time>
      </trkpt>
      <trkpt lat="45.83027" lon="13.83687">
        <ele>244.31</ele>
        <time>2012-07-30T14:52:34Z</time>
      </trkpt>
      <trkpt lat="45.82965" lon="13.83754">
        <ele>247.2</ele>
        <time>2012-07-30T14:52:38Z</time>
      </trkpt>
      <trkpt lat="45.82809" lon="13.83935">
        <ele>248.64</ele>
        <time>2012-07-30T14:52:48Z</time>
      </trkpt>
      <trkpt lat="45.82732" lon="13.84009">
        <ele>251.04</ele>
        <time>2012-07-30T14:52:53Z</time>
      </trkpt>
      <trkpt lat="45.82675" lon="13.8408">
        <ele>253.44</ele>
        <time>2012-07-30T14:52:57Z</time>
      </trkpt>
      <trkpt lat="45.826" lon="13.8421">
        <ele>256.81</ele>
        <time>2012-07-30T14:53:04Z</time>
      </trkpt>
      <trkpt lat="45.82569" lon="13.84254">
        <ele>256.33</ele>
        <time>2012-07-30T14:53:08Z</time>
      </trkpt>
      <trkpt lat="45.82562" lon="13.84261">
        <ele>256.81</ele>
        <time>2012-07-30T14:53:09Z</time>
      </trkpt>
      <trkpt lat="45.82554" lon="13.84263">
        <ele>257.29</ele>
        <time>2012-07-30T14:53:10Z</time>
      </trkpt>
      <trkpt lat="45.82547" lon="13.8426">
        <ele>258.73</ele>
        <time>2012-07-30T14:53:11Z</time>
      </trkpt>
      <trkpt lat="45.82541" lon="13.84251">
        <ele>259.69</ele>
        <time>2012-07-30T14:53:12Z</time>
      </trkpt>
      <trkpt lat="45.82538" lon="13.84239">
        <ele>258.73</ele>
        <time>2012-07-30T14:53:13Z</time>
      </trkpt>
      <trkpt lat="45.82537" lon="13.84223">
        <ele>258.73</ele>
        <time>2012-07-30T14:53:14Z</time>
      </trkpt>
      <trkpt lat="45.82538" lon="13.84206">
        <ele>259.69</ele>
        <time>2012-07-30T14:53:15Z</time>
      </trkpt>
      <trkpt lat="45.82539" lon="13.84187">
        <ele>260.65</ele>
        <time>2012-07-30T14:53:16Z</time>
      </trkpt>
      <trkpt lat="45.82542" lon="13.84168">
        <ele>262.58</ele>
        <time>2012-07-30T14:53:17Z</time>
      </trkpt>
      <trkpt lat="45.82546" lon="13.8415">
        <ele>264.5</ele>
        <time>2012-07-30T14:53:18Z</time>
      </trkpt>
      <trkpt lat="45.82551" lon="13.84133">
        <ele>263.54</ele>
        <time>2012-07-30T14:53:19Z</time>
      </trkpt>
      <trkpt lat="45.82576" lon="13.84068">
        <ele>266.9</ele>
        <time>2012-07-30T14:53:24Z</time>
      </trkpt>
      <trkpt lat="45.82579" lon="13.84059">
        <ele>268.35</ele>
        <time>2012-07-30T14:53:25Z</time>
      </trkpt>
      <trkpt lat="45.8258" lon="13.84051">
        <ele>269.79</ele>
        <time>2012-07-30T14:53:26Z</time>
      </trkpt>
      <trkpt lat="45.82577" lon="13.84045">
        <ele>269.79</ele>
        <time>2012-07-30T14:53:27Z</time>
      </trkpt>
      <trkpt lat="45.82573" lon="13.84042">
        <ele>270.27</ele>
        <time>2012-07-30T14:53:28Z</time>
      </trkpt>
      <trkpt lat="45.8257" lon="13.84043">
        <ele>270.27</ele>
        <time>2012-07-30T14:53:29Z</time>
      </trkpt>
      <trkpt lat="45.82567" lon="13.84047">
        <ele>270.75</ele>
        <time>2012-07-30T14:53:30Z</time>
      </trkpt>
      <trkpt lat="45.82564" lon="13.84054">
        <ele>271.71</ele>
        <time>2012-07-30T14:53:31Z</time>
      </trkpt>
      <trkpt lat="45.8256" lon="13.84063">
        <ele>273.15</ele>
        <time>2012-07-30T14:53:32Z</time>
      </trkpt>
      <trkpt lat="45.82554" lon="13.84073">
        <ele>274.59</ele>
        <time>2012-07-30T14:53:33Z</time>
      </trkpt>
      <trkpt lat="45.82525" lon="13.84122">
        <ele>277.96</ele>
        <time>2012-07-30T14:53:37Z</time>
      </trkpt>
      <trkpt lat="45.82511" lon="13.84146">
        <ele>279.88</ele>
        <time>2012-07-30T14:53:39Z</time>
      </trkpt>
      <trkpt lat="45.82486" lon="13.84183">
        <ele>284.69</ele>
        <time>2012-07-30T14:53:42Z</time>
      </trkpt>
      <trkpt lat="45.82449" lon="13.84232">
        <ele>288.53</ele>
        <time>2012-07-30T14:53:46Z</time>
      </trkpt>
      <trkpt lat="45.82421" lon="13.84271">
        <ele>290.94</ele>
        <time>2012-07-30T14:53:49Z</time>
      </trkpt>
      <trkpt lat="45.82404" lon="13.84294">
        <ele>294.3</ele>
        <time>2012-07-30T14:53:51Z</time>
      </trkpt>
      <trkpt lat="45.82376" lon="13.84328">
        <ele>296.7</ele>
        <time>2012-07-30T14:53:54Z</time>
      </trkpt>
      <trkpt lat="45.82349" lon="13.84356">
        <ele>299.11</ele>
        <time>2012-07-30T14:53:57Z</time>
      </trkpt>
      <trkpt lat="45.82339" lon="13.84361">
        <ele>298.63</ele>
        <time>2012-07-30T14:53:58Z</time>
      </trkpt>
      <trkpt lat="45.82329" lon="13.84363">
        <ele>299.59</ele>
        <time>2012-07-30T14:53:59Z</time>
      </trkpt>
      <trkpt lat="45.82319" lon="13.84363">
        <ele>300.07</ele>
        <time>2012-07-30T14:54:00Z</time>
      </trkpt>
      <trkpt lat="45.82309" lon="13.84363">
        <ele>300.07</ele>
        <time>2012-07-30T14:54:01Z</time>
      </trkpt>
      <trkpt lat="45.82245" lon="13.84355">
        <ele>300.07</ele>
        <time>2012-07-30T14:54:07Z</time>
      </trkpt>
      <trkpt lat="45.82234" lon="13.84355">
        <ele>300.07</ele>
        <time>2012-07-30T14:54:08Z</time>
      </trkpt>
      <trkpt lat="45.82197" lon="13.84358">
        <ele>295.74</ele>
        <time>2012-07-30T14:54:11Z</time>
      </trkpt>
      <trkpt lat="45.82157" lon="13.84368">
        <ele>292.38</ele>
        <time>2012-07-30T14:54:14Z</time>
      </trkpt>
      <trkpt lat="45.82118" lon="13.84376">
        <ele>289.01</ele>
        <time>2012-07-30T14:54:17Z</time>
      </trkpt>
      <trkpt lat="45.82105" lon="13.84377">
        <ele>287.09</ele>
        <time>2012-07-30T14:54:18Z</time>
      </trkpt>
      <trkpt lat="45.82079" lon="13.84375">
        <ele>285.65</ele>
        <time>2012-07-30T14:54:20Z</time>
      </trkpt>
      <trkpt lat="45.82006" lon="13.84377">
        <ele>283.73</ele>
        <time>2012-07-30T14:54:25Z</time>
      </trkpt>
      <trkpt lat="45.81991" lon="13.84384">
        <ele>283.73</ele>
        <time>2012-07-30T14:54:26Z</time>
      </trkpt>
      <trkpt lat="45.81976" lon="13.84393">
        <ele>285.17</ele>
        <time>2012-07-30T14:54:27Z</time>
      </trkpt>
      <trkpt lat="45.81843" lon="13.84458">
        <ele>282.77</ele>
        <time>2012-07-30T14:54:35Z</time>
      </trkpt>
      <trkpt lat="45.81791" lon="13.84472">
        <ele>282.28</ele>
        <time>2012-07-30T14:54:38Z</time>
      </trkpt>
      <trkpt lat="45.81776" lon="13.84481">
        <ele>282.77</ele>
        <time>2012-07-30T14:54:39Z</time>
      </trkpt>
      <trkpt lat="45.81762" lon="13.84493">
        <ele>281.8</ele>
        <time>2012-07-30T14:54:40Z</time>
      </trkpt>
      <trkpt lat="45.81749" lon="13.84507">
        <ele>282.28</ele>
        <time>2012-07-30T14:54:41Z</time>
      </trkpt>
      <trkpt lat="45.81738" lon="13.84524">
        <ele>281.8</ele>
        <time>2012-07-30T14:54:42Z</time>
      </trkpt>
      <trkpt lat="45.81729" lon="13.84543">
        <ele>282.28</ele>
        <time>2012-07-30T14:54:43Z</time>
      </trkpt>
      <trkpt lat="45.81721" lon="13.84564">
        <ele>281.32</ele>
        <time>2012-07-30T14:54:44Z</time>
      </trkpt>
      <trkpt lat="45.81715" lon="13.84587">
        <ele>282.28</ele>
        <time>2012-07-30T14:54:45Z</time>
      </trkpt>
      <trkpt lat="45.81711" lon="13.84611">
        <ele>280.84</ele>
        <time>2012-07-30T14:54:46Z</time>
      </trkpt>
      <trkpt lat="45.81708" lon="13.84634">
        <ele>279.88</ele>
        <time>2012-07-30T14:54:47Z</time>
      </trkpt>
      <trkpt lat="45.81704" lon="13.84658">
        <ele>279.88</ele>
        <time>2012-07-30T14:54:48Z</time>
      </trkpt>
      <trkpt lat="45.81685" lon="13.84774">
        <ele>276.52</ele>
        <time>2012-07-30T14:54:53Z</time>
      </trkpt>
      <trkpt lat="45.81678" lon="13.84795">
        <ele>276.52</ele>
        <time>2012-07-30T14:54:54Z</time>
      </trkpt>
      <trkpt lat="45.81669" lon="13.84814">
        <ele>276.04</ele>
        <time>2012-07-30T14:54:55Z</time>
      </trkpt>
      <trkpt lat="45.81659" lon="13.84832">
        <ele>276.04</ele>
        <time>2012-07-30T14:54:56Z</time>
      </trkpt>
      <trkpt lat="45.81647" lon="13.84849">
        <ele>276.52</ele>
        <time>2012-07-30T14:54:57Z</time>
      </trkpt>
      <trkpt lat="45.81635" lon="13.84865">
        <ele>276.04</ele>
        <time>2012-07-30T14:54:58Z</time>
      </trkpt>
      <trkpt lat="45.81531" lon="13.84965">
        <ele>274.59</ele>
        <time>2012-07-30T14:55:06Z</time>
      </trkpt>
      <trkpt lat="45.81505" lon="13.84978">
        <ele>271.71</ele>
        <time>2012-07-30T14:55:09Z</time>
      </trkpt>
      <trkpt lat="45.815" lon="13.84983">
        <ele>271.71</ele>
        <time>2012-07-30T14:55:10Z</time>
      </trkpt>
      <trkpt lat="45.81497" lon="13.84991">
        <ele>271.71</ele>
        <time>2012-07-30T14:55:11Z</time>
      </trkpt>
      <trkpt lat="45.81496" lon="13.85001">
        <ele>273.15</ele>
        <time>2012-07-30T14:55:12Z</time>
      </trkpt>
      <trkpt lat="45.81503" lon="13.85039">
        <ele>272.67</ele>
        <time>2012-07-30T14:55:15Z</time>
      </trkpt>
      <trkpt lat="45.81538" lon="13.85086">
        <ele>270.75</ele>
        <time>2012-07-30T14:55:20Z</time>
      </trkpt>
      <trkpt lat="45.81549" lon="13.85091">
        <ele>270.27</ele>
        <time>2012-07-30T14:55:21Z</time>
      </trkpt>
      <trkpt lat="45.81587" lon="13.85129">
        <ele>266.9</ele>
        <time>2012-07-30T14:55:26Z</time>
      </trkpt>
      <trkpt lat="45.81598" lon="13.85167">
        <ele>266.42</ele>
        <time>2012-07-30T14:55:29Z</time>
      </trkpt>
      <trkpt lat="45.81599" lon="13.85208">
        <ele>266.9</ele>
        <time>2012-07-30T14:55:35Z</time>
      </trkpt>
      <trkpt lat="45.81587" lon="13.85231">
        <ele>266.42</ele>
        <time>2012-07-30T14:55:38Z</time>
      </trkpt>
      <trkpt lat="45.81566" lon="13.85282">
        <ele>264.98</ele>
        <time>2012-07-30T14:55:43Z</time>
      </trkpt>
      <trkpt lat="45.8153" lon="13.85308">
        <ele>262.58</ele>
        <time>2012-07-30T14:55:47Z</time>
      </trkpt>
      <trkpt lat="45.8151" lon="13.85315">
        <ele>261.62</ele>
        <time>2012-07-30T14:55:49Z</time>
      </trkpt>
      <trkpt lat="45.81433" lon="13.85287">
        <ele>258.73</ele>
        <time>2012-07-30T14:55:55Z</time>
      </trkpt>
      <trkpt lat="45.81395" lon="13.85272">
        <ele>254.89</ele>
        <time>2012-07-30T14:55:58Z</time>
      </trkpt>
      <trkpt lat="45.81385" lon="13.85272">
        <ele>252.96</ele>
        <time>2012-07-30T14:55:59Z</time>
      </trkpt>
      <trkpt lat="45.81376" lon="13.85275">
        <ele>252.48</ele>
        <time>2012-07-30T14:56:00Z</time>
      </trkpt>
      <trkpt lat="45.81368" lon="13.85285">
        <ele>251.52</ele>
        <time>2012-07-30T14:56:01Z</time>
      </trkpt>
      <trkpt lat="45.81361" lon="13.85302">
        <ele>252.48</ele>
        <time>2012-07-30T14:56:02Z</time>
      </trkpt>
      <trkpt lat="45.81353" lon="13.85321">
        <ele>251.04</ele>
        <time>2012-07-30T14:56:03Z</time>
      </trkpt>
      <trkpt lat="45.81341" lon="13.85338">
        <ele>251.04</ele>
        <time>2012-07-30T14:56:04Z</time>
      </trkpt>
      <trkpt lat="45.81328" lon="13.85353">
        <ele>250.56</ele>
        <time>2012-07-30T14:56:05Z</time>
      </trkpt>
      <trkpt lat="45.81285" lon="13.85411">
        <ele>246.72</ele>
        <time>2012-07-30T14:56:09Z</time>
      </trkpt>
      <trkpt lat="45.8123" lon="13.85439">
        <ele>245.75</ele>
        <time>2012-07-30T14:56:13Z</time>
      </trkpt>
      <trkpt lat="45.81217" lon="13.85454">
        <ele>245.75</ele>
        <time>2012-07-30T14:56:14Z</time>
      </trkpt>
      <trkpt lat="45.81181" lon="13.85502">
        <ele>242.87</ele>
        <time>2012-07-30T14:56:17Z</time>
      </trkpt>
      <trkpt lat="45.81144" lon="13.85564">
        <ele>239.02</ele>
        <time>2012-07-30T14:56:21Z</time>
      </trkpt>
      <trkpt lat="45.81133" lon="13.85574">
        <ele>238.54</ele>
        <time>2012-07-30T14:56:22Z</time>
      </trkpt>
      <trkpt lat="45.81119" lon="13.85581">
        <ele>238.54</ele>
        <time>2012-07-30T14:56:23Z</time>
      </trkpt>
      <trkpt lat="45.81104" lon="13.85586">
        <ele>237.1</ele>
        <time>2012-07-30T14:56:24Z</time>
      </trkpt>
      <trkpt lat="45.81089" lon="13.85593">
        <ele>236.62</ele>
        <time>2012-07-30T14:56:25Z</time>
      </trkpt>
      <trkpt lat="45.81076" lon="13.85603">
        <ele>236.14</ele>
        <time>2012-07-30T14:56:26Z</time>
      </trkpt>
      <trkpt lat="45.81063" lon="13.85616">
        <ele>235.66</ele>
        <time>2012-07-30T14:56:27Z</time>
      </trkpt>
      <trkpt lat="45.81052" lon="13.85633">
        <ele>235.18</ele>
        <time>2012-07-30T14:56:28Z</time>
      </trkpt>
      <trkpt lat="45.81041" lon="13.8565">
        <ele>233.74</ele>
        <time>2012-07-30T14:56:29Z</time>
      </trkpt>
      <trkpt lat="45.81017" lon="13.8568">
        <ele>232.3</ele>
        <time>2012-07-30T14:56:31Z</time>
      </trkpt>
      <trkpt lat="45.81004" lon="13.85692">
        <ele>231.81</ele>
        <time>2012-07-30T14:56:32Z</time>
      </trkpt>
      <trkpt lat="45.80989" lon="13.85702">
        <ele>231.81</ele>
        <time>2012-07-30T14:56:33Z</time>
      </trkpt>
      <trkpt lat="45.80973" lon="13.85711">
        <ele>231.33</ele>
        <time>2012-07-30T14:56:34Z</time>
      </trkpt>
      <trkpt lat="45.80958" lon="13.85717">
        <ele>230.37</ele>
        <time>2012-07-30T14:56:35Z</time>
      </trkpt>
      <trkpt lat="45.80944" lon="13.85721">
        <ele>227.49</ele>
        <time>2012-07-30T14:56:36Z</time>
      </trkpt>
      <trkpt lat="45.80931" lon="13.85724">
        <ele>226.05</ele>
        <time>2012-07-30T14:56:37Z</time>
      </trkpt>
      <trkpt lat="45.80901" lon="13.85774">
        <ele>224.12</ele>
        <time>2012-07-30T14:56:41Z</time>
      </trkpt>
      <trkpt lat="45.80895" lon="13.85793">
        <ele>223.64</ele>
        <time>2012-07-30T14:56:42Z</time>
      </trkpt>
      <trkpt lat="45.80888" lon="13.85811">
        <ele>223.64</ele>
        <time>2012-07-30T14:56:43Z</time>
      </trkpt>
      <trkpt lat="45.80878" lon="13.85828">
        <ele>223.16</ele>
        <time>2012-07-30T14:56:44Z</time>
      </trkpt>
      <trkpt lat="45.80867" lon="13.85845">
        <ele>223.64</ele>
        <time>2012-07-30T14:56:45Z</time>
      </trkpt>
      <trkpt lat="45.80854" lon="13.8586">
        <ele>223.16</ele>
        <time>2012-07-30T14:56:46Z</time>
      </trkpt>
      <trkpt lat="45.80841" lon="13.85875">
        <ele>222.2</ele>
        <time>2012-07-30T14:56:47Z</time>
      </trkpt>
      <trkpt lat="45.80771" lon="13.85939">
        <ele>217.88</ele>
        <time>2012-07-30T14:56:52Z</time>
      </trkpt>
      <trkpt lat="45.80714" lon="13.8595">
        <ele>212.59</ele>
        <time>2012-07-30T14:56:57Z</time>
      </trkpt>
      <trkpt lat="45.80703" lon="13.85951">
        <ele>212.59</ele>
        <time>2012-07-30T14:56:58Z</time>
      </trkpt>
      <trkpt lat="45.80691" lon="13.85958">
        <ele>212.11</ele>
        <time>2012-07-30T14:56:59Z</time>
      </trkpt>
      <trkpt lat="45.80623" lon="13.86">
        <ele>209.22</ele>
        <time>2012-07-30T14:57:04Z</time>
      </trkpt>
      <trkpt lat="45.80611" lon="13.86005">
        <ele>208.26</ele>
        <time>2012-07-30T14:57:05Z</time>
      </trkpt>
      <trkpt lat="45.80533" lon="13.86023">
        <ele>207.3</ele>
        <time>2012-07-30T14:57:11Z</time>
      </trkpt>
      <trkpt lat="45.805" lon="13.86068">
        <ele>205.86</ele>
        <time>2012-07-30T14:57:14Z</time>
      </trkpt>
      <trkpt lat="45.80467" lon="13.86132">
        <ele>201.53</ele>
        <time>2012-07-30T14:57:17Z</time>
      </trkpt>
      <trkpt lat="45.80457" lon="13.86154">
        <ele>201.53</ele>
        <time>2012-07-30T14:57:18Z</time>
      </trkpt>
      <trkpt lat="45.80427" lon="13.86222">
        <ele>199.13</ele>
        <time>2012-07-30T14:57:21Z</time>
      </trkpt>
      <trkpt lat="45.80392" lon="13.86315">
        <ele>195.28</ele>
        <time>2012-07-30T14:57:25Z</time>
      </trkpt>
      <trkpt lat="45.80364" lon="13.86408">
        <ele>192.88</ele>
        <time>2012-07-30T14:57:29Z</time>
      </trkpt>
      <trkpt lat="45.80351" lon="13.86454">
        <ele>190.48</ele>
        <time>2012-07-30T14:57:31Z</time>
      </trkpt>
      <trkpt lat="45.80338" lon="13.86527">
        <ele>186.63</ele>
        <time>2012-07-30T14:57:34Z</time>
      </trkpt>
      <trkpt lat="45.80314" lon="13.86687">
        <ele>183.27</ele>
        <time>2012-07-30T14:57:41Z</time>
      </trkpt>
      <trkpt lat="45.80313" lon="13.86702">
        <ele>182.79</ele>
        <time>2012-07-30T14:57:42Z</time>
      </trkpt>
      <trkpt lat="45.80314" lon="13.86714">
        <ele>182.31</ele>
        <time>2012-07-30T14:57:43Z</time>
      </trkpt>
      <trkpt lat="45.8033" lon="13.86739">
        <ele>184.23</ele>
        <time>2012-07-30T14:57:46Z</time>
      </trkpt>
      <trkpt lat="45.80334" lon="13.86743">
        <ele>183.75</ele>
        <time>2012-07-30T14:57:47Z</time>
      </trkpt>
      <trkpt lat="45.80354" lon="13.86745">
        <ele>186.15</ele>
        <time>2012-07-30T14:57:50Z</time>
      </trkpt>
      <trkpt lat="45.80383" lon="13.86674">
        <ele>187.11</ele>
        <time>2012-07-30T14:57:51Z</time>
      </trkpt>
      <trkpt lat="45.8043" lon="13.86616">
        <ele>190.96</ele>
        <time>2012-07-30T14:57:55Z</time>
      </trkpt>
      <trkpt lat="45.80456" lon="13.86593">
        <ele>192.4</ele>
        <time>2012-07-30T14:57:57Z</time>
      </trkpt>
      <trkpt lat="45.80468" lon="13.86583">
        <ele>191.92</ele>
        <time>2012-07-30T14:57:58Z</time>
      </trkpt>
      <trkpt lat="45.80487" lon="13.86573">
        <ele>190.96</ele>
        <time>2012-07-30T14:58:00Z</time>
      </trkpt>
      <trkpt lat="45.80525" lon="13.86584">
        <ele>188.08</ele>
        <time>2012-07-30T14:58:04Z</time>
      </trkpt>
      <trkpt lat="45.80557" lon="13.86602">
        <ele>187.11</ele>
        <time>2012-07-30T14:58:08Z</time>
      </trkpt>
      <trkpt lat="45.80561" lon="13.86606">
        <ele>186.63</ele>
        <time>2012-07-30T14:58:09Z</time>
      </trkpt>
      <trkpt lat="45.80565" lon="13.86609">
        <ele>186.63</ele>
        <time>2012-07-30T14:58:10Z</time>
      </trkpt>
      <trkpt lat="45.80568" lon="13.8661">
        <ele>186.63</ele>
        <time>2012-07-30T14:58:11Z</time>
      </trkpt>
      <trkpt lat="45.80569" lon="13.8661">
        <ele>186.15</ele>
        <time>2012-07-30T14:58:20Z</time>
      </trkpt>
      <trkpt lat="45.80572" lon="13.86608">
        <ele>186.63</ele>
        <time>2012-07-30T14:58:28Z</time>
      </trkpt>
      <trkpt lat="45.80578" lon="13.86607">
        <ele>186.63</ele>
        <time>2012-07-30T14:58:29Z</time>
      </trkpt>
      <trkpt lat="45.80586" lon="13.86606">
        <ele>187.11</ele>
        <time>2012-07-30T14:58:30Z</time>
      </trkpt>
      <trkpt lat="45.80664" lon="13.86605">
        <ele>185.67</ele>
        <time>2012-07-30T14:58:36Z</time>
      </trkpt>
      <trkpt lat="45.8073" lon="13.86622">
        <ele>182.31</ele>
        <time>2012-07-30T14:58:41Z</time>
      </trkpt>
      <trkpt lat="45.8074" lon="13.86629">
        <ele>181.83</ele>
        <time>2012-07-30T14:58:42Z</time>
      </trkpt>
      <trkpt lat="45.8075" lon="13.86639">
        <ele>180.87</ele>
        <time>2012-07-30T14:58:43Z</time>
      </trkpt>
      <trkpt lat="45.80758" lon="13.86653">
        <ele>179.9</ele>
        <time>2012-07-30T14:58:44Z</time>
      </trkpt>
      <trkpt lat="45.80766" lon="13.86669">
        <ele>180.38</ele>
        <time>2012-07-30T14:58:45Z</time>
      </trkpt>
      <trkpt lat="45.80772" lon="13.86687">
        <ele>179.9</ele>
        <time>2012-07-30T14:58:46Z</time>
      </trkpt>
      <trkpt lat="45.80777" lon="13.86707">
        <ele>178.94</ele>
        <time>2012-07-30T14:58:47Z</time>
      </trkpt>
      <trkpt lat="45.8078" lon="13.86727">
        <ele>177.5</ele>
        <time>2012-07-30T14:58:48Z</time>
      </trkpt>
      <trkpt lat="45.80781" lon="13.86746">
        <ele>177.02</ele>
        <time>2012-07-30T14:58:49Z</time>
      </trkpt>
      <trkpt lat="45.80784" lon="13.86764">
        <ele>177.02</ele>
        <time>2012-07-30T14:58:50Z</time>
      </trkpt>
      <trkpt lat="45.8079" lon="13.86781">
        <ele>176.54</ele>
        <time>2012-07-30T14:58:51Z</time>
      </trkpt>
      <trkpt lat="45.80798" lon="13.86797">
        <ele>176.54</ele>
        <time>2012-07-30T14:58:52Z</time>
      </trkpt>
      <trkpt lat="45.80808" lon="13.86812">
        <ele>176.54</ele>
        <time>2012-07-30T14:58:53Z</time>
      </trkpt>
      <trkpt lat="45.8082" lon="13.86827">
        <ele>175.58</ele>
        <time>2012-07-30T14:58:54Z</time>
      </trkpt>
      <trkpt lat="45.8083" lon="13.86842">
        <ele>175.58</ele>
        <time>2012-07-30T14:58:55Z</time>
      </trkpt>
      <trkpt lat="45.80848" lon="13.86879">
        <ele>174.62</ele>
        <time>2012-07-30T14:58:57Z</time>
      </trkpt>
      <trkpt lat="45.80855" lon="13.869">
        <ele>175.1</ele>
        <time>2012-07-30T14:58:58Z</time>
      </trkpt>
      <trkpt lat="45.80918" lon="13.87092">
        <ele>172.21</ele>
        <time>2012-07-30T14:59:07Z</time>
      </trkpt>
      <trkpt lat="45.80922" lon="13.87111">
        <ele>172.21</ele>
        <time>2012-07-30T14:59:08Z</time>
      </trkpt>
      <trkpt lat="45.80929" lon="13.8715">
        <ele>172.21</ele>
        <time>2012-07-30T14:59:10Z</time>
      </trkpt>
      <trkpt lat="45.80929" lon="13.87171">
        <ele>172.69</ele>
        <time>2012-07-30T14:59:11Z</time>
      </trkpt>
      <trkpt lat="45.80924" lon="13.87216">
        <ele>170.29</ele>
        <time>2012-07-30T14:59:13Z</time>
      </trkpt>
      <trkpt lat="45.80921" lon="13.87236">
        <ele>168.37</ele>
        <time>2012-07-30T14:59:14Z</time>
      </trkpt>
      <trkpt lat="45.8092" lon="13.87257">
        <ele>167.89</ele>
        <time>2012-07-30T14:59:15Z</time>
      </trkpt>
      <trkpt lat="45.80923" lon="13.87275">
        <ele>167.41</ele>
        <time>2012-07-30T14:59:16Z</time>
      </trkpt>
      <trkpt lat="45.8093" lon="13.87292">
        <ele>167.89</ele>
        <time>2012-07-30T14:59:17Z</time>
      </trkpt>
      <trkpt lat="45.8094" lon="13.87307">
        <ele>167.89</ele>
        <time>2012-07-30T14:59:18Z</time>
      </trkpt>
      <trkpt lat="45.80952" lon="13.87319">
        <ele>167.41</ele>
        <time>2012-07-30T14:59:19Z</time>
      </trkpt>
      <trkpt lat="45.80965" lon="13.87329">
        <ele>167.41</ele>
        <time>2012-07-30T14:59:20Z</time>
      </trkpt>
      <trkpt lat="45.80976" lon="13.87338">
        <ele>166.45</ele>
        <time>2012-07-30T14:59:21Z</time>
      </trkpt>
      <trkpt lat="45.80984" lon="13.87347">
        <ele>165.48</ele>
        <time>2012-07-30T14:59:22Z</time>
      </trkpt>
      <trkpt lat="45.8099" lon="13.87358">
        <ele>165</ele>
        <time>2012-07-30T14:59:23Z</time>
      </trkpt>
      <trkpt lat="45.80993" lon="13.87371">
        <ele>165.48</ele>
        <time>2012-07-30T14:59:24Z</time>
      </trkpt>
      <trkpt lat="45.80994" lon="13.87386">
        <ele>166.45</ele>
        <time>2012-07-30T14:59:25Z</time>
      </trkpt>
      <trkpt lat="45.80993" lon="13.87401">
        <ele>167.89</ele>
        <time>2012-07-30T14:59:26Z</time>
      </trkpt>
      <trkpt lat="45.80985" lon="13.87422">
        <ele>170.29</ele>
        <time>2012-07-30T14:59:27Z</time>
      </trkpt>
      <trkpt lat="45.80964" lon="13.87468">
        <ele>168.37</ele>
        <time>2012-07-30T14:59:29Z</time>
      </trkpt>
      <trkpt lat="45.80956" lon="13.87491">
        <ele>167.41</ele>
        <time>2012-07-30T14:59:30Z</time>
      </trkpt>
      <trkpt lat="45.8095" lon="13.87512">
        <ele>166.45</ele>
        <time>2012-07-30T14:59:31Z</time>
      </trkpt>
      <trkpt lat="45.80946" lon="13.87532">
        <ele>164.52</ele>
        <time>2012-07-30T14:59:32Z</time>
      </trkpt>
      <trkpt lat="45.80944" lon="13.87553">
        <ele>164.52</ele>
        <time>2012-07-30T14:59:33Z</time>
      </trkpt>
      <trkpt lat="45.80945" lon="13.87572">
        <ele>163.08</ele>
        <time>2012-07-30T14:59:34Z</time>
      </trkpt>
      <trkpt lat="45.80948" lon="13.87592">
        <ele>163.56</ele>
        <time>2012-07-30T14:59:35Z</time>
      </trkpt>
      <trkpt lat="45.80953" lon="13.87611">
        <ele>163.56</ele>
        <time>2012-07-30T14:59:36Z</time>
      </trkpt>
      <trkpt lat="45.80962" lon="13.87628">
        <ele>164.04</ele>
        <time>2012-07-30T14:59:37Z</time>
      </trkpt>
      <trkpt lat="45.80974" lon="13.87645">
        <ele>164.52</ele>
        <time>2012-07-30T14:59:38Z</time>
      </trkpt>
      <trkpt lat="45.80989" lon="13.8766">
        <ele>165</ele>
        <time>2012-07-30T14:59:39Z</time>
      </trkpt>
      <trkpt lat="45.81005" lon="13.87673">
        <ele>165.96</ele>
        <time>2012-07-30T14:59:40Z</time>
      </trkpt>
      <trkpt lat="45.81046" lon="13.87713">
        <ele>165.96</ele>
        <time>2012-07-30T14:59:43Z</time>
      </trkpt>
      <trkpt lat="45.81057" lon="13.87731">
        <ele>166.45</ele>
        <time>2012-07-30T14:59:44Z</time>
      </trkpt>
      <trkpt lat="45.81065" lon="13.87746">
        <ele>167.41</ele>
        <time>2012-07-30T14:59:45Z</time>
      </trkpt>
      <trkpt lat="45.81085" lon="13.87794">
        <ele>168.37</ele>
        <time>2012-07-30T14:59:47Z</time>
      </trkpt>
      <trkpt lat="45.81097" lon="13.87815">
        <ele>169.33</ele>
        <time>2012-07-30T14:59:48Z</time>
      </trkpt>
      <trkpt lat="45.8111" lon="13.87833">
        <ele>168.85</ele>
        <time>2012-07-30T14:59:49Z</time>
      </trkpt>
      <trkpt lat="45.81124" lon="13.87847">
        <ele>168.85</ele>
        <time>2012-07-30T14:59:50Z</time>
      </trkpt>
      <trkpt lat="45.81136" lon="13.87857">
        <ele>167.41</ele>
        <time>2012-07-30T14:59:51Z</time>
      </trkpt>
      <trkpt lat="45.81156" lon="13.87868">
        <ele>165.96</ele>
        <time>2012-07-30T14:59:53Z</time>
      </trkpt>
      <trkpt lat="45.81165" lon="13.87874">
        <ele>166.45</ele>
        <time>2012-07-30T14:59:54Z</time>
      </trkpt>
      <trkpt lat="45.81171" lon="13.87887">
        <ele>166.93</ele>
        <time>2012-07-30T14:59:55Z</time>
      </trkpt>
      <trkpt lat="45.81177" lon="13.87903">
        <ele>168.85</ele>
        <time>2012-07-30T14:59:56Z</time>
      </trkpt>
      <trkpt lat="45.81181" lon="13.87922">
        <ele>167.89</ele>
        <time>2012-07-30T14:59:57Z</time>
      </trkpt>
      <trkpt lat="45.81183" lon="13.87942">
        <ele>168.85</ele>
        <time>2012-07-30T14:59:58Z</time>
      </trkpt>
      <trkpt lat="45.81184" lon="13.87964">
        <ele>168.85</ele>
        <time>2012-07-30T14:59:59Z</time>
      </trkpt>
      <trkpt lat="45.81185" lon="13.87985">
        <ele>168.85</ele>
        <time>2012-07-30T15:00:00Z</time>
      </trkpt>
      <trkpt lat="45.81195" lon="13.88072">
        <ele>165</ele>
        <time>2012-07-30T15:00:04Z</time>
      </trkpt>
      <trkpt lat="45.81196" lon="13.88092">
        <ele>164.04</ele>
        <time>2012-07-30T15:00:05Z</time>
      </trkpt>
      <trkpt lat="45.81196" lon="13.88112">
        <ele>165</ele>
        <time>2012-07-30T15:00:06Z</time>
      </trkpt>
      <trkpt lat="45.81194" lon="13.88132">
        <ele>165</ele>
        <time>2012-07-30T15:00:07Z</time>
      </trkpt>
      <trkpt lat="45.81188" lon="13.88193">
        <ele>165</ele>
        <time>2012-07-30T15:00:10Z</time>
      </trkpt>
      <trkpt lat="45.81188" lon="13.88213">
        <ele>166.45</ele>
        <time>2012-07-30T15:00:11Z</time>
      </trkpt>
      <trkpt lat="45.8119" lon="13.88234">
        <ele>166.45</ele>
        <time>2012-07-30T15:00:12Z</time>
      </trkpt>
      <trkpt lat="45.81191" lon="13.88292">
        <ele>166.45</ele>
        <time>2012-07-30T15:00:15Z</time>
      </trkpt>
      <trkpt lat="45.81189" lon="13.88311">
        <ele>165</ele>
        <time>2012-07-30T15:00:16Z</time>
      </trkpt>
      <trkpt lat="45.81186" lon="13.88329">
        <ele>165</ele>
        <time>2012-07-30T15:00:17Z</time>
      </trkpt>
      <trkpt lat="45.81186" lon="13.88346">
        <ele>163.56</ele>
        <time>2012-07-30T15:00:18Z</time>
      </trkpt>
      <trkpt lat="45.81188" lon="13.88361">
        <ele>164.04</ele>
        <time>2012-07-30T15:00:19Z</time>
      </trkpt>
      <trkpt lat="45.81192" lon="13.88375">
        <ele>164.04</ele>
        <time>2012-07-30T15:00:20Z</time>
      </trkpt>
      <trkpt lat="45.81196" lon="13.88389">
        <ele>164.52</ele>
        <time>2012-07-30T15:00:21Z</time>
      </trkpt>
      <trkpt lat="45.81212" lon="13.88435">
        <ele>162.12</ele>
        <time>2012-07-30T15:00:25Z</time>
      </trkpt>
      <trkpt lat="45.81214" lon="13.88448">
        <ele>162.12</ele>
        <time>2012-07-30T15:00:26Z</time>
      </trkpt>
      <trkpt lat="45.81214" lon="13.88462">
        <ele>161.64</ele>
        <time>2012-07-30T15:00:27Z</time>
      </trkpt>
      <trkpt lat="45.81214" lon="13.88476">
        <ele>160.68</ele>
        <time>2012-07-30T15:00:28Z</time>
      </trkpt>
      <trkpt lat="45.81218" lon="13.8849">
        <ele>160.68</ele>
        <time>2012-07-30T15:00:29Z</time>
      </trkpt>
      <trkpt lat="45.81224" lon="13.88503">
        <ele>161.64</ele>
        <time>2012-07-30T15:00:30Z</time>
      </trkpt>
      <trkpt lat="45.81233" lon="13.88516">
        <ele>162.12</ele>
        <time>2012-07-30T15:00:31Z</time>
      </trkpt>
      <trkpt lat="45.8125" lon="13.88545">
        <ele>163.56</ele>
        <time>2012-07-30T15:00:33Z</time>
      </trkpt>
      <trkpt lat="45.81256" lon="13.88563">
        <ele>164.52</ele>
        <time>2012-07-30T15:00:34Z</time>
      </trkpt>
      <trkpt lat="45.81269" lon="13.886">
        <ele>165</ele>
        <time>2012-07-30T15:00:36Z</time>
      </trkpt>
      <trkpt lat="45.81277" lon="13.88616">
        <ele>165.96</ele>
        <time>2012-07-30T15:00:37Z</time>
      </trkpt>
      <trkpt lat="45.81288" lon="13.88631">
        <ele>166.93</ele>
        <time>2012-07-30T15:00:38Z</time>
      </trkpt>
      <trkpt lat="45.81299" lon="13.88645">
        <ele>167.41</ele>
        <time>2012-07-30T15:00:39Z</time>
      </trkpt>
      <trkpt lat="45.8133" lon="13.88691">
        <ele>168.85</ele>
        <time>2012-07-30T15:00:42Z</time>
      </trkpt>
      <trkpt lat="45.81363" lon="13.8875">
        <ele>166.93</ele>
        <time>2012-07-30T15:00:46Z</time>
      </trkpt>
      <trkpt lat="45.81368" lon="13.88764">
        <ele>167.41</ele>
        <time>2012-07-30T15:00:47Z</time>
      </trkpt>
      <trkpt lat="45.81369" lon="13.88779">
        <ele>166.45</ele>
        <time>2012-07-30T15:00:48Z</time>
      </trkpt>
      <trkpt lat="45.81367" lon="13.88795">
        <ele>165.96</ele>
        <time>2012-07-30T15:00:49Z</time>
      </trkpt>
      <trkpt lat="45.81362" lon="13.88812">
        <ele>166.93</ele>
        <time>2012-07-30T15:00:50Z</time>
      </trkpt>
      <trkpt lat="45.81356" lon="13.88829">
        <ele>166.93</ele>
        <time>2012-07-30T15:00:51Z</time>
      </trkpt>
      <trkpt lat="45.81347" lon="13.88845">
        <ele>167.41</ele>
        <time>2012-07-30T15:00:52Z</time>
      </trkpt>
      <trkpt lat="45.81338" lon="13.88862">
        <ele>166.45</ele>
        <time>2012-07-30T15:00:53Z</time>
      </trkpt>
      <trkpt lat="45.8133" lon="13.88879">
        <ele>165.96</ele>
        <time>2012-07-30T15:00:54Z</time>
      </trkpt>
      <trkpt lat="45.81322" lon="13.88898">
        <ele>165.96</ele>
        <time>2012-07-30T15:00:55Z</time>
      </trkpt>
      <trkpt lat="45.81317" lon="13.88919">
        <ele>165.96</ele>
        <time>2012-07-30T15:00:56Z</time>
      </trkpt>
      <trkpt lat="45.81313" lon="13.8894">
        <ele>164.52</ele>
        <time>2012-07-30T15:00:57Z</time>
      </trkpt>
      <trkpt lat="45.8131" lon="13.88961">
        <ele>164.04</ele>
        <time>2012-07-30T15:00:58Z</time>
      </trkpt>
      <trkpt lat="45.81309" lon="13.88983">
        <ele>163.08</ele>
        <time>2012-07-30T15:00:59Z</time>
      </trkpt>
      <trkpt lat="45.81309" lon="13.89004">
        <ele>162.12</ele>
        <time>2012-07-30T15:01:00Z</time>
      </trkpt>
      <trkpt lat="45.81311" lon="13.89026">
        <ele>162.12</ele>
        <time>2012-07-30T15:01:01Z</time>
      </trkpt>
      <trkpt lat="45.81316" lon="13.89048">
        <ele>162.12</ele>
        <time>2012-07-30T15:01:02Z</time>
      </trkpt>
      <trkpt lat="45.81322" lon="13.8907">
        <ele>162.12</ele>
        <time>2012-07-30T15:01:03Z</time>
      </trkpt>
      <trkpt lat="45.8133" lon="13.89091">
        <ele>162.12</ele>
        <time>2012-07-30T15:01:04Z</time>
      </trkpt>
      <trkpt lat="45.8136" lon="13.89176">
        <ele>162.12</ele>
        <time>2012-07-30T15:01:08Z</time>
      </trkpt>
      <trkpt lat="45.81365" lon="13.89198">
        <ele>161.64</ele>
        <time>2012-07-30T15:01:09Z</time>
      </trkpt>
      <trkpt lat="45.81368" lon="13.89221">
        <ele>161.64</ele>
        <time>2012-07-30T15:01:10Z</time>
      </trkpt>
      <trkpt lat="45.81369" lon="13.89244">
        <ele>162.6</ele>
        <time>2012-07-30T15:01:11Z</time>
      </trkpt>
      <trkpt lat="45.81368" lon="13.89269">
        <ele>163.08</ele>
        <time>2012-07-30T15:01:12Z</time>
      </trkpt>
      <trkpt lat="45.81367" lon="13.89283">
        <ele>163.56</ele>
        <time>2012-07-30T15:01:13Z</time>
      </trkpt>
      <trkpt lat="45.81362" lon="13.89317">
        <ele>165</ele>
        <time>2012-07-30T15:01:14Z</time>
      </trkpt>
      <trkpt lat="45.81347" lon="13.89383">
        <ele>164.52</ele>
        <time>2012-07-30T15:01:17Z</time>
      </trkpt>
      <trkpt lat="45.81341" lon="13.89402">
        <ele>164.04</ele>
        <time>2012-07-30T15:01:18Z</time>
      </trkpt>
      <trkpt lat="45.81332" lon="13.89418">
        <ele>163.56</ele>
        <time>2012-07-30T15:01:19Z</time>
      </trkpt>
      <trkpt lat="45.81314" lon="13.89446">
        <ele>163.56</ele>
        <time>2012-07-30T15:01:21Z</time>
      </trkpt>
      <trkpt lat="45.81309" lon="13.89465">
        <ele>163.56</ele>
        <time>2012-07-30T15:01:22Z</time>
      </trkpt>
      <trkpt lat="45.81307" lon="13.89485">
        <ele>164.04</ele>
        <time>2012-07-30T15:01:23Z</time>
      </trkpt>
      <trkpt lat="45.81305" lon="13.89553">
        <ele>164.52</ele>
        <time>2012-07-30T15:01:26Z</time>
      </trkpt>
      <trkpt lat="45.81302" lon="13.89576">
        <ele>165.48</ele>
        <time>2012-07-30T15:01:27Z</time>
      </trkpt>
      <trkpt lat="45.81296" lon="13.89598">
        <ele>166.45</ele>
        <time>2012-07-30T15:01:28Z</time>
      </trkpt>
      <trkpt lat="45.81289" lon="13.8962">
        <ele>167.41</ele>
        <time>2012-07-30T15:01:29Z</time>
      </trkpt>
      <trkpt lat="45.8128" lon="13.89641">
        <ele>168.37</ele>
        <time>2012-07-30T15:01:30Z</time>
      </trkpt>
      <trkpt lat="45.81255" lon="13.89699">
        <ele>166.93</ele>
        <time>2012-07-30T15:01:33Z</time>
      </trkpt>
      <trkpt lat="45.8125" lon="13.89719">
        <ele>167.41</ele>
        <time>2012-07-30T15:01:34Z</time>
      </trkpt>
      <trkpt lat="45.81248" lon="13.89739">
        <ele>167.41</ele>
        <time>2012-07-30T15:01:35Z</time>
      </trkpt>
      <trkpt lat="45.81249" lon="13.89761">
        <ele>167.89</ele>
        <time>2012-07-30T15:01:36Z</time>
      </trkpt>
      <trkpt lat="45.81252" lon="13.89783">
        <ele>169.33</ele>
        <time>2012-07-30T15:01:37Z</time>
      </trkpt>
      <trkpt lat="45.81257" lon="13.89806">
        <ele>169.33</ele>
        <time>2012-07-30T15:01:38Z</time>
      </trkpt>
      <trkpt lat="45.81266" lon="13.89849">
        <ele>169.33</ele>
        <time>2012-07-30T15:01:40Z</time>
      </trkpt>
      <trkpt lat="45.81274" lon="13.89869">
        <ele>169.81</ele>
        <time>2012-07-30T15:01:41Z</time>
      </trkpt>
      <trkpt lat="45.81284" lon="13.89887">
        <ele>170.29</ele>
        <time>2012-07-30T15:01:42Z</time>
      </trkpt>
      <trkpt lat="45.81298" lon="13.89902">
        <ele>170.77</ele>
        <time>2012-07-30T15:01:43Z</time>
      </trkpt>
      <trkpt lat="45.81312" lon="13.89914">
        <ele>171.25</ele>
        <time>2012-07-30T15:01:44Z</time>
      </trkpt>
      <trkpt lat="45.81328" lon="13.89923">
        <ele>171.73</ele>
        <time>2012-07-30T15:01:45Z</time>
      </trkpt>
      <trkpt lat="45.81343" lon="13.8993">
        <ele>172.21</ele>
        <time>2012-07-30T15:01:46Z</time>
      </trkpt>
      <trkpt lat="45.81356" lon="13.89936">
        <ele>171.25</ele>
        <time>2012-07-30T15:01:47Z</time>
      </trkpt>
      <trkpt lat="45.81367" lon="13.89943">
        <ele>169.81</ele>
        <time>2012-07-30T15:01:48Z</time>
      </trkpt>
      <trkpt lat="45.81377" lon="13.89953">
        <ele>170.77</ele>
        <time>2012-07-30T15:01:49Z</time>
      </trkpt>
      <trkpt lat="45.81386" lon="13.89965">
        <ele>171.73</ele>
        <time>2012-07-30T15:01:50Z</time>
      </trkpt>
      <trkpt lat="45.81393" lon="13.89979">
        <ele>172.21</ele>
        <time>2012-07-30T15:01:51Z</time>
      </trkpt>
      <trkpt lat="45.814" lon="13.89994">
        <ele>172.69</ele>
        <time>2012-07-30T15:01:52Z</time>
      </trkpt>
      <trkpt lat="45.81453" lon="13.90121">
        <ele>174.62</ele>
        <time>2012-07-30T15:02:00Z</time>
      </trkpt>
      <trkpt lat="45.81455" lon="13.90138">
        <ele>174.14</ele>
        <time>2012-07-30T15:02:01Z</time>
      </trkpt>
      <trkpt lat="45.81456" lon="13.90156">
        <ele>174.14</ele>
        <time>2012-07-30T15:02:02Z</time>
      </trkpt>
      <trkpt lat="45.81452" lon="13.90215">
        <ele>177.5</ele>
        <time>2012-07-30T15:02:05Z</time>
      </trkpt>
      <trkpt lat="45.81445" lon="13.90274">
        <ele>179.42</ele>
        <time>2012-07-30T15:02:08Z</time>
      </trkpt>
      <trkpt lat="45.81444" lon="13.90295">
        <ele>181.35</ele>
        <time>2012-07-30T15:02:09Z</time>
      </trkpt>
      <trkpt lat="45.81445" lon="13.90316">
        <ele>181.35</ele>
        <time>2012-07-30T15:02:10Z</time>
      </trkpt>
      <trkpt lat="45.81447" lon="13.90338">
        <ele>181.35</ele>
        <time>2012-07-30T15:02:11Z</time>
      </trkpt>
      <trkpt lat="45.8145" lon="13.90359">
        <ele>181.35</ele>
        <time>2012-07-30T15:02:12Z</time>
      </trkpt>
      <trkpt lat="45.81456" lon="13.90457">
        <ele>180.87</ele>
        <time>2012-07-30T15:02:17Z</time>
      </trkpt>
      <trkpt lat="45.81453" lon="13.90474">
        <ele>180.87</ele>
        <time>2012-07-30T15:02:18Z</time>
      </trkpt>
      <trkpt lat="45.81448" lon="13.90489">
        <ele>180.87</ele>
        <time>2012-07-30T15:02:19Z</time>
      </trkpt>
      <trkpt lat="45.8144" lon="13.90503">
        <ele>181.83</ele>
        <time>2012-07-30T15:02:20Z</time>
      </trkpt>
      <trkpt lat="45.81432" lon="13.90517">
        <ele>182.31</ele>
        <time>2012-07-30T15:02:21Z</time>
      </trkpt>
      <trkpt lat="45.81423" lon="13.90531">
        <ele>182.79</ele>
        <time>2012-07-30T15:02:22Z</time>
      </trkpt>
      <trkpt lat="45.81371" lon="13.90624">
        <ele>186.63</ele>
        <time>2012-07-30T15:02:28Z</time>
      </trkpt>
      <trkpt lat="45.81363" lon="13.90642">
        <ele>186.63</ele>
        <time>2012-07-30T15:02:29Z</time>
      </trkpt>
      <trkpt lat="45.81357" lon="13.90662">
        <ele>187.11</ele>
        <time>2012-07-30T15:02:30Z</time>
      </trkpt>
      <trkpt lat="45.81353" lon="13.90682">
        <ele>187.11</ele>
        <time>2012-07-30T15:02:31Z</time>
      </trkpt>
      <trkpt lat="45.81351" lon="13.90701">
        <ele>186.63</ele>
        <time>2012-07-30T15:02:32Z</time>
      </trkpt>
      <trkpt lat="45.8135" lon="13.90719">
        <ele>187.11</ele>
        <time>2012-07-30T15:02:33Z</time>
      </trkpt>
      <trkpt lat="45.81348" lon="13.90736">
        <ele>187.59</ele>
        <time>2012-07-30T15:02:34Z</time>
      </trkpt>
      <trkpt lat="45.81343" lon="13.90751">
        <ele>187.11</ele>
        <time>2012-07-30T15:02:35Z</time>
      </trkpt>
      <trkpt lat="45.81336" lon="13.90763">
        <ele>186.63</ele>
        <time>2012-07-30T15:02:36Z</time>
      </trkpt>
      <trkpt lat="45.81327" lon="13.90773">
        <ele>188.08</ele>
        <time>2012-07-30T15:02:37Z</time>
      </trkpt>
      <trkpt lat="45.81316" lon="13.90783">
        <ele>189.04</ele>
        <time>2012-07-30T15:02:38Z</time>
      </trkpt>
      <trkpt lat="45.81305" lon="13.90795">
        <ele>190</ele>
        <time>2012-07-30T15:02:39Z</time>
      </trkpt>
      <trkpt lat="45.81296" lon="13.90811">
        <ele>190.48</ele>
        <time>2012-07-30T15:02:40Z</time>
      </trkpt>
      <trkpt lat="45.81256" lon="13.90902">
        <ele>193.36</ele>
        <time>2012-07-30T15:02:45Z</time>
      </trkpt>
      <trkpt lat="45.81246" lon="13.90945">
        <ele>194.32</ele>
        <time>2012-07-30T15:02:47Z</time>
      </trkpt>
      <trkpt lat="45.81208" lon="13.91074">
        <ele>196.25</ele>
        <time>2012-07-30T15:02:54Z</time>
      </trkpt>
      <trkpt lat="45.81206" lon="13.91092">
        <ele>197.21</ele>
        <time>2012-07-30T15:02:55Z</time>
      </trkpt>
      <trkpt lat="45.81205" lon="13.91112">
        <ele>198.17</ele>
        <time>2012-07-30T15:02:56Z</time>
      </trkpt>
      <trkpt lat="45.81206" lon="13.91132">
        <ele>197.69</ele>
        <time>2012-07-30T15:02:57Z</time>
      </trkpt>
      <trkpt lat="45.81207" lon="13.91152">
        <ele>197.69</ele>
        <time>2012-07-30T15:02:58Z</time>
      </trkpt>
      <trkpt lat="45.81208" lon="13.91258">
        <ele>198.65</ele>
        <time>2012-07-30T15:03:04Z</time>
      </trkpt>
      <trkpt lat="45.81213" lon="13.91273">
        <ele>200.57</ele>
        <time>2012-07-30T15:03:05Z</time>
      </trkpt>
      <trkpt lat="45.81225" lon="13.91305">
        <ele>201.53</ele>
        <time>2012-07-30T15:03:07Z</time>
      </trkpt>
      <trkpt lat="45.8123" lon="13.91323">
        <ele>202.49</ele>
        <time>2012-07-30T15:03:08Z</time>
      </trkpt>
      <trkpt lat="45.81239" lon="13.91361">
        <ele>203.94</ele>
        <time>2012-07-30T15:03:10Z</time>
      </trkpt>
      <trkpt lat="45.81252" lon="13.91429">
        <ele>207.78</ele>
        <time>2012-07-30T15:03:13Z</time>
      </trkpt>
      <trkpt lat="45.81255" lon="13.9145">
        <ele>207.3</ele>
        <time>2012-07-30T15:03:14Z</time>
      </trkpt>
      <trkpt lat="45.81259" lon="13.91471">
        <ele>207.78</ele>
        <time>2012-07-30T15:03:15Z</time>
      </trkpt>
      <trkpt lat="45.81265" lon="13.91492">
        <ele>208.74</ele>
        <time>2012-07-30T15:03:16Z</time>
      </trkpt>
      <trkpt lat="45.81273" lon="13.91512">
        <ele>209.22</ele>
        <time>2012-07-30T15:03:17Z</time>
      </trkpt>
      <trkpt lat="45.81309" lon="13.91593">
        <ele>212.59</ele>
        <time>2012-07-30T15:03:21Z</time>
      </trkpt>
      <trkpt lat="45.81346" lon="13.91666">
        <ele>214.99</ele>
        <time>2012-07-30T15:03:25Z</time>
      </trkpt>
      <trkpt lat="45.81389" lon="13.91804">
        <ele>219.32</ele>
        <time>2012-07-30T15:03:32Z</time>
      </trkpt>
      <trkpt lat="45.81395" lon="13.91825">
        <ele>219.8</ele>
        <time>2012-07-30T15:03:33Z</time>
      </trkpt>
      <trkpt lat="45.81404" lon="13.91867">
        <ele>222.68</ele>
        <time>2012-07-30T15:03:35Z</time>
      </trkpt>
      <trkpt lat="45.81418" lon="13.91953">
        <ele>226.53</ele>
        <time>2012-07-30T15:03:39Z</time>
      </trkpt>
      <trkpt lat="45.81421" lon="13.91975">
        <ele>226.53</ele>
        <time>2012-07-30T15:03:40Z</time>
      </trkpt>
      <trkpt lat="45.81433" lon="13.92088">
        <ele>229.89</ele>
        <time>2012-07-30T15:03:45Z</time>
      </trkpt>
      <trkpt lat="45.8145" lon="13.92203">
        <ele>229.41</ele>
        <time>2012-07-30T15:03:51Z</time>
      </trkpt>
      <trkpt lat="45.81452" lon="13.9222">
        <ele>229.41</ele>
        <time>2012-07-30T15:03:52Z</time>
      </trkpt>
      <trkpt lat="45.81453" lon="13.92304">
        <ele>225.57</ele>
        <time>2012-07-30T15:03:57Z</time>
      </trkpt>
      <trkpt lat="45.81453" lon="13.92337">
        <ele>224.61</ele>
        <time>2012-07-30T15:03:59Z</time>
      </trkpt>
      <trkpt lat="45.81455" lon="13.92428">
        <ele>221.72</ele>
        <time>2012-07-30T15:04:04Z</time>
      </trkpt>
      <trkpt lat="45.81469" lon="13.92531">
        <ele>218.84</ele>
        <time>2012-07-30T15:04:09Z</time>
      </trkpt>
      <trkpt lat="45.81478" lon="13.92594">
        <ele>214.99</ele>
        <time>2012-07-30T15:04:12Z</time>
      </trkpt>
      <trkpt lat="45.81482" lon="13.92613">
        <ele>214.51</ele>
        <time>2012-07-30T15:04:13Z</time>
      </trkpt>
      <trkpt lat="45.81491" lon="13.92649">
        <ele>213.07</ele>
        <time>2012-07-30T15:04:15Z</time>
      </trkpt>
      <trkpt lat="45.81498" lon="13.92667">
        <ele>214.03</ele>
        <time>2012-07-30T15:04:16Z</time>
      </trkpt>
      <trkpt lat="45.81506" lon="13.92684">
        <ele>213.07</ele>
        <time>2012-07-30T15:04:17Z</time>
      </trkpt>
      <trkpt lat="45.81532" lon="13.92727">
        <ele>209.22</ele>
        <time>2012-07-30T15:04:20Z</time>
      </trkpt>
      <trkpt lat="45.81549" lon="13.92748">
        <ele>207.3</ele>
        <time>2012-07-30T15:04:22Z</time>
      </trkpt>
      <trkpt lat="45.81555" lon="13.92759">
        <ele>205.86</ele>
        <time>2012-07-30T15:04:23Z</time>
      </trkpt>
      <trkpt lat="45.8156" lon="13.92773">
        <ele>204.9</ele>
        <time>2012-07-30T15:04:24Z</time>
      </trkpt>
      <trkpt lat="45.81562" lon="13.92789">
        <ele>205.38</ele>
        <time>2012-07-30T15:04:25Z</time>
      </trkpt>
      <trkpt lat="45.81564" lon="13.92808">
        <ele>204.9</ele>
        <time>2012-07-30T15:04:26Z</time>
      </trkpt>
      <trkpt lat="45.81577" lon="13.92956">
        <ele>201.53</ele>
        <time>2012-07-30T15:04:33Z</time>
      </trkpt>
      <trkpt lat="45.81585" lon="13.93038">
        <ele>198.17</ele>
        <time>2012-07-30T15:04:37Z</time>
      </trkpt>
      <trkpt lat="45.81595" lon="13.93094">
        <ele>195.77</ele>
        <time>2012-07-30T15:04:40Z</time>
      </trkpt>
      <trkpt lat="45.81622" lon="13.93218">
        <ele>192.4</ele>
        <time>2012-07-30T15:04:46Z</time>
      </trkpt>
      <trkpt lat="45.81645" lon="13.93301">
        <ele>189.04</ele>
        <time>2012-07-30T15:04:50Z</time>
      </trkpt>
      <trkpt lat="45.81651" lon="13.93322">
        <ele>188.56</ele>
        <time>2012-07-30T15:04:51Z</time>
      </trkpt>
      <trkpt lat="45.81664" lon="13.93362">
        <ele>187.59</ele>
        <time>2012-07-30T15:04:53Z</time>
      </trkpt>
      <trkpt lat="45.81682" lon="13.93421">
        <ele>183.75</ele>
        <time>2012-07-30T15:04:56Z</time>
      </trkpt>
      <trkpt lat="45.81688" lon="13.9344">
        <ele>183.75</ele>
        <time>2012-07-30T15:04:57Z</time>
      </trkpt>
      <trkpt lat="45.81704" lon="13.93498">
        <ele>181.83</ele>
        <time>2012-07-30T15:05:00Z</time>
      </trkpt>
      <trkpt lat="45.81727" lon="13.93555">
        <ele>178.46</ele>
        <time>2012-07-30T15:05:03Z</time>
      </trkpt>
      <trkpt lat="45.8176" lon="13.93622">
        <ele>174.14</ele>
        <time>2012-07-30T15:05:07Z</time>
      </trkpt>
      <trkpt lat="45.81765" lon="13.93638">
        <ele>173.17</ele>
        <time>2012-07-30T15:05:08Z</time>
      </trkpt>
      <trkpt lat="45.81768" lon="13.93652">
        <ele>171.73</ele>
        <time>2012-07-30T15:05:09Z</time>
      </trkpt>
      <trkpt lat="45.81767" lon="13.93666">
        <ele>170.77</ele>
        <time>2012-07-30T15:05:10Z</time>
      </trkpt>
      <trkpt lat="45.81766" lon="13.93677">
        <ele>168.85</ele>
        <time>2012-07-30T15:05:11Z</time>
      </trkpt>
      <trkpt lat="45.81765" lon="13.93687">
        <ele>168.37</ele>
        <time>2012-07-30T15:05:12Z</time>
      </trkpt>
      <trkpt lat="45.81767" lon="13.93695">
        <ele>167.89</ele>
        <time>2012-07-30T15:05:13Z</time>
      </trkpt>
      <trkpt lat="45.81769" lon="13.937">
        <ele>167.89</ele>
        <time>2012-07-30T15:05:14Z</time>
      </trkpt>
      <trkpt lat="45.8177" lon="13.93704">
        <ele>166.93</ele>
        <time>2012-07-30T15:05:15Z</time>
      </trkpt>
      <trkpt lat="45.81774" lon="13.93704">
        <ele>166.45</ele>
        <time>2012-07-30T15:05:25Z</time>
      </trkpt>
      <trkpt lat="45.81776" lon="13.93703">
        <ele>166.45</ele>
        <time>2012-07-30T15:05:39Z</time>
      </trkpt>
      <trkpt lat="45.81776" lon="13.93701">
        <ele>166.45</ele>
        <time>2012-07-30T15:05:50Z</time>
      </trkpt>
      <trkpt lat="45.81777" lon="13.93698">
        <ele>166.45</ele>
        <time>2012-07-30T15:05:52Z</time>
      </trkpt>
      <trkpt lat="45.81772" lon="13.93687">
        <ele>166.45</ele>
        <time>2012-07-30T15:05:55Z</time>
      </trkpt>
      <trkpt lat="45.8177" lon="13.93681">
        <ele>166.93</ele>
        <time>2012-07-30T15:05:56Z</time>
      </trkpt>
      <trkpt lat="45.81769" lon="13.93671">
        <ele>166.93</ele>
        <time>2012-07-30T15:05:57Z</time>
      </trkpt>
      <trkpt lat="45.8177" lon="13.93659">
        <ele>168.37</ele>
        <time>2012-07-30T15:05:58Z</time>
      </trkpt>
      <trkpt lat="45.81769" lon="13.93644">
        <ele>168.37</ele>
        <time>2012-07-30T15:05:59Z</time>
      </trkpt>
      <trkpt lat="45.81765" lon="13.9363">
        <ele>169.81</ele>
        <time>2012-07-30T15:06:00Z</time>
      </trkpt>
      <trkpt lat="45.8176" lon="13.93617">
        <ele>170.29</ele>
        <time>2012-07-30T15:06:01Z</time>
      </trkpt>
      <trkpt lat="45.8173" lon="13.93558">
        <ele>174.14</ele>
        <time>2012-07-30T15:06:05Z</time>
      </trkpt>
      <trkpt lat="45.81708" lon="13.93508">
        <ele>177.02</ele>
        <time>2012-07-30T15:06:08Z</time>
      </trkpt>
      <trkpt lat="45.81689" lon="13.93449">
        <ele>180.38</ele>
        <time>2012-07-30T15:06:11Z</time>
      </trkpt>
      <trkpt lat="45.81664" lon="13.93365">
        <ele>183.27</ele>
        <time>2012-07-30T15:06:15Z</time>
      </trkpt>
      <trkpt lat="45.81643" lon="13.93301">
        <ele>186.63</ele>
        <time>2012-07-30T15:06:18Z</time>
      </trkpt>
      <trkpt lat="45.8163" lon="13.93256">
        <ele>189.52</ele>
        <time>2012-07-30T15:06:20Z</time>
      </trkpt>
      <trkpt lat="45.81613" lon="13.93184">
        <ele>192.4</ele>
        <time>2012-07-30T15:06:23Z</time>
      </trkpt>
      <trkpt lat="45.81603" lon="13.93135">
        <ele>193.84</ele>
        <time>2012-07-30T15:06:25Z</time>
      </trkpt>
      <trkpt lat="45.81588" lon="13.9306">
        <ele>197.21</ele>
        <time>2012-07-30T15:06:28Z</time>
      </trkpt>
      <trkpt lat="45.81584" lon="13.93035">
        <ele>197.21</ele>
        <time>2012-07-30T15:06:29Z</time>
      </trkpt>
      <trkpt lat="45.81577" lon="13.92957">
        <ele>200.09</ele>
        <time>2012-07-30T15:06:32Z</time>
      </trkpt>
      <trkpt lat="45.81569" lon="13.92855">
        <ele>203.46</ele>
        <time>2012-07-30T15:06:36Z</time>
      </trkpt>
      <trkpt lat="45.81564" lon="13.92788">
        <ele>205.38</ele>
        <time>2012-07-30T15:06:39Z</time>
      </trkpt>
      <trkpt lat="45.81561" lon="13.9277">
        <ele>203.94</ele>
        <time>2012-07-30T15:06:40Z</time>
      </trkpt>
      <trkpt lat="45.81556" lon="13.92754">
        <ele>204.9</ele>
        <time>2012-07-30T15:06:41Z</time>
      </trkpt>
      <trkpt lat="45.81547" lon="13.92739">
        <ele>205.86</ele>
        <time>2012-07-30T15:06:42Z</time>
      </trkpt>
      <trkpt lat="45.81525" lon="13.92711">
        <ele>209.22</ele>
        <time>2012-07-30T15:06:44Z</time>
      </trkpt>
      <trkpt lat="45.81515" lon="13.92694">
        <ele>210.19</ele>
        <time>2012-07-30T15:06:45Z</time>
      </trkpt>
      <trkpt lat="45.81488" lon="13.9264">
        <ele>212.59</ele>
        <time>2012-07-30T15:06:48Z</time>
      </trkpt>
      <trkpt lat="45.81482" lon="13.9262">
        <ele>214.03</ele>
        <time>2012-07-30T15:06:49Z</time>
      </trkpt>
      <trkpt lat="45.81478" lon="13.92598">
        <ele>214.99</ele>
        <time>2012-07-30T15:06:50Z</time>
      </trkpt>
      <trkpt lat="45.81468" lon="13.92527">
        <ele>218.36</ele>
        <time>2012-07-30T15:06:53Z</time>
      </trkpt>
      <trkpt lat="45.81455" lon="13.92431">
        <ele>222.68</ele>
        <time>2012-07-30T15:06:57Z</time>
      </trkpt>
      <trkpt lat="45.81453" lon="13.92406">
        <ele>222.68</ele>
        <time>2012-07-30T15:06:58Z</time>
      </trkpt>
      <trkpt lat="45.81453" lon="13.92288">
        <ele>224.61</ele>
        <time>2012-07-30T15:07:04Z</time>
      </trkpt>
      <trkpt lat="45.81454" lon="13.92277">
        <ele>224.12</ele>
        <time>2012-07-30T15:07:05Z</time>
      </trkpt>
      <trkpt lat="45.81455" lon="13.92268">
        <ele>224.12</ele>
        <time>2012-07-30T15:07:06Z</time>
      </trkpt>
      <trkpt lat="45.81458" lon="13.92262">
        <ele>224.61</ele>
        <time>2012-07-30T15:07:07Z</time>
      </trkpt>
      <trkpt lat="45.81462" lon="13.92259">
        <ele>225.09</ele>
        <time>2012-07-30T15:07:08Z</time>
      </trkpt>
      <trkpt lat="45.81468" lon="13.92259">
        <ele>226.53</ele>
        <time>2012-07-30T15:07:09Z</time>
      </trkpt>
      <trkpt lat="45.81475" lon="13.92262">
        <ele>227.01</ele>
        <time>2012-07-30T15:07:10Z</time>
      </trkpt>
      <trkpt lat="45.81483" lon="13.92265">
        <ele>227.49</ele>
        <time>2012-07-30T15:07:11Z</time>
      </trkpt>
      <trkpt lat="45.81492" lon="13.92268">
        <ele>227.49</ele>
        <time>2012-07-30T15:07:12Z</time>
      </trkpt>
      <trkpt lat="45.81501" lon="13.9227">
        <ele>227.97</ele>
        <time>2012-07-30T15:07:13Z</time>
      </trkpt>
      <trkpt lat="45.81532" lon="13.92274">
        <ele>231.33</ele>
        <time>2012-07-30T15:07:16Z</time>
      </trkpt>
      <trkpt lat="45.81588" lon="13.92275">
        <ele>232.78</ele>
        <time>2012-07-30T15:07:21Z</time>
      </trkpt>
      <trkpt lat="45.816" lon="13.92271">
        <ele>237.58</ele>
        <time>2012-07-30T15:07:22Z</time>
      </trkpt>
      <trkpt lat="45.81612" lon="13.92267">
        <ele>237.58</ele>
        <time>2012-07-30T15:07:23Z</time>
      </trkpt>
      <trkpt lat="45.81683" lon="13.92232">
        <ele>240.95</ele>
        <time>2012-07-30T15:07:29Z</time>
      </trkpt>
      <trkpt lat="45.81694" lon="13.92228">
        <ele>240.95</ele>
        <time>2012-07-30T15:07:30Z</time>
      </trkpt>
      <trkpt lat="45.81706" lon="13.92225">
        <ele>241.43</ele>
        <time>2012-07-30T15:07:31Z</time>
      </trkpt>
      <trkpt lat="45.81717" lon="13.92225">
        <ele>243.35</ele>
        <time>2012-07-30T15:07:32Z</time>
      </trkpt>
      <trkpt lat="45.81742" lon="13.92229">
        <ele>243.35</ele>
        <time>2012-07-30T15:07:35Z</time>
      </trkpt>
      <trkpt lat="45.81745" lon="13.92231">
        <ele>243.83</ele>
        <time>2012-07-30T15:07:36Z</time>
      </trkpt>
      <trkpt lat="45.81747" lon="13.92241">
        <ele>244.79</ele>
        <time>2012-07-30T15:07:38Z</time>
      </trkpt>
      <trkpt lat="45.81759" lon="13.92264">
        <ele>248.16</ele>
        <time>2012-07-30T15:07:43Z</time>
      </trkpt>
      <trkpt lat="45.81763" lon="13.92266">
        <ele>249.12</ele>
        <time>2012-07-30T15:07:44Z</time>
      </trkpt>
      <trkpt lat="45.81767" lon="13.92269">
        <ele>251.04</ele>
        <time>2012-07-30T15:07:45Z</time>
      </trkpt>
      <trkpt lat="45.81771" lon="13.92271">
        <ele>250.56</ele>
        <time>2012-07-30T15:07:46Z</time>
      </trkpt>
      <trkpt lat="45.81775" lon="13.92274">
        <ele>250.56</ele>
        <time>2012-07-30T15:07:47Z</time>
      </trkpt>
      <trkpt lat="45.81779" lon="13.92277">
        <ele>251.52</ele>
        <time>2012-07-30T15:07:48Z</time>
      </trkpt>
      <trkpt lat="45.81788" lon="13.92288">
        <ele>252.96</ele>
        <time>2012-07-30T15:07:51Z</time>
      </trkpt>
      <trkpt lat="45.81792" lon="13.9229">
        <ele>253.44</ele>
        <time>2012-07-30T15:07:52Z</time>
      </trkpt>
      <trkpt lat="45.81795" lon="13.92292">
        <ele>253.93</ele>
        <time>2012-07-30T15:07:53Z</time>
      </trkpt>
      <trkpt lat="45.81799" lon="13.92293">
        <ele>254.89</ele>
        <time>2012-07-30T15:07:54Z</time>
      </trkpt>
      <trkpt lat="45.81803" lon="13.92293">
        <ele>255.37</ele>
        <time>2012-07-30T15:07:55Z</time>
      </trkpt>
      <trkpt lat="45.81807" lon="13.92292">
        <ele>256.81</ele>
        <time>2012-07-30T15:07:56Z</time>
      </trkpt>
      <trkpt lat="45.81811" lon="13.92291">
        <ele>257.77</ele>
        <time>2012-07-30T15:07:57Z</time>
      </trkpt>
      <trkpt lat="45.81821" lon="13.9229">
        <ele>260.17</ele>
        <time>2012-07-30T15:08:00Z</time>
      </trkpt>
      <trkpt lat="45.81834" lon="13.92302">
        <ele>263.54</ele>
        <time>2012-07-30T15:08:08Z</time>
      </trkpt>
      <trkpt lat="45.81836" lon="13.92306">
        <ele>263.54</ele>
        <time>2012-07-30T15:08:16Z</time>
      </trkpt>
      <trkpt lat="45.81836" lon="13.92306">
        <ele>263.54</ele>
        <time>2012-07-30T15:08:43Z</time>
      </trkpt>
      <trkpt lat="45.81838" lon="13.92308">
        <ele>264.5</ele>
        <time>2012-07-30T15:08:48Z</time>
      </trkpt>
      <trkpt lat="45.8184" lon="13.9231">
        <ele>264.98</ele>
        <time>2012-07-30T15:08:49Z</time>
      </trkpt>
      <trkpt lat="45.81842" lon="13.92311">
        <ele>264.98</ele>
        <time>2012-07-30T15:08:50Z</time>
      </trkpt>
      <trkpt lat="45.81844" lon="13.92311">
        <ele>265.46</ele>
        <time>2012-07-30T15:08:51Z</time>
      </trkpt>
      <trkpt lat="45.81843" lon="13.92312">
        <ele>265.94</ele>
        <time>2012-07-30T15:09:01Z</time>
      </trkpt>
      <trkpt lat="45.81842" lon="13.92312">
        <ele>265.94</ele>
        <time>2012-07-30T15:09:18Z</time>
      </trkpt>
      <trkpt lat="45.81842" lon="13.92313">
        <ele>264.5</ele>
        <time>2012-07-30T15:09:32Z</time>
      </trkpt>
      <trkpt lat="45.8184" lon="13.9231">
        <ele>264.98</ele>
        <time>2012-07-30T15:09:36Z</time>
      </trkpt>
      <trkpt lat="45.81839" lon="13.92309">
        <ele>264.5</ele>
        <time>2012-07-30T15:09:37Z</time>
      </trkpt>
      <trkpt lat="45.81824" lon="13.92292">
        <ele>261.14</ele>
        <time>2012-07-30T15:09:47Z</time>
      </trkpt>
      <trkpt lat="45.81817" lon="13.92289">
        <ele>259.69</ele>
        <time>2012-07-30T15:09:52Z</time>
      </trkpt>
      <trkpt lat="45.81816" lon="13.92289">
        <ele>259.69</ele>
        <time>2012-07-30T15:09:53Z</time>
      </trkpt>
      <trkpt lat="45.81815" lon="13.92289">
        <ele>260.17</ele>
        <time>2012-07-30T15:09:54Z</time>
      </trkpt>
      <trkpt lat="45.81813" lon="13.9229">
        <ele>260.17</ele>
        <time>2012-07-30T15:09:55Z</time>
      </trkpt>
      <trkpt lat="45.81811" lon="13.9229">
        <ele>258.73</ele>
        <time>2012-07-30T15:09:56Z</time>
      </trkpt>
      <trkpt lat="45.8181" lon="13.9229">
        <ele>258.25</ele>
        <time>2012-07-30T15:09:57Z</time>
      </trkpt>
      <trkpt lat="45.81809" lon="13.92291">
        <ele>257.77</ele>
        <time>2012-07-30T15:09:58Z</time>
      </trkpt>
      <trkpt lat="45.81807" lon="13.92291">
        <ele>257.29</ele>
        <time>2012-07-30T15:09:59Z</time>
      </trkpt>
      <trkpt lat="45.81793" lon="13.9229">
        <ele>253.93</ele>
        <time>2012-07-30T15:10:07Z</time>
      </trkpt>
      <trkpt lat="45.81791" lon="13.92289">
        <ele>253.93</ele>
        <time>2012-07-30T15:10:08Z</time>
      </trkpt>
      <trkpt lat="45.81772" lon="13.92271">
        <ele>250.56</ele>
        <time>2012-07-30T15:10:15Z</time>
      </trkpt>
      <trkpt lat="45.81754" lon="13.92265">
        <ele>248.16</ele>
        <time>2012-07-30T15:10:27Z</time>
      </trkpt>
      <trkpt lat="45.81754" lon="13.92264">
        <ele>248.16</ele>
        <time>2012-07-30T15:10:50Z</time>
      </trkpt>
      <trkpt lat="45.81753" lon="13.92265">
        <ele>248.16</ele>
        <time>2012-07-30T15:11:31Z</time>
      </trkpt>
      <trkpt lat="45.81753" lon="13.92264">
        <ele>248.64</ele>
        <time>2012-07-30T15:12:15Z</time>
      </trkpt>
      <trkpt lat="45.81753" lon="13.92264">
        <ele>249.12</ele>
        <time>2012-07-30T15:12:58Z</time>
      </trkpt>
      <trkpt lat="45.81754" lon="13.92264">
        <ele>249.6</ele>
        <time>2012-07-30T15:13:40Z</time>
      </trkpt>
      <trkpt lat="45.81753" lon="13.92264">
        <ele>249.6</ele>
        <time>2012-07-30T15:14:25Z</time>
      </trkpt>
      <trkpt lat="45.81753" lon="13.92264">
        <ele>249.6</ele>
        <time>2012-07-30T15:15:08Z</time>
      </trkpt>
      <trkpt lat="45.81752" lon="13.92264">
        <ele>249.6</ele>
        <time>2012-07-30T15:15:56Z</time>
      </trkpt>
      <trkpt lat="45.81753" lon="13.92264">
        <ele>250.08</ele>
        <time>2012-07-30T15:16:36Z</time>
      </trkpt>
      <trkpt lat="45.81753" lon="13.92265">
        <ele>250.56</ele>
        <time>2012-07-30T15:17:25Z</time>
      </trkpt>
      <trkpt lat="45.81753" lon="13.92264">
        <ele>250.56</ele>
        <time>2012-07-30T15:18:09Z</time>
      </trkpt>
      <trkpt lat="45.81752" lon="13.92265">
        <ele>251.52</ele>
        <time>2012-07-30T15:18:51Z</time>
      </trkpt>
      <trkpt lat="45.81754" lon="13.92265">
        <ele>250.56</ele>
        <time>2012-07-30T15:19:28Z</time>
      </trkpt>
      <trkpt lat="45.81753" lon="13.92265">
        <ele>251.04</ele>
        <time>2012-07-30T15:19:48Z</time>
      </trkpt>
      <trkpt lat="45.81753" lon="13.92265">
        <ele>251.52</ele>
        <time>2012-07-30T15:20:26Z</time>
      </trkpt>
      <trkpt lat="45.81753" lon="13.92264">
        <ele>251.04</ele>
        <time>2012-07-30T15:21:07Z</time>
      </trkpt>
      <trkpt lat="45.81753" lon="13.92263">
        <ele>251.04</ele>
        <time>2012-07-30T15:21:51Z</time>
      </trkpt>
      <trkpt lat="45.81754" lon="13.92262">
        <ele>251.04</ele>
        <time>2012-07-30T15:22:25Z</time>
      </trkpt>
      <trkpt lat="45.81752" lon="13.92257">
        <ele>250.56</ele>
        <time>2012-07-30T15:22:28Z</time>
      </trkpt>
      <trkpt lat="45.8175" lon="13.92255">
        <ele>250.56</ele>
        <time>2012-07-30T15:22:29Z</time>
      </trkpt>
      <trkpt lat="45.81741" lon="13.9223">
        <ele>247.2</ele>
        <time>2012-07-30T15:22:36Z</time>
      </trkpt>
      <trkpt lat="45.81738" lon="13.92226">
        <ele>246.72</ele>
        <time>2012-07-30T15:22:37Z</time>
      </trkpt>
      <trkpt lat="45.81734" lon="13.92224">
        <ele>246.23</ele>
        <time>2012-07-30T15:22:38Z</time>
      </trkpt>
      <trkpt lat="45.8173" lon="13.92224">
        <ele>246.23</ele>
        <time>2012-07-30T15:22:39Z</time>
      </trkpt>
      <trkpt lat="45.81702" lon="13.92223">
        <ele>245.27</ele>
        <time>2012-07-30T15:22:44Z</time>
      </trkpt>
      <trkpt lat="45.81692" lon="13.92226">
        <ele>245.27</ele>
        <time>2012-07-30T15:22:45Z</time>
      </trkpt>
      <trkpt lat="45.8168" lon="13.92231">
        <ele>244.79</ele>
        <time>2012-07-30T15:22:46Z</time>
      </trkpt>
      <trkpt lat="45.81648" lon="13.92251">
        <ele>240.95</ele>
        <time>2012-07-30T15:22:49Z</time>
      </trkpt>
      <trkpt lat="45.81615" lon="13.92264">
        <ele>238.54</ele>
        <time>2012-07-30T15:22:52Z</time>
      </trkpt>
      <trkpt lat="45.81575" lon="13.92277">
        <ele>234.7</ele>
        <time>2012-07-30T15:22:56Z</time>
      </trkpt>
      <trkpt lat="45.81564" lon="13.92278">
        <ele>235.18</ele>
        <time>2012-07-30T15:22:57Z</time>
      </trkpt>
      <trkpt lat="45.81553" lon="13.92277">
        <ele>234.7</ele>
        <time>2012-07-30T15:22:58Z</time>
      </trkpt>
      <trkpt lat="45.81515" lon="13.9227">
        <ele>232.78</ele>
        <time>2012-07-30T15:23:01Z</time>
      </trkpt>
      <trkpt lat="45.81471" lon="13.92259">
        <ele>230.85</ele>
        <time>2012-07-30T15:23:05Z</time>
      </trkpt>
      <trkpt lat="45.81465" lon="13.92256">
        <ele>229.89</ele>
        <time>2012-07-30T15:23:06Z</time>
      </trkpt>
      <trkpt lat="45.81461" lon="13.92254">
        <ele>228.93</ele>
        <time>2012-07-30T15:23:07Z</time>
      </trkpt>
      <trkpt lat="45.81459" lon="13.92253">
        <ele>228.45</ele>
        <time>2012-07-30T15:23:08Z</time>
      </trkpt>
      <trkpt lat="45.81456" lon="13.92254">
        <ele>228.93</ele>
        <time>2012-07-30T15:23:16Z</time>
      </trkpt>
      <trkpt lat="45.81454" lon="13.92257">
        <ele>228.93</ele>
        <time>2012-07-30T15:23:17Z</time>
      </trkpt>
      <trkpt lat="45.81452" lon="13.92263">
        <ele>228.93</ele>
        <time>2012-07-30T15:23:18Z</time>
      </trkpt>
      <trkpt lat="45.81452" lon="13.92274">
        <ele>229.89</ele>
        <time>2012-07-30T15:23:19Z</time>
      </trkpt>
      <trkpt lat="45.81452" lon="13.92287">
        <ele>230.37</ele>
        <time>2012-07-30T15:23:20Z</time>
      </trkpt>
      <trkpt lat="45.81453" lon="13.92418">
        <ele>227.01</ele>
        <time>2012-07-30T15:23:27Z</time>
      </trkpt>
      <trkpt lat="45.81462" lon="13.92491">
        <ele>223.64</ele>
        <time>2012-07-30T15:23:31Z</time>
      </trkpt>
      <trkpt lat="45.81475" lon="13.92582">
        <ele>220.28</ele>
        <time>2012-07-30T15:23:36Z</time>
      </trkpt>
      <trkpt lat="45.8148" lon="13.92616">
        <ele>218.36</ele>
        <time>2012-07-30T15:23:38Z</time>
      </trkpt>
      <trkpt lat="45.81484" lon="13.92632">
        <ele>217.88</ele>
        <time>2012-07-30T15:23:39Z</time>
      </trkpt>
      <trkpt lat="45.81489" lon="13.92647">
        <ele>217.4</ele>
        <time>2012-07-30T15:23:40Z</time>
      </trkpt>
      <trkpt lat="45.81496" lon="13.92661">
        <ele>216.91</ele>
        <time>2012-07-30T15:23:41Z</time>
      </trkpt>
      <trkpt lat="45.81503" lon="13.92675">
        <ele>216.91</ele>
        <time>2012-07-30T15:23:42Z</time>
      </trkpt>
      <trkpt lat="45.81532" lon="13.92726">
        <ele>212.59</ele>
        <time>2012-07-30T15:23:46Z</time>
      </trkpt>
      <trkpt lat="45.81549" lon="13.92745">
        <ele>211.63</ele>
        <time>2012-07-30T15:23:48Z</time>
      </trkpt>
      <trkpt lat="45.81555" lon="13.92757">
        <ele>210.67</ele>
        <time>2012-07-30T15:23:49Z</time>
      </trkpt>
      <trkpt lat="45.81559" lon="13.92772">
        <ele>210.67</ele>
        <time>2012-07-30T15:23:50Z</time>
      </trkpt>
      <trkpt lat="45.81562" lon="13.92791">
        <ele>211.63</ele>
        <time>2012-07-30T15:23:51Z</time>
      </trkpt>
      <trkpt lat="45.81563" lon="13.92812">
        <ele>211.15</ele>
        <time>2012-07-30T15:23:52Z</time>
      </trkpt>
      <trkpt lat="45.81575" lon="13.92954">
        <ele>207.3</ele>
        <time>2012-07-30T15:23:58Z</time>
      </trkpt>
      <trkpt lat="45.81585" lon="13.93045">
        <ele>203.94</ele>
        <time>2012-07-30T15:24:02Z</time>
      </trkpt>
      <trkpt lat="45.81598" lon="13.9311">
        <ele>202.49</ele>
        <time>2012-07-30T15:24:05Z</time>
      </trkpt>
      <trkpt lat="45.81616" lon="13.93202">
        <ele>198.65</ele>
        <time>2012-07-30T15:24:09Z</time>
      </trkpt>
      <trkpt lat="45.81622" lon="13.93226">
        <ele>199.13</ele>
        <time>2012-07-30T15:24:10Z</time>
      </trkpt>
      <trkpt lat="45.81641" lon="13.93299">
        <ele>195.77</ele>
        <time>2012-07-30T15:24:13Z</time>
      </trkpt>
      <trkpt lat="45.81657" lon="13.93347">
        <ele>194.8</ele>
        <time>2012-07-30T15:24:15Z</time>
      </trkpt>
      <trkpt lat="45.81672" lon="13.93394">
        <ele>191.44</ele>
        <time>2012-07-30T15:24:17Z</time>
      </trkpt>
      <trkpt lat="45.81692" lon="13.93466">
        <ele>188.08</ele>
        <time>2012-07-30T15:24:20Z</time>
      </trkpt>
      <trkpt lat="45.81716" lon="13.93534">
        <ele>184.23</ele>
        <time>2012-07-30T15:24:23Z</time>
      </trkpt>
      <trkpt lat="45.81743" lon="13.93588">
        <ele>179.9</ele>
        <time>2012-07-30T15:24:26Z</time>
      </trkpt>
      <trkpt lat="45.81758" lon="13.93618">
        <ele>177.98</ele>
        <time>2012-07-30T15:24:28Z</time>
      </trkpt>
      <trkpt lat="45.81763" lon="13.93632">
        <ele>177.5</ele>
        <time>2012-07-30T15:24:29Z</time>
      </trkpt>
      <trkpt lat="45.81766" lon="13.93647">
        <ele>177.02</ele>
        <time>2012-07-30T15:24:30Z</time>
      </trkpt>
      <trkpt lat="45.81766" lon="13.93662">
        <ele>176.06</ele>
        <time>2012-07-30T15:24:31Z</time>
      </trkpt>
      <trkpt lat="45.81764" lon="13.93674">
        <ele>174.14</ele>
        <time>2012-07-30T15:24:32Z</time>
      </trkpt>
      <trkpt lat="45.81764" lon="13.93685">
        <ele>173.17</ele>
        <time>2012-07-30T15:24:33Z</time>
      </trkpt>
      <trkpt lat="45.81765" lon="13.93693">
        <ele>172.21</ele>
        <time>2012-07-30T15:24:34Z</time>
      </trkpt>
      <trkpt lat="45.81769" lon="13.93696">
        <ele>171.73</ele>
        <time>2012-07-30T15:24:35Z</time>
      </trkpt>
      <trkpt lat="45.81773" lon="13.93695">
        <ele>171.25</ele>
        <time>2012-07-30T15:24:36Z</time>
      </trkpt>
      <trkpt lat="45.81777" lon="13.93687">
        <ele>171.25</ele>
        <time>2012-07-30T15:24:37Z</time>
      </trkpt>
      <trkpt lat="45.81779" lon="13.93673">
        <ele>170.77</ele>
        <time>2012-07-30T15:24:38Z</time>
      </trkpt>
      <trkpt lat="45.8178" lon="13.93657">
        <ele>170.77</ele>
        <time>2012-07-30T15:24:39Z</time>
      </trkpt>
      <trkpt lat="45.81779" lon="13.93639">
        <ele>170.29</ele>
        <time>2012-07-30T15:24:40Z</time>
      </trkpt>
      <trkpt lat="45.81777" lon="13.9362">
        <ele>170.77</ele>
        <time>2012-07-30T15:24:41Z</time>
      </trkpt>
      <trkpt lat="45.81774" lon="13.936">
        <ele>169.81</ele>
        <time>2012-07-30T15:24:42Z</time>
      </trkpt>
      <trkpt lat="45.8177" lon="13.93581">
        <ele>169.81</ele>
        <time>2012-07-30T15:24:43Z</time>
      </trkpt>
      <trkpt lat="45.81766" lon="13.93565">
        <ele>168.85</ele>
        <time>2012-07-30T15:24:44Z</time>
      </trkpt>
      <trkpt lat="45.81762" lon="13.93552">
        <ele>168.37</ele>
        <time>2012-07-30T15:24:45Z</time>
      </trkpt>
      <trkpt lat="45.8176" lon="13.93542">
        <ele>166.93</ele>
        <time>2012-07-30T15:24:46Z</time>
      </trkpt>
      <trkpt lat="45.8176" lon="13.93534">
        <ele>166.45</ele>
        <time>2012-07-30T15:24:47Z</time>
      </trkpt>
      <trkpt lat="45.81763" lon="13.93529">
        <ele>165.96</ele>
        <time>2012-07-30T15:24:48Z</time>
      </trkpt>
      <trkpt lat="45.81768" lon="13.93528">
        <ele>165</ele>
        <time>2012-07-30T15:24:49Z</time>
      </trkpt>
      <trkpt lat="45.81773" lon="13.93534">
        <ele>165.48</ele>
        <time>2012-07-30T15:24:50Z</time>
      </trkpt>
      <trkpt lat="45.81777" lon="13.93544">
        <ele>165.96</ele>
        <time>2012-07-30T15:24:51Z</time>
      </trkpt>
      <trkpt lat="45.8178" lon="13.93558">
        <ele>166.93</ele>
        <time>2012-07-30T15:24:52Z</time>
      </trkpt>
      <trkpt lat="45.81804" lon="13.93642">
        <ele>164.52</ele>
        <time>2012-07-30T15:24:57Z</time>
      </trkpt>
      <trkpt lat="45.81807" lon="13.9366">
        <ele>164.52</ele>
        <time>2012-07-30T15:24:58Z</time>
      </trkpt>
      <trkpt lat="45.81807" lon="13.93678">
        <ele>163.56</ele>
        <time>2012-07-30T15:24:59Z</time>
      </trkpt>
      <trkpt lat="45.81805" lon="13.93699">
        <ele>163.08</ele>
        <time>2012-07-30T15:25:00Z</time>
      </trkpt>
      <trkpt lat="45.81803" lon="13.93719">
        <ele>164.52</ele>
        <time>2012-07-30T15:25:01Z</time>
      </trkpt>
      <trkpt lat="45.81796" lon="13.9378">
        <ele>159.24</ele>
        <time>2012-07-30T15:25:04Z</time>
      </trkpt>
      <trkpt lat="45.81795" lon="13.938">
        <ele>158.75</ele>
        <time>2012-07-30T15:25:05Z</time>
      </trkpt>
      <trkpt lat="45.81794" lon="13.93818">
        <ele>158.75</ele>
        <time>2012-07-30T15:25:06Z</time>
      </trkpt>
      <trkpt lat="45.81791" lon="13.93836">
        <ele>157.31</ele>
        <time>2012-07-30T15:25:07Z</time>
      </trkpt>
      <trkpt lat="45.81786" lon="13.93854">
        <ele>156.83</ele>
        <time>2012-07-30T15:25:08Z</time>
      </trkpt>
      <trkpt lat="45.81781" lon="13.93869">
        <ele>154.91</ele>
        <time>2012-07-30T15:25:09Z</time>
      </trkpt>
      <trkpt lat="45.81776" lon="13.93882">
        <ele>153.47</ele>
        <time>2012-07-30T15:25:10Z</time>
      </trkpt>
      <trkpt lat="45.81772" lon="13.93894">
        <ele>152.51</ele>
        <time>2012-07-30T15:25:11Z</time>
      </trkpt>
      <trkpt lat="45.8177" lon="13.93905">
        <ele>151.54</ele>
        <time>2012-07-30T15:25:12Z</time>
      </trkpt>
      <trkpt lat="45.81771" lon="13.93915">
        <ele>150.58</ele>
        <time>2012-07-30T15:25:13Z</time>
      </trkpt>
      <trkpt lat="45.81775" lon="13.93923">
        <ele>150.1</ele>
        <time>2012-07-30T15:25:14Z</time>
      </trkpt>
      <trkpt lat="45.81781" lon="13.93926">
        <ele>149.14</ele>
        <time>2012-07-30T15:25:15Z</time>
      </trkpt>
      <trkpt lat="45.81789" lon="13.93924">
        <ele>149.14</ele>
        <time>2012-07-30T15:25:16Z</time>
      </trkpt>
      <trkpt lat="45.81799" lon="13.93916">
        <ele>149.14</ele>
        <time>2012-07-30T15:25:17Z</time>
      </trkpt>
      <trkpt lat="45.8181" lon="13.93906">
        <ele>149.62</ele>
        <time>2012-07-30T15:25:18Z</time>
      </trkpt>
      <trkpt lat="45.8182" lon="13.93895">
        <ele>149.62</ele>
        <time>2012-07-30T15:25:19Z</time>
      </trkpt>
      <trkpt lat="45.8186" lon="13.9384">
        <ele>145.78</ele>
        <time>2012-07-30T15:25:24Z</time>
      </trkpt>
      <trkpt lat="45.8191" lon="13.93722">
        <ele>141.93</ele>
        <time>2012-07-30T15:25:33Z</time>
      </trkpt>
      <trkpt lat="45.81914" lon="13.93715">
        <ele>141.45</ele>
        <time>2012-07-30T15:25:34Z</time>
      </trkpt>
      <trkpt lat="45.81918" lon="13.93712">
        <ele>141.93</ele>
        <time>2012-07-30T15:25:35Z</time>
      </trkpt>
      <trkpt lat="45.81925" lon="13.93712">
        <ele>141.93</ele>
        <time>2012-07-30T15:25:36Z</time>
      </trkpt>
      <trkpt lat="45.81932" lon="13.93716">
        <ele>141.93</ele>
        <time>2012-07-30T15:25:37Z</time>
      </trkpt>
      <trkpt lat="45.81939" lon="13.9372">
        <ele>142.41</ele>
        <time>2012-07-30T15:25:38Z</time>
      </trkpt>
      <trkpt lat="45.81947" lon="13.93723">
        <ele>142.41</ele>
        <time>2012-07-30T15:25:39Z</time>
      </trkpt>
      <trkpt lat="45.81955" lon="13.93727">
        <ele>142.89</ele>
        <time>2012-07-30T15:25:40Z</time>
      </trkpt>
      <trkpt lat="45.81963" lon="13.93733">
        <ele>142.89</ele>
        <time>2012-07-30T15:25:41Z</time>
      </trkpt>
      <trkpt lat="45.8197" lon="13.93741">
        <ele>141.93</ele>
        <time>2012-07-30T15:25:42Z</time>
      </trkpt>
      <trkpt lat="45.81977" lon="13.93752">
        <ele>141.93</ele>
        <time>2012-07-30T15:25:43Z</time>
      </trkpt>
      <trkpt lat="45.81982" lon="13.93763">
        <ele>142.41</ele>
        <time>2012-07-30T15:25:44Z</time>
      </trkpt>
      <trkpt lat="45.81987" lon="13.93777">
        <ele>142.41</ele>
        <time>2012-07-30T15:25:45Z</time>
      </trkpt>
      <trkpt lat="45.82022" lon="13.93859">
        <ele>140.49</ele>
        <time>2012-07-30T15:25:51Z</time>
      </trkpt>
      <trkpt lat="45.82047" lon="13.93911">
        <ele>139.53</ele>
        <time>2012-07-30T15:25:55Z</time>
      </trkpt>
      <trkpt lat="45.82051" lon="13.93926">
        <ele>139.05</ele>
        <time>2012-07-30T15:25:56Z</time>
      </trkpt>
      <trkpt lat="45.82079" lon="13.94034">
        <ele>136.64</ele>
        <time>2012-07-30T15:26:02Z</time>
      </trkpt>
      <trkpt lat="45.82108" lon="13.94121">
        <ele>134.24</ele>
        <time>2012-07-30T15:26:07Z</time>
      </trkpt>
      <trkpt lat="45.82112" lon="13.94139">
        <ele>134.72</ele>
        <time>2012-07-30T15:26:08Z</time>
      </trkpt>
      <trkpt lat="45.82117" lon="13.94176">
        <ele>135.2</ele>
        <time>2012-07-30T15:26:10Z</time>
      </trkpt>
      <trkpt lat="45.82124" lon="13.94231">
        <ele>132.32</ele>
        <time>2012-07-30T15:26:13Z</time>
      </trkpt>
      <trkpt lat="45.82138" lon="13.94328">
        <ele>130.88</ele>
        <time>2012-07-30T15:26:19Z</time>
      </trkpt>
      <trkpt lat="45.82146" lon="13.94391">
        <ele>127.99</ele>
        <time>2012-07-30T15:26:23Z</time>
      </trkpt>
      <trkpt lat="45.8215" lon="13.94405">
        <ele>128.47</ele>
        <time>2012-07-30T15:26:24Z</time>
      </trkpt>
      <trkpt lat="45.82156" lon="13.94416">
        <ele>127.51</ele>
        <time>2012-07-30T15:26:25Z</time>
      </trkpt>
      <trkpt lat="45.82164" lon="13.94425">
        <ele>126.55</ele>
        <time>2012-07-30T15:26:26Z</time>
      </trkpt>
      <trkpt lat="45.82174" lon="13.94429">
        <ele>126.07</ele>
        <time>2012-07-30T15:26:27Z</time>
      </trkpt>
      <trkpt lat="45.82185" lon="13.9443">
        <ele>126.07</ele>
        <time>2012-07-30T15:26:28Z</time>
      </trkpt>
      <trkpt lat="45.82198" lon="13.94429">
        <ele>127.03</ele>
        <time>2012-07-30T15:26:29Z</time>
      </trkpt>
      <trkpt lat="45.82212" lon="13.9443">
        <ele>127.99</ele>
        <time>2012-07-30T15:26:30Z</time>
      </trkpt>
      <trkpt lat="45.82227" lon="13.94435">
        <ele>129.43</ele>
        <time>2012-07-30T15:26:31Z</time>
      </trkpt>
      <trkpt lat="45.82242" lon="13.94445">
        <ele>129.92</ele>
        <time>2012-07-30T15:26:32Z</time>
      </trkpt>
      <trkpt lat="45.82258" lon="13.94456">
        <ele>129.92</ele>
        <time>2012-07-30T15:26:33Z</time>
      </trkpt>
      <trkpt lat="45.82274" lon="13.9447">
        <ele>130.88</ele>
        <time>2012-07-30T15:26:34Z</time>
      </trkpt>
      <trkpt lat="45.82289" lon="13.94485">
        <ele>131.36</ele>
        <time>2012-07-30T15:26:35Z</time>
      </trkpt>
      <trkpt lat="45.82305" lon="13.945">
        <ele>129.92</ele>
        <time>2012-07-30T15:26:36Z</time>
      </trkpt>
      <trkpt lat="45.82322" lon="13.94513">
        <ele>128.95</ele>
        <time>2012-07-30T15:26:37Z</time>
      </trkpt>
      <trkpt lat="45.82403" lon="13.94563">
        <ele>124.63</ele>
        <time>2012-07-30T15:26:42Z</time>
      </trkpt>
      <trkpt lat="45.82415" lon="13.94577">
        <ele>124.63</ele>
        <time>2012-07-30T15:26:43Z</time>
      </trkpt>
      <trkpt lat="45.82425" lon="13.94594">
        <ele>123.67</ele>
        <time>2012-07-30T15:26:44Z</time>
      </trkpt>
      <trkpt lat="45.82434" lon="13.94615">
        <ele>124.15</ele>
        <time>2012-07-30T15:26:45Z</time>
      </trkpt>
      <trkpt lat="45.82442" lon="13.94637">
        <ele>124.15</ele>
        <time>2012-07-30T15:26:46Z</time>
      </trkpt>
      <trkpt lat="45.82449" lon="13.94661">
        <ele>125.11</ele>
        <time>2012-07-30T15:26:47Z</time>
      </trkpt>
      <trkpt lat="45.82463" lon="13.9471">
        <ele>126.55</ele>
        <time>2012-07-30T15:26:49Z</time>
      </trkpt>
      <trkpt lat="45.8249" lon="13.94795">
        <ele>126.07</ele>
        <time>2012-07-30T15:26:53Z</time>
      </trkpt>
      <trkpt lat="45.82499" lon="13.94815">
        <ele>125.11</ele>
        <time>2012-07-30T15:26:54Z</time>
      </trkpt>
      <trkpt lat="45.82546" lon="13.94899">
        <ele>121.74</ele>
        <time>2012-07-30T15:26:59Z</time>
      </trkpt>
      <trkpt lat="45.8256" lon="13.94929">
        <ele>120.3</ele>
        <time>2012-07-30T15:27:01Z</time>
      </trkpt>
      <trkpt lat="45.82563" lon="13.94944">
        <ele>119.34</ele>
        <time>2012-07-30T15:27:02Z</time>
      </trkpt>
      <trkpt lat="45.82563" lon="13.9496">
        <ele>120.3</ele>
        <time>2012-07-30T15:27:03Z</time>
      </trkpt>
      <trkpt lat="45.82559" lon="13.94977">
        <ele>121.26</ele>
        <time>2012-07-30T15:27:04Z</time>
      </trkpt>
      <trkpt lat="45.82554" lon="13.94994">
        <ele>122.22</ele>
        <time>2012-07-30T15:27:05Z</time>
      </trkpt>
      <trkpt lat="45.82546" lon="13.95012">
        <ele>123.67</ele>
        <time>2012-07-30T15:27:06Z</time>
      </trkpt>
      <trkpt lat="45.82539" lon="13.95031">
        <ele>123.67</ele>
        <time>2012-07-30T15:27:07Z</time>
      </trkpt>
      <trkpt lat="45.82506" lon="13.95111">
        <ele>127.03</ele>
        <time>2012-07-30T15:27:11Z</time>
      </trkpt>
      <trkpt lat="45.82492" lon="13.95153">
        <ele>125.11</ele>
        <time>2012-07-30T15:27:13Z</time>
      </trkpt>
      <trkpt lat="45.82487" lon="13.95175">
        <ele>124.63</ele>
        <time>2012-07-30T15:27:14Z</time>
      </trkpt>
      <trkpt lat="45.82484" lon="13.95198">
        <ele>124.63</ele>
        <time>2012-07-30T15:27:15Z</time>
      </trkpt>
      <trkpt lat="45.82483" lon="13.95221">
        <ele>127.03</ele>
        <time>2012-07-30T15:27:16Z</time>
      </trkpt>
      <trkpt lat="45.82483" lon="13.95245">
        <ele>127.03</ele>
        <time>2012-07-30T15:27:17Z</time>
      </trkpt>
      <trkpt lat="45.82483" lon="13.95295">
        <ele>125.59</ele>
        <time>2012-07-30T15:27:19Z</time>
      </trkpt>
      <trkpt lat="45.82484" lon="13.95395">
        <ele>126.07</ele>
        <time>2012-07-30T15:27:23Z</time>
      </trkpt>
      <trkpt lat="45.82485" lon="13.9566">
        <ele>125.11</ele>
        <time>2012-07-30T15:27:34Z</time>
      </trkpt>
      <trkpt lat="45.82485" lon="13.95701">
        <ele>123.67</ele>
        <time>2012-07-30T15:27:36Z</time>
      </trkpt>
      <trkpt lat="45.82484" lon="13.95772">
        <ele>122.71</ele>
        <time>2012-07-30T15:27:41Z</time>
      </trkpt>
      <trkpt lat="45.82486" lon="13.95786">
        <ele>121.74</ele>
        <time>2012-07-30T15:27:47Z</time>
      </trkpt>
      <trkpt lat="45.82486" lon="13.95786">
        <ele>121.26</ele>
        <time>2012-07-30T15:28:02Z</time>
      </trkpt>
      <trkpt lat="45.82483" lon="13.9579">
        <ele>120.3</ele>
        <time>2012-07-30T15:28:03Z</time>
      </trkpt>
      <trkpt lat="45.82478" lon="13.95794">
        <ele>120.3</ele>
        <time>2012-07-30T15:28:04Z</time>
      </trkpt>
      <trkpt lat="45.82438" lon="13.95818">
        <ele>123.67</ele>
        <time>2012-07-30T15:28:08Z</time>
      </trkpt>
      <trkpt lat="45.82428" lon="13.95826">
        <ele>123.67</ele>
        <time>2012-07-30T15:28:09Z</time>
      </trkpt>
      <trkpt lat="45.82318" lon="13.95943">
        <ele>127.51</ele>
        <time>2012-07-30T15:28:20Z</time>
      </trkpt>
      <trkpt lat="45.82206" lon="13.96012">
        <ele>128.47</ele>
        <time>2012-07-30T15:28:27Z</time>
      </trkpt>
      <trkpt lat="45.82131" lon="13.96042">
        <ele>132.8</ele>
        <time>2012-07-30T15:28:31Z</time>
      </trkpt>
      <trkpt lat="45.82092" lon="13.96057">
        <ele>135.2</ele>
        <time>2012-07-30T15:28:33Z</time>
      </trkpt>
      <trkpt lat="45.82033" lon="13.96081">
        <ele>133.76</ele>
        <time>2012-07-30T15:28:36Z</time>
      </trkpt>
      <trkpt lat="45.81891" lon="13.96138">
        <ele>137.61</ele>
        <time>2012-07-30T15:28:43Z</time>
      </trkpt>
      <trkpt lat="45.8187" lon="13.96145">
        <ele>137.61</ele>
        <time>2012-07-30T15:28:44Z</time>
      </trkpt>
      <trkpt lat="45.81767" lon="13.96186">
        <ele>140.49</ele>
        <time>2012-07-30T15:28:49Z</time>
      </trkpt>
      <trkpt lat="45.81706" lon="13.96211">
        <ele>144.82</ele>
        <time>2012-07-30T15:28:52Z</time>
      </trkpt>
      <trkpt lat="45.81686" lon="13.96218">
        <ele>144.82</ele>
        <time>2012-07-30T15:28:53Z</time>
      </trkpt>
      <trkpt lat="45.81644" lon="13.96229">
        <ele>146.26</ele>
        <time>2012-07-30T15:28:55Z</time>
      </trkpt>
      <trkpt lat="45.81387" lon="13.96291">
        <ele>146.26</ele>
        <time>2012-07-30T15:29:07Z</time>
      </trkpt>
      <trkpt lat="45.81242" lon="13.96333">
        <ele>148.66</ele>
        <time>2012-07-30T15:29:14Z</time>
      </trkpt>
      <trkpt lat="45.81091" lon="13.96394">
        <ele>149.62</ele>
        <time>2012-07-30T15:29:22Z</time>
      </trkpt>
      <trkpt lat="45.8092" lon="13.96464">
        <ele>152.03</ele>
        <time>2012-07-30T15:29:31Z</time>
      </trkpt>
      <trkpt lat="45.80862" lon="13.96487">
        <ele>154.91</ele>
        <time>2012-07-30T15:29:34Z</time>
      </trkpt>
      <trkpt lat="45.80667" lon="13.96571">
        <ele>156.83</ele>
        <time>2012-07-30T15:29:44Z</time>
      </trkpt>
      <trkpt lat="45.80557" lon="13.96655">
        <ele>160.68</ele>
        <time>2012-07-30T15:29:50Z</time>
      </trkpt>
      <trkpt lat="45.80382" lon="13.96779">
        <ele>159.24</ele>
        <time>2012-07-30T15:30:00Z</time>
      </trkpt>
      <trkpt lat="45.80363" lon="13.96787">
        <ele>162.6</ele>
        <time>2012-07-30T15:30:01Z</time>
      </trkpt>
      <trkpt lat="45.80307" lon="13.96812">
        <ele>158.27</ele>
        <time>2012-07-30T15:30:04Z</time>
      </trkpt>
      <trkpt lat="45.80289" lon="13.96821">
        <ele>163.56</ele>
        <time>2012-07-30T15:30:05Z</time>
      </trkpt>
      <trkpt lat="45.80217" lon="13.9687">
        <ele>166.45</ele>
        <time>2012-07-30T15:30:09Z</time>
      </trkpt>
      <trkpt lat="45.80186" lon="13.96904">
        <ele>167.89</ele>
        <time>2012-07-30T15:30:11Z</time>
      </trkpt>
      <trkpt lat="45.80146" lon="13.96964">
        <ele>169.33</ele>
        <time>2012-07-30T15:30:14Z</time>
      </trkpt>
      <trkpt lat="45.80113" lon="13.9702">
        <ele>166.93</ele>
        <time>2012-07-30T15:30:17Z</time>
      </trkpt>
      <trkpt lat="45.801" lon="13.97034">
        <ele>167.41</ele>
        <time>2012-07-30T15:30:18Z</time>
      </trkpt>
      <trkpt lat="45.80085" lon="13.97044">
        <ele>166.45</ele>
        <time>2012-07-30T15:30:19Z</time>
      </trkpt>
      <trkpt lat="45.80069" lon="13.97053">
        <ele>168.85</ele>
        <time>2012-07-30T15:30:20Z</time>
      </trkpt>
      <trkpt lat="45.80052" lon="13.97061">
        <ele>171.73</ele>
        <time>2012-07-30T15:30:21Z</time>
      </trkpt>
      <trkpt lat="45.79877" lon="13.97113">
        <ele>170.77</ele>
        <time>2012-07-30T15:30:32Z</time>
      </trkpt>
      <trkpt lat="45.79804" lon="13.9712">
        <ele>174.14</ele>
        <time>2012-07-30T15:30:38Z</time>
      </trkpt>
      <trkpt lat="45.79793" lon="13.97127">
        <ele>172.69</ele>
        <time>2012-07-30T15:30:39Z</time>
      </trkpt>
      <trkpt lat="45.79783" lon="13.97136">
        <ele>172.69</ele>
        <time>2012-07-30T15:30:40Z</time>
      </trkpt>
      <trkpt lat="45.79713" lon="13.9722">
        <ele>170.77</ele>
        <time>2012-07-30T15:30:47Z</time>
      </trkpt>
      <trkpt lat="45.79705" lon="13.97236">
        <ele>169.81</ele>
        <time>2012-07-30T15:30:48Z</time>
      </trkpt>
      <trkpt lat="45.79699" lon="13.97253">
        <ele>169.81</ele>
        <time>2012-07-30T15:30:49Z</time>
      </trkpt>
      <trkpt lat="45.79694" lon="13.9727">
        <ele>170.29</ele>
        <time>2012-07-30T15:30:50Z</time>
      </trkpt>
      <trkpt lat="45.79691" lon="13.97286">
        <ele>170.77</ele>
        <time>2012-07-30T15:30:51Z</time>
      </trkpt>
      <trkpt lat="45.7968" lon="13.97334">
        <ele>168.37</ele>
        <time>2012-07-30T15:30:54Z</time>
      </trkpt>
      <trkpt lat="45.79674" lon="13.9735">
        <ele>168.85</ele>
        <time>2012-07-30T15:30:55Z</time>
      </trkpt>
      <trkpt lat="45.79666" lon="13.97364">
        <ele>169.33</ele>
        <time>2012-07-30T15:30:56Z</time>
      </trkpt>
      <trkpt lat="45.79656" lon="13.97375">
        <ele>169.33</ele>
        <time>2012-07-30T15:30:57Z</time>
      </trkpt>
      <trkpt lat="45.79644" lon="13.97385">
        <ele>170.77</ele>
        <time>2012-07-30T15:30:58Z</time>
      </trkpt>
      <trkpt lat="45.79631" lon="13.97393">
        <ele>170.29</ele>
        <time>2012-07-30T15:30:59Z</time>
      </trkpt>
      <trkpt lat="45.79617" lon="13.974">
        <ele>169.81</ele>
        <time>2012-07-30T15:31:00Z</time>
      </trkpt>
      <trkpt lat="45.79604" lon="13.97406">
        <ele>169.81</ele>
        <time>2012-07-30T15:31:01Z</time>
      </trkpt>
      <trkpt lat="45.79564" lon="13.97427">
        <ele>173.17</ele>
        <time>2012-07-30T15:31:04Z</time>
      </trkpt>
      <trkpt lat="45.79552" lon="13.97437">
        <ele>173.17</ele>
        <time>2012-07-30T15:31:05Z</time>
      </trkpt>
      <trkpt lat="45.7954" lon="13.97448">
        <ele>173.66</ele>
        <time>2012-07-30T15:31:06Z</time>
      </trkpt>
      <trkpt lat="45.79529" lon="13.9746">
        <ele>173.17</ele>
        <time>2012-07-30T15:31:07Z</time>
      </trkpt>
      <trkpt lat="45.7952" lon="13.97473">
        <ele>174.62</ele>
        <time>2012-07-30T15:31:08Z</time>
      </trkpt>
      <trkpt lat="45.79511" lon="13.97488">
        <ele>174.62</ele>
        <time>2012-07-30T15:31:09Z</time>
      </trkpt>
      <trkpt lat="45.79504" lon="13.97505">
        <ele>174.62</ele>
        <time>2012-07-30T15:31:10Z</time>
      </trkpt>
      <trkpt lat="45.79499" lon="13.97523">
        <ele>176.06</ele>
        <time>2012-07-30T15:31:11Z</time>
      </trkpt>
      <trkpt lat="45.79497" lon="13.97544">
        <ele>174.62</ele>
        <time>2012-07-30T15:31:12Z</time>
      </trkpt>
      <trkpt lat="45.79495" lon="13.97566">
        <ele>175.58</ele>
        <time>2012-07-30T15:31:13Z</time>
      </trkpt>
      <trkpt lat="45.79495" lon="13.97588">
        <ele>176.06</ele>
        <time>2012-07-30T15:31:14Z</time>
      </trkpt>
      <trkpt lat="45.79495" lon="13.97611">
        <ele>176.06</ele>
        <time>2012-07-30T15:31:15Z</time>
      </trkpt>
      <trkpt lat="45.79494" lon="13.97657">
        <ele>177.5</ele>
        <time>2012-07-30T15:31:17Z</time>
      </trkpt>
      <trkpt lat="45.79488" lon="13.9773">
        <ele>181.35</ele>
        <time>2012-07-30T15:31:20Z</time>
      </trkpt>
      <trkpt lat="45.79481" lon="13.9778">
        <ele>182.31</ele>
        <time>2012-07-30T15:31:22Z</time>
      </trkpt>
      <trkpt lat="45.79452" lon="13.97902">
        <ele>185.67</ele>
        <time>2012-07-30T15:31:27Z</time>
      </trkpt>
      <trkpt lat="45.79438" lon="13.97949">
        <ele>187.11</ele>
        <time>2012-07-30T15:31:29Z</time>
      </trkpt>
      <trkpt lat="45.79404" lon="13.98074">
        <ele>190.96</ele>
        <time>2012-07-30T15:31:34Z</time>
      </trkpt>
      <trkpt lat="45.79397" lon="13.98099">
        <ele>190.96</ele>
        <time>2012-07-30T15:31:35Z</time>
      </trkpt>
      <trkpt lat="45.79357" lon="13.98222">
        <ele>193.84</ele>
        <time>2012-07-30T15:31:40Z</time>
      </trkpt>
      <trkpt lat="45.79345" lon="13.98244">
        <ele>193.84</ele>
        <time>2012-07-30T15:31:41Z</time>
      </trkpt>
      <trkpt lat="45.79333" lon="13.98264">
        <ele>195.28</ele>
        <time>2012-07-30T15:31:42Z</time>
      </trkpt>
      <trkpt lat="45.79278" lon="13.9834">
        <ele>198.17</ele>
        <time>2012-07-30T15:31:46Z</time>
      </trkpt>
      <trkpt lat="45.79239" lon="13.98398">
        <ele>202.01</ele>
        <time>2012-07-30T15:31:49Z</time>
      </trkpt>
      <trkpt lat="45.79228" lon="13.9842">
        <ele>202.01</ele>
        <time>2012-07-30T15:31:50Z</time>
      </trkpt>
      <trkpt lat="45.79218" lon="13.98443">
        <ele>202.98</ele>
        <time>2012-07-30T15:31:51Z</time>
      </trkpt>
      <trkpt lat="45.7921" lon="13.98467">
        <ele>205.38</ele>
        <time>2012-07-30T15:31:52Z</time>
      </trkpt>
      <trkpt lat="45.79204" lon="13.98492">
        <ele>205.86</ele>
        <time>2012-07-30T15:31:53Z</time>
      </trkpt>
      <trkpt lat="45.792" lon="13.98517">
        <ele>207.78</ele>
        <time>2012-07-30T15:31:54Z</time>
      </trkpt>
      <trkpt lat="45.79198" lon="13.98543">
        <ele>208.26</ele>
        <time>2012-07-30T15:31:55Z</time>
      </trkpt>
      <trkpt lat="45.79198" lon="13.98568">
        <ele>207.78</ele>
        <time>2012-07-30T15:31:56Z</time>
      </trkpt>
      <trkpt lat="45.79199" lon="13.98592">
        <ele>209.7</ele>
        <time>2012-07-30T15:31:57Z</time>
      </trkpt>
      <trkpt lat="45.792" lon="13.98641">
        <ele>211.15</ele>
        <time>2012-07-30T15:31:59Z</time>
      </trkpt>
      <trkpt lat="45.79202" lon="13.98715">
        <ele>213.07</ele>
        <time>2012-07-30T15:32:02Z</time>
      </trkpt>
      <trkpt lat="45.79203" lon="13.98765">
        <ele>215.47</ele>
        <time>2012-07-30T15:32:04Z</time>
      </trkpt>
      <trkpt lat="45.7921" lon="13.98861">
        <ele>218.84</ele>
        <time>2012-07-30T15:32:08Z</time>
      </trkpt>
      <trkpt lat="45.79213" lon="13.98909">
        <ele>220.76</ele>
        <time>2012-07-30T15:32:10Z</time>
      </trkpt>
      <trkpt lat="45.79211" lon="13.98934">
        <ele>222.2</ele>
        <time>2012-07-30T15:32:11Z</time>
      </trkpt>
      <trkpt lat="45.79205" lon="13.98982">
        <ele>225.57</ele>
        <time>2012-07-30T15:32:13Z</time>
      </trkpt>
      <trkpt lat="45.79194" lon="13.99051">
        <ele>223.64</ele>
        <time>2012-07-30T15:32:16Z</time>
      </trkpt>
      <trkpt lat="45.79188" lon="13.99073">
        <ele>224.61</ele>
        <time>2012-07-30T15:32:17Z</time>
      </trkpt>
      <trkpt lat="45.79179" lon="13.99093">
        <ele>225.09</ele>
        <time>2012-07-30T15:32:18Z</time>
      </trkpt>
      <trkpt lat="45.79166" lon="13.9911">
        <ele>227.49</ele>
        <time>2012-07-30T15:32:19Z</time>
      </trkpt>
      <trkpt lat="45.7915" lon="13.99124">
        <ele>230.85</ele>
        <time>2012-07-30T15:32:20Z</time>
      </trkpt>
      <trkpt lat="45.79134" lon="13.99135">
        <ele>230.85</ele>
        <time>2012-07-30T15:32:21Z</time>
      </trkpt>
      <trkpt lat="45.79075" lon="13.99166">
        <ele>233.26</ele>
        <time>2012-07-30T15:32:25Z</time>
      </trkpt>
      <trkpt lat="45.79063" lon="13.99176">
        <ele>234.7</ele>
        <time>2012-07-30T15:32:26Z</time>
      </trkpt>
      <trkpt lat="45.79053" lon="13.99189">
        <ele>234.7</ele>
        <time>2012-07-30T15:32:27Z</time>
      </trkpt>
      <trkpt lat="45.79046" lon="13.99206">
        <ele>236.14</ele>
        <time>2012-07-30T15:32:28Z</time>
      </trkpt>
      <trkpt lat="45.79042" lon="13.99225">
        <ele>237.58</ele>
        <time>2012-07-30T15:32:29Z</time>
      </trkpt>
      <trkpt lat="45.79041" lon="13.99247">
        <ele>238.54</ele>
        <time>2012-07-30T15:32:30Z</time>
      </trkpt>
      <trkpt lat="45.79043" lon="13.9927">
        <ele>239.99</ele>
        <time>2012-07-30T15:32:31Z</time>
      </trkpt>
      <trkpt lat="45.79046" lon="13.99293">
        <ele>240.47</ele>
        <time>2012-07-30T15:32:32Z</time>
      </trkpt>
      <trkpt lat="45.79058" lon="13.99364">
        <ele>244.31</ele>
        <time>2012-07-30T15:32:35Z</time>
      </trkpt>
      <trkpt lat="45.79061" lon="13.99388">
        <ele>244.31</ele>
        <time>2012-07-30T15:32:36Z</time>
      </trkpt>
      <trkpt lat="45.79072" lon="13.99459">
        <ele>248.16</ele>
        <time>2012-07-30T15:32:39Z</time>
      </trkpt>
      <trkpt lat="45.79075" lon="13.99508">
        <ele>249.6</ele>
        <time>2012-07-30T15:32:41Z</time>
      </trkpt>
      <trkpt lat="45.79073" lon="13.99557">
        <ele>251.04</ele>
        <time>2012-07-30T15:32:43Z</time>
      </trkpt>
      <trkpt lat="45.79072" lon="13.99577">
        <ele>251.04</ele>
        <time>2012-07-30T15:32:44Z</time>
      </trkpt>
      <trkpt lat="45.79068" lon="13.99594">
        <ele>250.56</ele>
        <time>2012-07-30T15:32:45Z</time>
      </trkpt>
      <trkpt lat="45.79061" lon="13.99609">
        <ele>251.04</ele>
        <time>2012-07-30T15:32:46Z</time>
      </trkpt>
      <trkpt lat="45.79052" lon="13.9962">
        <ele>251.52</ele>
        <time>2012-07-30T15:32:47Z</time>
      </trkpt>
      <trkpt lat="45.7904" lon="13.99628">
        <ele>252.96</ele>
        <time>2012-07-30T15:32:48Z</time>
      </trkpt>
      <trkpt lat="45.79027" lon="13.99634">
        <ele>253.93</ele>
        <time>2012-07-30T15:32:49Z</time>
      </trkpt>
      <trkpt lat="45.79013" lon="13.99641">
        <ele>254.89</ele>
        <time>2012-07-30T15:32:50Z</time>
      </trkpt>
      <trkpt lat="45.79" lon="13.99652">
        <ele>255.85</ele>
        <time>2012-07-30T15:32:51Z</time>
      </trkpt>
      <trkpt lat="45.78989" lon="13.99666">
        <ele>256.81</ele>
        <time>2012-07-30T15:32:52Z</time>
      </trkpt>
      <trkpt lat="45.78967" lon="13.99699">
        <ele>258.73</ele>
        <time>2012-07-30T15:32:54Z</time>
      </trkpt>
      <trkpt lat="45.78954" lon="13.99712">
        <ele>260.65</ele>
        <time>2012-07-30T15:32:55Z</time>
      </trkpt>
      <trkpt lat="45.78939" lon="13.99724">
        <ele>260.65</ele>
        <time>2012-07-30T15:32:56Z</time>
      </trkpt>
      <trkpt lat="45.78925" lon="13.99733">
        <ele>261.14</ele>
        <time>2012-07-30T15:32:57Z</time>
      </trkpt>
      <trkpt lat="45.7891" lon="13.99742">
        <ele>262.58</ele>
        <time>2012-07-30T15:32:58Z</time>
      </trkpt>
      <trkpt lat="45.78897" lon="13.99752">
        <ele>263.06</ele>
        <time>2012-07-30T15:32:59Z</time>
      </trkpt>
      <trkpt lat="45.78884" lon="13.99764">
        <ele>264.02</ele>
        <time>2012-07-30T15:33:00Z</time>
      </trkpt>
      <trkpt lat="45.78872" lon="13.9978">
        <ele>264.02</ele>
        <time>2012-07-30T15:33:01Z</time>
      </trkpt>
      <trkpt lat="45.78862" lon="13.99799">
        <ele>264.98</ele>
        <time>2012-07-30T15:33:02Z</time>
      </trkpt>
      <trkpt lat="45.78853" lon="13.99819">
        <ele>264.98</ele>
        <time>2012-07-30T15:33:03Z</time>
      </trkpt>
      <trkpt lat="45.78842" lon="13.99838">
        <ele>266.9</ele>
        <time>2012-07-30T15:33:04Z</time>
      </trkpt>
      <trkpt lat="45.7883" lon="13.99854">
        <ele>267.38</ele>
        <time>2012-07-30T15:33:05Z</time>
      </trkpt>
      <trkpt lat="45.78816" lon="13.99869">
        <ele>269.31</ele>
        <time>2012-07-30T15:33:06Z</time>
      </trkpt>
      <trkpt lat="45.78803" lon="13.99885">
        <ele>269.31</ele>
        <time>2012-07-30T15:33:07Z</time>
      </trkpt>
      <trkpt lat="45.78792" lon="13.99902">
        <ele>268.83</ele>
        <time>2012-07-30T15:33:08Z</time>
      </trkpt>
      <trkpt lat="45.78751" lon="13.99991">
        <ele>272.67</ele>
        <time>2012-07-30T15:33:13Z</time>
      </trkpt>
      <trkpt lat="45.78749" lon="14.00012">
        <ele>274.59</ele>
        <time>2012-07-30T15:33:14Z</time>
      </trkpt>
      <trkpt lat="45.78747" lon="14.00079">
        <ele>277</ele>
        <time>2012-07-30T15:33:17Z</time>
      </trkpt>
      <trkpt lat="45.78747" lon="14.00118">
        <ele>277.48</ele>
        <time>2012-07-30T15:33:19Z</time>
      </trkpt>
      <trkpt lat="45.78743" lon="14.00135">
        <ele>277.48</ele>
        <time>2012-07-30T15:33:20Z</time>
      </trkpt>
      <trkpt lat="45.78738" lon="14.00147">
        <ele>277.96</ele>
        <time>2012-07-30T15:33:21Z</time>
      </trkpt>
      <trkpt lat="45.78729" lon="14.00155">
        <ele>278.44</ele>
        <time>2012-07-30T15:33:22Z</time>
      </trkpt>
      <trkpt lat="45.78719" lon="14.00158">
        <ele>278.92</ele>
        <time>2012-07-30T15:33:23Z</time>
      </trkpt>
      <trkpt lat="45.78707" lon="14.00157">
        <ele>280.36</ele>
        <time>2012-07-30T15:33:24Z</time>
      </trkpt>
      <trkpt lat="45.78694" lon="14.00153">
        <ele>281.8</ele>
        <time>2012-07-30T15:33:25Z</time>
      </trkpt>
      <trkpt lat="45.78681" lon="14.00148">
        <ele>282.77</ele>
        <time>2012-07-30T15:33:26Z</time>
      </trkpt>
      <trkpt lat="45.78651" lon="14.00145">
        <ele>284.69</ele>
        <time>2012-07-30T15:33:28Z</time>
      </trkpt>
      <trkpt lat="45.78635" lon="14.00149">
        <ele>286.13</ele>
        <time>2012-07-30T15:33:29Z</time>
      </trkpt>
      <trkpt lat="45.78572" lon="14.00169">
        <ele>289.49</ele>
        <time>2012-07-30T15:33:33Z</time>
      </trkpt>
      <trkpt lat="45.78555" lon="14.00171">
        <ele>290.94</ele>
        <time>2012-07-30T15:33:34Z</time>
      </trkpt>
      <trkpt lat="45.7854" lon="14.00171">
        <ele>291.9</ele>
        <time>2012-07-30T15:33:35Z</time>
      </trkpt>
      <trkpt lat="45.78525" lon="14.0017">
        <ele>292.86</ele>
        <time>2012-07-30T15:33:36Z</time>
      </trkpt>
      <trkpt lat="45.78513" lon="14.00172">
        <ele>292.86</ele>
        <time>2012-07-30T15:33:37Z</time>
      </trkpt>
      <trkpt lat="45.78502" lon="14.00177">
        <ele>293.82</ele>
        <time>2012-07-30T15:33:38Z</time>
      </trkpt>
      <trkpt lat="45.78493" lon="14.00187">
        <ele>294.3</ele>
        <time>2012-07-30T15:33:39Z</time>
      </trkpt>
      <trkpt lat="45.78487" lon="14.002">
        <ele>294.3</ele>
        <time>2012-07-30T15:33:40Z</time>
      </trkpt>
      <trkpt lat="45.78484" lon="14.00216">
        <ele>295.74</ele>
        <time>2012-07-30T15:33:41Z</time>
      </trkpt>
      <trkpt lat="45.78485" lon="14.00234">
        <ele>295.74</ele>
        <time>2012-07-30T15:33:42Z</time>
      </trkpt>
      <trkpt lat="45.78488" lon="14.00252">
        <ele>296.22</ele>
        <time>2012-07-30T15:33:43Z</time>
      </trkpt>
      <trkpt lat="45.7849" lon="14.00269">
        <ele>296.22</ele>
        <time>2012-07-30T15:33:44Z</time>
      </trkpt>
      <trkpt lat="45.78489" lon="14.00285">
        <ele>296.7</ele>
        <time>2012-07-30T15:33:45Z</time>
      </trkpt>
      <trkpt lat="45.78485" lon="14.00299">
        <ele>297.67</ele>
        <time>2012-07-30T15:33:46Z</time>
      </trkpt>
      <trkpt lat="45.78478" lon="14.00311">
        <ele>298.63</ele>
        <time>2012-07-30T15:33:47Z</time>
      </trkpt>
      <trkpt lat="45.78467" lon="14.00318">
        <ele>299.59</ele>
        <time>2012-07-30T15:33:48Z</time>
      </trkpt>
      <trkpt lat="45.78455" lon="14.00322">
        <ele>301.51</ele>
        <time>2012-07-30T15:33:49Z</time>
      </trkpt>
      <trkpt lat="45.7843" lon="14.0033">
        <ele>303.43</ele>
        <time>2012-07-30T15:33:51Z</time>
      </trkpt>
      <trkpt lat="45.7842" lon="14.0034">
        <ele>304.88</ele>
        <time>2012-07-30T15:33:52Z</time>
      </trkpt>
      <trkpt lat="45.7841" lon="14.00354">
        <ele>305.84</ele>
        <time>2012-07-30T15:33:53Z</time>
      </trkpt>
      <trkpt lat="45.784" lon="14.0037">
        <ele>306.8</ele>
        <time>2012-07-30T15:33:54Z</time>
      </trkpt>
      <trkpt lat="45.78392" lon="14.00389">
        <ele>307.28</ele>
        <time>2012-07-30T15:33:55Z</time>
      </trkpt>
      <trkpt lat="45.78384" lon="14.00408">
        <ele>309.2</ele>
        <time>2012-07-30T15:33:56Z</time>
      </trkpt>
      <trkpt lat="45.78376" lon="14.00427">
        <ele>312.57</ele>
        <time>2012-07-30T15:33:57Z</time>
      </trkpt>
      <trkpt lat="45.78368" lon="14.00446">
        <ele>310.64</ele>
        <time>2012-07-30T15:33:58Z</time>
      </trkpt>
      <trkpt lat="45.78343" lon="14.00513">
        <ele>313.05</ele>
        <time>2012-07-30T15:34:02Z</time>
      </trkpt>
      <trkpt lat="45.78343" lon="14.00531">
        <ele>314.01</ele>
        <time>2012-07-30T15:34:03Z</time>
      </trkpt>
      <trkpt lat="45.78346" lon="14.00551">
        <ele>314.49</ele>
        <time>2012-07-30T15:34:04Z</time>
      </trkpt>
      <trkpt lat="45.78351" lon="14.0057">
        <ele>315.45</ele>
        <time>2012-07-30T15:34:05Z</time>
      </trkpt>
      <trkpt lat="45.78356" lon="14.0059">
        <ele>316.41</ele>
        <time>2012-07-30T15:34:06Z</time>
      </trkpt>
      <trkpt lat="45.78358" lon="14.00611">
        <ele>316.89</ele>
        <time>2012-07-30T15:34:07Z</time>
      </trkpt>
      <trkpt lat="45.78358" lon="14.00633">
        <ele>318.33</ele>
        <time>2012-07-30T15:34:08Z</time>
      </trkpt>
      <trkpt lat="45.78355" lon="14.00654">
        <ele>319.78</ele>
        <time>2012-07-30T15:34:09Z</time>
      </trkpt>
      <trkpt lat="45.78352" lon="14.00674">
        <ele>320.74</ele>
        <time>2012-07-30T15:34:10Z</time>
      </trkpt>
      <trkpt lat="45.78351" lon="14.00695">
        <ele>321.7</ele>
        <time>2012-07-30T15:34:11Z</time>
      </trkpt>
      <trkpt lat="45.78352" lon="14.00716">
        <ele>322.18</ele>
        <time>2012-07-30T15:34:12Z</time>
      </trkpt>
      <trkpt lat="45.78354" lon="14.00753">
        <ele>322.18</ele>
        <time>2012-07-30T15:34:14Z</time>
      </trkpt>
      <trkpt lat="45.78351" lon="14.00769">
        <ele>322.18</ele>
        <time>2012-07-30T15:34:15Z</time>
      </trkpt>
      <trkpt lat="45.78344" lon="14.00783">
        <ele>322.18</ele>
        <time>2012-07-30T15:34:16Z</time>
      </trkpt>
      <trkpt lat="45.78334" lon="14.00793">
        <ele>323.14</ele>
        <time>2012-07-30T15:34:17Z</time>
      </trkpt>
      <trkpt lat="45.78321" lon="14.008">
        <ele>324.1</ele>
        <time>2012-07-30T15:34:18Z</time>
      </trkpt>
      <trkpt lat="45.78307" lon="14.00804">
        <ele>323.62</ele>
        <time>2012-07-30T15:34:19Z</time>
      </trkpt>
      <trkpt lat="45.78291" lon="14.00807">
        <ele>326.99</ele>
        <time>2012-07-30T15:34:20Z</time>
      </trkpt>
      <trkpt lat="45.78246" lon="14.0082">
        <ele>329.39</ele>
        <time>2012-07-30T15:34:23Z</time>
      </trkpt>
      <trkpt lat="45.78234" lon="14.00827">
        <ele>329.87</ele>
        <time>2012-07-30T15:34:24Z</time>
      </trkpt>
      <trkpt lat="45.78225" lon="14.00837">
        <ele>330.35</ele>
        <time>2012-07-30T15:34:25Z</time>
      </trkpt>
      <trkpt lat="45.78218" lon="14.0085">
        <ele>330.83</ele>
        <time>2012-07-30T15:34:26Z</time>
      </trkpt>
      <trkpt lat="45.78213" lon="14.00866">
        <ele>332.27</ele>
        <time>2012-07-30T15:34:27Z</time>
      </trkpt>
      <trkpt lat="45.7821" lon="14.00884">
        <ele>333.71</ele>
        <time>2012-07-30T15:34:28Z</time>
      </trkpt>
      <trkpt lat="45.78209" lon="14.00904">
        <ele>334.68</ele>
        <time>2012-07-30T15:34:29Z</time>
      </trkpt>
      <trkpt lat="45.78209" lon="14.00926">
        <ele>336.6</ele>
        <time>2012-07-30T15:34:30Z</time>
      </trkpt>
      <trkpt lat="45.78208" lon="14.0097">
        <ele>336.6</ele>
        <time>2012-07-30T15:34:32Z</time>
      </trkpt>
      <trkpt lat="45.78206" lon="14.0099">
        <ele>338.04</ele>
        <time>2012-07-30T15:34:33Z</time>
      </trkpt>
      <trkpt lat="45.782" lon="14.01009">
        <ele>338.52</ele>
        <time>2012-07-30T15:34:34Z</time>
      </trkpt>
      <trkpt lat="45.78191" lon="14.01027">
        <ele>339.48</ele>
        <time>2012-07-30T15:34:35Z</time>
      </trkpt>
      <trkpt lat="45.78181" lon="14.01045">
        <ele>342.37</ele>
        <time>2012-07-30T15:34:36Z</time>
      </trkpt>
      <trkpt lat="45.78158" lon="14.01079">
        <ele>344.77</ele>
        <time>2012-07-30T15:34:38Z</time>
      </trkpt>
      <trkpt lat="45.78146" lon="14.01092">
        <ele>343.81</ele>
        <time>2012-07-30T15:34:39Z</time>
      </trkpt>
      <trkpt lat="45.78133" lon="14.01102">
        <ele>344.29</ele>
        <time>2012-07-30T15:34:40Z</time>
      </trkpt>
      <trkpt lat="45.78119" lon="14.01108">
        <ele>345.73</ele>
        <time>2012-07-30T15:34:41Z</time>
      </trkpt>
      <trkpt lat="45.78104" lon="14.01114">
        <ele>347.17</ele>
        <time>2012-07-30T15:34:42Z</time>
      </trkpt>
      <trkpt lat="45.78044" lon="14.01142">
        <ele>351.98</ele>
        <time>2012-07-30T15:34:46Z</time>
      </trkpt>
      <trkpt lat="45.78032" lon="14.0115">
        <ele>353.42</ele>
        <time>2012-07-30T15:34:47Z</time>
      </trkpt>
      <trkpt lat="45.78022" lon="14.01161">
        <ele>353.9</ele>
        <time>2012-07-30T15:34:48Z</time>
      </trkpt>
      <trkpt lat="45.78014" lon="14.01175">
        <ele>353.9</ele>
        <time>2012-07-30T15:34:49Z</time>
      </trkpt>
      <trkpt lat="45.78008" lon="14.01191">
        <ele>354.38</ele>
        <time>2012-07-30T15:34:50Z</time>
      </trkpt>
      <trkpt lat="45.78007" lon="14.0121">
        <ele>353.9</ele>
        <time>2012-07-30T15:34:51Z</time>
      </trkpt>
      <trkpt lat="45.78011" lon="14.01231">
        <ele>355.83</ele>
        <time>2012-07-30T15:34:52Z</time>
      </trkpt>
      <trkpt lat="45.78014" lon="14.0125">
        <ele>354.86</ele>
        <time>2012-07-30T15:34:53Z</time>
      </trkpt>
      <trkpt lat="45.78015" lon="14.01269">
        <ele>355.34</ele>
        <time>2012-07-30T15:34:54Z</time>
      </trkpt>
      <trkpt lat="45.78012" lon="14.01287">
        <ele>356.31</ele>
        <time>2012-07-30T15:34:55Z</time>
      </trkpt>
      <trkpt lat="45.78005" lon="14.01305">
        <ele>357.27</ele>
        <time>2012-07-30T15:34:56Z</time>
      </trkpt>
      <trkpt lat="45.77996" lon="14.01321">
        <ele>358.23</ele>
        <time>2012-07-30T15:34:57Z</time>
      </trkpt>
      <trkpt lat="45.77986" lon="14.01338">
        <ele>360.15</ele>
        <time>2012-07-30T15:34:58Z</time>
      </trkpt>
      <trkpt lat="45.77976" lon="14.01354">
        <ele>364</ele>
        <time>2012-07-30T15:34:59Z</time>
      </trkpt>
      <trkpt lat="45.77965" lon="14.01371">
        <ele>364</ele>
        <time>2012-07-30T15:35:00Z</time>
      </trkpt>
      <trkpt lat="45.77928" lon="14.01446">
        <ele>369.28</ele>
        <time>2012-07-30T15:35:04Z</time>
      </trkpt>
      <trkpt lat="45.7791" lon="14.01486">
        <ele>374.09</ele>
        <time>2012-07-30T15:35:06Z</time>
      </trkpt>
      <trkpt lat="45.77903" lon="14.01508">
        <ele>375.05</ele>
        <time>2012-07-30T15:35:07Z</time>
      </trkpt>
      <trkpt lat="45.77899" lon="14.01531">
        <ele>376.97</ele>
        <time>2012-07-30T15:35:08Z</time>
      </trkpt>
      <trkpt lat="45.77895" lon="14.01554">
        <ele>378.9</ele>
        <time>2012-07-30T15:35:09Z</time>
      </trkpt>
      <trkpt lat="45.77893" lon="14.01578">
        <ele>378.9</ele>
        <time>2012-07-30T15:35:10Z</time>
      </trkpt>
      <trkpt lat="45.77891" lon="14.01601">
        <ele>377.45</ele>
        <time>2012-07-30T15:35:11Z</time>
      </trkpt>
      <trkpt lat="45.77886" lon="14.01624">
        <ele>379.38</ele>
        <time>2012-07-30T15:35:12Z</time>
      </trkpt>
      <trkpt lat="45.77879" lon="14.01645">
        <ele>378.42</ele>
        <time>2012-07-30T15:35:13Z</time>
      </trkpt>
      <trkpt lat="45.7787" lon="14.01665">
        <ele>379.86</ele>
        <time>2012-07-30T15:35:14Z</time>
      </trkpt>
      <trkpt lat="45.77859" lon="14.01683">
        <ele>381.3</ele>
        <time>2012-07-30T15:35:15Z</time>
      </trkpt>
      <trkpt lat="45.7784" lon="14.01721">
        <ele>383.7</ele>
        <time>2012-07-30T15:35:17Z</time>
      </trkpt>
      <trkpt lat="45.77834" lon="14.01743">
        <ele>384.66</ele>
        <time>2012-07-30T15:35:18Z</time>
      </trkpt>
      <trkpt lat="45.7783" lon="14.01765">
        <ele>385.63</ele>
        <time>2012-07-30T15:35:19Z</time>
      </trkpt>
      <trkpt lat="45.77828" lon="14.01787">
        <ele>385.63</ele>
        <time>2012-07-30T15:35:20Z</time>
      </trkpt>
      <trkpt lat="45.77825" lon="14.01808">
        <ele>386.59</ele>
        <time>2012-07-30T15:35:21Z</time>
      </trkpt>
      <trkpt lat="45.7782" lon="14.01829">
        <ele>387.07</ele>
        <time>2012-07-30T15:35:22Z</time>
      </trkpt>
      <trkpt lat="45.77812" lon="14.01848">
        <ele>389.95</ele>
        <time>2012-07-30T15:35:23Z</time>
      </trkpt>
      <trkpt lat="45.77802" lon="14.01867">
        <ele>390.91</ele>
        <time>2012-07-30T15:35:24Z</time>
      </trkpt>
      <trkpt lat="45.77791" lon="14.01884">
        <ele>393.32</ele>
        <time>2012-07-30T15:35:25Z</time>
      </trkpt>
      <trkpt lat="45.77779" lon="14.019">
        <ele>392.84</ele>
        <time>2012-07-30T15:35:26Z</time>
      </trkpt>
      <trkpt lat="45.77766" lon="14.01914">
        <ele>392.84</ele>
        <time>2012-07-30T15:35:27Z</time>
      </trkpt>
      <trkpt lat="45.77752" lon="14.01926">
        <ele>393.32</ele>
        <time>2012-07-30T15:35:28Z</time>
      </trkpt>
      <trkpt lat="45.77737" lon="14.01937">
        <ele>394.76</ele>
        <time>2012-07-30T15:35:29Z</time>
      </trkpt>
      <trkpt lat="45.77721" lon="14.01947">
        <ele>395.24</ele>
        <time>2012-07-30T15:35:30Z</time>
      </trkpt>
      <trkpt lat="45.77706" lon="14.01955">
        <ele>396.2</ele>
        <time>2012-07-30T15:35:31Z</time>
      </trkpt>
      <trkpt lat="45.7769" lon="14.01958">
        <ele>397.64</ele>
        <time>2012-07-30T15:35:32Z</time>
      </trkpt>
      <trkpt lat="45.77664" lon="14.01963">
        <ele>398.12</ele>
        <time>2012-07-30T15:35:34Z</time>
      </trkpt>
      <trkpt lat="45.77653" lon="14.0197">
        <ele>398.12</ele>
        <time>2012-07-30T15:35:35Z</time>
      </trkpt>
      <trkpt lat="45.77643" lon="14.01982">
        <ele>399.57</ele>
        <time>2012-07-30T15:35:36Z</time>
      </trkpt>
      <trkpt lat="45.77635" lon="14.01998">
        <ele>400.53</ele>
        <time>2012-07-30T15:35:37Z</time>
      </trkpt>
      <trkpt lat="45.77627" lon="14.02015">
        <ele>401.97</ele>
        <time>2012-07-30T15:35:38Z</time>
      </trkpt>
      <trkpt lat="45.77619" lon="14.02033">
        <ele>403.41</ele>
        <time>2012-07-30T15:35:39Z</time>
      </trkpt>
      <trkpt lat="45.77609" lon="14.02048">
        <ele>403.41</ele>
        <time>2012-07-30T15:35:40Z</time>
      </trkpt>
      <trkpt lat="45.77597" lon="14.02059">
        <ele>404.37</ele>
        <time>2012-07-30T15:35:41Z</time>
      </trkpt>
      <trkpt lat="45.77583" lon="14.02069">
        <ele>405.33</ele>
        <time>2012-07-30T15:35:42Z</time>
      </trkpt>
      <trkpt lat="45.77568" lon="14.02077">
        <ele>406.29</ele>
        <time>2012-07-30T15:35:43Z</time>
      </trkpt>
      <trkpt lat="45.77521" lon="14.02096">
        <ele>409.18</ele>
        <time>2012-07-30T15:35:46Z</time>
      </trkpt>
      <trkpt lat="45.77506" lon="14.02096">
        <ele>409.18</ele>
        <time>2012-07-30T15:35:47Z</time>
      </trkpt>
      <trkpt lat="45.77478" lon="14.02095">
        <ele>409.66</ele>
        <time>2012-07-30T15:35:49Z</time>
      </trkpt>
      <trkpt lat="45.77468" lon="14.02099">
        <ele>409.18</ele>
        <time>2012-07-30T15:35:50Z</time>
      </trkpt>
      <trkpt lat="45.7746" lon="14.02108">
        <ele>409.18</ele>
        <time>2012-07-30T15:35:51Z</time>
      </trkpt>
      <trkpt lat="45.77455" lon="14.0212">
        <ele>410.14</ele>
        <time>2012-07-30T15:35:52Z</time>
      </trkpt>
      <trkpt lat="45.77452" lon="14.02134">
        <ele>412.54</ele>
        <time>2012-07-30T15:35:53Z</time>
      </trkpt>
      <trkpt lat="45.77452" lon="14.02152">
        <ele>413.98</ele>
        <time>2012-07-30T15:35:54Z</time>
      </trkpt>
      <trkpt lat="45.7745" lon="14.02169">
        <ele>413.98</ele>
        <time>2012-07-30T15:35:55Z</time>
      </trkpt>
      <trkpt lat="45.77446" lon="14.02184">
        <ele>413.98</ele>
        <time>2012-07-30T15:35:56Z</time>
      </trkpt>
      <trkpt lat="45.77438" lon="14.02196">
        <ele>414.47</ele>
        <time>2012-07-30T15:35:57Z</time>
      </trkpt>
      <trkpt lat="45.77427" lon="14.02202">
        <ele>416.39</ele>
        <time>2012-07-30T15:35:58Z</time>
      </trkpt>
      <trkpt lat="45.77414" lon="14.02203">
        <ele>416.87</ele>
        <time>2012-07-30T15:35:59Z</time>
      </trkpt>
      <trkpt lat="45.77401" lon="14.02202">
        <ele>419.27</ele>
        <time>2012-07-30T15:36:00Z</time>
      </trkpt>
      <trkpt lat="45.77388" lon="14.02204">
        <ele>418.79</ele>
        <time>2012-07-30T15:36:01Z</time>
      </trkpt>
      <trkpt lat="45.77375" lon="14.0221">
        <ele>420.23</ele>
        <time>2012-07-30T15:36:02Z</time>
      </trkpt>
      <trkpt lat="45.77362" lon="14.02218">
        <ele>420.71</ele>
        <time>2012-07-30T15:36:03Z</time>
      </trkpt>
      <trkpt lat="45.7735" lon="14.02228">
        <ele>420.23</ele>
        <time>2012-07-30T15:36:04Z</time>
      </trkpt>
      <trkpt lat="45.77338" lon="14.02239">
        <ele>420.71</ele>
        <time>2012-07-30T15:36:05Z</time>
      </trkpt>
      <trkpt lat="45.77325" lon="14.02248">
        <ele>422.16</ele>
        <time>2012-07-30T15:36:06Z</time>
      </trkpt>
      <trkpt lat="45.77312" lon="14.02254">
        <ele>423.6</ele>
        <time>2012-07-30T15:36:07Z</time>
      </trkpt>
      <trkpt lat="45.77299" lon="14.02256">
        <ele>423.6</ele>
        <time>2012-07-30T15:36:08Z</time>
      </trkpt>
      <trkpt lat="45.77288" lon="14.02258">
        <ele>424.08</ele>
        <time>2012-07-30T15:36:09Z</time>
      </trkpt>
      <trkpt lat="45.77279" lon="14.02261">
        <ele>425.04</ele>
        <time>2012-07-30T15:36:10Z</time>
      </trkpt>
      <trkpt lat="45.77271" lon="14.02268">
        <ele>426</ele>
        <time>2012-07-30T15:36:11Z</time>
      </trkpt>
      <trkpt lat="45.77264" lon="14.0228">
        <ele>426.96</ele>
        <time>2012-07-30T15:36:12Z</time>
      </trkpt>
      <trkpt lat="45.77261" lon="14.02296">
        <ele>428.4</ele>
        <time>2012-07-30T15:36:13Z</time>
      </trkpt>
      <trkpt lat="45.7726" lon="14.02315">
        <ele>428.89</ele>
        <time>2012-07-30T15:36:14Z</time>
      </trkpt>
      <trkpt lat="45.77258" lon="14.02336">
        <ele>430.33</ele>
        <time>2012-07-30T15:36:15Z</time>
      </trkpt>
      <trkpt lat="45.77255" lon="14.02357">
        <ele>430.81</ele>
        <time>2012-07-30T15:36:16Z</time>
      </trkpt>
      <trkpt lat="45.7725" lon="14.02379">
        <ele>432.25</ele>
        <time>2012-07-30T15:36:17Z</time>
      </trkpt>
      <trkpt lat="45.77238" lon="14.02422">
        <ele>434.17</ele>
        <time>2012-07-30T15:36:19Z</time>
      </trkpt>
      <trkpt lat="45.77228" lon="14.02465">
        <ele>436.1</ele>
        <time>2012-07-30T15:36:21Z</time>
      </trkpt>
      <trkpt lat="45.77217" lon="14.02507">
        <ele>437.54</ele>
        <time>2012-07-30T15:36:23Z</time>
      </trkpt>
      <trkpt lat="45.77208" lon="14.02526">
        <ele>439.46</ele>
        <time>2012-07-30T15:36:24Z</time>
      </trkpt>
      <trkpt lat="45.77198" lon="14.02545">
        <ele>440.42</ele>
        <time>2012-07-30T15:36:25Z</time>
      </trkpt>
      <trkpt lat="45.77186" lon="14.02562">
        <ele>441.86</ele>
        <time>2012-07-30T15:36:26Z</time>
      </trkpt>
      <trkpt lat="45.77175" lon="14.0258">
        <ele>443.31</ele>
        <time>2012-07-30T15:36:27Z</time>
      </trkpt>
      <trkpt lat="45.77141" lon="14.02632">
        <ele>446.19</ele>
        <time>2012-07-30T15:36:30Z</time>
      </trkpt>
      <trkpt lat="45.77131" lon="14.02649">
        <ele>446.67</ele>
        <time>2012-07-30T15:36:31Z</time>
      </trkpt>
      <trkpt lat="45.77121" lon="14.02668">
        <ele>448.11</ele>
        <time>2012-07-30T15:36:32Z</time>
      </trkpt>
      <trkpt lat="45.77114" lon="14.02688">
        <ele>449.07</ele>
        <time>2012-07-30T15:36:33Z</time>
      </trkpt>
      <trkpt lat="45.77108" lon="14.02711">
        <ele>451.48</ele>
        <time>2012-07-30T15:36:34Z</time>
      </trkpt>
      <trkpt lat="45.77105" lon="14.02736">
        <ele>452.44</ele>
        <time>2012-07-30T15:36:35Z</time>
      </trkpt>
      <trkpt lat="45.77089" lon="14.02806">
        <ele>453.4</ele>
        <time>2012-07-30T15:36:38Z</time>
      </trkpt>
      <trkpt lat="45.77081" lon="14.02826">
        <ele>454.36</ele>
        <time>2012-07-30T15:36:39Z</time>
      </trkpt>
      <trkpt lat="45.77071" lon="14.02845">
        <ele>456.76</ele>
        <time>2012-07-30T15:36:40Z</time>
      </trkpt>
      <trkpt lat="45.7706" lon="14.02861">
        <ele>457.24</ele>
        <time>2012-07-30T15:36:41Z</time>
      </trkpt>
      <trkpt lat="45.77048" lon="14.02872">
        <ele>456.28</ele>
        <time>2012-07-30T15:36:42Z</time>
      </trkpt>
      <trkpt lat="45.77036" lon="14.0288">
        <ele>456.28</ele>
        <time>2012-07-30T15:36:43Z</time>
      </trkpt>
      <trkpt lat="45.77022" lon="14.02885">
        <ele>456.76</ele>
        <time>2012-07-30T15:36:44Z</time>
      </trkpt>
      <trkpt lat="45.77007" lon="14.02886">
        <ele>457.24</ele>
        <time>2012-07-30T15:36:45Z</time>
      </trkpt>
      <trkpt lat="45.76993" lon="14.02887">
        <ele>457.72</ele>
        <time>2012-07-30T15:36:46Z</time>
      </trkpt>
      <trkpt lat="45.76979" lon="14.0289">
        <ele>458.69</ele>
        <time>2012-07-30T15:36:47Z</time>
      </trkpt>
      <trkpt lat="45.76967" lon="14.02899">
        <ele>460.13</ele>
        <time>2012-07-30T15:36:48Z</time>
      </trkpt>
      <trkpt lat="45.76955" lon="14.02913">
        <ele>462.53</ele>
        <time>2012-07-30T15:36:49Z</time>
      </trkpt>
      <trkpt lat="45.76945" lon="14.02929">
        <ele>463.01</ele>
        <time>2012-07-30T15:36:50Z</time>
      </trkpt>
      <trkpt lat="45.76936" lon="14.02948">
        <ele>464.93</ele>
        <time>2012-07-30T15:36:51Z</time>
      </trkpt>
      <trkpt lat="45.76927" lon="14.02966">
        <ele>464.45</ele>
        <time>2012-07-30T15:36:52Z</time>
      </trkpt>
      <trkpt lat="45.76917" lon="14.02983">
        <ele>464.93</ele>
        <time>2012-07-30T15:36:53Z</time>
      </trkpt>
      <trkpt lat="45.76906" lon="14.02998">
        <ele>464.93</ele>
        <time>2012-07-30T15:36:54Z</time>
      </trkpt>
      <trkpt lat="45.76893" lon="14.03011">
        <ele>467.34</ele>
        <time>2012-07-30T15:36:55Z</time>
      </trkpt>
      <trkpt lat="45.76879" lon="14.03023">
        <ele>467.34</ele>
        <time>2012-07-30T15:36:56Z</time>
      </trkpt>
      <trkpt lat="45.76863" lon="14.03034">
        <ele>468.3</ele>
        <time>2012-07-30T15:36:57Z</time>
      </trkpt>
      <trkpt lat="45.76799" lon="14.03076">
        <ele>474.07</ele>
        <time>2012-07-30T15:37:01Z</time>
      </trkpt>
      <trkpt lat="45.7675" lon="14.03108">
        <ele>478.87</ele>
        <time>2012-07-30T15:37:04Z</time>
      </trkpt>
      <trkpt lat="45.76702" lon="14.03135">
        <ele>482.24</ele>
        <time>2012-07-30T15:37:07Z</time>
      </trkpt>
      <trkpt lat="45.76686" lon="14.03141">
        <ele>483.2</ele>
        <time>2012-07-30T15:37:08Z</time>
      </trkpt>
      <trkpt lat="45.7667" lon="14.03144">
        <ele>485.12</ele>
        <time>2012-07-30T15:37:09Z</time>
      </trkpt>
      <trkpt lat="45.76653" lon="14.03145">
        <ele>485.12</ele>
        <time>2012-07-30T15:37:10Z</time>
      </trkpt>
      <trkpt lat="45.76636" lon="14.03143">
        <ele>484.16</ele>
        <time>2012-07-30T15:37:11Z</time>
      </trkpt>
      <trkpt lat="45.76621" lon="14.03139">
        <ele>484.16</ele>
        <time>2012-07-30T15:37:12Z</time>
      </trkpt>
      <trkpt lat="45.76594" lon="14.03134">
        <ele>485.12</ele>
        <time>2012-07-30T15:37:14Z</time>
      </trkpt>
      <trkpt lat="45.76582" lon="14.03136">
        <ele>486.08</ele>
        <time>2012-07-30T15:37:15Z</time>
      </trkpt>
      <trkpt lat="45.7657" lon="14.03142">
        <ele>487.53</ele>
        <time>2012-07-30T15:37:16Z</time>
      </trkpt>
      <trkpt lat="45.76559" lon="14.03154">
        <ele>489.45</ele>
        <time>2012-07-30T15:37:17Z</time>
      </trkpt>
      <trkpt lat="45.76551" lon="14.03171">
        <ele>490.89</ele>
        <time>2012-07-30T15:37:18Z</time>
      </trkpt>
      <trkpt lat="45.76544" lon="14.03192">
        <ele>491.37</ele>
        <time>2012-07-30T15:37:19Z</time>
      </trkpt>
      <trkpt lat="45.76538" lon="14.03213">
        <ele>493.29</ele>
        <time>2012-07-30T15:37:20Z</time>
      </trkpt>
      <trkpt lat="45.76513" lon="14.03307">
        <ele>497.14</ele>
        <time>2012-07-30T15:37:24Z</time>
      </trkpt>
      <trkpt lat="45.76491" lon="14.03378">
        <ele>500.02</ele>
        <time>2012-07-30T15:37:27Z</time>
      </trkpt>
      <trkpt lat="45.76457" lon="14.03468">
        <ele>504.35</ele>
        <time>2012-07-30T15:37:31Z</time>
      </trkpt>
      <trkpt lat="45.76438" lon="14.03538">
        <ele>506.27</ele>
        <time>2012-07-30T15:37:34Z</time>
      </trkpt>
      <trkpt lat="45.76433" lon="14.03563">
        <ele>509.16</ele>
        <time>2012-07-30T15:37:35Z</time>
      </trkpt>
      <trkpt lat="45.76417" lon="14.03638">
        <ele>512.52</ele>
        <time>2012-07-30T15:37:38Z</time>
      </trkpt>
      <trkpt lat="45.76407" lon="14.03687">
        <ele>515.88</ele>
        <time>2012-07-30T15:37:40Z</time>
      </trkpt>
      <trkpt lat="45.76401" lon="14.03712">
        <ele>516.37</ele>
        <time>2012-07-30T15:37:41Z</time>
      </trkpt>
      <trkpt lat="45.76396" lon="14.03736">
        <ele>516.37</ele>
        <time>2012-07-30T15:37:42Z</time>
      </trkpt>
      <trkpt lat="45.76374" lon="14.03831">
        <ele>518.29</ele>
        <time>2012-07-30T15:37:46Z</time>
      </trkpt>
      <trkpt lat="45.76366" lon="14.03852">
        <ele>520.69</ele>
        <time>2012-07-30T15:37:47Z</time>
      </trkpt>
      <trkpt lat="45.76355" lon="14.03872">
        <ele>521.65</ele>
        <time>2012-07-30T15:37:48Z</time>
      </trkpt>
      <trkpt lat="45.76343" lon="14.0389">
        <ele>521.17</ele>
        <time>2012-07-30T15:37:49Z</time>
      </trkpt>
      <trkpt lat="45.7633" lon="14.03907">
        <ele>521.65</ele>
        <time>2012-07-30T15:37:50Z</time>
      </trkpt>
      <trkpt lat="45.76316" lon="14.03922">
        <ele>524.06</ele>
        <time>2012-07-30T15:37:51Z</time>
      </trkpt>
      <trkpt lat="45.76287" lon="14.03955">
        <ele>528.38</ele>
        <time>2012-07-30T15:37:53Z</time>
      </trkpt>
      <trkpt lat="45.76221" lon="14.04049">
        <ele>533.67</ele>
        <time>2012-07-30T15:37:58Z</time>
      </trkpt>
      <trkpt lat="45.76187" lon="14.04114">
        <ele>535.59</ele>
        <time>2012-07-30T15:38:01Z</time>
      </trkpt>
      <trkpt lat="45.76158" lon="14.04181">
        <ele>538.96</ele>
        <time>2012-07-30T15:38:04Z</time>
      </trkpt>
      <trkpt lat="45.76147" lon="14.04201">
        <ele>539.92</ele>
        <time>2012-07-30T15:38:05Z</time>
      </trkpt>
      <trkpt lat="45.76135" lon="14.04219">
        <ele>539.92</ele>
        <time>2012-07-30T15:38:06Z</time>
      </trkpt>
      <trkpt lat="45.76121" lon="14.04235">
        <ele>539.92</ele>
        <time>2012-07-30T15:38:07Z</time>
      </trkpt>
      <trkpt lat="45.76106" lon="14.04248">
        <ele>541.84</ele>
        <time>2012-07-30T15:38:08Z</time>
      </trkpt>
      <trkpt lat="45.7609" lon="14.04257">
        <ele>542.8</ele>
        <time>2012-07-30T15:38:09Z</time>
      </trkpt>
      <trkpt lat="45.76073" lon="14.04265">
        <ele>543.28</ele>
        <time>2012-07-30T15:38:10Z</time>
      </trkpt>
      <trkpt lat="45.76055" lon="14.04271">
        <ele>545.2</ele>
        <time>2012-07-30T15:38:11Z</time>
      </trkpt>
      <trkpt lat="45.76003" lon="14.04291">
        <ele>548.09</ele>
        <time>2012-07-30T15:38:14Z</time>
      </trkpt>
      <trkpt lat="45.75971" lon="14.04306">
        <ele>551.45</ele>
        <time>2012-07-30T15:38:16Z</time>
      </trkpt>
      <trkpt lat="45.75956" lon="14.04317">
        <ele>552.41</ele>
        <time>2012-07-30T15:38:17Z</time>
      </trkpt>
      <trkpt lat="45.75894" lon="14.04366">
        <ele>555.78</ele>
        <time>2012-07-30T15:38:21Z</time>
      </trkpt>
      <trkpt lat="45.75882" lon="14.04382">
        <ele>556.26</ele>
        <time>2012-07-30T15:38:22Z</time>
      </trkpt>
      <trkpt lat="45.75827" lon="14.04464">
        <ele>557.22</ele>
        <time>2012-07-30T15:38:27Z</time>
      </trkpt>
      <trkpt lat="45.75821" lon="14.04485">
        <ele>558.66</ele>
        <time>2012-07-30T15:38:28Z</time>
      </trkpt>
      <trkpt lat="45.75814" lon="14.04505">
        <ele>557.7</ele>
        <time>2012-07-30T15:38:29Z</time>
      </trkpt>
      <trkpt lat="45.75805" lon="14.0452">
        <ele>557.22</ele>
        <time>2012-07-30T15:38:30Z</time>
      </trkpt>
      <trkpt lat="45.75794" lon="14.04531">
        <ele>558.66</ele>
        <time>2012-07-30T15:38:31Z</time>
      </trkpt>
      <trkpt lat="45.75782" lon="14.04539">
        <ele>560.11</ele>
        <time>2012-07-30T15:38:32Z</time>
      </trkpt>
      <trkpt lat="45.75769" lon="14.04545">
        <ele>561.55</ele>
        <time>2012-07-30T15:38:33Z</time>
      </trkpt>
      <trkpt lat="45.75756" lon="14.04553">
        <ele>563.47</ele>
        <time>2012-07-30T15:38:34Z</time>
      </trkpt>
      <trkpt lat="45.75745" lon="14.04563">
        <ele>562.99</ele>
        <time>2012-07-30T15:38:35Z</time>
      </trkpt>
      <trkpt lat="45.75735" lon="14.04576">
        <ele>563.47</ele>
        <time>2012-07-30T15:38:36Z</time>
      </trkpt>
      <trkpt lat="45.75727" lon="14.04592">
        <ele>564.43</ele>
        <time>2012-07-30T15:38:37Z</time>
      </trkpt>
      <trkpt lat="45.75721" lon="14.04611">
        <ele>565.87</ele>
        <time>2012-07-30T15:38:38Z</time>
      </trkpt>
      <trkpt lat="45.75718" lon="14.04632">
        <ele>567.32</ele>
        <time>2012-07-30T15:38:39Z</time>
      </trkpt>
      <trkpt lat="45.75715" lon="14.04653">
        <ele>568.28</ele>
        <time>2012-07-30T15:38:40Z</time>
      </trkpt>
      <trkpt lat="45.75711" lon="14.04673">
        <ele>569.24</ele>
        <time>2012-07-30T15:38:41Z</time>
      </trkpt>
      <trkpt lat="45.75706" lon="14.04693">
        <ele>571.16</ele>
        <time>2012-07-30T15:38:42Z</time>
      </trkpt>
      <trkpt lat="45.75699" lon="14.04711">
        <ele>572.6</ele>
        <time>2012-07-30T15:38:43Z</time>
      </trkpt>
      <trkpt lat="45.75691" lon="14.0473">
        <ele>573.08</ele>
        <time>2012-07-30T15:38:44Z</time>
      </trkpt>
      <trkpt lat="45.75683" lon="14.04747">
        <ele>575.01</ele>
        <time>2012-07-30T15:38:45Z</time>
      </trkpt>
      <trkpt lat="45.75661" lon="14.04802">
        <ele>577.89</ele>
        <time>2012-07-30T15:38:48Z</time>
      </trkpt>
      <trkpt lat="45.75655" lon="14.04823">
        <ele>578.85</ele>
        <time>2012-07-30T15:38:49Z</time>
      </trkpt>
      <trkpt lat="45.75651" lon="14.04845">
        <ele>580.29</ele>
        <time>2012-07-30T15:38:50Z</time>
      </trkpt>
      <trkpt lat="45.75649" lon="14.04868">
        <ele>580.77</ele>
        <time>2012-07-30T15:38:51Z</time>
      </trkpt>
      <trkpt lat="45.75648" lon="14.04891">
        <ele>581.25</ele>
        <time>2012-07-30T15:38:52Z</time>
      </trkpt>
      <trkpt lat="45.75649" lon="14.04914">
        <ele>582.22</ele>
        <time>2012-07-30T15:38:53Z</time>
      </trkpt>
      <trkpt lat="45.7565" lon="14.04961">
        <ele>583.66</ele>
        <time>2012-07-30T15:38:55Z</time>
      </trkpt>
      <trkpt lat="45.75648" lon="14.0503">
        <ele>584.62</ele>
        <time>2012-07-30T15:38:58Z</time>
      </trkpt>
      <trkpt lat="45.75644" lon="14.05053">
        <ele>585.1</ele>
        <time>2012-07-30T15:38:59Z</time>
      </trkpt>
      <trkpt lat="45.75639" lon="14.05076">
        <ele>585.58</ele>
        <time>2012-07-30T15:39:00Z</time>
      </trkpt>
      <trkpt lat="45.75633" lon="14.05098">
        <ele>584.62</ele>
        <time>2012-07-30T15:39:01Z</time>
      </trkpt>
      <trkpt lat="45.75625" lon="14.05118">
        <ele>583.66</ele>
        <time>2012-07-30T15:39:02Z</time>
      </trkpt>
      <trkpt lat="45.75615" lon="14.05137">
        <ele>584.14</ele>
        <time>2012-07-30T15:39:03Z</time>
      </trkpt>
      <trkpt lat="45.75605" lon="14.05155">
        <ele>583.66</ele>
        <time>2012-07-30T15:39:04Z</time>
      </trkpt>
      <trkpt lat="45.75588" lon="14.05186">
        <ele>583.18</ele>
        <time>2012-07-30T15:39:06Z</time>
      </trkpt>
      <trkpt lat="45.75578" lon="14.052">
        <ele>583.18</ele>
        <time>2012-07-30T15:39:07Z</time>
      </trkpt>
      <trkpt lat="45.75556" lon="14.05231">
        <ele>577.41</ele>
        <time>2012-07-30T15:39:09Z</time>
      </trkpt>
      <trkpt lat="45.75547" lon="14.05249">
        <ele>578.37</ele>
        <time>2012-07-30T15:39:10Z</time>
      </trkpt>
      <trkpt lat="45.75541" lon="14.0527">
        <ele>578.37</ele>
        <time>2012-07-30T15:39:11Z</time>
      </trkpt>
      <trkpt lat="45.75537" lon="14.05292">
        <ele>576.93</ele>
        <time>2012-07-30T15:39:12Z</time>
      </trkpt>
      <trkpt lat="45.75534" lon="14.05313">
        <ele>576.45</ele>
        <time>2012-07-30T15:39:13Z</time>
      </trkpt>
      <trkpt lat="45.75534" lon="14.05336">
        <ele>575.97</ele>
        <time>2012-07-30T15:39:14Z</time>
      </trkpt>
      <trkpt lat="45.75536" lon="14.05358">
        <ele>575.49</ele>
        <time>2012-07-30T15:39:15Z</time>
      </trkpt>
      <trkpt lat="45.75539" lon="14.05381">
        <ele>575.49</ele>
        <time>2012-07-30T15:39:16Z</time>
      </trkpt>
      <trkpt lat="45.75545" lon="14.05403">
        <ele>574.04</ele>
        <time>2012-07-30T15:39:17Z</time>
      </trkpt>
      <trkpt lat="45.75554" lon="14.05425">
        <ele>571.64</ele>
        <time>2012-07-30T15:39:18Z</time>
      </trkpt>
      <trkpt lat="45.75564" lon="14.05445">
        <ele>569.72</ele>
        <time>2012-07-30T15:39:19Z</time>
      </trkpt>
      <trkpt lat="45.75576" lon="14.05462">
        <ele>568.28</ele>
        <time>2012-07-30T15:39:20Z</time>
      </trkpt>
      <trkpt lat="45.75589" lon="14.05477">
        <ele>566.35</ele>
        <time>2012-07-30T15:39:21Z</time>
      </trkpt>
      <trkpt lat="45.75603" lon="14.05489">
        <ele>564.43</ele>
        <time>2012-07-30T15:39:22Z</time>
      </trkpt>
      <trkpt lat="45.75616" lon="14.055">
        <ele>563.95</ele>
        <time>2012-07-30T15:39:23Z</time>
      </trkpt>
      <trkpt lat="45.75643" lon="14.05524">
        <ele>564.43</ele>
        <time>2012-07-30T15:39:25Z</time>
      </trkpt>
      <trkpt lat="45.75654" lon="14.05538">
        <ele>563.95</ele>
        <time>2012-07-30T15:39:26Z</time>
      </trkpt>
      <trkpt lat="45.75665" lon="14.05556">
        <ele>564.43</ele>
        <time>2012-07-30T15:39:27Z</time>
      </trkpt>
      <trkpt lat="45.75675" lon="14.05575">
        <ele>564.43</ele>
        <time>2012-07-30T15:39:28Z</time>
      </trkpt>
      <trkpt lat="45.75682" lon="14.05596">
        <ele>564.91</ele>
        <time>2012-07-30T15:39:29Z</time>
      </trkpt>
      <trkpt lat="45.75687" lon="14.05619">
        <ele>565.39</ele>
        <time>2012-07-30T15:39:30Z</time>
      </trkpt>
      <trkpt lat="45.75689" lon="14.05642">
        <ele>564.91</ele>
        <time>2012-07-30T15:39:31Z</time>
      </trkpt>
      <trkpt lat="45.75689" lon="14.05666">
        <ele>563.95</ele>
        <time>2012-07-30T15:39:32Z</time>
      </trkpt>
      <trkpt lat="45.75688" lon="14.05691">
        <ele>563.95</ele>
        <time>2012-07-30T15:39:33Z</time>
      </trkpt>
      <trkpt lat="45.75675" lon="14.05839">
        <ele>559.62</ele>
        <time>2012-07-30T15:39:39Z</time>
      </trkpt>
      <trkpt lat="45.75672" lon="14.05878">
        <ele>557.22</ele>
        <time>2012-07-30T15:39:41Z</time>
      </trkpt>
      <trkpt lat="45.75668" lon="14.05943">
        <ele>555.78</ele>
        <time>2012-07-30T15:39:45Z</time>
      </trkpt>
      <trkpt lat="45.75666" lon="14.05957">
        <ele>554.82</ele>
        <time>2012-07-30T15:39:46Z</time>
      </trkpt>
      <trkpt lat="45.75662" lon="14.05971">
        <ele>554.34</ele>
        <time>2012-07-30T15:39:47Z</time>
      </trkpt>
      <trkpt lat="45.7566" lon="14.05984">
        <ele>553.38</ele>
        <time>2012-07-30T15:39:48Z</time>
      </trkpt>
      <trkpt lat="45.7566" lon="14.05998">
        <ele>552.9</ele>
        <time>2012-07-30T15:39:49Z</time>
      </trkpt>
      <trkpt lat="45.75662" lon="14.06012">
        <ele>553.86</ele>
        <time>2012-07-30T15:39:50Z</time>
      </trkpt>
      <trkpt lat="45.75668" lon="14.06026">
        <ele>552.9</ele>
        <time>2012-07-30T15:39:51Z</time>
      </trkpt>
      <trkpt lat="45.75675" lon="14.0604">
        <ele>552.9</ele>
        <time>2012-07-30T15:39:52Z</time>
      </trkpt>
      <trkpt lat="45.75682" lon="14.06055">
        <ele>552.9</ele>
        <time>2012-07-30T15:39:53Z</time>
      </trkpt>
      <trkpt lat="45.75693" lon="14.06106">
        <ele>553.38</ele>
        <time>2012-07-30T15:39:56Z</time>
      </trkpt>
      <trkpt lat="45.75719" lon="14.06341">
        <ele>554.82</ele>
        <time>2012-07-30T15:40:10Z</time>
      </trkpt>
      <trkpt lat="45.75738" lon="14.06481">
        <ele>550.97</ele>
        <time>2012-07-30T15:40:18Z</time>
      </trkpt>
      <trkpt lat="45.75741" lon="14.065">
        <ele>551.45</ele>
        <time>2012-07-30T15:40:19Z</time>
      </trkpt>
      <trkpt lat="45.75755" lon="14.06629">
        <ele>548.09</ele>
        <time>2012-07-30T15:40:25Z</time>
      </trkpt>
      <trkpt lat="45.75758" lon="14.06672">
        <ele>547.61</ele>
        <time>2012-07-30T15:40:27Z</time>
      </trkpt>
      <trkpt lat="45.75757" lon="14.06759">
        <ele>544.24</ele>
        <time>2012-07-30T15:40:32Z</time>
      </trkpt>
      <trkpt lat="45.75754" lon="14.06772">
        <ele>544.24</ele>
        <time>2012-07-30T15:40:33Z</time>
      </trkpt>
      <trkpt lat="45.7575" lon="14.06783">
        <ele>543.28</ele>
        <time>2012-07-30T15:40:34Z</time>
      </trkpt>
      <trkpt lat="45.75744" lon="14.06793">
        <ele>543.28</ele>
        <time>2012-07-30T15:40:35Z</time>
      </trkpt>
      <trkpt lat="45.75739" lon="14.068">
        <ele>545.2</ele>
        <time>2012-07-30T15:40:36Z</time>
      </trkpt>
      <trkpt lat="45.75729" lon="14.06815">
        <ele>541.84</ele>
        <time>2012-07-30T15:40:39Z</time>
      </trkpt>
      <trkpt lat="45.75727" lon="14.06822">
        <ele>541.36</ele>
        <time>2012-07-30T15:40:45Z</time>
      </trkpt>
      <trkpt lat="45.75727" lon="14.06828">
        <ele>543.28</ele>
        <time>2012-07-30T15:40:46Z</time>
      </trkpt>
      <trkpt lat="45.75729" lon="14.06837">
        <ele>541.84</ele>
        <time>2012-07-30T15:40:47Z</time>
      </trkpt>
      <trkpt lat="45.75732" lon="14.06846">
        <ele>542.32</ele>
        <time>2012-07-30T15:40:48Z</time>
      </trkpt>
      <trkpt lat="45.75738" lon="14.06856">
        <ele>542.8</ele>
        <time>2012-07-30T15:40:49Z</time>
      </trkpt>
      <trkpt lat="45.75745" lon="14.06867">
        <ele>543.76</ele>
        <time>2012-07-30T15:40:50Z</time>
      </trkpt>
      <trkpt lat="45.75751" lon="14.06879">
        <ele>543.76</ele>
        <time>2012-07-30T15:40:51Z</time>
      </trkpt>
      <trkpt lat="45.75817" lon="14.07004">
        <ele>547.13</ele>
        <time>2012-07-30T15:40:59Z</time>
      </trkpt>
      <trkpt lat="45.75862" lon="14.07142">
        <ele>546.17</ele>
        <time>2012-07-30T15:41:06Z</time>
      </trkpt>
      <trkpt lat="45.75865" lon="14.07162">
        <ele>546.65</ele>
        <time>2012-07-30T15:41:07Z</time>
      </trkpt>
      <trkpt lat="45.75878" lon="14.07295">
        <ele>543.76</ele>
        <time>2012-07-30T15:41:13Z</time>
      </trkpt>
      <trkpt lat="45.75883" lon="14.07316">
        <ele>543.28</ele>
        <time>2012-07-30T15:41:14Z</time>
      </trkpt>
      <trkpt lat="45.75891" lon="14.07338">
        <ele>543.28</ele>
        <time>2012-07-30T15:41:15Z</time>
      </trkpt>
      <trkpt lat="45.759" lon="14.07358">
        <ele>542.8</ele>
        <time>2012-07-30T15:41:16Z</time>
      </trkpt>
      <trkpt lat="45.75911" lon="14.07377">
        <ele>541.36</ele>
        <time>2012-07-30T15:41:17Z</time>
      </trkpt>
      <trkpt lat="45.75923" lon="14.07394">
        <ele>541.36</ele>
        <time>2012-07-30T15:41:18Z</time>
      </trkpt>
      <trkpt lat="45.75937" lon="14.0741">
        <ele>541.84</ele>
        <time>2012-07-30T15:41:19Z</time>
      </trkpt>
      <trkpt lat="45.75952" lon="14.07425">
        <ele>542.32</ele>
        <time>2012-07-30T15:41:20Z</time>
      </trkpt>
      <trkpt lat="45.76006" lon="14.07489">
        <ele>545.69</ele>
        <time>2012-07-30T15:41:24Z</time>
      </trkpt>
      <trkpt lat="45.76078" lon="14.07641">
        <ele>544.24</ele>
        <time>2012-07-30T15:41:32Z</time>
      </trkpt>
      <trkpt lat="45.76098" lon="14.07758">
        <ele>540.4</ele>
        <time>2012-07-30T15:41:37Z</time>
      </trkpt>
      <trkpt lat="45.76122" lon="14.0793">
        <ele>539.92</ele>
        <time>2012-07-30T15:41:44Z</time>
      </trkpt>
      <trkpt lat="45.76122" lon="14.08008">
        <ele>539.44</ele>
        <time>2012-07-30T15:41:47Z</time>
      </trkpt>
      <trkpt lat="45.76119" lon="14.08035">
        <ele>537.99</ele>
        <time>2012-07-30T15:41:48Z</time>
      </trkpt>
      <trkpt lat="45.76115" lon="14.08061">
        <ele>537.51</ele>
        <time>2012-07-30T15:41:49Z</time>
      </trkpt>
      <trkpt lat="45.7608" lon="14.08295">
        <ele>538.48</ele>
        <time>2012-07-30T15:41:58Z</time>
      </trkpt>
      <trkpt lat="45.7608" lon="14.08321">
        <ele>538.96</ele>
        <time>2012-07-30T15:41:59Z</time>
      </trkpt>
      <trkpt lat="45.76082" lon="14.08372">
        <ele>539.92</ele>
        <time>2012-07-30T15:42:01Z</time>
      </trkpt>
      <trkpt lat="45.76085" lon="14.08502">
        <ele>540.4</ele>
        <time>2012-07-30T15:42:06Z</time>
      </trkpt>
      <trkpt lat="45.76082" lon="14.08528">
        <ele>541.36</ele>
        <time>2012-07-30T15:42:07Z</time>
      </trkpt>
      <trkpt lat="45.76052" lon="14.08671">
        <ele>545.2</ele>
        <time>2012-07-30T15:42:13Z</time>
      </trkpt>
      <trkpt lat="45.76024" lon="14.08754">
        <ele>546.17</ele>
        <time>2012-07-30T15:42:17Z</time>
      </trkpt>
      <trkpt lat="45.7602" lon="14.08777">
        <ele>547.13</ele>
        <time>2012-07-30T15:42:18Z</time>
      </trkpt>
      <trkpt lat="45.76019" lon="14.088">
        <ele>546.17</ele>
        <time>2012-07-30T15:42:19Z</time>
      </trkpt>
      <trkpt lat="45.76021" lon="14.08823">
        <ele>547.13</ele>
        <time>2012-07-30T15:42:20Z</time>
      </trkpt>
      <trkpt lat="45.76026" lon="14.08847">
        <ele>546.65</ele>
        <time>2012-07-30T15:42:21Z</time>
      </trkpt>
      <trkpt lat="45.76031" lon="14.08871">
        <ele>547.61</ele>
        <time>2012-07-30T15:42:22Z</time>
      </trkpt>
      <trkpt lat="45.76063" lon="14.09016">
        <ele>545.2</ele>
        <time>2012-07-30T15:42:28Z</time>
      </trkpt>
      <trkpt lat="45.7608" lon="14.09083">
        <ele>541.84</ele>
        <time>2012-07-30T15:42:31Z</time>
      </trkpt>
      <trkpt lat="45.7609" lon="14.09127">
        <ele>540.88</ele>
        <time>2012-07-30T15:42:33Z</time>
      </trkpt>
      <trkpt lat="45.76097" lon="14.09301">
        <ele>539.92</ele>
        <time>2012-07-30T15:42:40Z</time>
      </trkpt>
      <trkpt lat="45.76089" lon="14.09431">
        <ele>538.48</ele>
        <time>2012-07-30T15:42:45Z</time>
      </trkpt>
      <trkpt lat="45.76074" lon="14.09525">
        <ele>537.51</ele>
        <time>2012-07-30T15:42:49Z</time>
      </trkpt>
      <trkpt lat="45.76074" lon="14.09548">
        <ele>538.96</ele>
        <time>2012-07-30T15:42:50Z</time>
      </trkpt>
      <trkpt lat="45.76076" lon="14.09572">
        <ele>537.99</ele>
        <time>2012-07-30T15:42:51Z</time>
      </trkpt>
      <trkpt lat="45.76081" lon="14.09596">
        <ele>537.99</ele>
        <time>2012-07-30T15:42:52Z</time>
      </trkpt>
      <trkpt lat="45.76087" lon="14.09619">
        <ele>536.07</ele>
        <time>2012-07-30T15:42:53Z</time>
      </trkpt>
      <trkpt lat="45.76094" lon="14.09643">
        <ele>535.11</ele>
        <time>2012-07-30T15:42:54Z</time>
      </trkpt>
      <trkpt lat="45.76117" lon="14.09706">
        <ele>531.27</ele>
        <time>2012-07-30T15:42:57Z</time>
      </trkpt>
      <trkpt lat="45.7613" lon="14.09743">
        <ele>527.9</ele>
        <time>2012-07-30T15:42:59Z</time>
      </trkpt>
      <trkpt lat="45.76134" lon="14.09762">
        <ele>527.42</ele>
        <time>2012-07-30T15:43:00Z</time>
      </trkpt>
      <trkpt lat="45.76137" lon="14.09781">
        <ele>526.46</ele>
        <time>2012-07-30T15:43:01Z</time>
      </trkpt>
      <trkpt lat="45.76137" lon="14.09802">
        <ele>524.54</ele>
        <time>2012-07-30T15:43:02Z</time>
      </trkpt>
      <trkpt lat="45.76136" lon="14.09822">
        <ele>523.58</ele>
        <time>2012-07-30T15:43:03Z</time>
      </trkpt>
      <trkpt lat="45.76132" lon="14.09842">
        <ele>522.13</ele>
        <time>2012-07-30T15:43:04Z</time>
      </trkpt>
      <trkpt lat="45.76125" lon="14.09863">
        <ele>520.21</ele>
        <time>2012-07-30T15:43:05Z</time>
      </trkpt>
      <trkpt lat="45.76116" lon="14.09882">
        <ele>520.69</ele>
        <time>2012-07-30T15:43:06Z</time>
      </trkpt>
      <trkpt lat="45.76106" lon="14.099">
        <ele>519.25</ele>
        <time>2012-07-30T15:43:07Z</time>
      </trkpt>
      <trkpt lat="45.76095" lon="14.09917">
        <ele>519.73</ele>
        <time>2012-07-30T15:43:08Z</time>
      </trkpt>
      <trkpt lat="45.76083" lon="14.09934">
        <ele>520.21</ele>
        <time>2012-07-30T15:43:09Z</time>
      </trkpt>
      <trkpt lat="45.76062" lon="14.09971">
        <ele>521.17</ele>
        <time>2012-07-30T15:43:11Z</time>
      </trkpt>
      <trkpt lat="45.76054" lon="14.09993">
        <ele>521.65</ele>
        <time>2012-07-30T15:43:12Z</time>
      </trkpt>
      <trkpt lat="45.76048" lon="14.10016">
        <ele>522.13</ele>
        <time>2012-07-30T15:43:13Z</time>
      </trkpt>
      <trkpt lat="45.76046" lon="14.1004">
        <ele>521.65</ele>
        <time>2012-07-30T15:43:14Z</time>
      </trkpt>
      <trkpt lat="45.76046" lon="14.10064">
        <ele>522.13</ele>
        <time>2012-07-30T15:43:15Z</time>
      </trkpt>
      <trkpt lat="45.76049" lon="14.10089">
        <ele>521.65</ele>
        <time>2012-07-30T15:43:16Z</time>
      </trkpt>
      <trkpt lat="45.76054" lon="14.10115">
        <ele>523.09</ele>
        <time>2012-07-30T15:43:17Z</time>
      </trkpt>
      <trkpt lat="45.7606" lon="14.1014">
        <ele>524.06</ele>
        <time>2012-07-30T15:43:18Z</time>
      </trkpt>
      <trkpt lat="45.76066" lon="14.10166">
        <ele>524.06</ele>
        <time>2012-07-30T15:43:19Z</time>
      </trkpt>
      <trkpt lat="45.76117" lon="14.10398">
        <ele>523.09</ele>
        <time>2012-07-30T15:43:28Z</time>
      </trkpt>
      <trkpt lat="45.76135" lon="14.1058">
        <ele>521.17</ele>
        <time>2012-07-30T15:43:35Z</time>
      </trkpt>
      <trkpt lat="45.76141" lon="14.10605">
        <ele>520.69</ele>
        <time>2012-07-30T15:43:36Z</time>
      </trkpt>
      <trkpt lat="45.76201" lon="14.10842">
        <ele>520.69</ele>
        <time>2012-07-30T15:43:46Z</time>
      </trkpt>
      <trkpt lat="45.7621" lon="14.10909">
        <ele>524.06</ele>
        <time>2012-07-30T15:43:49Z</time>
      </trkpt>
      <trkpt lat="45.76215" lon="14.10929">
        <ele>524.54</ele>
        <time>2012-07-30T15:43:50Z</time>
      </trkpt>
      <trkpt lat="45.7623" lon="14.10987">
        <ele>524.54</ele>
        <time>2012-07-30T15:43:53Z</time>
      </trkpt>
      <trkpt lat="45.76232" lon="14.11006">
        <ele>524.06</ele>
        <time>2012-07-30T15:43:54Z</time>
      </trkpt>
      <trkpt lat="45.76231" lon="14.11026">
        <ele>523.09</ele>
        <time>2012-07-30T15:43:55Z</time>
      </trkpt>
      <trkpt lat="45.76228" lon="14.11044">
        <ele>524.06</ele>
        <time>2012-07-30T15:43:56Z</time>
      </trkpt>
      <trkpt lat="45.76225" lon="14.11061">
        <ele>523.58</ele>
        <time>2012-07-30T15:43:57Z</time>
      </trkpt>
      <trkpt lat="45.76196" lon="14.11181">
        <ele>522.13</ele>
        <time>2012-07-30T15:44:05Z</time>
      </trkpt>
      <trkpt lat="45.76178" lon="14.11364">
        <ele>524.06</ele>
        <time>2012-07-30T15:44:15Z</time>
      </trkpt>
      <trkpt lat="45.76179" lon="14.11383">
        <ele>524.54</ele>
        <time>2012-07-30T15:44:16Z</time>
      </trkpt>
      <trkpt lat="45.76184" lon="14.11402">
        <ele>525.02</ele>
        <time>2012-07-30T15:44:17Z</time>
      </trkpt>
      <trkpt lat="45.7619" lon="14.11419">
        <ele>525.98</ele>
        <time>2012-07-30T15:44:18Z</time>
      </trkpt>
      <trkpt lat="45.76198" lon="14.11435">
        <ele>526.94</ele>
        <time>2012-07-30T15:44:19Z</time>
      </trkpt>
      <trkpt lat="45.76207" lon="14.1145">
        <ele>526.94</ele>
        <time>2012-07-30T15:44:20Z</time>
      </trkpt>
      <trkpt lat="45.76261" lon="14.11536">
        <ele>532.23</ele>
        <time>2012-07-30T15:44:26Z</time>
      </trkpt>
      <trkpt lat="45.76304" lon="14.11612">
        <ele>532.23</ele>
        <time>2012-07-30T15:44:31Z</time>
      </trkpt>
      <trkpt lat="45.76308" lon="14.11631">
        <ele>533.19</ele>
        <time>2012-07-30T15:44:32Z</time>
      </trkpt>
      <trkpt lat="45.7631" lon="14.11651">
        <ele>533.67</ele>
        <time>2012-07-30T15:44:33Z</time>
      </trkpt>
      <trkpt lat="45.76314" lon="14.11741">
        <ele>536.55</ele>
        <time>2012-07-30T15:44:37Z</time>
      </trkpt>
      <trkpt lat="45.76321" lon="14.11882">
        <ele>540.4</ele>
        <time>2012-07-30T15:44:43Z</time>
      </trkpt>
      <trkpt lat="45.7633" lon="14.12067">
        <ele>541.84</ele>
        <time>2012-07-30T15:44:51Z</time>
      </trkpt>
      <trkpt lat="45.76332" lon="14.12114">
        <ele>540.4</ele>
        <time>2012-07-30T15:44:53Z</time>
      </trkpt>
      <trkpt lat="45.76353" lon="14.12256">
        <ele>537.03</ele>
        <time>2012-07-30T15:44:59Z</time>
      </trkpt>
      <trkpt lat="45.76376" lon="14.12318">
        <ele>535.59</ele>
        <time>2012-07-30T15:45:02Z</time>
      </trkpt>
      <trkpt lat="45.76386" lon="14.12337">
        <ele>535.59</ele>
        <time>2012-07-30T15:45:03Z</time>
      </trkpt>
      <trkpt lat="45.76408" lon="14.12376">
        <ele>531.75</ele>
        <time>2012-07-30T15:45:05Z</time>
      </trkpt>
      <trkpt lat="45.76456" lon="14.12452">
        <ele>528.38</ele>
        <time>2012-07-30T15:45:09Z</time>
      </trkpt>
      <trkpt lat="45.76493" lon="14.12516">
        <ele>525.98</ele>
        <time>2012-07-30T15:45:12Z</time>
      </trkpt>
      <trkpt lat="45.76548" lon="14.12628">
        <ele>525.5</ele>
        <time>2012-07-30T15:45:17Z</time>
      </trkpt>
      <trkpt lat="45.76703" lon="14.12978">
        <ele>523.58</ele>
        <time>2012-07-30T15:45:32Z</time>
      </trkpt>
      <trkpt lat="45.76749" lon="14.13072">
        <ele>520.69</ele>
        <time>2012-07-30T15:45:36Z</time>
      </trkpt>
      <trkpt lat="45.76841" lon="14.13262">
        <ele>522.61</ele>
        <time>2012-07-30T15:45:44Z</time>
      </trkpt>
      <trkpt lat="45.76975" lon="14.13531">
        <ele>524.06</ele>
        <time>2012-07-30T15:45:56Z</time>
      </trkpt>
      <trkpt lat="45.77006" lon="14.13598">
        <ele>525.5</ele>
        <time>2012-07-30T15:45:59Z</time>
      </trkpt>
      <trkpt lat="45.77124" lon="14.13838">
        <ele>527.9</ele>
        <time>2012-07-30T15:46:10Z</time>
      </trkpt>
      <trkpt lat="45.77223" lon="14.14041">
        <ele>527.9</ele>
        <time>2012-07-30T15:46:20Z</time>
      </trkpt>
      <trkpt lat="45.77302" lon="14.14291">
        <ele>527.42</ele>
        <time>2012-07-30T15:46:31Z</time>
      </trkpt>
      <trkpt lat="45.77317" lon="14.14341">
        <ele>530.79</ele>
        <time>2012-07-30T15:46:33Z</time>
      </trkpt>
      <trkpt lat="45.77332" lon="14.14392">
        <ele>527.42</ele>
        <time>2012-07-30T15:46:35Z</time>
      </trkpt>
      <trkpt lat="45.77339" lon="14.14417">
        <ele>526.94</ele>
        <time>2012-07-30T15:46:36Z</time>
      </trkpt>
      <trkpt lat="45.77421" lon="14.14687">
        <ele>530.3</ele>
        <time>2012-07-30T15:46:47Z</time>
      </trkpt>
      <trkpt lat="45.77457" lon="14.1481">
        <ele>533.67</ele>
        <time>2012-07-30T15:46:52Z</time>
      </trkpt>
      <trkpt lat="45.77491" lon="14.14935">
        <ele>536.07</ele>
        <time>2012-07-30T15:46:57Z</time>
      </trkpt>
      <trkpt lat="45.77499" lon="14.14988">
        <ele>532.23</ele>
        <time>2012-07-30T15:46:59Z</time>
      </trkpt>
      <trkpt lat="45.77503" lon="14.15016">
        <ele>533.19</ele>
        <time>2012-07-30T15:47:00Z</time>
      </trkpt>
      <trkpt lat="45.7754" lon="14.15355">
        <ele>529.82</ele>
        <time>2012-07-30T15:47:12Z</time>
      </trkpt>
      <trkpt lat="45.77547" lon="14.15412">
        <ele>528.86</ele>
        <time>2012-07-30T15:47:14Z</time>
      </trkpt>
      <trkpt lat="45.77556" lon="14.15495">
        <ele>525.02</ele>
        <time>2012-07-30T15:47:17Z</time>
      </trkpt>
      <trkpt lat="45.77559" lon="14.15522">
        <ele>524.54</ele>
        <time>2012-07-30T15:47:18Z</time>
      </trkpt>
      <trkpt lat="45.7758" lon="14.15716">
        <ele>525.98</ele>
        <time>2012-07-30T15:47:25Z</time>
      </trkpt>
      <trkpt lat="45.77589" lon="14.158">
        <ele>527.9</ele>
        <time>2012-07-30T15:47:28Z</time>
      </trkpt>
      <trkpt lat="45.77595" lon="14.15856">
        <ele>529.34</ele>
        <time>2012-07-30T15:47:30Z</time>
      </trkpt>
      <trkpt lat="45.77615" lon="14.16047">
        <ele>532.71</ele>
        <time>2012-07-30T15:47:37Z</time>
      </trkpt>
      <trkpt lat="45.77632" lon="14.16187">
        <ele>533.67</ele>
        <time>2012-07-30T15:47:42Z</time>
      </trkpt>
      <trkpt lat="45.7763" lon="14.1642">
        <ele>533.67</ele>
        <time>2012-07-30T15:47:50Z</time>
      </trkpt>
      <trkpt lat="45.77603" lon="14.16604">
        <ele>530.3</ele>
        <time>2012-07-30T15:47:57Z</time>
      </trkpt>
      <trkpt lat="45.77599" lon="14.16652">
        <ele>529.82</ele>
        <time>2012-07-30T15:47:59Z</time>
      </trkpt>
      <trkpt lat="45.77591" lon="14.16724">
        <ele>526.46</ele>
        <time>2012-07-30T15:48:02Z</time>
      </trkpt>
      <trkpt lat="45.77587" lon="14.16746">
        <ele>526.94</ele>
        <time>2012-07-30T15:48:03Z</time>
      </trkpt>
      <trkpt lat="45.77581" lon="14.16767">
        <ele>528.38</ele>
        <time>2012-07-30T15:48:04Z</time>
      </trkpt>
      <trkpt lat="45.77573" lon="14.16788">
        <ele>527.9</ele>
        <time>2012-07-30T15:48:05Z</time>
      </trkpt>
      <trkpt lat="45.77565" lon="14.16807">
        <ele>527.9</ele>
        <time>2012-07-30T15:48:06Z</time>
      </trkpt>
      <trkpt lat="45.77555" lon="14.16825">
        <ele>528.38</ele>
        <time>2012-07-30T15:48:07Z</time>
      </trkpt>
      <trkpt lat="45.77545" lon="14.16843">
        <ele>527.42</ele>
        <time>2012-07-30T15:48:08Z</time>
      </trkpt>
      <trkpt lat="45.77483" lon="14.16927">
        <ele>526.94</ele>
        <time>2012-07-30T15:48:14Z</time>
      </trkpt>
      <trkpt lat="45.77426" lon="14.16979">
        <ele>527.9</ele>
        <time>2012-07-30T15:48:19Z</time>
      </trkpt>
      <trkpt lat="45.77415" lon="14.16993">
        <ele>527.42</ele>
        <time>2012-07-30T15:48:20Z</time>
      </trkpt>
      <trkpt lat="45.77404" lon="14.17009">
        <ele>527.9</ele>
        <time>2012-07-30T15:48:21Z</time>
      </trkpt>
      <trkpt lat="45.77393" lon="14.17028">
        <ele>527.9</ele>
        <time>2012-07-30T15:48:22Z</time>
      </trkpt>
      <trkpt lat="45.77383" lon="14.17048">
        <ele>527.9</ele>
        <time>2012-07-30T15:48:23Z</time>
      </trkpt>
      <trkpt lat="45.77355" lon="14.17104">
        <ele>525.02</ele>
        <time>2012-07-30T15:48:26Z</time>
      </trkpt>
      <trkpt lat="45.77334" lon="14.17147">
        <ele>523.58</ele>
        <time>2012-07-30T15:48:29Z</time>
      </trkpt>
      <trkpt lat="45.77329" lon="14.17156">
        <ele>523.58</ele>
        <time>2012-07-30T15:48:30Z</time>
      </trkpt>
      <trkpt lat="45.77312" lon="14.17183">
        <ele>522.13</ele>
        <time>2012-07-30T15:48:35Z</time>
      </trkpt>
      <trkpt lat="45.77311" lon="14.17186">
        <ele>522.13</ele>
        <time>2012-07-30T15:48:36Z</time>
      </trkpt>
      <trkpt lat="45.77313" lon="14.17187">
        <ele>522.61</ele>
        <time>2012-07-30T15:48:37Z</time>
      </trkpt>
      <trkpt lat="45.77317" lon="14.17186">
        <ele>523.58</ele>
        <time>2012-07-30T15:48:38Z</time>
      </trkpt>
      <trkpt lat="45.77321" lon="14.1718">
        <ele>523.58</ele>
        <time>2012-07-30T15:48:39Z</time>
      </trkpt>
      <trkpt lat="45.77326" lon="14.17171">
        <ele>524.06</ele>
        <time>2012-07-30T15:48:40Z</time>
      </trkpt>
      <trkpt lat="45.77332" lon="14.17158">
        <ele>525.02</ele>
        <time>2012-07-30T15:48:41Z</time>
      </trkpt>
      <trkpt lat="45.77375" lon="14.17071">
        <ele>526.94</ele>
        <time>2012-07-30T15:48:46Z</time>
      </trkpt>
      <trkpt lat="45.77407" lon="14.17014">
        <ele>528.38</ele>
        <time>2012-07-30T15:48:49Z</time>
      </trkpt>
      <trkpt lat="45.7742" lon="14.16997">
        <ele>527.9</ele>
        <time>2012-07-30T15:48:50Z</time>
      </trkpt>
      <trkpt lat="45.77434" lon="14.16982">
        <ele>528.38</ele>
        <time>2012-07-30T15:48:51Z</time>
      </trkpt>
      <trkpt lat="45.77448" lon="14.16967">
        <ele>529.82</ele>
        <time>2012-07-30T15:48:52Z</time>
      </trkpt>
      <trkpt lat="45.77463" lon="14.16954">
        <ele>530.79</ele>
        <time>2012-07-30T15:48:53Z</time>
      </trkpt>
      <trkpt lat="45.77519" lon="14.16892">
        <ele>529.82</ele>
        <time>2012-07-30T15:48:57Z</time>
      </trkpt>
      <trkpt lat="45.77532" lon="14.16872">
        <ele>530.3</ele>
        <time>2012-07-30T15:48:58Z</time>
      </trkpt>
      <trkpt lat="45.77567" lon="14.16809">
        <ele>528.38</ele>
        <time>2012-07-30T15:49:01Z</time>
      </trkpt>
      <trkpt lat="45.77578" lon="14.16785">
        <ele>527.42</ele>
        <time>2012-07-30T15:49:02Z</time>
      </trkpt>
      <trkpt lat="45.77586" lon="14.1676">
        <ele>527.9</ele>
        <time>2012-07-30T15:49:03Z</time>
      </trkpt>
      <trkpt lat="45.77593" lon="14.16733">
        <ele>525.5</ele>
        <time>2012-07-30T15:49:04Z</time>
      </trkpt>
      <trkpt lat="45.77597" lon="14.16706">
        <ele>526.94</ele>
        <time>2012-07-30T15:49:05Z</time>
      </trkpt>
      <trkpt lat="45.776" lon="14.16679">
        <ele>526.94</ele>
        <time>2012-07-30T15:49:06Z</time>
      </trkpt>
      <trkpt lat="45.77602" lon="14.16653">
        <ele>527.42</ele>
        <time>2012-07-30T15:49:07Z</time>
      </trkpt>
      <trkpt lat="45.77606" lon="14.16606">
        <ele>525.5</ele>
        <time>2012-07-30T15:49:09Z</time>
      </trkpt>
      <trkpt lat="45.77615" lon="14.16523">
        <ele>525.02</ele>
        <time>2012-07-30T15:49:14Z</time>
      </trkpt>
      <trkpt lat="45.77617" lon="14.16515">
        <ele>525.5</ele>
        <time>2012-07-30T15:49:15Z</time>
      </trkpt>
      <trkpt lat="45.7762" lon="14.1651">
        <ele>525.5</ele>
        <time>2012-07-30T15:49:16Z</time>
      </trkpt>
      <trkpt lat="45.77629" lon="14.16491">
        <ele>524.54</ele>
        <time>2012-07-30T15:49:26Z</time>
      </trkpt>
      <trkpt lat="45.77628" lon="14.1649">
        <ele>524.54</ele>
        <time>2012-07-30T15:49:56Z</time>
      </trkpt>
      <trkpt lat="45.77627" lon="14.16489">
        <ele>525.02</ele>
        <time>2012-07-30T15:50:39Z</time>
      </trkpt>
      <trkpt lat="45.77627" lon="14.16488">
        <ele>525.98</ele>
        <time>2012-07-30T15:51:25Z</time>
      </trkpt>
      <trkpt lat="45.77628" lon="14.16488">
        <ele>527.42</ele>
        <time>2012-07-30T15:52:02Z</time>
      </trkpt>
      <trkpt lat="45.77626" lon="14.16489">
        <ele>526.94</ele>
        <time>2012-07-30T15:52:14Z</time>
      </trkpt>
      <trkpt lat="45.77625" lon="14.16489">
        <ele>526.94</ele>
        <time>2012-07-30T15:52:15Z</time>
      </trkpt>
      <trkpt lat="45.77623" lon="14.16489">
        <ele>526.94</ele>
        <time>2012-07-30T15:52:16Z</time>
      </trkpt>
      <trkpt lat="45.77622" lon="14.16489">
        <ele>527.9</ele>
        <time>2012-07-30T15:52:17Z</time>
      </trkpt>
      <trkpt lat="45.7762" lon="14.1649">
        <ele>527.9</ele>
        <time>2012-07-30T15:52:18Z</time>
      </trkpt>
      <trkpt lat="45.77617" lon="14.16493">
        <ele>528.38</ele>
        <time>2012-07-30T15:52:19Z</time>
      </trkpt>
      <trkpt lat="45.77614" lon="14.16499">
        <ele>530.3</ele>
        <time>2012-07-30T15:52:20Z</time>
      </trkpt>
      <trkpt lat="45.77611" lon="14.16509">
        <ele>530.3</ele>
        <time>2012-07-30T15:52:21Z</time>
      </trkpt>
      <trkpt lat="45.77609" lon="14.16521">
        <ele>531.75</ele>
        <time>2012-07-30T15:52:22Z</time>
      </trkpt>
      <trkpt lat="45.77607" lon="14.16535">
        <ele>529.82</ele>
        <time>2012-07-30T15:52:23Z</time>
      </trkpt>
      <trkpt lat="45.776" lon="14.16617">
        <ele>531.75</ele>
        <time>2012-07-30T15:52:27Z</time>
      </trkpt>
      <trkpt lat="45.77592" lon="14.1671">
        <ele>531.27</ele>
        <time>2012-07-30T15:52:31Z</time>
      </trkpt>
      <trkpt lat="45.77588" lon="14.16734">
        <ele>531.75</ele>
        <time>2012-07-30T15:52:32Z</time>
      </trkpt>
      <trkpt lat="45.77583" lon="14.16756">
        <ele>531.75</ele>
        <time>2012-07-30T15:52:33Z</time>
      </trkpt>
      <trkpt lat="45.77576" lon="14.16779">
        <ele>530.3</ele>
        <time>2012-07-30T15:52:34Z</time>
      </trkpt>
      <trkpt lat="45.77567" lon="14.168">
        <ele>530.79</ele>
        <time>2012-07-30T15:52:35Z</time>
      </trkpt>
      <trkpt lat="45.77557" lon="14.1682">
        <ele>531.27</ele>
        <time>2012-07-30T15:52:36Z</time>
      </trkpt>
      <trkpt lat="45.77546" lon="14.1684">
        <ele>531.27</ele>
        <time>2012-07-30T15:52:37Z</time>
      </trkpt>
      <trkpt lat="45.77483" lon="14.16927">
        <ele>533.19</ele>
        <time>2012-07-30T15:52:42Z</time>
      </trkpt>
      <trkpt lat="45.77423" lon="14.16982">
        <ele>533.19</ele>
        <time>2012-07-30T15:52:46Z</time>
      </trkpt>
      <trkpt lat="45.7741" lon="14.16999">
        <ele>532.23</ele>
        <time>2012-07-30T15:52:47Z</time>
      </trkpt>
      <trkpt lat="45.77398" lon="14.17017">
        <ele>531.27</ele>
        <time>2012-07-30T15:52:48Z</time>
      </trkpt>
      <trkpt lat="45.77388" lon="14.17036">
        <ele>529.82</ele>
        <time>2012-07-30T15:52:49Z</time>
      </trkpt>
      <trkpt lat="45.77378" lon="14.17057">
        <ele>528.86</ele>
        <time>2012-07-30T15:52:50Z</time>
      </trkpt>
      <trkpt lat="45.7735" lon="14.17114">
        <ele>527.42</ele>
        <time>2012-07-30T15:52:53Z</time>
      </trkpt>
      <trkpt lat="45.77303" lon="14.1724">
        <ele>527.9</ele>
        <time>2012-07-30T15:53:00Z</time>
      </trkpt>
      <trkpt lat="45.77258" lon="14.17465">
        <ele>527.42</ele>
        <time>2012-07-30T15:53:10Z</time>
      </trkpt>
      <trkpt lat="45.77226" lon="14.17632">
        <ele>525.02</ele>
        <time>2012-07-30T15:53:17Z</time>
      </trkpt>
      <trkpt lat="45.77192" lon="14.17781">
        <ele>521.17</ele>
        <time>2012-07-30T15:53:23Z</time>
      </trkpt>
      <trkpt lat="45.77178" lon="14.17831">
        <ele>519.73</ele>
        <time>2012-07-30T15:53:25Z</time>
      </trkpt>
      <trkpt lat="45.7714" lon="14.17978">
        <ele>516.85</ele>
        <time>2012-07-30T15:53:31Z</time>
      </trkpt>
      <trkpt lat="45.77082" lon="14.18276">
        <ele>514.92</ele>
        <time>2012-07-30T15:53:43Z</time>
      </trkpt>
      <trkpt lat="45.77038" lon="14.18534">
        <ele>515.88</ele>
        <time>2012-07-30T15:53:53Z</time>
      </trkpt>
      <trkpt lat="45.77009" lon="14.18688">
        <ele>518.77</ele>
        <time>2012-07-30T15:53:59Z</time>
      </trkpt>
      <trkpt lat="45.77006" lon="14.18713">
        <ele>517.81</ele>
        <time>2012-07-30T15:54:00Z</time>
      </trkpt>
      <trkpt lat="45.77005" lon="14.18739">
        <ele>518.29</ele>
        <time>2012-07-30T15:54:01Z</time>
      </trkpt>
      <trkpt lat="45.77006" lon="14.18815">
        <ele>519.73</ele>
        <time>2012-07-30T15:54:04Z</time>
      </trkpt>
      <trkpt lat="45.76989" lon="14.1903">
        <ele>518.77</ele>
        <time>2012-07-30T15:54:13Z</time>
      </trkpt>
      <trkpt lat="45.76972" lon="14.19202">
        <ele>518.29</ele>
        <time>2012-07-30T15:54:21Z</time>
      </trkpt>
      <trkpt lat="45.76972" lon="14.19316">
        <ele>517.33</ele>
        <time>2012-07-30T15:54:29Z</time>
      </trkpt>
      <trkpt lat="45.76975" lon="14.19398">
        <ele>516.85</ele>
        <time>2012-07-30T15:54:39Z</time>
      </trkpt>
      <trkpt lat="45.76977" lon="14.1942">
        <ele>516.85</ele>
        <time>2012-07-30T15:54:43Z</time>
      </trkpt>
      <trkpt lat="45.76976" lon="14.19427">
        <ele>517.81</ele>
        <time>2012-07-30T15:54:44Z</time>
      </trkpt>
      <trkpt lat="45.76975" lon="14.19434">
        <ele>517.81</ele>
        <time>2012-07-30T15:54:45Z</time>
      </trkpt>
      <trkpt lat="45.76973" lon="14.19441">
        <ele>517.81</ele>
        <time>2012-07-30T15:54:46Z</time>
      </trkpt>
      <trkpt lat="45.76971" lon="14.19448">
        <ele>518.29</ele>
        <time>2012-07-30T15:54:47Z</time>
      </trkpt>
      <trkpt lat="45.7697" lon="14.19456">
        <ele>518.77</ele>
        <time>2012-07-30T15:54:48Z</time>
      </trkpt>
      <trkpt lat="45.7697" lon="14.19465">
        <ele>519.25</ele>
        <time>2012-07-30T15:54:49Z</time>
      </trkpt>
      <trkpt lat="45.76971" lon="14.19475">
        <ele>519.73</ele>
        <time>2012-07-30T15:54:50Z</time>
      </trkpt>
      <trkpt lat="45.76973" lon="14.19488">
        <ele>519.73</ele>
        <time>2012-07-30T15:54:51Z</time>
      </trkpt>
      <trkpt lat="45.76974" lon="14.19501">
        <ele>520.69</ele>
        <time>2012-07-30T15:54:52Z</time>
      </trkpt>
      <trkpt lat="45.76974" lon="14.19515">
        <ele>521.17</ele>
        <time>2012-07-30T15:54:53Z</time>
      </trkpt>
      <trkpt lat="45.76976" lon="14.19588">
        <ele>523.09</ele>
        <time>2012-07-30T15:54:58Z</time>
      </trkpt>
      <trkpt lat="45.76992" lon="14.19759">
        <ele>523.58</ele>
        <time>2012-07-30T15:55:10Z</time>
      </trkpt>
      <trkpt lat="45.77002" lon="14.19811">
        <ele>521.65</ele>
        <time>2012-07-30T15:55:15Z</time>
      </trkpt>
      <trkpt lat="45.77004" lon="14.1982">
        <ele>520.21</ele>
        <time>2012-07-30T15:55:18Z</time>
      </trkpt>
      <trkpt lat="45.77006" lon="14.19835">
        <ele>521.17</ele>
        <time>2012-07-30T15:55:39Z</time>
      </trkpt>
      <trkpt lat="45.77008" lon="14.19843">
        <ele>520.69</ele>
        <time>2012-07-30T15:55:40Z</time>
      </trkpt>
      <trkpt lat="45.7701" lon="14.1985">
        <ele>520.69</ele>
        <time>2012-07-30T15:55:41Z</time>
      </trkpt>
      <trkpt lat="45.77014" lon="14.19857">
        <ele>521.17</ele>
        <time>2012-07-30T15:55:42Z</time>
      </trkpt>
      <trkpt lat="45.77019" lon="14.19862">
        <ele>521.65</ele>
        <time>2012-07-30T15:55:43Z</time>
      </trkpt>
      <trkpt lat="45.77026" lon="14.19866">
        <ele>522.61</ele>
        <time>2012-07-30T15:55:44Z</time>
      </trkpt>
      <trkpt lat="45.77035" lon="14.19868">
        <ele>523.58</ele>
        <time>2012-07-30T15:55:45Z</time>
      </trkpt>
      <trkpt lat="45.77045" lon="14.19871">
        <ele>525.02</ele>
        <time>2012-07-30T15:55:46Z</time>
      </trkpt>
      <trkpt lat="45.771" lon="14.19886">
        <ele>524.54</ele>
        <time>2012-07-30T15:55:51Z</time>
      </trkpt>
      <trkpt lat="45.77185" lon="14.19914">
        <ele>523.58</ele>
        <time>2012-07-30T15:56:00Z</time>
      </trkpt>
      <trkpt lat="45.77192" lon="14.19921">
        <ele>524.06</ele>
        <time>2012-07-30T15:56:01Z</time>
      </trkpt>
      <trkpt lat="45.77205" lon="14.19936">
        <ele>525.5</ele>
        <time>2012-07-30T15:56:03Z</time>
      </trkpt>
      <trkpt lat="45.77221" lon="14.1995">
        <ele>525.5</ele>
        <time>2012-07-30T15:56:05Z</time>
      </trkpt>
      <trkpt lat="45.77227" lon="14.19961">
        <ele>525.98</ele>
        <time>2012-07-30T15:56:06Z</time>
      </trkpt>
      <trkpt lat="45.77231" lon="14.19975">
        <ele>525.98</ele>
        <time>2012-07-30T15:56:07Z</time>
      </trkpt>
      <trkpt lat="45.77234" lon="14.19989">
        <ele>526.46</ele>
        <time>2012-07-30T15:56:08Z</time>
      </trkpt>
      <trkpt lat="45.77237" lon="14.20005">
        <ele>525.5</ele>
        <time>2012-07-30T15:56:09Z</time>
      </trkpt>
      <trkpt lat="45.77259" lon="14.20093">
        <ele>525.5</ele>
        <time>2012-07-30T15:56:15Z</time>
      </trkpt>
      <trkpt lat="45.77264" lon="14.20104">
        <ele>525.5</ele>
        <time>2012-07-30T15:56:16Z</time>
      </trkpt>
      <trkpt lat="45.77272" lon="14.20123">
        <ele>525.5</ele>
        <time>2012-07-30T15:56:18Z</time>
      </trkpt>
      <trkpt lat="45.77275" lon="14.20133">
        <ele>525.5</ele>
        <time>2012-07-30T15:56:19Z</time>
      </trkpt>
      <trkpt lat="45.77277" lon="14.20144">
        <ele>525.98</ele>
        <time>2012-07-30T15:56:20Z</time>
      </trkpt>
      <trkpt lat="45.77279" lon="14.20152">
        <ele>525.98</ele>
        <time>2012-07-30T15:56:21Z</time>
      </trkpt>
      <trkpt lat="45.77284" lon="14.20157">
        <ele>525.98</ele>
        <time>2012-07-30T15:56:22Z</time>
      </trkpt>
      <trkpt lat="45.7729" lon="14.20158">
        <ele>525.98</ele>
        <time>2012-07-30T15:56:23Z</time>
      </trkpt>
      <trkpt lat="45.77299" lon="14.20158">
        <ele>525.98</ele>
        <time>2012-07-30T15:56:24Z</time>
      </trkpt>
      <trkpt lat="45.77308" lon="14.20158">
        <ele>525.98</ele>
        <time>2012-07-30T15:56:25Z</time>
      </trkpt>
      <trkpt lat="45.77317" lon="14.20161">
        <ele>526.94</ele>
        <time>2012-07-30T15:56:26Z</time>
      </trkpt>
      <trkpt lat="45.77326" lon="14.20167">
        <ele>526.94</ele>
        <time>2012-07-30T15:56:27Z</time>
      </trkpt>
      <trkpt lat="45.77335" lon="14.20177">
        <ele>525.98</ele>
        <time>2012-07-30T15:56:28Z</time>
      </trkpt>
      <trkpt lat="45.77343" lon="14.20188">
        <ele>525.5</ele>
        <time>2012-07-30T15:56:29Z</time>
      </trkpt>
      <trkpt lat="45.7735" lon="14.202">
        <ele>525.98</ele>
        <time>2012-07-30T15:56:30Z</time>
      </trkpt>
      <trkpt lat="45.7744" lon="14.20341">
        <ele>524.06</ele>
        <time>2012-07-30T15:56:40Z</time>
      </trkpt>
      <trkpt lat="45.77476" lon="14.20399">
        <ele>520.21</ele>
        <time>2012-07-30T15:56:44Z</time>
      </trkpt>
      <trkpt lat="45.77484" lon="14.20413">
        <ele>520.21</ele>
        <time>2012-07-30T15:56:45Z</time>
      </trkpt>
      <trkpt lat="45.77505" lon="14.20459">
        <ele>519.25</ele>
        <time>2012-07-30T15:56:48Z</time>
      </trkpt>
      <trkpt lat="45.7751" lon="14.20477">
        <ele>519.25</ele>
        <time>2012-07-30T15:56:49Z</time>
      </trkpt>
      <trkpt lat="45.77513" lon="14.20495">
        <ele>518.77</ele>
        <time>2012-07-30T15:56:50Z</time>
      </trkpt>
      <trkpt lat="45.77516" lon="14.20514">
        <ele>517.33</ele>
        <time>2012-07-30T15:56:51Z</time>
      </trkpt>
      <trkpt lat="45.77517" lon="14.20533">
        <ele>517.33</ele>
        <time>2012-07-30T15:56:52Z</time>
      </trkpt>
      <trkpt lat="45.77518" lon="14.20552">
        <ele>516.85</ele>
        <time>2012-07-30T15:56:53Z</time>
      </trkpt>
      <trkpt lat="45.77525" lon="14.20647">
        <ele>515.88</ele>
        <time>2012-07-30T15:56:58Z</time>
      </trkpt>
      <trkpt lat="45.7753" lon="14.20664">
        <ele>515.4</ele>
        <time>2012-07-30T15:56:59Z</time>
      </trkpt>
      <trkpt lat="45.77559" lon="14.20752">
        <ele>519.25</ele>
        <time>2012-07-30T15:57:04Z</time>
      </trkpt>
      <trkpt lat="45.77576" lon="14.20806">
        <ele>523.58</ele>
        <time>2012-07-30T15:57:07Z</time>
      </trkpt>
      <trkpt lat="45.77585" lon="14.20843">
        <ele>524.06</ele>
        <time>2012-07-30T15:57:09Z</time>
      </trkpt>
      <trkpt lat="45.77604" lon="14.20913">
        <ele>525.98</ele>
        <time>2012-07-30T15:57:13Z</time>
      </trkpt>
      <trkpt lat="45.77609" lon="14.2093">
        <ele>526.46</ele>
        <time>2012-07-30T15:57:14Z</time>
      </trkpt>
      <trkpt lat="45.77616" lon="14.20945">
        <ele>525.02</ele>
        <time>2012-07-30T15:57:15Z</time>
      </trkpt>
      <trkpt lat="45.77625" lon="14.20958">
        <ele>526.46</ele>
        <time>2012-07-30T15:57:16Z</time>
      </trkpt>
      <trkpt lat="45.77636" lon="14.20969">
        <ele>525.98</ele>
        <time>2012-07-30T15:57:17Z</time>
      </trkpt>
      <trkpt lat="45.77647" lon="14.20978">
        <ele>525.98</ele>
        <time>2012-07-30T15:57:18Z</time>
      </trkpt>
      <trkpt lat="45.77657" lon="14.20986">
        <ele>526.46</ele>
        <time>2012-07-30T15:57:19Z</time>
      </trkpt>
      <trkpt lat="45.77695" lon="14.21014">
        <ele>527.9</ele>
        <time>2012-07-30T15:57:25Z</time>
      </trkpt>
      <trkpt lat="45.77709" lon="14.21021">
        <ele>530.3</ele>
        <time>2012-07-30T15:57:31Z</time>
      </trkpt>
      <trkpt lat="45.77713" lon="14.21018">
        <ele>531.75</ele>
        <time>2012-07-30T15:57:32Z</time>
      </trkpt>
      <trkpt lat="45.77717" lon="14.21011">
        <ele>530.3</ele>
        <time>2012-07-30T15:57:33Z</time>
      </trkpt>
      <trkpt lat="45.77721" lon="14.21001">
        <ele>529.34</ele>
        <time>2012-07-30T15:57:34Z</time>
      </trkpt>
      <trkpt lat="45.77725" lon="14.2099">
        <ele>529.34</ele>
        <time>2012-07-30T15:57:35Z</time>
      </trkpt>
      <trkpt lat="45.77774" lon="14.20879">
        <ele>526.94</ele>
        <time>2012-07-30T15:57:43Z</time>
      </trkpt>
      <trkpt lat="45.77816" lon="14.20821">
        <ele>523.58</ele>
        <time>2012-07-30T15:57:48Z</time>
      </trkpt>
      <trkpt lat="45.77825" lon="14.20811">
        <ele>523.58</ele>
        <time>2012-07-30T15:57:49Z</time>
      </trkpt>
      <trkpt lat="45.77869" lon="14.20758">
        <ele>520.69</ele>
        <time>2012-07-30T15:57:54Z</time>
      </trkpt>
      <trkpt lat="45.77928" lon="14.20673">
        <ele>517.33</ele>
        <time>2012-07-30T15:58:01Z</time>
      </trkpt>
      <trkpt lat="45.77944" lon="14.20645">
        <ele>516.37</ele>
        <time>2012-07-30T15:58:03Z</time>
      </trkpt>
      <trkpt lat="45.77972" lon="14.2057">
        <ele>513.48</ele>
        <time>2012-07-30T15:58:08Z</time>
      </trkpt>
      <trkpt lat="45.7801" lon="14.20402">
        <ele>511.08</ele>
        <time>2012-07-30T15:58:18Z</time>
      </trkpt>
      <trkpt lat="45.78031" lon="14.20342">
        <ele>509.16</ele>
        <time>2012-07-30T15:58:22Z</time>
      </trkpt>
      <trkpt lat="45.78046" lon="14.20315">
        <ele>510.12</ele>
        <time>2012-07-30T15:58:24Z</time>
      </trkpt>
      <trkpt lat="45.78073" lon="14.20279">
        <ele>510.6</ele>
        <time>2012-07-30T15:58:27Z</time>
      </trkpt>
      <trkpt lat="45.78082" lon="14.2027">
        <ele>510.6</ele>
        <time>2012-07-30T15:58:28Z</time>
      </trkpt>
      <trkpt lat="45.78091" lon="14.20261">
        <ele>510.6</ele>
        <time>2012-07-30T15:58:29Z</time>
      </trkpt>
      <trkpt lat="45.78101" lon="14.20255">
        <ele>510.6</ele>
        <time>2012-07-30T15:58:30Z</time>
      </trkpt>
      <trkpt lat="45.78111" lon="14.20249">
        <ele>508.67</ele>
        <time>2012-07-30T15:58:31Z</time>
      </trkpt>
      <trkpt lat="45.7812" lon="14.20244">
        <ele>509.64</ele>
        <time>2012-07-30T15:58:32Z</time>
      </trkpt>
      <trkpt lat="45.78206" lon="14.20226">
        <ele>511.56</ele>
        <time>2012-07-30T15:58:41Z</time>
      </trkpt>
      <trkpt lat="45.78217" lon="14.20225">
        <ele>512.04</ele>
        <time>2012-07-30T15:58:42Z</time>
      </trkpt>
      <trkpt lat="45.78227" lon="14.20223">
        <ele>512.52</ele>
        <time>2012-07-30T15:58:43Z</time>
      </trkpt>
      <trkpt lat="45.78237" lon="14.2022">
        <ele>513</ele>
        <time>2012-07-30T15:58:44Z</time>
      </trkpt>
      <trkpt lat="45.78247" lon="14.20215">
        <ele>513.48</ele>
        <time>2012-07-30T15:58:45Z</time>
      </trkpt>
      <trkpt lat="45.78257" lon="14.2021">
        <ele>514.44</ele>
        <time>2012-07-30T15:58:46Z</time>
      </trkpt>
      <trkpt lat="45.78266" lon="14.20203">
        <ele>514.44</ele>
        <time>2012-07-30T15:58:47Z</time>
      </trkpt>
      <trkpt lat="45.78275" lon="14.20195">
        <ele>514.92</ele>
        <time>2012-07-30T15:58:48Z</time>
      </trkpt>
      <trkpt lat="45.78282" lon="14.20187">
        <ele>515.4</ele>
        <time>2012-07-30T15:58:49Z</time>
      </trkpt>
      <trkpt lat="45.78289" lon="14.20178">
        <ele>516.37</ele>
        <time>2012-07-30T15:58:50Z</time>
      </trkpt>
      <trkpt lat="45.78296" lon="14.20168">
        <ele>517.33</ele>
        <time>2012-07-30T15:58:51Z</time>
      </trkpt>
      <trkpt lat="45.78302" lon="14.20156">
        <ele>518.29</ele>
        <time>2012-07-30T15:58:52Z</time>
      </trkpt>
      <trkpt lat="45.78308" lon="14.20144">
        <ele>519.25</ele>
        <time>2012-07-30T15:58:53Z</time>
      </trkpt>
      <trkpt lat="45.78312" lon="14.20131">
        <ele>519.25</ele>
        <time>2012-07-30T15:58:54Z</time>
      </trkpt>
      <trkpt lat="45.78316" lon="14.20118">
        <ele>520.21</ele>
        <time>2012-07-30T15:58:55Z</time>
      </trkpt>
      <trkpt lat="45.78319" lon="14.20105">
        <ele>520.69</ele>
        <time>2012-07-30T15:58:56Z</time>
      </trkpt>
      <trkpt lat="45.78321" lon="14.20091">
        <ele>523.09</ele>
        <time>2012-07-30T15:58:57Z</time>
      </trkpt>
      <trkpt lat="45.78323" lon="14.20076">
        <ele>523.58</ele>
        <time>2012-07-30T15:58:58Z</time>
      </trkpt>
      <trkpt lat="45.78324" lon="14.2006">
        <ele>525.02</ele>
        <time>2012-07-30T15:58:59Z</time>
      </trkpt>
      <trkpt lat="45.78324" lon="14.20044">
        <ele>525.02</ele>
        <time>2012-07-30T15:59:00Z</time>
      </trkpt>
      <trkpt lat="45.78325" lon="14.19998">
        <ele>526.46</ele>
        <time>2012-07-30T15:59:03Z</time>
      </trkpt>
      <trkpt lat="45.78327" lon="14.19949">
        <ele>527.9</ele>
        <time>2012-07-30T15:59:06Z</time>
      </trkpt>
      <trkpt lat="45.78327" lon="14.19932">
        <ele>528.38</ele>
        <time>2012-07-30T15:59:07Z</time>
      </trkpt>
      <trkpt lat="45.78326" lon="14.19915">
        <ele>529.34</ele>
        <time>2012-07-30T15:59:08Z</time>
      </trkpt>
      <trkpt lat="45.78324" lon="14.19898">
        <ele>529.34</ele>
        <time>2012-07-30T15:59:09Z</time>
      </trkpt>
      <trkpt lat="45.78322" lon="14.19881">
        <ele>530.79</ele>
        <time>2012-07-30T15:59:10Z</time>
      </trkpt>
      <trkpt lat="45.78323" lon="14.19865">
        <ele>531.75</ele>
        <time>2012-07-30T15:59:11Z</time>
      </trkpt>
      <trkpt lat="45.78326" lon="14.1985">
        <ele>531.27</ele>
        <time>2012-07-30T15:59:12Z</time>
      </trkpt>
      <trkpt lat="45.78331" lon="14.19837">
        <ele>531.75</ele>
        <time>2012-07-30T15:59:13Z</time>
      </trkpt>
      <trkpt lat="45.78338" lon="14.19824">
        <ele>531.75</ele>
        <time>2012-07-30T15:59:14Z</time>
      </trkpt>
      <trkpt lat="45.78346" lon="14.19814">
        <ele>533.67</ele>
        <time>2012-07-30T15:59:15Z</time>
      </trkpt>
      <trkpt lat="45.78356" lon="14.19807">
        <ele>534.63</ele>
        <time>2012-07-30T15:59:16Z</time>
      </trkpt>
      <trkpt lat="45.78366" lon="14.198">
        <ele>534.15</ele>
        <time>2012-07-30T15:59:17Z</time>
      </trkpt>
      <trkpt lat="45.78444" lon="14.19765">
        <ele>531.75</ele>
        <time>2012-07-30T15:59:25Z</time>
      </trkpt>
      <trkpt lat="45.78455" lon="14.1976">
        <ele>531.27</ele>
        <time>2012-07-30T15:59:26Z</time>
      </trkpt>
      <trkpt lat="45.78465" lon="14.19752">
        <ele>530.79</ele>
        <time>2012-07-30T15:59:27Z</time>
      </trkpt>
      <trkpt lat="45.78548" lon="14.19674">
        <ele>527.9</ele>
        <time>2012-07-30T15:59:35Z</time>
      </trkpt>
      <trkpt lat="45.78604" lon="14.19638">
        <ele>524.54</ele>
        <time>2012-07-30T15:59:40Z</time>
      </trkpt>
      <trkpt lat="45.78614" lon="14.1963">
        <ele>524.06</ele>
        <time>2012-07-30T15:59:41Z</time>
      </trkpt>
      <trkpt lat="45.78622" lon="14.19619">
        <ele>523.09</ele>
        <time>2012-07-30T15:59:42Z</time>
      </trkpt>
      <trkpt lat="45.7863" lon="14.19607">
        <ele>523.09</ele>
        <time>2012-07-30T15:59:43Z</time>
      </trkpt>
      <trkpt lat="45.78655" lon="14.19559">
        <ele>520.69</ele>
        <time>2012-07-30T15:59:47Z</time>
      </trkpt>
      <trkpt lat="45.78741" lon="14.19438">
        <ele>520.69</ele>
        <time>2012-07-30T15:59:57Z</time>
      </trkpt>
      <trkpt lat="45.78762" lon="14.19412">
        <ele>519.25</ele>
        <time>2012-07-30T15:59:59Z</time>
      </trkpt>
      <trkpt lat="45.78775" lon="14.19401">
        <ele>519.73</ele>
        <time>2012-07-30T16:00:00Z</time>
      </trkpt>
      <trkpt lat="45.78788" lon="14.19393">
        <ele>519.73</ele>
        <time>2012-07-30T16:00:01Z</time>
      </trkpt>
      <trkpt lat="45.78874" lon="14.19346">
        <ele>519.25</ele>
        <time>2012-07-30T16:00:08Z</time>
      </trkpt>
      <trkpt lat="45.78883" lon="14.19333">
        <ele>518.77</ele>
        <time>2012-07-30T16:00:09Z</time>
      </trkpt>
      <trkpt lat="45.78889" lon="14.19318">
        <ele>518.29</ele>
        <time>2012-07-30T16:00:10Z</time>
      </trkpt>
      <trkpt lat="45.78898" lon="14.19303">
        <ele>517.81</ele>
        <time>2012-07-30T16:00:11Z</time>
      </trkpt>
      <trkpt lat="45.78908" lon="14.19291">
        <ele>517.33</ele>
        <time>2012-07-30T16:00:12Z</time>
      </trkpt>
      <trkpt lat="45.7892" lon="14.19283">
        <ele>516.37</ele>
        <time>2012-07-30T16:00:13Z</time>
      </trkpt>
      <trkpt lat="45.78933" lon="14.19279">
        <ele>515.4</ele>
        <time>2012-07-30T16:00:14Z</time>
      </trkpt>
      <trkpt lat="45.78946" lon="14.19279">
        <ele>515.4</ele>
        <time>2012-07-30T16:00:15Z</time>
      </trkpt>
      <trkpt lat="45.78959" lon="14.19278">
        <ele>513.48</ele>
        <time>2012-07-30T16:00:16Z</time>
      </trkpt>
      <trkpt lat="45.78971" lon="14.19273">
        <ele>512.52</ele>
        <time>2012-07-30T16:00:17Z</time>
      </trkpt>
      <trkpt lat="45.78982" lon="14.19264">
        <ele>512.52</ele>
        <time>2012-07-30T16:00:18Z</time>
      </trkpt>
      <trkpt lat="45.78991" lon="14.1925">
        <ele>513</ele>
        <time>2012-07-30T16:00:19Z</time>
      </trkpt>
      <trkpt lat="45.78997" lon="14.19233">
        <ele>513</ele>
        <time>2012-07-30T16:00:20Z</time>
      </trkpt>
      <trkpt lat="45.79001" lon="14.19214">
        <ele>513.48</ele>
        <time>2012-07-30T16:00:21Z</time>
      </trkpt>
      <trkpt lat="45.79005" lon="14.19196">
        <ele>513</ele>
        <time>2012-07-30T16:00:22Z</time>
      </trkpt>
      <trkpt lat="45.7901" lon="14.19178">
        <ele>513.48</ele>
        <time>2012-07-30T16:00:23Z</time>
      </trkpt>
      <trkpt lat="45.79027" lon="14.19109">
        <ele>511.56</ele>
        <time>2012-07-30T16:00:28Z</time>
      </trkpt>
      <trkpt lat="45.79032" lon="14.19101">
        <ele>511.56</ele>
        <time>2012-07-30T16:00:29Z</time>
      </trkpt>
      <trkpt lat="45.79037" lon="14.19096">
        <ele>511.08</ele>
        <time>2012-07-30T16:00:30Z</time>
      </trkpt>
      <trkpt lat="45.79044" lon="14.19093">
        <ele>512.04</ele>
        <time>2012-07-30T16:00:31Z</time>
      </trkpt>
      <trkpt lat="45.79051" lon="14.19091">
        <ele>511.56</ele>
        <time>2012-07-30T16:00:32Z</time>
      </trkpt>
      <trkpt lat="45.79059" lon="14.19091">
        <ele>511.56</ele>
        <time>2012-07-30T16:00:33Z</time>
      </trkpt>
      <trkpt lat="45.79066" lon="14.19093">
        <ele>512.04</ele>
        <time>2012-07-30T16:00:34Z</time>
      </trkpt>
      <trkpt lat="45.79073" lon="14.19096">
        <ele>512.52</ele>
        <time>2012-07-30T16:00:35Z</time>
      </trkpt>
      <trkpt lat="45.7908" lon="14.19101">
        <ele>513.48</ele>
        <time>2012-07-30T16:00:36Z</time>
      </trkpt>
      <trkpt lat="45.79087" lon="14.19107">
        <ele>513</ele>
        <time>2012-07-30T16:00:37Z</time>
      </trkpt>
      <trkpt lat="45.79093" lon="14.19114">
        <ele>513</ele>
        <time>2012-07-30T16:00:38Z</time>
      </trkpt>
      <trkpt lat="45.79099" lon="14.1912">
        <ele>514.44</ele>
        <time>2012-07-30T16:00:39Z</time>
      </trkpt>
      <trkpt lat="45.79105" lon="14.19126">
        <ele>514.44</ele>
        <time>2012-07-30T16:00:40Z</time>
      </trkpt>
      <trkpt lat="45.79135" lon="14.19145">
        <ele>516.85</ele>
        <time>2012-07-30T16:00:44Z</time>
      </trkpt>
      <trkpt lat="45.79215" lon="14.19191">
        <ele>517.81</ele>
        <time>2012-07-30T16:00:51Z</time>
      </trkpt>
      <trkpt lat="45.79227" lon="14.19192">
        <ele>517.33</ele>
        <time>2012-07-30T16:00:52Z</time>
      </trkpt>
      <trkpt lat="45.79239" lon="14.19191">
        <ele>517.81</ele>
        <time>2012-07-30T16:00:53Z</time>
      </trkpt>
      <trkpt lat="45.7925" lon="14.19189">
        <ele>518.29</ele>
        <time>2012-07-30T16:00:54Z</time>
      </trkpt>
      <trkpt lat="45.79259" lon="14.19189">
        <ele>517.33</ele>
        <time>2012-07-30T16:00:55Z</time>
      </trkpt>
      <trkpt lat="45.79268" lon="14.19193">
        <ele>517.33</ele>
        <time>2012-07-30T16:00:56Z</time>
      </trkpt>
      <trkpt lat="45.79273" lon="14.19199">
        <ele>517.81</ele>
        <time>2012-07-30T16:00:57Z</time>
      </trkpt>
      <trkpt lat="45.79276" lon="14.19209">
        <ele>518.77</ele>
        <time>2012-07-30T16:00:58Z</time>
      </trkpt>
      <trkpt lat="45.79277" lon="14.19221">
        <ele>519.25</ele>
        <time>2012-07-30T16:00:59Z</time>
      </trkpt>
      <trkpt lat="45.79275" lon="14.19233">
        <ele>519.73</ele>
        <time>2012-07-30T16:01:00Z</time>
      </trkpt>
      <trkpt lat="45.79272" lon="14.19245">
        <ele>520.69</ele>
        <time>2012-07-30T16:01:01Z</time>
      </trkpt>
      <trkpt lat="45.79269" lon="14.19256">
        <ele>521.17</ele>
        <time>2012-07-30T16:01:02Z</time>
      </trkpt>
      <trkpt lat="45.79268" lon="14.19268">
        <ele>521.65</ele>
        <time>2012-07-30T16:01:03Z</time>
      </trkpt>
      <trkpt lat="45.7927" lon="14.1928">
        <ele>523.09</ele>
        <time>2012-07-30T16:01:04Z</time>
      </trkpt>
      <trkpt lat="45.79274" lon="14.19293">
        <ele>524.06</ele>
        <time>2012-07-30T16:01:05Z</time>
      </trkpt>
      <trkpt lat="45.7928" lon="14.19305">
        <ele>525.02</ele>
        <time>2012-07-30T16:01:06Z</time>
      </trkpt>
      <trkpt lat="45.79288" lon="14.19316">
        <ele>526.46</ele>
        <time>2012-07-30T16:01:07Z</time>
      </trkpt>
      <trkpt lat="45.79296" lon="14.19329">
        <ele>526.46</ele>
        <time>2012-07-30T16:01:08Z</time>
      </trkpt>
      <trkpt lat="45.79305" lon="14.19342">
        <ele>527.42</ele>
        <time>2012-07-30T16:01:09Z</time>
      </trkpt>
      <trkpt lat="45.79312" lon="14.19356">
        <ele>527.42</ele>
        <time>2012-07-30T16:01:10Z</time>
      </trkpt>
      <trkpt lat="45.79318" lon="14.1937">
        <ele>527.9</ele>
        <time>2012-07-30T16:01:11Z</time>
      </trkpt>
      <trkpt lat="45.79325" lon="14.19386">
        <ele>529.34</ele>
        <time>2012-07-30T16:01:12Z</time>
      </trkpt>
      <trkpt lat="45.7933" lon="14.19402">
        <ele>530.3</ele>
        <time>2012-07-30T16:01:13Z</time>
      </trkpt>
      <trkpt lat="45.79336" lon="14.19417">
        <ele>530.79</ele>
        <time>2012-07-30T16:01:14Z</time>
      </trkpt>
      <trkpt lat="45.79354" lon="14.19476">
        <ele>533.19</ele>
        <time>2012-07-30T16:01:18Z</time>
      </trkpt>
      <trkpt lat="45.79355" lon="14.19491">
        <ele>534.63</ele>
        <time>2012-07-30T16:01:19Z</time>
      </trkpt>
      <trkpt lat="45.79352" lon="14.19505">
        <ele>536.07</ele>
        <time>2012-07-30T16:01:20Z</time>
      </trkpt>
      <trkpt lat="45.79347" lon="14.19517">
        <ele>536.55</ele>
        <time>2012-07-30T16:01:21Z</time>
      </trkpt>
      <trkpt lat="45.79341" lon="14.19527">
        <ele>537.03</ele>
        <time>2012-07-30T16:01:22Z</time>
      </trkpt>
      <trkpt lat="45.79334" lon="14.19536">
        <ele>537.03</ele>
        <time>2012-07-30T16:01:23Z</time>
      </trkpt>
      <trkpt lat="45.79327" lon="14.19543">
        <ele>537.03</ele>
        <time>2012-07-30T16:01:24Z</time>
      </trkpt>
      <trkpt lat="45.79319" lon="14.19549">
        <ele>537.99</ele>
        <time>2012-07-30T16:01:25Z</time>
      </trkpt>
      <trkpt lat="45.79313" lon="14.19558">
        <ele>538.48</ele>
        <time>2012-07-30T16:01:26Z</time>
      </trkpt>
      <trkpt lat="45.79312" lon="14.1957">
        <ele>538.96</ele>
        <time>2012-07-30T16:01:27Z</time>
      </trkpt>
      <trkpt lat="45.79312" lon="14.19582">
        <ele>539.92</ele>
        <time>2012-07-30T16:01:28Z</time>
      </trkpt>
      <trkpt lat="45.79315" lon="14.19594">
        <ele>540.88</ele>
        <time>2012-07-30T16:01:29Z</time>
      </trkpt>
      <trkpt lat="45.7932" lon="14.19606">
        <ele>541.36</ele>
        <time>2012-07-30T16:01:30Z</time>
      </trkpt>
      <trkpt lat="45.79322" lon="14.1962">
        <ele>542.32</ele>
        <time>2012-07-30T16:01:31Z</time>
      </trkpt>
      <trkpt lat="45.79322" lon="14.19635">
        <ele>543.28</ele>
        <time>2012-07-30T16:01:32Z</time>
      </trkpt>
      <trkpt lat="45.7932" lon="14.1965">
        <ele>543.76</ele>
        <time>2012-07-30T16:01:33Z</time>
      </trkpt>
      <trkpt lat="45.7932" lon="14.19665">
        <ele>544.72</ele>
        <time>2012-07-30T16:01:34Z</time>
      </trkpt>
      <trkpt lat="45.79321" lon="14.1968">
        <ele>544.72</ele>
        <time>2012-07-30T16:01:35Z</time>
      </trkpt>
      <trkpt lat="45.79322" lon="14.19695">
        <ele>546.17</ele>
        <time>2012-07-30T16:01:36Z</time>
      </trkpt>
      <trkpt lat="45.79323" lon="14.19708">
        <ele>546.17</ele>
        <time>2012-07-30T16:01:37Z</time>
      </trkpt>
      <trkpt lat="45.79326" lon="14.19748">
        <ele>548.57</ele>
        <time>2012-07-30T16:01:40Z</time>
      </trkpt>
      <trkpt lat="45.7933" lon="14.19759">
        <ele>549.05</ele>
        <time>2012-07-30T16:01:41Z</time>
      </trkpt>
      <trkpt lat="45.79335" lon="14.19768">
        <ele>549.53</ele>
        <time>2012-07-30T16:01:42Z</time>
      </trkpt>
      <trkpt lat="45.79343" lon="14.19776">
        <ele>550.49</ele>
        <time>2012-07-30T16:01:43Z</time>
      </trkpt>
      <trkpt lat="45.79352" lon="14.19781">
        <ele>550.97</ele>
        <time>2012-07-30T16:01:44Z</time>
      </trkpt>
      <trkpt lat="45.79361" lon="14.19785">
        <ele>551.93</ele>
        <time>2012-07-30T16:01:45Z</time>
      </trkpt>
      <trkpt lat="45.79371" lon="14.19788">
        <ele>552.9</ele>
        <time>2012-07-30T16:01:46Z</time>
      </trkpt>
      <trkpt lat="45.79381" lon="14.1979">
        <ele>553.86</ele>
        <time>2012-07-30T16:01:47Z</time>
      </trkpt>
      <trkpt lat="45.7939" lon="14.19791">
        <ele>553.86</ele>
        <time>2012-07-30T16:01:48Z</time>
      </trkpt>
      <trkpt lat="45.79411" lon="14.19795">
        <ele>554.82</ele>
        <time>2012-07-30T16:01:50Z</time>
      </trkpt>
      <trkpt lat="45.79431" lon="14.19797">
        <ele>556.26</ele>
        <time>2012-07-30T16:01:52Z</time>
      </trkpt>
      <trkpt lat="45.79471" lon="14.19803">
        <ele>557.22</ele>
        <time>2012-07-30T16:01:56Z</time>
      </trkpt>
      <trkpt lat="45.79507" lon="14.19821">
        <ele>558.18</ele>
        <time>2012-07-30T16:02:00Z</time>
      </trkpt>
      <trkpt lat="45.79516" lon="14.19832">
        <ele>557.7</ele>
        <time>2012-07-30T16:02:01Z</time>
      </trkpt>
      <trkpt lat="45.79611" lon="14.19937">
        <ele>556.74</ele>
        <time>2012-07-30T16:02:09Z</time>
      </trkpt>
      <trkpt lat="45.79622" lon="14.19949">
        <ele>556.74</ele>
        <time>2012-07-30T16:02:10Z</time>
      </trkpt>
      <trkpt lat="45.7963" lon="14.19963">
        <ele>557.22</ele>
        <time>2012-07-30T16:02:11Z</time>
      </trkpt>
      <trkpt lat="45.79639" lon="14.19977">
        <ele>558.18</ele>
        <time>2012-07-30T16:02:12Z</time>
      </trkpt>
      <trkpt lat="45.79644" lon="14.19992">
        <ele>558.18</ele>
        <time>2012-07-30T16:02:13Z</time>
      </trkpt>
      <trkpt lat="45.79648" lon="14.20009">
        <ele>558.66</ele>
        <time>2012-07-30T16:02:14Z</time>
      </trkpt>
      <trkpt lat="45.79655" lon="14.20028">
        <ele>559.14</ele>
        <time>2012-07-30T16:02:15Z</time>
      </trkpt>
      <trkpt lat="45.79662" lon="14.20044">
        <ele>559.62</ele>
        <time>2012-07-30T16:02:16Z</time>
      </trkpt>
      <trkpt lat="45.7967" lon="14.20059">
        <ele>559.62</ele>
        <time>2012-07-30T16:02:17Z</time>
      </trkpt>
      <trkpt lat="45.79679" lon="14.2007">
        <ele>560.11</ele>
        <time>2012-07-30T16:02:18Z</time>
      </trkpt>
      <trkpt lat="45.79694" lon="14.20079">
        <ele>561.07</ele>
        <time>2012-07-30T16:02:19Z</time>
      </trkpt>
      <trkpt lat="45.79708" lon="14.20086">
        <ele>561.55</ele>
        <time>2012-07-30T16:02:20Z</time>
      </trkpt>
      <trkpt lat="45.79722" lon="14.20089">
        <ele>562.03</ele>
        <time>2012-07-30T16:02:21Z</time>
      </trkpt>
      <trkpt lat="45.79736" lon="14.20091">
        <ele>562.51</ele>
        <time>2012-07-30T16:02:22Z</time>
      </trkpt>
      <trkpt lat="45.7975" lon="14.20092">
        <ele>562.99</ele>
        <time>2012-07-30T16:02:23Z</time>
      </trkpt>
      <trkpt lat="45.79765" lon="14.20093">
        <ele>562.99</ele>
        <time>2012-07-30T16:02:24Z</time>
      </trkpt>
      <trkpt lat="45.79827" lon="14.20101">
        <ele>560.11</ele>
        <time>2012-07-30T16:02:28Z</time>
      </trkpt>
      <trkpt lat="45.79843" lon="14.20099">
        <ele>559.14</ele>
        <time>2012-07-30T16:02:29Z</time>
      </trkpt>
      <trkpt lat="45.79858" lon="14.20095">
        <ele>557.7</ele>
        <time>2012-07-30T16:02:30Z</time>
      </trkpt>
      <trkpt lat="45.79873" lon="14.2009">
        <ele>557.7</ele>
        <time>2012-07-30T16:02:31Z</time>
      </trkpt>
      <trkpt lat="45.79887" lon="14.20082">
        <ele>556.74</ele>
        <time>2012-07-30T16:02:32Z</time>
      </trkpt>
      <trkpt lat="45.79901" lon="14.20071">
        <ele>556.26</ele>
        <time>2012-07-30T16:02:33Z</time>
      </trkpt>
      <trkpt lat="45.79916" lon="14.20058">
        <ele>555.3</ele>
        <time>2012-07-30T16:02:34Z</time>
      </trkpt>
      <trkpt lat="45.79957" lon="14.20016">
        <ele>552.9</ele>
        <time>2012-07-30T16:02:37Z</time>
      </trkpt>
      <trkpt lat="45.80002" lon="14.19952">
        <ele>549.53</ele>
        <time>2012-07-30T16:02:41Z</time>
      </trkpt>
      <trkpt lat="45.80035" lon="14.19891">
        <ele>546.17</ele>
        <time>2012-07-30T16:02:46Z</time>
      </trkpt>
      <trkpt lat="45.8004" lon="14.19888">
        <ele>546.65</ele>
        <time>2012-07-30T16:02:47Z</time>
      </trkpt>
      <trkpt lat="45.80045" lon="14.19891">
        <ele>547.13</ele>
        <time>2012-07-30T16:02:48Z</time>
      </trkpt>
      <trkpt lat="45.80049" lon="14.19898">
        <ele>547.61</ele>
        <time>2012-07-30T16:02:49Z</time>
      </trkpt>
      <trkpt lat="45.80054" lon="14.19908">
        <ele>549.05</ele>
        <time>2012-07-30T16:02:50Z</time>
      </trkpt>
      <trkpt lat="45.80073" lon="14.19942">
        <ele>551.93</ele>
        <time>2012-07-30T16:02:53Z</time>
      </trkpt>
      <trkpt lat="45.80101" lon="14.19982">
        <ele>553.86</ele>
        <time>2012-07-30T16:02:57Z</time>
      </trkpt>
      <trkpt lat="45.80107" lon="14.19989">
        <ele>554.82</ele>
        <time>2012-07-30T16:02:58Z</time>
      </trkpt>
      <trkpt lat="45.80115" lon="14.19993">
        <ele>554.82</ele>
        <time>2012-07-30T16:02:59Z</time>
      </trkpt>
      <trkpt lat="45.80164" lon="14.20016">
        <ele>558.18</ele>
        <time>2012-07-30T16:03:05Z</time>
      </trkpt>
      <trkpt lat="45.80193" lon="14.20035">
        <ele>558.18</ele>
        <time>2012-07-30T16:03:08Z</time>
      </trkpt>
      <trkpt lat="45.80203" lon="14.20044">
        <ele>558.66</ele>
        <time>2012-07-30T16:03:09Z</time>
      </trkpt>
      <trkpt lat="45.80215" lon="14.20056">
        <ele>558.18</ele>
        <time>2012-07-30T16:03:10Z</time>
      </trkpt>
      <trkpt lat="45.80234" lon="14.20083">
        <ele>558.66</ele>
        <time>2012-07-30T16:03:12Z</time>
      </trkpt>
      <trkpt lat="45.80245" lon="14.20094">
        <ele>558.66</ele>
        <time>2012-07-30T16:03:13Z</time>
      </trkpt>
      <trkpt lat="45.80255" lon="14.20104">
        <ele>558.66</ele>
        <time>2012-07-30T16:03:14Z</time>
      </trkpt>
      <trkpt lat="45.80263" lon="14.20115">
        <ele>558.66</ele>
        <time>2012-07-30T16:03:15Z</time>
      </trkpt>
      <trkpt lat="45.80271" lon="14.20129">
        <ele>559.14</ele>
        <time>2012-07-30T16:03:16Z</time>
      </trkpt>
      <trkpt lat="45.80276" lon="14.20144">
        <ele>558.66</ele>
        <time>2012-07-30T16:03:17Z</time>
      </trkpt>
      <trkpt lat="45.80279" lon="14.20159">
        <ele>559.14</ele>
        <time>2012-07-30T16:03:18Z</time>
      </trkpt>
      <trkpt lat="45.80282" lon="14.20172">
        <ele>559.62</ele>
        <time>2012-07-30T16:03:19Z</time>
      </trkpt>
      <trkpt lat="45.80287" lon="14.20184">
        <ele>559.62</ele>
        <time>2012-07-30T16:03:20Z</time>
      </trkpt>
      <trkpt lat="45.80292" lon="14.20193">
        <ele>559.62</ele>
        <time>2012-07-30T16:03:21Z</time>
      </trkpt>
      <trkpt lat="45.803" lon="14.20198">
        <ele>559.14</ele>
        <time>2012-07-30T16:03:22Z</time>
      </trkpt>
      <trkpt lat="45.80309" lon="14.202">
        <ele>558.18</ele>
        <time>2012-07-30T16:03:23Z</time>
      </trkpt>
      <trkpt lat="45.80318" lon="14.20201">
        <ele>557.22</ele>
        <time>2012-07-30T16:03:24Z</time>
      </trkpt>
      <trkpt lat="45.80327" lon="14.20202">
        <ele>556.74</ele>
        <time>2012-07-30T16:03:25Z</time>
      </trkpt>
      <trkpt lat="45.80335" lon="14.20205">
        <ele>555.78</ele>
        <time>2012-07-30T16:03:26Z</time>
      </trkpt>
      <trkpt lat="45.80342" lon="14.20211">
        <ele>555.3</ele>
        <time>2012-07-30T16:03:27Z</time>
      </trkpt>
      <trkpt lat="45.80347" lon="14.20219">
        <ele>555.3</ele>
        <time>2012-07-30T16:03:28Z</time>
      </trkpt>
      <trkpt lat="45.80351" lon="14.20229">
        <ele>555.3</ele>
        <time>2012-07-30T16:03:29Z</time>
      </trkpt>
      <trkpt lat="45.80353" lon="14.2024">
        <ele>553.86</ele>
        <time>2012-07-30T16:03:30Z</time>
      </trkpt>
      <trkpt lat="45.80357" lon="14.20254">
        <ele>553.38</ele>
        <time>2012-07-30T16:03:31Z</time>
      </trkpt>
      <trkpt lat="45.80363" lon="14.20278">
        <ele>551.93</ele>
        <time>2012-07-30T16:03:33Z</time>
      </trkpt>
      <trkpt lat="45.80386" lon="14.20317">
        <ele>549.05</ele>
        <time>2012-07-30T16:03:37Z</time>
      </trkpt>
      <trkpt lat="45.80392" lon="14.20323">
        <ele>548.09</ele>
        <time>2012-07-30T16:03:38Z</time>
      </trkpt>
      <trkpt lat="45.804" lon="14.20327">
        <ele>547.13</ele>
        <time>2012-07-30T16:03:39Z</time>
      </trkpt>
      <trkpt lat="45.80408" lon="14.20329">
        <ele>546.65</ele>
        <time>2012-07-30T16:03:40Z</time>
      </trkpt>
      <trkpt lat="45.80416" lon="14.2033">
        <ele>545.69</ele>
        <time>2012-07-30T16:03:41Z</time>
      </trkpt>
      <trkpt lat="45.80425" lon="14.2033">
        <ele>544.72</ele>
        <time>2012-07-30T16:03:42Z</time>
      </trkpt>
      <trkpt lat="45.80434" lon="14.20329">
        <ele>543.76</ele>
        <time>2012-07-30T16:03:43Z</time>
      </trkpt>
      <trkpt lat="45.80458" lon="14.20324">
        <ele>541.84</ele>
        <time>2012-07-30T16:03:46Z</time>
      </trkpt>
      <trkpt lat="45.80464" lon="14.20324">
        <ele>540.88</ele>
        <time>2012-07-30T16:03:47Z</time>
      </trkpt>
      <trkpt lat="45.80471" lon="14.20325">
        <ele>540.4</ele>
        <time>2012-07-30T16:03:48Z</time>
      </trkpt>
      <trkpt lat="45.80476" lon="14.20326">
        <ele>540.4</ele>
        <time>2012-07-30T16:03:49Z</time>
      </trkpt>
      <trkpt lat="45.8048" lon="14.20327">
        <ele>539.92</ele>
        <time>2012-07-30T16:03:50Z</time>
      </trkpt>
      <trkpt lat="45.80509" lon="14.20342">
        <ele>538.96</ele>
        <time>2012-07-30T16:03:57Z</time>
      </trkpt>
      <trkpt lat="45.80513" lon="14.20348">
        <ele>538.96</ele>
        <time>2012-07-30T16:03:58Z</time>
      </trkpt>
      <trkpt lat="45.80517" lon="14.20354">
        <ele>538.48</ele>
        <time>2012-07-30T16:03:59Z</time>
      </trkpt>
      <trkpt lat="45.80519" lon="14.20361">
        <ele>537.99</ele>
        <time>2012-07-30T16:04:00Z</time>
      </trkpt>
      <trkpt lat="45.80522" lon="14.20369">
        <ele>537.99</ele>
        <time>2012-07-30T16:04:01Z</time>
      </trkpt>
      <trkpt lat="45.80524" lon="14.20375">
        <ele>537.99</ele>
        <time>2012-07-30T16:04:02Z</time>
      </trkpt>
      <trkpt lat="45.80525" lon="14.2038">
        <ele>537.51</ele>
        <time>2012-07-30T16:04:03Z</time>
      </trkpt>
      <trkpt lat="45.80526" lon="14.20385">
        <ele>537.51</ele>
        <time>2012-07-30T16:04:04Z</time>
      </trkpt>
      <trkpt lat="45.80527" lon="14.20389">
        <ele>537.03</ele>
        <time>2012-07-30T16:04:05Z</time>
      </trkpt>
      <trkpt lat="45.80535" lon="14.20412">
        <ele>537.03</ele>
        <time>2012-07-30T16:04:17Z</time>
      </trkpt>
      <trkpt lat="45.80535" lon="14.20418">
        <ele>537.03</ele>
        <time>2012-07-30T16:04:38Z</time>
      </trkpt>
      <trkpt lat="45.80531" lon="14.20418">
        <ele>537.03</ele>
        <time>2012-07-30T16:05:10Z</time>
      </trkpt>
      <trkpt lat="45.8053" lon="14.20418">
        <ele>537.03</ele>
        <time>2012-07-30T16:05:42Z</time>
      </trkpt>
      <trkpt lat="45.80532" lon="14.20418">
        <ele>537.51</ele>
        <time>2012-07-30T16:06:17Z</time>
      </trkpt>
      <trkpt lat="45.80531" lon="14.20419">
        <ele>537.51</ele>
        <time>2012-07-30T16:06:50Z</time>
      </trkpt>
      <trkpt lat="45.80531" lon="14.20417">
        <ele>537.99</ele>
        <time>2012-07-30T16:07:34Z</time>
      </trkpt>
      <trkpt lat="45.80529" lon="14.20419">
        <ele>537.99</ele>
        <time>2012-07-30T16:08:09Z</time>
      </trkpt>
      <trkpt lat="45.80529" lon="14.2042">
        <ele>537.99</ele>
        <time>2012-07-30T16:08:18Z</time>
      </trkpt>
      <trkpt lat="45.80528" lon="14.20421">
        <ele>537.99</ele>
        <time>2012-07-30T16:08:19Z</time>
      </trkpt>
      <trkpt lat="45.80526" lon="14.20422">
        <ele>537.99</ele>
        <time>2012-07-30T16:08:20Z</time>
      </trkpt>
      <trkpt lat="45.80524" lon="14.20423">
        <ele>537.99</ele>
        <time>2012-07-30T16:08:21Z</time>
      </trkpt>
      <trkpt lat="45.80521" lon="14.20425">
        <ele>537.99</ele>
        <time>2012-07-30T16:08:22Z</time>
      </trkpt>
      <trkpt lat="45.80518" lon="14.20428">
        <ele>537.99</ele>
        <time>2012-07-30T16:08:23Z</time>
      </trkpt>
      <trkpt lat="45.80515" lon="14.20432">
        <ele>537.51</ele>
        <time>2012-07-30T16:08:24Z</time>
      </trkpt>
      <trkpt lat="45.80512" lon="14.20437">
        <ele>537.51</ele>
        <time>2012-07-30T16:08:25Z</time>
      </trkpt>
      <trkpt lat="45.8051" lon="14.20443">
        <ele>537.51</ele>
        <time>2012-07-30T16:08:26Z</time>
      </trkpt>
      <trkpt lat="45.80508" lon="14.20449">
        <ele>536.07</ele>
        <time>2012-07-30T16:08:27Z</time>
      </trkpt>
      <trkpt lat="45.80505" lon="14.20454">
        <ele>536.07</ele>
        <time>2012-07-30T16:08:28Z</time>
      </trkpt>
      <trkpt lat="45.80483" lon="14.20496">
        <ele>536.07</ele>
        <time>2012-07-30T16:08:36Z</time>
      </trkpt>
      <trkpt lat="45.8048" lon="14.205">
        <ele>536.07</ele>
        <time>2012-07-30T16:08:37Z</time>
      </trkpt>
      <trkpt lat="45.80471" lon="14.20516">
        <ele>537.51</ele>
        <time>2012-07-30T16:08:41Z</time>
      </trkpt>
      <trkpt lat="45.80461" lon="14.20528">
        <ele>537.99</ele>
        <time>2012-07-30T16:08:44Z</time>
      </trkpt>
      <trkpt lat="45.80458" lon="14.20532">
        <ele>537.99</ele>
        <time>2012-07-30T16:08:45Z</time>
      </trkpt>
      <trkpt lat="45.80438" lon="14.20561">
        <ele>537.51</ele>
        <time>2012-07-30T16:08:55Z</time>
      </trkpt>
      <trkpt lat="45.80439" lon="14.20565">
        <ele>537.51</ele>
        <time>2012-07-30T16:09:01Z</time>
      </trkpt>
      <trkpt lat="45.8043" lon="14.20566">
        <ele>537.99</ele>
        <time>2012-07-30T16:09:04Z</time>
      </trkpt>
      <trkpt lat="45.80426" lon="14.20566">
        <ele>537.99</ele>
        <time>2012-07-30T16:09:05Z</time>
      </trkpt>
      <trkpt lat="45.80399" lon="14.20576">
        <ele>538.48</ele>
        <time>2012-07-30T16:09:14Z</time>
      </trkpt>
      <trkpt lat="45.80389" lon="14.20608">
        <ele>539.44</ele>
        <time>2012-07-30T16:09:20Z</time>
      </trkpt>
      <trkpt lat="45.80368" lon="14.20639">
        <ele>542.32</ele>
        <time>2012-07-30T16:09:28Z</time>
      </trkpt>
      <trkpt lat="45.80354" lon="14.20654">
        <ele>544.24</ele>
        <time>2012-07-30T16:09:37Z</time>
      </trkpt>
      <trkpt lat="45.80348" lon="14.20655">
        <ele>543.76</ele>
        <time>2012-07-30T16:09:55Z</time>
      </trkpt>
      <trkpt lat="45.80348" lon="14.20656">
        <ele>543.76</ele>
        <time>2012-07-30T16:09:57Z</time>
      </trkpt>
      <trkpt lat="45.80325" lon="14.20672">
        <ele>545.69</ele>
        <time>2012-07-30T16:10:06Z</time>
      </trkpt>
      <trkpt lat="45.80318" lon="14.20678">
        <ele>544.24</ele>
        <time>2012-07-30T16:10:08Z</time>
      </trkpt>
      <trkpt lat="45.80314" lon="14.20682">
        <ele>544.24</ele>
        <time>2012-07-30T16:10:09Z</time>
      </trkpt>
      <trkpt lat="45.80308" lon="14.20689">
        <ele>542.8</ele>
        <time>2012-07-30T16:10:11Z</time>
      </trkpt>
      <trkpt lat="45.80304" lon="14.20695">
        <ele>541.84</ele>
        <time>2012-07-30T16:10:13Z</time>
      </trkpt>
      <trkpt lat="45.80303" lon="14.20699">
        <ele>541.36</ele>
        <time>2012-07-30T16:10:14Z</time>
      </trkpt>
      <trkpt lat="45.80303" lon="14.20702">
        <ele>540.4</ele>
        <time>2012-07-30T16:10:15Z</time>
      </trkpt>
      <trkpt lat="45.80303" lon="14.20707">
        <ele>540.4</ele>
        <time>2012-07-30T16:10:16Z</time>
      </trkpt>
      <trkpt lat="45.80304" lon="14.20711">
        <ele>539.92</ele>
        <time>2012-07-30T16:10:17Z</time>
      </trkpt>
      <trkpt lat="45.80306" lon="14.20714">
        <ele>539.44</ele>
        <time>2012-07-30T16:10:18Z</time>
      </trkpt>
      <trkpt lat="45.80306" lon="14.20717">
        <ele>539.44</ele>
        <time>2012-07-30T16:10:19Z</time>
      </trkpt>
      <trkpt lat="45.80327" lon="14.20706">
        <ele>539.44</ele>
        <time>2012-07-30T16:10:29Z</time>
      </trkpt>
      <trkpt lat="45.8033" lon="14.20702">
        <ele>539.44</ele>
        <time>2012-07-30T16:10:30Z</time>
      </trkpt>
      <trkpt lat="45.80334" lon="14.20699">
        <ele>539.44</ele>
        <time>2012-07-30T16:10:31Z</time>
      </trkpt>
      <trkpt lat="45.80337" lon="14.20695">
        <ele>539.44</ele>
        <time>2012-07-30T16:10:32Z</time>
      </trkpt>
      <trkpt lat="45.80341" lon="14.20691">
        <ele>539.44</ele>
        <time>2012-07-30T16:10:33Z</time>
      </trkpt>
      <trkpt lat="45.80356" lon="14.20673">
        <ele>538.48</ele>
        <time>2012-07-30T16:10:38Z</time>
      </trkpt>
      <trkpt lat="45.80369" lon="14.20655">
        <ele>537.99</ele>
        <time>2012-07-30T16:10:42Z</time>
      </trkpt>
      <trkpt lat="45.80381" lon="14.20633">
        <ele>536.55</ele>
        <time>2012-07-30T16:10:51Z</time>
      </trkpt>
      <trkpt lat="45.80383" lon="14.20629">
        <ele>537.99</ele>
        <time>2012-07-30T16:10:53Z</time>
      </trkpt>
      <trkpt lat="45.80402" lon="14.2061">
        <ele>537.03</ele>
        <time>2012-07-30T16:10:57Z</time>
      </trkpt>
      <trkpt lat="45.80422" lon="14.20588">
        <ele>538.48</ele>
        <time>2012-07-30T16:11:02Z</time>
      </trkpt>
      <trkpt lat="45.80425" lon="14.20583">
        <ele>538.48</ele>
        <time>2012-07-30T16:11:03Z</time>
      </trkpt>
      <trkpt lat="45.80428" lon="14.20577">
        <ele>538.96</ele>
        <time>2012-07-30T16:11:04Z</time>
      </trkpt>
      <trkpt lat="45.80428" lon="14.20572">
        <ele>538.96</ele>
        <time>2012-07-30T16:11:05Z</time>
      </trkpt>
      <trkpt lat="45.80425" lon="14.2057">
        <ele>539.44</ele>
        <time>2012-07-30T16:11:06Z</time>
      </trkpt>
      <trkpt lat="45.80421" lon="14.2057">
        <ele>539.44</ele>
        <time>2012-07-30T16:11:07Z</time>
      </trkpt>
      <trkpt lat="45.80417" lon="14.20571">
        <ele>539.92</ele>
        <time>2012-07-30T16:11:08Z</time>
      </trkpt>
      <trkpt lat="45.80408" lon="14.20573">
        <ele>538.96</ele>
        <time>2012-07-30T16:11:10Z</time>
      </trkpt>
      <trkpt lat="45.80375" lon="14.20564">
        <ele>540.4</ele>
        <time>2012-07-30T16:11:19Z</time>
      </trkpt>
      <trkpt lat="45.80364" lon="14.20561">
        <ele>541.84</ele>
        <time>2012-07-30T16:11:22Z</time>
      </trkpt>
      <trkpt lat="45.80357" lon="14.2054">
        <ele>541.36</ele>
        <time>2012-07-30T16:11:26Z</time>
      </trkpt>
      <trkpt lat="45.80351" lon="14.20518">
        <ele>539.92</ele>
        <time>2012-07-30T16:11:36Z</time>
      </trkpt>
      <trkpt lat="45.80351" lon="14.20516">
        <ele>539.92</ele>
        <time>2012-07-30T16:11:41Z</time>
      </trkpt>
      <trkpt lat="45.80347" lon="14.2052">
        <ele>540.88</ele>
        <time>2012-07-30T16:11:47Z</time>
      </trkpt>
      <trkpt lat="45.80354" lon="14.20541">
        <ele>541.36</ele>
        <time>2012-07-30T16:11:52Z</time>
      </trkpt>
      <trkpt lat="45.80371" lon="14.20557">
        <ele>540.4</ele>
        <time>2012-07-30T16:11:56Z</time>
      </trkpt>
      <trkpt lat="45.80392" lon="14.20588">
        <ele>539.92</ele>
        <time>2012-07-30T16:12:04Z</time>
      </trkpt>
      <trkpt lat="45.80384" lon="14.20611">
        <ele>539.92</ele>
        <time>2012-07-30T16:12:09Z</time>
      </trkpt>
      <trkpt lat="45.80376" lon="14.20621">
        <ele>541.36</ele>
        <time>2012-07-30T16:12:12Z</time>
      </trkpt>
      <trkpt lat="45.80352" lon="14.20654">
        <ele>543.76</ele>
        <time>2012-07-30T16:12:20Z</time>
      </trkpt>
      <trkpt lat="45.80349" lon="14.20657">
        <ele>543.76</ele>
        <time>2012-07-30T16:12:32Z</time>
      </trkpt>
      <trkpt lat="45.80344" lon="14.20656">
        <ele>544.24</ele>
        <time>2012-07-30T16:13:01Z</time>
      </trkpt>
      <trkpt lat="45.80345" lon="14.20657">
        <ele>544.24</ele>
        <time>2012-07-30T16:13:32Z</time>
      </trkpt>
      <trkpt lat="45.80342" lon="14.20659">
        <ele>543.28</ele>
        <time>2012-07-30T16:13:41Z</time>
      </trkpt>
      <trkpt lat="45.80342" lon="14.20659">
        <ele>543.28</ele>
        <time>2012-07-30T16:13:42Z</time>
      </trkpt>
      <trkpt lat="45.80358" lon="14.20669">
        <ele>541.36</ele>
        <time>2012-07-30T16:56:36Z</time>
      </trkpt>
      <trkpt lat="45.80357" lon="14.20668">
        <ele>541.36</ele>
        <time>2012-07-30T16:56:37Z</time>
      </trkpt>
      <trkpt lat="45.80348" lon="14.20665">
        <ele>541.36</ele>
        <time>2012-07-30T16:56:50Z</time>
      </trkpt>
      <trkpt lat="45.80348" lon="14.20663">
        <ele>541.36</ele>
        <time>2012-07-30T17:02:30Z</time>
      </trkpt>
      <trkpt lat="45.80349" lon="14.20663">
        <ele>540.88</ele>
        <time>2012-07-30T17:02:31Z</time>
      </trkpt>
      <trkpt lat="45.80363" lon="14.2067">
        <ele>543.28</ele>
        <time>2012-07-30T17:02:42Z</time>
      </trkpt>
      <trkpt lat="45.80366" lon="14.20672">
        <ele>546.65</ele>
        <time>2012-07-30T17:02:48Z</time>
      </trkpt>
      <trkpt lat="45.80364" lon="14.2067">
        <ele>550.49</ele>
        <time>2012-07-30T17:02:54Z</time>
      </trkpt>
      <trkpt lat="45.80363" lon="14.20669">
        <ele>550.97</ele>
        <time>2012-07-30T17:02:58Z</time>
      </trkpt>
      <trkpt lat="45.80359" lon="14.20667">
        <ele>553.86</ele>
        <time>2012-07-30T17:03:08Z</time>
      </trkpt>
      <trkpt lat="45.8036" lon="14.20666">
        <ele>558.66</ele>
        <time>2012-07-30T17:03:16Z</time>
      </trkpt>
      <trkpt lat="45.80331" lon="14.20671">
        <ele>541.36</ele>
        <time>2012-07-30T17:04:56Z</time>
      </trkpt>
      <trkpt lat="45.80337" lon="14.20675">
        <ele>541.36</ele>
        <time>2012-07-30T17:04:57Z</time>
      </trkpt>
      <trkpt lat="45.80346" lon="14.20665">
        <ele>540.88</ele>
        <time>2012-07-30T17:05:04Z</time>
      </trkpt>
      <trkpt lat="45.80349" lon="14.20665">
        <ele>541.84</ele>
        <time>2012-07-30T17:05:36Z</time>
      </trkpt>
      <trkpt lat="45.80352" lon="14.20662">
        <ele>541.84</ele>
        <time>2012-07-30T17:06:12Z</time>
      </trkpt>
      <trkpt lat="45.80352" lon="14.20661">
        <ele>546.65</ele>
        <time>2012-07-30T17:06:17Z</time>
      </trkpt>
      <trkpt lat="45.80352" lon="14.20661">
        <ele>542.32</ele>
        <time>2012-07-30T17:06:18Z</time>
      </trkpt>
      <trkpt lat="45.80354" lon="14.20661">
        <ele>542.32</ele>
        <time>2012-07-30T17:06:39Z</time>
      </trkpt>
      <trkpt lat="45.80353" lon="14.20661">
        <ele>546.65</ele>
        <time>2012-07-30T17:06:48Z</time>
      </trkpt>
      <trkpt lat="45.80352" lon="14.20661">
        <ele>542.32</ele>
        <time>2012-07-30T17:06:49Z</time>
      </trkpt>
      <trkpt lat="45.80352" lon="14.2066">
        <ele>541.84</ele>
        <time>2012-07-30T17:06:56Z</time>
      </trkpt>
      <trkpt lat="45.80362" lon="14.20671">
        <ele>540.4</ele>
        <time>2012-07-30T17:21:51Z</time>
      </trkpt>
      <trkpt lat="45.80362" lon="14.20672">
        <ele>539.92</ele>
        <time>2012-07-30T17:21:52Z</time>
      </trkpt>
      <trkpt lat="45.80352" lon="14.20669">
        <ele>540.4</ele>
        <time>2012-07-30T17:22:06Z</time>
      </trkpt>
      <trkpt lat="45.80348" lon="14.20666">
        <ele>540.4</ele>
        <time>2012-07-30T17:22:35Z</time>
      </trkpt>
      <trkpt lat="45.80347" lon="14.20662">
        <ele>538.48</ele>
        <time>2012-07-30T17:22:36Z</time>
      </trkpt>
      <trkpt lat="45.80347" lon="14.20671">
        <ele>540.4</ele>
        <time>2012-07-30T17:22:57Z</time>
      </trkpt>
      <trkpt lat="45.80354" lon="14.20662">
        <ele>541.84</ele>
        <time>2012-07-30T17:52:26Z</time>
      </trkpt>
      <trkpt lat="45.80354" lon="14.20658">
        <ele>541.84</ele>
        <time>2012-07-30T17:52:27Z</time>
      </trkpt>
      <trkpt lat="45.80345" lon="14.20653">
        <ele>541.84</ele>
        <time>2012-07-30T17:52:51Z</time>
      </trkpt>
      <trkpt lat="45.80348" lon="14.20658">
        <ele>540.88</ele>
        <time>2012-07-30T17:53:18Z</time>
      </trkpt>
      <trkpt lat="45.80349" lon="14.20662">
        <ele>541.36</ele>
        <time>2012-07-30T17:53:47Z</time>
      </trkpt>
      <trkpt lat="45.80353" lon="14.20656">
        <ele>543.28</ele>
        <time>2012-07-30T17:54:04Z</time>
      </trkpt>
      <trkpt lat="45.80352" lon="14.20657">
        <ele>542.8</ele>
        <time>2012-07-30T17:54:08Z</time>
      </trkpt>
      <trkpt lat="45.80355" lon="14.20665">
        <ele>543.28</ele>
        <time>2012-07-30T17:57:14Z</time>
      </trkpt>
      <trkpt lat="45.80354" lon="14.20666">
        <ele>543.28</ele>
        <time>2012-07-30T17:57:17Z</time>
      </trkpt>
      <trkpt lat="45.8035" lon="14.20667">
        <ele>543.28</ele>
        <time>2012-07-30T17:57:38Z</time>
      </trkpt>
      <trkpt lat="45.80349" lon="14.20666">
        <ele>546.65</ele>
        <time>2012-07-30T17:57:50Z</time>
      </trkpt>
      <trkpt lat="45.80349" lon="14.20666">
        <ele>548.09</ele>
        <time>2012-07-30T17:57:52Z</time>
      </trkpt>
      <trkpt lat="45.80348" lon="14.20667">
        <ele>550.97</ele>
        <time>2012-07-30T17:57:55Z</time>
      </trkpt>
      <trkpt lat="45.80347" lon="14.20667">
        <ele>553.38</ele>
        <time>2012-07-30T17:57:59Z</time>
      </trkpt>
      <trkpt lat="45.80347" lon="14.20667">
        <ele>557.22</ele>
        <time>2012-07-30T17:58:04Z</time>
      </trkpt>
      <trkpt lat="45.80347" lon="14.20665">
        <ele>561.07</ele>
        <time>2012-07-30T17:58:11Z</time>
      </trkpt>
      <trkpt lat="45.80347" lon="14.20664">
        <ele>562.99</ele>
        <time>2012-07-30T17:58:16Z</time>
      </trkpt>
      <trkpt lat="45.80347" lon="14.20662">
        <ele>566.35</ele>
        <time>2012-07-30T17:58:28Z</time>
      </trkpt>
      <trkpt lat="45.80347" lon="14.20662">
        <ele>566.83</ele>
        <time>2012-07-30T17:58:30Z</time>
      </trkpt>
      <trkpt lat="45.80347" lon="14.20662">
        <ele>570.2</ele>
        <time>2012-07-30T17:58:49Z</time>
      </trkpt>
      <trkpt lat="45.8035" lon="14.20666">
        <ele>572.6</ele>
        <time>2012-07-30T17:59:17Z</time>
      </trkpt>
      <trkpt lat="45.80352" lon="14.20665">
        <ele>569.72</ele>
        <time>2012-07-30T17:59:40Z</time>
      </trkpt>
      <trkpt lat="45.80352" lon="14.20665">
        <ele>572.12</ele>
        <time>2012-07-30T17:59:43Z</time>
      </trkpt>
      <trkpt lat="45.80351" lon="14.20665">
        <ele>573.08</ele>
        <time>2012-07-30T17:59:51Z</time>
      </trkpt>
      <trkpt lat="45.80351" lon="14.20665">
        <ele>571.64</ele>
        <time>2012-07-30T17:59:53Z</time>
      </trkpt>
      <trkpt lat="45.80351" lon="14.20666">
        <ele>575.01</ele>
        <time>2012-07-30T17:59:56Z</time>
      </trkpt>
      <trkpt lat="45.80351" lon="14.20666">
        <ele>571.64</ele>
        <time>2012-07-30T17:59:57Z</time>
      </trkpt>
      <trkpt lat="45.80352" lon="14.20664">
        <ele>571.64</ele>
        <time>2012-07-30T18:00:20Z</time>
      </trkpt>
      <trkpt lat="45.80352" lon="14.20663">
        <ele>568.28</ele>
        <time>2012-07-30T18:00:39Z</time>
      </trkpt>
      <trkpt lat="45.80352" lon="14.20663">
        <ele>572.12</ele>
        <time>2012-07-30T18:00:40Z</time>
      </trkpt>
      <trkpt lat="45.80352" lon="14.20663">
        <ele>571.16</ele>
        <time>2012-07-30T18:01:14Z</time>
      </trkpt>
      <trkpt lat="45.80353" lon="14.20665">
        <ele>567.8</ele>
        <time>2012-07-30T18:01:37Z</time>
      </trkpt>
      <trkpt lat="45.80353" lon="14.20665">
        <ele>571.64</ele>
        <time>2012-07-30T18:01:38Z</time>
      </trkpt>
      <trkpt lat="45.80353" lon="14.20665">
        <ele>568.76</ele>
        <time>2012-07-30T18:01:45Z</time>
      </trkpt>
      <trkpt lat="45.80353" lon="14.20664">
        <ele>572.6</ele>
        <time>2012-07-30T18:01:46Z</time>
      </trkpt>
      <trkpt lat="45.80353" lon="14.20663">
        <ele>571.64</ele>
        <time>2012-07-30T18:02:16Z</time>
      </trkpt>
      <trkpt lat="45.80353" lon="14.20664">
        <ele>570.68</ele>
        <time>2012-07-30T18:02:38Z</time>
      </trkpt>
      <trkpt lat="45.80353" lon="14.20664">
        <ele>572.6</ele>
        <time>2012-07-30T18:02:59Z</time>
      </trkpt>
      <trkpt lat="45.80352" lon="14.20666">
        <ele>572.12</ele>
        <time>2012-07-30T18:03:23Z</time>
      </trkpt>
      <trkpt lat="45.80353" lon="14.20667">
        <ele>571.16</ele>
        <time>2012-07-30T18:03:44Z</time>
      </trkpt>
      <trkpt lat="45.80353" lon="14.20666">
        <ele>571.64</ele>
        <time>2012-07-30T18:03:53Z</time>
      </trkpt>
      <trkpt lat="45.80353" lon="14.20664">
        <ele>571.16</ele>
        <time>2012-07-30T18:04:07Z</time>
      </trkpt>
      <trkpt lat="45.80353" lon="14.20664">
        <ele>570.68</ele>
        <time>2012-07-30T18:04:44Z</time>
      </trkpt>
      <trkpt lat="45.80353" lon="14.20663">
        <ele>569.24</ele>
        <time>2012-07-30T18:05:17Z</time>
      </trkpt>
      <trkpt lat="45.80353" lon="14.20663">
        <ele>570.68</ele>
        <time>2012-07-30T18:05:41Z</time>
      </trkpt>
      <trkpt lat="45.80353" lon="14.20663">
        <ele>571.16</ele>
        <time>2012-07-30T18:06:10Z</time>
      </trkpt>
      <trkpt lat="45.80354" lon="14.20664">
        <ele>571.64</ele>
        <time>2012-07-30T18:06:32Z</time>
      </trkpt>
      <trkpt lat="45.80354" lon="14.20664">
        <ele>570.68</ele>
        <time>2012-07-30T18:06:59Z</time>
      </trkpt>
      <trkpt lat="45.80354" lon="14.20663">
        <ele>569.24</ele>
        <time>2012-07-30T18:07:06Z</time>
      </trkpt>
      <trkpt lat="45.80354" lon="14.20664">
        <ele>570.68</ele>
        <time>2012-07-30T18:07:08Z</time>
      </trkpt>
      <trkpt lat="45.80354" lon="14.20664">
        <ele>570.68</ele>
        <time>2012-07-30T18:07:36Z</time>
      </trkpt>
      <trkpt lat="45.80353" lon="14.20661">
        <ele>571.64</ele>
        <time>2012-07-30T18:07:59Z</time>
      </trkpt>
      <trkpt lat="45.80352" lon="14.20661">
        <ele>569.72</ele>
        <time>2012-07-30T18:08:24Z</time>
      </trkpt>
      <trkpt lat="45.80352" lon="14.2066">
        <ele>571.64</ele>
        <time>2012-07-30T18:08:51Z</time>
      </trkpt>
      <trkpt lat="45.80352" lon="14.2066">
        <ele>570.68</ele>
        <time>2012-07-30T18:08:55Z</time>
      </trkpt>
      <trkpt lat="45.80351" lon="14.2066">
        <ele>570.2</ele>
        <time>2012-07-30T18:09:00Z</time>
      </trkpt>
      <trkpt lat="45.80356" lon="14.2065">
        <ele>570.2</ele>
        <time>2012-07-30T18:09:20Z</time>
      </trkpt>
      <trkpt lat="45.80358" lon="14.20652">
        <ele>569.72</ele>
        <time>2012-07-30T18:09:21Z</time>
      </trkpt>
      <trkpt lat="45.80354" lon="14.20661">
        <ele>569.72</ele>
        <time>2012-07-30T18:09:30Z</time>
      </trkpt>
      <trkpt lat="45.80361" lon="14.20646">
        <ele>570.2</ele>
        <time>2012-07-30T18:11:18Z</time>
      </trkpt>
      <trkpt lat="45.80361" lon="14.20647">
        <ele>569.72</ele>
        <time>2012-07-30T18:11:19Z</time>
      </trkpt>
      <trkpt lat="45.80351" lon="14.20658">
        <ele>570.2</ele>
        <time>2012-07-30T18:11:47Z</time>
      </trkpt>
      <trkpt lat="45.80344" lon="14.20663">
        <ele>570.2</ele>
        <time>2012-07-30T18:12:12Z</time>
      </trkpt>
      <trkpt lat="45.80348" lon="14.20656">
        <ele>567.8</ele>
        <time>2012-07-30T18:12:35Z</time>
      </trkpt>
      <trkpt lat="45.80348" lon="14.20656">
        <ele>571.16</ele>
        <time>2012-07-30T18:12:36Z</time>
      </trkpt>
      <trkpt lat="45.80346" lon="14.20643">
        <ele>568.28</ele>
        <time>2012-07-30T18:21:29Z</time>
      </trkpt>
      <trkpt lat="45.80343" lon="14.20655">
        <ele>568.76</ele>
        <time>2012-07-30T18:21:41Z</time>
      </trkpt>
      <trkpt lat="45.80344" lon="14.20664">
        <ele>568.76</ele>
        <time>2012-07-30T18:22:15Z</time>
      </trkpt>
      <trkpt lat="45.80347" lon="14.20666">
        <ele>567.8</ele>
        <time>2012-07-30T18:22:33Z</time>
      </trkpt>
      <trkpt lat="45.80347" lon="14.20663">
        <ele>569.72</ele>
        <time>2012-07-30T18:22:50Z</time>
      </trkpt>
      <trkpt lat="45.80347" lon="14.20664">
        <ele>569.72</ele>
        <time>2012-07-30T18:23:04Z</time>
      </trkpt>
    </trkseg>
  </trk>
</gpx>